Wetterdaten: Freitag, 04.08.2017
Datum Zeit Temp. A. Temp. A. max Feuchte A. Luftdruck Regen Wind Richtung Richtung Sonnenschein ET UV Solar Taupunkt Windchill Windböen
04.08.2017 00:00 21,1 °C 21,1 °C 81 % 1011,9 hPa 0,0 mm 2,0 km/h (1 Bft) SW 215 ° 0 min 0,000 mm 0,0 UV-I 0 W/m² 17,7 °C 21,1 °C 3,2 km/h (1 Bft)
04.08.2017 00:01 21,1 °C 21,1 °C 81 % 1011,9 hPa 0,0 mm 1,7 km/h (1 Bft) SW 215 ° 0 min 0,000 mm 0,0 UV-I 0 W/m² 17,7 °C 21,1 °C 4,8 km/h (1 Bft)
04.08.2017 00:02 21,2 °C 21,2 °C 81 % 1011,8 hPa 0,0 mm 2,1 km/h (1 Bft) SW 215 ° 0 min 0,000 mm 0,0 UV-I 0 W/m² 17,8 °C 21,2 °C 3,2 km/h (1 Bft)
04.08.2017 00:04 21,3 °C 21,3 °C 80 % 1011,9 hPa 0,0 mm 2,4 km/h (1 Bft) S-SO 165 ° 0 min 0,000 mm 0,0 UV-I 0 W/m² 17,7 °C 21,3 °C 6,4 km/h (2 Bft)
04.08.2017 00:05 21,3 °C 21,3 °C 80 % 1011,9 hPa 0,0 mm 1,7 km/h (1 Bft) S-SO 165 ° 0 min 0,000 mm 0,0 UV-I 0 W/m² 17,7 °C 21,3 °C 3,2 km/h (1 Bft)
04.08.2017 00:06 21,3 °C 21,3 °C 80 % 1011,9 hPa 0,0 mm 1,1 km/h (1 Bft) S-SO 166 ° 0 min 0,000 mm 0,0 UV-I 0 W/m² 17,7 °C 21,3 °C 6,4 km/h (2 Bft)
04.08.2017 00:07 21,3 °C 21,3 °C 80 % 1011,9 hPa 0,0 mm 2,5 km/h (1 Bft) S-SO 166 ° 0 min 0,000 mm 0,0 UV-I 0 W/m² 17,7 °C 21,3 °C 6,4 km/h (2 Bft)
04.08.2017 00:08 21,2 °C 21,3 °C 81 % 1011,9 hPa 0,0 mm 2,3 km/h (1 Bft) S-SO 166 ° 0 min 0,000 mm 0,0 UV-I 0 W/m² 17,8 °C 21,2 °C 4,8 km/h (1 Bft)
04.08.2017 00:09 21,1 °C 21,2 °C 81 % 1011,9 hPa 0,0 mm 1,3 km/h (1 Bft) S-SO 166 ° 0 min 0,000 mm 0,0 UV-I 0 W/m² 17,7 °C 21,1 °C 4,8 km/h (1 Bft)
04.08.2017 00:10 21,1 °C 21,1 °C 81 % 1011,9 hPa 0,0 mm 2,7 km/h (1 Bft) S-SO 166 ° 0 min 0,000 mm 0,0 UV-I 0 W/m² 17,7 °C 21,1 °C 6,4 km/h (2 Bft)
04.08.2017 00:11 21,1 °C 21,1 °C 81 % 1011,9 hPa 0,0 mm 3,4 km/h (1 Bft) S-SO 166 ° 0 min 0,000 mm 0,0 UV-I 0 W/m² 17,7 °C 21,1 °C 6,4 km/h (2 Bft)
04.08.2017 00:12 21,1 °C 21,1 °C 81 % 1011,9 hPa 0,0 mm 3,2 km/h (1 Bft) S-SO 166 ° 0 min 0,000 mm 0,0 UV-I 0 W/m² 17,7 °C 21,1 °C 4,8 km/h (1 Bft)
04.08.2017 00:13 21,1 °C 21,1 °C 81 % 1011,9 hPa 0,0 mm 4,6 km/h (1 Bft) S 171 ° 0 min 0,000 mm 0,0 UV-I 0 W/m² 17,7 °C 21,1 °C 8,0 km/h (2 Bft)
04.08.2017 00:14 21,1 °C 21,1 °C 81 % 1011,9 hPa 0,0 mm 7,2 km/h (2 Bft) S 185 ° 0 min 0,000 mm 0,0 UV-I 0 W/m² 17,7 °C 21,1 °C 12,9 km/h (3 Bft)
04.08.2017 00:15 21,1 °C 21,1 °C 81 % 1011,9 hPa 0,0 mm 2,7 km/h (1 Bft) S 186 ° 0 min 0,000 mm 0,0 UV-I 0 W/m² 17,7 °C 21,1 °C 4,8 km/h (1 Bft)
04.08.2017 00:16 21,2 °C 21,2 °C 80 % 1011,9 hPa 0,0 mm 6,8 km/h (2 Bft) S-SW 199 ° 0 min 0,000 mm 0,0 UV-I 0 W/m² 17,6 °C 21,2 °C 9,7 km/h (2 Bft)
04.08.2017 00:17 21,2 °C 21,2 °C 81 % 1011,9 hPa 0,0 mm 4,8 km/h (1 Bft) S 176 ° 0 min 0,000 mm 0,0 UV-I 0 W/m² 17,8 °C 21,2 °C 8,0 km/h (2 Bft)
04.08.2017 00:18 21,2 °C 21,2 °C 81 % 1011,9 hPa 0,0 mm 4,6 km/h (1 Bft) S-SW 195 ° 0 min 0,000 mm 0,0 UV-I 0 W/m² 17,8 °C 21,2 °C 6,4 km/h (2 Bft)
04.08.2017 00:19 21,3 °C 21,3 °C 80 % 1012,0 hPa 0,0 mm 4,5 km/h (1 Bft) S-SW 200 ° 0 min 0,000 mm 0,0 UV-I 0 W/m² 17,7 °C 21,3 °C 6,4 km/h (2 Bft)
04.08.2017 00:20 21,4 °C 21,4 °C 80 % 1011,9 hPa 0,0 mm 2,8 km/h (1 Bft) S-SW 200 ° 0 min 0,000 mm 0,0 UV-I 0 W/m² 17,8 °C 21,4 °C 6,4 km/h (2 Bft)
04.08.2017 00:21 21,5 °C 21,5 °C 79 % 1011,9 hPa 0,0 mm 2,7 km/h (1 Bft) S-SW 200 ° 0 min 0,000 mm 0,0 UV-I 0 W/m² 17,7 °C 21,5 °C 6,4 km/h (2 Bft)
04.08.2017 00:22 21,6 °C 21,6 °C 79 % 1011,9 hPa 0,0 mm 3,7 km/h (1 Bft) S-SW 199 ° 0 min 0,000 mm 0,0 UV-I 0 W/m² 17,8 °C 21,6 °C 4,8 km/h (1 Bft)
04.08.2017 00:23 21,6 °C 21,6 °C 79 % 1011,9 hPa 0,0 mm 3,0 km/h (1 Bft) S-SW 199 ° 0 min 0,000 mm 0,0 UV-I 0 W/m² 17,8 °C 21,6 °C 3,2 km/h (1 Bft)
04.08.2017 00:24 21,6 °C 21,6 °C 79 % 1011,9 hPa 0,0 mm 2,5 km/h (1 Bft) S-SW 198 ° 0 min 0,000 mm 0,0 UV-I 0 W/m² 17,8 °C 21,6 °C 4,8 km/h (1 Bft)
04.08.2017 00:25 21,6 °C 21,6 °C 79 % 1011,9 hPa 0,0 mm 3,4 km/h (1 Bft) S-SW 198 ° 0 min 0,000 mm 0,0 UV-I 0 W/m² 17,8 °C 21,6 °C 4,8 km/h (1 Bft)
04.08.2017 00:26 21,5 °C 21,6 °C 79 % 1011,9 hPa 0,0 mm 3,8 km/h (1 Bft) S-SW 198 ° 0 min 0,000 mm 0,0 UV-I 0 W/m² 17,7 °C 21,5 °C 4,8 km/h (1 Bft)
04.08.2017 00:27 21,4 °C 21,5 °C 80 % 1011,9 hPa 0,0 mm 3,2 km/h (1 Bft) S-SW 198 ° 0 min 0,000 mm 0,0 UV-I 0 W/m² 17,8 °C 21,4 °C 4,8 km/h (1 Bft)
04.08.2017 00:28 21,4 °C 21,4 °C 81 % 1011,9 hPa 0,0 mm 1,8 km/h (1 Bft) S-SW 198 ° 0 min 0,000 mm 0,0 UV-I 0 W/m² 18,0 °C 21,4 °C 4,8 km/h (1 Bft)
04.08.2017 00:29 21,3 °C 21,4 °C 81 % 1011,9 hPa 0,0 mm 3,3 km/h (1 Bft) S-SW 198 ° 0 min 0,000 mm 0,0 UV-I 0 W/m² 17,9 °C 21,3 °C 4,8 km/h (1 Bft)
04.08.2017 00:30 21,3 °C 21,3 °C 81 % 1011,9 hPa 0,0 mm 3,1 km/h (1 Bft) S-SW 198 ° 0 min 0,000 mm 0,0 UV-I 0 W/m² 17,9 °C 21,3 °C 6,4 km/h (2 Bft)
04.08.2017 00:31 21,2 °C 21,3 °C 81 % 1011,9 hPa 0,0 mm 4,4 km/h (1 Bft) SW 223 ° 0 min 0,000 mm 0,0 UV-I 0 W/m² 17,8 °C 21,2 °C 4,8 km/h (1 Bft)
04.08.2017 00:32 21,3 °C 21,3 °C 81 % 1012,0 hPa 0,0 mm 4,4 km/h (1 Bft) S 182 ° 0 min 0,000 mm 0,0 UV-I 0 W/m² 17,9 °C 21,3 °C 6,4 km/h (2 Bft)
04.08.2017 00:33 21,3 °C 21,3 °C 81 % 1012,0 hPa 0,0 mm 3,9 km/h (1 Bft) S-SW 194 ° 0 min 0,000 mm 0,0 UV-I 0 W/m² 17,9 °C 21,3 °C 6,4 km/h (2 Bft)
04.08.2017 00:34 21,3 °C 21,3 °C 81 % 1012,0 hPa 0,0 mm 4,8 km/h (1 Bft) S-SW 194 ° 0 min 0,000 mm 0,0 UV-I 0 W/m² 17,9 °C 21,3 °C 6,4 km/h (2 Bft)
04.08.2017 00:35 21,3 °C 21,3 °C 80 % 1011,9 hPa 0,0 mm 4,0 km/h (1 Bft) S-SW 201 ° 0 min 0,000 mm 0,0 UV-I 0 W/m² 17,7 °C 21,3 °C 6,4 km/h (2 Bft)
04.08.2017 00:36 21,3 °C 21,3 °C 81 % 1011,9 hPa 0,0 mm 3,0 km/h (1 Bft) S-SW 201 ° 0 min 0,000 mm 0,0 UV-I 0 W/m² 17,9 °C 21,3 °C 4,8 km/h (1 Bft)
04.08.2017 00:37 21,4 °C 21,4 °C 80 % 1011,9 hPa 0,0 mm 3,9 km/h (1 Bft) S-SW 201 ° 0 min 0,000 mm 0,0 UV-I 0 W/m² 17,8 °C 21,4 °C 4,8 km/h (1 Bft)
04.08.2017 00:38 21,4 °C 21,4 °C 80 % 1012,0 hPa 0,0 mm 4,8 km/h (1 Bft) S-SW 209 ° 0 min 0,000 mm 0,0 UV-I 0 W/m² 17,8 °C 21,4 °C 8,0 km/h (2 Bft)
04.08.2017 00:39 21,4 °C 21,4 °C 80 % 1011,9 hPa 0,0 mm 4,9 km/h (1 Bft) S-SW 196 ° 0 min 0,000 mm 0,0 UV-I 0 W/m² 17,8 °C 21,4 °C 8,0 km/h (2 Bft)
04.08.2017 00:40 21,5 °C 21,6 °C 79 % 1011,9 hPa 0,0 mm 4,0 km/h (1 Bft) S-SW 192 ° 0 min 0,000 mm 0,0 UV-I 0 W/m² 17,7 °C 21,5 °C 6,4 km/h (2 Bft)
04.08.2017 00:41 21,6 °C 21,6 °C 78 % 1011,9 hPa 0,0 mm 7,0 km/h (2 Bft) S-SW 206 ° 0 min 0,000 mm 0,0 UV-I 0 W/m² 17,6 °C 21,6 °C 9,7 km/h (2 Bft)
04.08.2017 00:42 21,7 °C 21,7 °C 79 % 1011,9 hPa 0,0 mm 4,7 km/h (1 Bft) S-SW 192 ° 0 min 0,000 mm 0,0 UV-I 0 W/m² 17,9 °C 21,7 °C 8,0 km/h (2 Bft)
04.08.2017 00:43 21,8 °C 21,8 °C 79 % 1011,9 hPa 0,0 mm 5,4 km/h (1 Bft) S-SW 196 ° 0 min 0,000 mm 0,0 UV-I 0 W/m² 18,0 °C 21,8 °C 6,4 km/h (2 Bft)
04.08.2017 00:44 21,8 °C 21,8 °C 79 % 1011,9 hPa 0,0 mm 4,4 km/h (1 Bft) S-SW 200 ° 0 min 0,000 mm 0,0 UV-I 0 W/m² 18,0 °C 21,8 °C 6,4 km/h (2 Bft)
04.08.2017 00:45 21,8 °C 21,8 °C 79 % 1011,9 hPa 0,0 mm 4,3 km/h (1 Bft) S 186 ° 0 min 0,000 mm 0,0 UV-I 0 W/m² 18,0 °C 21,8 °C 8,0 km/h (2 Bft)
04.08.2017 00:46 21,8 °C 21,8 °C 79 % 1011,9 hPa 0,0 mm 7,2 km/h (2 Bft) S-SW 198 ° 0 min 0,000 mm 0,0 UV-I 0 W/m² 18,0 °C 21,8 °C 9,7 km/h (2 Bft)
04.08.2017 00:47 21,8 °C 21,8 °C 79 % 1011,9 hPa 0,0 mm 6,4 km/h (2 Bft) S 191 ° 0 min 0,000 mm 0,0 UV-I 0 W/m² 18,0 °C 21,8 °C 9,7 km/h (2 Bft)
04.08.2017 00:48 21,8 °C 21,8 °C 78 % 1011,8 hPa 0,0 mm 7,6 km/h (2 Bft) S-SW 193 ° 0 min 0,000 mm 0,0 UV-I 0 W/m² 17,8 °C 21,8 °C 9,7 km/h (2 Bft)
04.08.2017 00:49 21,8 °C 21,8 °C 79 % 1011,8 hPa 0,0 mm 6,0 km/h (2 Bft) S 190 ° 0 min 0,000 mm 0,0 UV-I 0 W/m² 18,0 °C 21,8 °C 8,0 km/h (2 Bft)
04.08.2017 00:50 21,8 °C 21,8 °C 80 % 1011,8 hPa 0,0 mm 2,6 km/h (1 Bft) S 175 ° 0 min 0,000 mm 0,0 UV-I 0 W/m² 18,2 °C 21,8 °C 4,8 km/h (1 Bft)
04.08.2017 00:51 21,7 °C 21,8 °C 80 % 1011,7 hPa 0,0 mm 3,4 km/h (1 Bft) S 176 ° 0 min 0,000 mm 0,0 UV-I 0 W/m² 18,1 °C 21,7 °C 4,8 km/h (1 Bft)
04.08.2017 00:52 21,6 °C 21,7 °C 81 % 1011,7 hPa 0,0 mm 3,8 km/h (1 Bft) S 176 ° 0 min 0,000 mm 0,0 UV-I 0 W/m² 18,2 °C 21,6 °C 4,8 km/h (1 Bft)
04.08.2017 00:53 21,6 °C 21,6 °C 81 % 1011,7 hPa 0,0 mm 3,9 km/h (1 Bft) S 176 ° 0 min 0,000 mm 0,0 UV-I 0 W/m² 18,2 °C 21,6 °C 4,8 km/h (1 Bft)
04.08.2017 00:54 21,4 °C 21,6 °C 81 % 1011,9 hPa 0,0 mm 4,8 km/h (1 Bft) S 188 ° 0 min 0,000 mm 0,0 UV-I 0 W/m² 18,0 °C 21,4 °C 6,4 km/h (2 Bft)
04.08.2017 00:55 21,4 °C 21,4 °C 81 % 1011,9 hPa 0,0 mm 5,3 km/h (1 Bft) S 189 ° 0 min 0,000 mm 0,0 UV-I 0 W/m² 18,0 °C 21,4 °C 6,4 km/h (2 Bft)
04.08.2017 00:56 21,3 °C 21,4 °C 82 % 1011,9 hPa 0,0 mm 4,1 km/h (1 Bft) S 189 ° 0 min 0,000 mm 0,0 UV-I 0 W/m² 18,1 °C 21,3 °C 4,8 km/h (1 Bft)
04.08.2017 00:57 21,3 °C 21,3 °C 82 % 1011,9 hPa 0,0 mm 3,2 km/h (1 Bft) S 189 ° 0 min 0,000 mm 0,0 UV-I 0 W/m² 18,1 °C 21,3 °C 4,8 km/h (1 Bft)
04.08.2017 00:58 21,3 °C 21,3 °C 81 % 1011,9 hPa 0,0 mm 1,9 km/h (1 Bft) S 189 ° 0 min 0,000 mm 0,0 UV-I 0 W/m² 17,9 °C 21,3 °C 3,2 km/h (1 Bft)
04.08.2017 00:59 21,3 °C 21,3 °C 81 % 1011,8 hPa 0,0 mm 1,0 km/h (0 Bft) S 189 ° 0 min 0,000 mm 0,0 UV-I 0 W/m² 17,9 °C 21,3 °C 1,6 km/h (1 Bft)
04.08.2017 01:00 21,3 °C 21,3 °C 81 % 1011,8 hPa 0,0 mm 1,1 km/h (1 Bft) S 189 ° 0 min 0,025 mm 0,0 UV-I 0 W/m² 17,9 °C 21,3 °C 3,2 km/h (1 Bft)
04.08.2017 01:01 21,3 °C 21,4 °C 82 % 1011,8 hPa 0,0 mm 0,5 km/h (0 Bft) S 189 ° 0 min 0,000 mm 0,0 UV-I 0 W/m² 18,1 °C 21,3 °C 1,6 km/h (1 Bft)
04.08.2017 01:02 21,2 °C 21,3 °C 83 % 1011,8 hPa 0,0 mm 0,5 km/h (0 Bft) S 189 ° 0 min 0,000 mm 0,0 UV-I 0 W/m² 18,2 °C 21,2 °C 1,6 km/h (1 Bft)
04.08.2017 01:03 21,2 °C 21,2 °C 83 % 1011,8 hPa 0,0 mm 1,3 km/h (1 Bft) S 189 ° 0 min 0,000 mm 0,0 UV-I 0 W/m² 18,2 °C 21,2 °C 3,2 km/h (1 Bft)
04.08.2017 01:04 21,2 °C 21,2 °C 82 % 1011,9 hPa 0,0 mm 0,1 km/h (0 Bft) S 189 ° 0 min 0,000 mm 0,0 UV-I 0 W/m² 18,0 °C 21,2 °C 1,6 km/h (1 Bft)
04.08.2017 01:05 21,1 °C 21,2 °C 83 % 1011,9 hPa 0,0 mm 2,1 km/h (1 Bft) S 189 ° 0 min 0,000 mm 0,0 UV-I 0 W/m² 18,1 °C 21,1 °C 3,2 km/h (1 Bft)
04.08.2017 01:06 21,1 °C 21,1 °C 82 % 1011,9 hPa 0,0 mm 2,7 km/h (1 Bft) S 188 ° 0 min 0,000 mm 0,0 UV-I 0 W/m² 17,9 °C 21,1 °C 3,2 km/h (1 Bft)
04.08.2017 01:07 21,1 °C 21,1 °C 83 % 1011,9 hPa 0,0 mm 3,4 km/h (1 Bft) S 188 ° 0 min 0,000 mm 0,0 UV-I 0 W/m² 18,1 °C 21,1 °C 4,8 km/h (1 Bft)
04.08.2017 01:08 21,1 °C 21,1 °C 83 % 1011,9 hPa 0,0 mm 3,6 km/h (1 Bft) S-SW 200 ° 0 min 0,000 mm 0,0 UV-I 0 W/m² 18,1 °C 21,1 °C 4,8 km/h (1 Bft)
04.08.2017 01:09 21,1 °C 21,1 °C 83 % 1011,9 hPa 0,0 mm 3,9 km/h (1 Bft) S-SW 200 ° 0 min 0,000 mm 0,0 UV-I 0 W/m² 18,1 °C 21,1 °C 4,8 km/h (1 Bft)
04.08.2017 01:10 21,1 °C 21,1 °C 82 % 1011,9 hPa 0,0 mm 5,4 km/h (1 Bft) S-SW 200 ° 0 min 0,000 mm 0,0 UV-I 0 W/m² 17,9 °C 21,1 °C 6,4 km/h (2 Bft)
04.08.2017 01:11 21,1 °C 21,1 °C 83 % 1011,8 hPa 0,0 mm 4,4 km/h (1 Bft) S-SW 200 ° 0 min 0,000 mm 0,0 UV-I 0 W/m² 18,1 °C 21,1 °C 4,8 km/h (1 Bft)
04.08.2017 01:12 21,1 °C 21,1 °C 82 % 1011,8 hPa 0,0 mm 6,4 km/h (2 Bft) S-SW 195 ° 0 min 0,000 mm 0,0 UV-I 0 W/m² 17,9 °C 21,1 °C 8,0 km/h (2 Bft)
04.08.2017 01:13 21,1 °C 21,1 °C 83 % 1011,8 hPa 0,0 mm 8,0 km/h (2 Bft) S 186 ° 0 min 0,000 mm 0,0 UV-I 0 W/m² 18,1 °C 21,1 °C 9,7 km/h (2 Bft)
04.08.2017 01:14 21,0 °C 21,1 °C 82 % 1011,8 hPa 0,0 mm 3,4 km/h (1 Bft) S 186 ° 0 min 0,000 mm 0,0 UV-I 0 W/m² 17,8 °C 21,0 °C 6,4 km/h (2 Bft)
04.08.2017 01:15 21,1 °C 21,1 °C 82 % 1011,8 hPa 0,0 mm 3,7 km/h (1 Bft) S 186 ° 0 min 0,000 mm 0,0 UV-I 0 W/m² 17,9 °C 21,1 °C 6,4 km/h (2 Bft)
04.08.2017 01:16 21,0 °C 21,1 °C 83 % 1011,8 hPa 0,0 mm 3,6 km/h (1 Bft) S 186 ° 0 min 0,000 mm 0,0 UV-I 0 W/m² 18,0 °C 21,0 °C 4,8 km/h (1 Bft)
04.08.2017 01:17 20,8 °C 21,0 °C 83 % 1011,8 hPa 0,0 mm 3,7 km/h (1 Bft) S 186 ° 0 min 0,000 mm 0,0 UV-I 0 W/m² 17,8 °C 20,8 °C 4,8 km/h (1 Bft)
04.08.2017 01:18 20,8 °C 20,8 °C 83 % 1011,8 hPa 0,0 mm 2,6 km/h (1 Bft) S 186 ° 0 min 0,000 mm 0,0 UV-I 0 W/m² 17,8 °C 20,8 °C 4,8 km/h (1 Bft)
04.08.2017 01:19 20,7 °C 20,8 °C 83 % 1011,7 hPa 0,0 mm 4,4 km/h (1 Bft) S 186 ° 0 min 0,000 mm 0,0 UV-I 0 W/m² 17,7 °C 20,7 °C 4,8 km/h (1 Bft)
04.08.2017 01:20 20,7 °C 20,7 °C 84 % 1011,7 hPa 0,0 mm 4,0 km/h (1 Bft) S 186 ° 0 min 0,000 mm 0,0 UV-I 0 W/m² 17,9 °C 20,7 °C 4,8 km/h (1 Bft)
04.08.2017 01:21 20,7 °C 20,7 °C 84 % 1011,7 hPa 0,0 mm 2,7 km/h (1 Bft) S 186 ° 0 min 0,000 mm 0,0 UV-I 0 W/m² 17,9 °C 20,7 °C 4,8 km/h (1 Bft)
04.08.2017 01:22 20,7 °C 20,7 °C 84 % 1011,8 hPa 0,0 mm 1,5 km/h (1 Bft) S 186 ° 0 min 0,000 mm 0,0 UV-I 0 W/m² 17,9 °C 20,7 °C 3,2 km/h (1 Bft)
04.08.2017 01:23 20,7 °C 20,7 °C 84 % 1011,7 hPa 0,0 mm 0,8 km/h (0 Bft) S 186 ° 0 min 0,000 mm 0,0 UV-I 0 W/m² 17,9 °C 20,7 °C 3,2 km/h (1 Bft)
04.08.2017 01:24 20,7 °C 20,7 °C 84 % 1011,7 hPa 0,0 mm 0,0 km/h (0 Bft) S 186 ° 0 min 0,000 mm 0,0 UV-I 0 W/m² 17,9 °C 20,7 °C 0,0 km/h (0 Bft)
04.08.2017 01:25 20,8 °C 20,8 °C 84 % 1011,7 hPa 0,0 mm 0,0 km/h (0 Bft) S 186 ° 0 min 0,000 mm 0,0 UV-I 0 W/m² 18,0 °C 20,8 °C 0,0 km/h (0 Bft)
04.08.2017 01:26 20,7 °C 20,8 °C 85 % 1011,7 hPa 0,0 mm 0,0 km/h (0 Bft) S 186 ° 0 min 0,000 mm 0,0 UV-I 0 W/m² 18,1 °C 20,7 °C 0,0 km/h (0 Bft)
04.08.2017 01:27 20,6 °C 20,7 °C 85 % 1011,7 hPa 0,0 mm 0,0 km/h (0 Bft) S 186 ° 0 min 0,000 mm 0,0 UV-I 0 W/m² 18,0 °C 20,6 °C 0,0 km/h (0 Bft)
04.08.2017 01:28 20,6 °C 20,7 °C 85 % 1011,7 hPa 0,0 mm 0,0 km/h (0 Bft) S 186 ° 0 min 0,000 mm 0,0 UV-I 0 W/m² 18,0 °C 20,6 °C 0,0 km/h (0 Bft)
04.08.2017 01:29 20,6 °C 20,6 °C 85 % 1011,7 hPa 0,0 mm 0,0 km/h (0 Bft) S 186 ° 0 min 0,000 mm 0,0 UV-I 0 W/m² 18,0 °C 20,6 °C 0,0 km/h (0 Bft)
04.08.2017 01:30 20,6 °C 20,6 °C 85 % 1011,7 hPa 0,0 mm 0,0 km/h (0 Bft) S 186 ° 0 min 0,000 mm 0,0 UV-I 0 W/m² 18,0 °C 20,6 °C 0,0 km/h (0 Bft)
04.08.2017 01:31 20,6 °C 20,6 °C 85 % 1011,7 hPa 0,0 mm 0,0 km/h (0 Bft) S 186 ° 0 min 0,000 mm 0,0 UV-I 0 W/m² 18,0 °C 20,6 °C 0,0 km/h (0 Bft)
04.08.2017 01:32 20,6 °C 20,6 °C 85 % 1011,8 hPa 0,0 mm 0,0 km/h (0 Bft) S 186 ° 0 min 0,000 mm 0,0 UV-I 0 W/m² 18,0 °C 20,6 °C 0,0 km/h (0 Bft)
04.08.2017 01:33 20,6 °C 20,6 °C 85 % 1011,8 hPa 0,0 mm 0,0 km/h (0 Bft) S 186 ° 0 min 0,000 mm 0,0 UV-I 0 W/m² 18,0 °C 20,6 °C 0,0 km/h (0 Bft)
04.08.2017 01:34 20,6 °C 20,6 °C 85 % 1011,8 hPa 0,0 mm 0,0 km/h (0 Bft) S 186 ° 0 min 0,000 mm 0,0 UV-I 0 W/m² 18,0 °C 20,6 °C 0,0 km/h (0 Bft)
04.08.2017 01:35 20,6 °C 20,6 °C 84 % 1011,8 hPa 0,0 mm 0,0 km/h (0 Bft) S 186 ° 0 min 0,000 mm 0,0 UV-I 0 W/m² 17,8 °C 20,6 °C 0,0 km/h (0 Bft)
04.08.2017 01:36 20,5 °C 20,6 °C 85 % 1011,8 hPa 0,0 mm 0,0 km/h (0 Bft) S 186 ° 0 min 0,000 mm 0,0 UV-I 0 W/m² 17,9 °C 20,5 °C 0,0 km/h (0 Bft)
04.08.2017 01:37 20,4 °C 20,5 °C 85 % 1011,8 hPa 0,0 mm 0,0 km/h (0 Bft) S 186 ° 0 min 0,000 mm 0,0 UV-I 0 W/m² 17,8 °C 20,4 °C 0,0 km/h (0 Bft)
04.08.2017 01:38 20,4 °C 20,4 °C 85 % 1011,7 hPa 0,0 mm 0,0 km/h (0 Bft) S 186 ° 0 min 0,000 mm 0,0 UV-I 0 W/m² 17,8 °C 20,4 °C 0,0 km/h (0 Bft)
04.08.2017 01:39 20,5 °C 20,5 °C 84 % 1011,7 hPa 0,0 mm 0,0 km/h (0 Bft) S 186 ° 0 min 0,000 mm 0,0 UV-I 0 W/m² 17,7 °C 20,5 °C 0,0 km/h (0 Bft)
04.08.2017 01:40 20,4 °C 20,5 °C 85 % 1011,7 hPa 0,0 mm 0,0 km/h (0 Bft) S 186 ° 0 min 0,000 mm 0,0 UV-I 0 W/m² 17,8 °C 20,4 °C 0,0 km/h (0 Bft)
04.08.2017 01:41 20,4 °C 20,4 °C 85 % 1011,7 hPa 0,0 mm 0,0 km/h (0 Bft) S 186 ° 0 min 0,000 mm 0,0 UV-I 0 W/m² 17,8 °C 20,4 °C 0,0 km/h (0 Bft)
04.08.2017 01:42 20,3 °C 20,4 °C 85 % 1011,8 hPa 0,0 mm 0,0 km/h (0 Bft) S 186 ° 0 min 0,000 mm 0,0 UV-I 0 W/m² 17,7 °C 20,3 °C 0,0 km/h (0 Bft)
04.08.2017 01:43 20,2 °C 20,3 °C 85 % 1011,8 hPa 0,0 mm 0,5 km/h (0 Bft) S 186 ° 0 min 0,000 mm 0,0 UV-I 0 W/m² 17,6 °C 20,2 °C 1,6 km/h (1 Bft)
04.08.2017 01:44 20,2 °C 20,2 °C 85 % 1011,8 hPa 0,0 mm 0,2 km/h (0 Bft) S 186 ° 0 min 0,000 mm 0,0 UV-I 0 W/m² 17,6 °C 20,2 °C 1,6 km/h (1 Bft)
04.08.2017 01:45 20,2 °C 20,2 °C 86 % 1011,8 hPa 0,0 mm 0,0 km/h (0 Bft) S 186 ° 0 min 0,000 mm 0,0 UV-I 0 W/m² 17,8 °C 20,2 °C 0,0 km/h (0 Bft)
04.08.2017 01:46 20,2 °C 20,3 °C 85 % 1011,8 hPa 0,0 mm 0,5 km/h (0 Bft) S 186 ° 0 min 0,000 mm 0,0 UV-I 0 W/m² 17,6 °C 20,2 °C 1,6 km/h (1 Bft)
04.08.2017 01:47 20,2 °C 20,2 °C 86 % 1011,8 hPa 0,0 mm 0,6 km/h (0 Bft) S 186 ° 0 min 0,000 mm 0,0 UV-I 0 W/m² 17,8 °C 20,2 °C 1,6 km/h (1 Bft)
04.08.2017 01:48 20,2 °C 20,2 °C 86 % 1011,7 hPa 0,0 mm 0,0 km/h (0 Bft) S 186 ° 0 min 0,000 mm 0,0 UV-I 0 W/m² 17,8 °C 20,2 °C 0,0 km/h (0 Bft)
04.08.2017 01:49 20,2 °C 20,2 °C 86 % 1011,8 hPa 0,0 mm 0,0 km/h (0 Bft) S 186 ° 0 min 0,000 mm 0,0 UV-I 0 W/m² 17,8 °C 20,2 °C 0,0 km/h (0 Bft)
04.08.2017 01:50 20,2 °C 20,2 °C 86 % 1011,8 hPa 0,0 mm 0,5 km/h (0 Bft) S 186 ° 0 min 0,000 mm 0,0 UV-I 0 W/m² 17,8 °C 20,2 °C 1,6 km/h (1 Bft)
04.08.2017 01:51 20,2 °C 20,2 °C 86 % 1011,7 hPa 0,0 mm 0,7 km/h (0 Bft) S 186 ° 0 min 0,000 mm 0,0 UV-I 0 W/m² 17,8 °C 20,2 °C 1,6 km/h (1 Bft)
04.08.2017 01:52 20,2 °C 20,2 °C 86 % 1011,6 hPa 0,0 mm 0,1 km/h (0 Bft) S 186 ° 0 min 0,000 mm 0,0 UV-I 0 W/m² 17,8 °C 20,2 °C 1,6 km/h (1 Bft)
04.08.2017 01:53 20,1 °C 20,2 °C 86 % 1011,6 hPa 0,0 mm 0,3 km/h (0 Bft) S 186 ° 0 min 0,000 mm 0,0 UV-I 0 W/m² 17,7 °C 20,1 °C 1,6 km/h (1 Bft)
04.08.2017 01:54 20,1 °C 20,1 °C 86 % 1011,6 hPa 0,0 mm 0,0 km/h (0 Bft) S 186 ° 0 min 0,000 mm 0,0 UV-I 0 W/m² 17,7 °C 20,1 °C 0,0 km/h (0 Bft)
04.08.2017 01:55 20,1 °C 20,1 °C 86 % 1011,6 hPa 0,0 mm 1,8 km/h (1 Bft) S-SW 203 ° 0 min 0,000 mm 0,0 UV-I 0 W/m² 17,7 °C 20,1 °C 6,4 km/h (2 Bft)
04.08.2017 01:56 20,1 °C 20,2 °C 86 % 1011,6 hPa 0,0 mm 2,8 km/h (1 Bft) S-SW 202 ° 0 min 0,000 mm 0,0 UV-I 0 W/m² 17,7 °C 20,1 °C 6,4 km/h (2 Bft)
04.08.2017 01:57 20,2 °C 20,2 °C 86 % 1011,6 hPa 0,0 mm 3,4 km/h (1 Bft) S-SW 202 ° 0 min 0,000 mm 0,0 UV-I 0 W/m² 17,8 °C 20,2 °C 6,4 km/h (2 Bft)
04.08.2017 01:58 20,2 °C 20,2 °C 86 % 1011,6 hPa 0,0 mm 4,7 km/h (1 Bft) S-SW 192 ° 0 min 0,000 mm 0,0 UV-I 0 W/m² 17,8 °C 20,2 °C 8,0 km/h (2 Bft)
04.08.2017 01:59 20,3 °C 20,3 °C 85 % 1011,6 hPa 0,0 mm 5,8 km/h (2 Bft) S-SW 195 ° 0 min 0,000 mm 0,0 UV-I 0 W/m² 17,7 °C 20,3 °C 8,0 km/h (2 Bft)
04.08.2017 02:00 20,4 °C 20,4 °C 84 % 1011,6 hPa 0,0 mm 2,3 km/h (1 Bft) S-SW 198 ° 0 min 0,026 mm 0,0 UV-I 0 W/m² 17,6 °C 20,4 °C 4,8 km/h (1 Bft)
04.08.2017 02:01 20,6 °C 20,6 °C 84 % 1011,6 hPa 0,0 mm 3,4 km/h (1 Bft) S-SW 194 ° 0 min 0,000 mm 0,0 UV-I 0 W/m² 17,8 °C 20,6 °C 8,0 km/h (2 Bft)
04.08.2017 02:02 20,7 °C 20,7 °C 83 % 1011,6 hPa 0,0 mm 5,0 km/h (1 Bft) S-SO 167 ° 0 min 0,000 mm 0,0 UV-I 0 W/m² 17,7 °C 20,7 °C 6,4 km/h (2 Bft)
04.08.2017 02:03 20,8 °C 20,8 °C 82 % 1011,6 hPa 0,0 mm 6,6 km/h (2 Bft) S-SW 193 ° 0 min 0,000 mm 0,0 UV-I 0 W/m² 17,6 °C 20,8 °C 9,7 km/h (2 Bft)
04.08.2017 02:04 20,9 °C 20,9 °C 83 % 1011,6 hPa 0,0 mm 2,4 km/h (1 Bft) S-SW 193 ° 0 min 0,000 mm 0,0 UV-I 0 W/m² 17,9 °C 20,9 °C 3,2 km/h (1 Bft)
04.08.2017 02:05 21,0 °C 21,0 °C 82 % 1011,6 hPa 0,0 mm 6,2 km/h (2 Bft) S-SW 198 ° 0 min 0,000 mm 0,0 UV-I 0 W/m² 17,8 °C 21,0 °C 9,7 km/h (2 Bft)
04.08.2017 02:06 21,2 °C 21,2 °C 81 % 1011,5 hPa 0,0 mm 7,2 km/h (2 Bft) S-SW 209 ° 0 min 0,000 mm 0,0 UV-I 0 W/m² 17,8 °C 21,2 °C 11,3 km/h (2 Bft)
04.08.2017 02:07 21,2 °C 21,2 °C 82 % 1011,5 hPa 0,0 mm 3,6 km/h (1 Bft) S 189 ° 0 min 0,000 mm 0,0 UV-I 0 W/m² 18,0 °C 21,2 °C 8,0 km/h (2 Bft)
04.08.2017 02:08 21,2 °C 21,2 °C 82 % 1011,5 hPa 0,0 mm 2,9 km/h (1 Bft) S 189 ° 0 min 0,000 mm 0,0 UV-I 0 W/m² 18,0 °C 21,2 °C 4,8 km/h (1 Bft)
04.08.2017 02:09 21,1 °C 21,2 °C 82 % 1011,5 hPa 0,0 mm 2,3 km/h (1 Bft) S 189 ° 0 min 0,000 mm 0,0 UV-I 0 W/m² 17,9 °C 21,1 °C 3,2 km/h (1 Bft)
04.08.2017 02:10 21,1 °C 21,1 °C 83 % 1011,5 hPa 0,0 mm 2,2 km/h (1 Bft) S 189 ° 0 min 0,000 mm 0,0 UV-I 0 W/m² 18,1 °C 21,1 °C 3,2 km/h (1 Bft)
04.08.2017 02:11 20,9 °C 21,1 °C 83 % 1011,5 hPa 0,0 mm 2,7 km/h (1 Bft) S 189 ° 0 min 0,000 mm 0,0 UV-I 0 W/m² 17,9 °C 20,9 °C 4,8 km/h (1 Bft)
04.08.2017 02:12 20,9 °C 20,9 °C 83 % 1011,5 hPa 0,0 mm 2,9 km/h (1 Bft) S 189 ° 0 min 0,000 mm 0,0 UV-I 0 W/m² 17,9 °C 20,9 °C 4,8 km/h (1 Bft)
04.08.2017 02:13 20,8 °C 20,9 °C 84 % 1011,5 hPa 0,0 mm 3,7 km/h (1 Bft) S 189 ° 0 min 0,000 mm 0,0 UV-I 0 W/m² 18,0 °C 20,8 °C 6,4 km/h (2 Bft)
04.08.2017 02:14 20,7 °C 20,8 °C 84 % 1011,5 hPa 0,0 mm 0,7 km/h (0 Bft) S 189 ° 0 min 0,000 mm 0,0 UV-I 0 W/m² 17,9 °C 20,7 °C 1,6 km/h (1 Bft)
04.08.2017 02:15 20,7 °C 20,7 °C 85 % 1011,5 hPa 0,0 mm 0,8 km/h (0 Bft) S 189 ° 0 min 0,000 mm 0,0 UV-I 0 W/m² 18,1 °C 20,7 °C 3,2 km/h (1 Bft)
04.08.2017 02:16 20,6 °C 20,7 °C 85 % 1011,5 hPa 0,0 mm 0,1 km/h (0 Bft) S 189 ° 0 min 0,000 mm 0,0 UV-I 0 W/m² 18,0 °C 20,6 °C 1,6 km/h (1 Bft)
04.08.2017 02:17 20,6 °C 20,6 °C 85 % 1011,5 hPa 0,0 mm 0,0 km/h (0 Bft) S 189 ° 0 min 0,000 mm 0,0 UV-I 0 W/m² 18,0 °C 20,6 °C 0,0 km/h (0 Bft)
04.08.2017 02:18 20,5 °C 20,6 °C 86 % 1011,5 hPa 0,0 mm 0,0 km/h (0 Bft) S 189 ° 0 min 0,000 mm 0,0 UV-I 0 W/m² 18,1 °C 20,5 °C 0,0 km/h (0 Bft)
04.08.2017 02:19 20,4 °C 20,5 °C 86 % 1011,6 hPa 0,0 mm 0,0 km/h (0 Bft) S 189 ° 0 min 0,000 mm 0,0 UV-I 0 W/m² 18,0 °C 20,4 °C 0,0 km/h (0 Bft)
04.08.2017 02:20 20,3 °C 20,4 °C 86 % 1011,6 hPa 0,0 mm 0,0 km/h (0 Bft) S 189 ° 0 min 0,000 mm 0,0 UV-I 0 W/m² 17,9 °C 20,3 °C 0,0 km/h (0 Bft)
04.08.2017 02:21 20,4 °C 20,4 °C 86 % 1011,6 hPa 0,0 mm 0,0 km/h (0 Bft) S 189 ° 0 min 0,000 mm 0,0 UV-I 0 W/m² 18,0 °C 20,4 °C 0,0 km/h (0 Bft)
04.08.2017 02:22 20,3 °C 20,4 °C 86 % 1011,6 hPa 0,0 mm 0,0 km/h (0 Bft) S 189 ° 0 min 0,000 mm 0,0 UV-I 0 W/m² 17,9 °C 20,3 °C 0,0 km/h (0 Bft)
04.08.2017 02:23 20,3 °C 20,3 °C 86 % 1011,6 hPa 0,0 mm 0,0 km/h (0 Bft) S 189 ° 0 min 0,000 mm 0,0 UV-I 0 W/m² 17,9 °C 20,3 °C 0,0 km/h (0 Bft)
04.08.2017 02:24 20,3 °C 20,3 °C 86 % 1011,5 hPa 0,0 mm 0,0 km/h (0 Bft) S 189 ° 0 min 0,000 mm 0,0 UV-I 0 W/m² 17,9 °C 20,3 °C 0,0 km/h (0 Bft)
04.08.2017 02:25 20,3 °C 20,3 °C 86 % 1011,5 hPa 0,0 mm 0,0 km/h (0 Bft) S 189 ° 0 min 0,000 mm 0,0 UV-I 0 W/m² 17,9 °C 20,3 °C 0,0 km/h (0 Bft)
04.08.2017 02:26 20,3 °C 20,3 °C 85 % 1011,5 hPa 0,0 mm 0,0 km/h (0 Bft) S 189 ° 0 min 0,000 mm 0,0 UV-I 0 W/m² 17,7 °C 20,3 °C 0,0 km/h (0 Bft)
04.08.2017 02:27 20,3 °C 20,3 °C 85 % 1011,5 hPa 0,0 mm 0,0 km/h (0 Bft) S 189 ° 0 min 0,000 mm 0,0 UV-I 0 W/m² 17,7 °C 20,3 °C 0,0 km/h (0 Bft)
04.08.2017 02:28 20,4 °C 20,4 °C 85 % 1011,5 hPa 0,0 mm 0,0 km/h (0 Bft) S 189 ° 0 min 0,000 mm 0,0 UV-I 0 W/m² 17,8 °C 20,4 °C 0,0 km/h (0 Bft)
04.08.2017 02:29 20,3 °C 20,4 °C 86 % 1011,5 hPa 0,0 mm 0,0 km/h (0 Bft) S 189 ° 0 min 0,000 mm 0,0 UV-I 0 W/m² 17,9 °C 20,3 °C 0,0 km/h (0 Bft)
04.08.2017 02:30 20,4 °C 20,4 °C 85 % 1011,4 hPa 0,0 mm 0,1 km/h (0 Bft) S 189 ° 0 min 0,000 mm 0,0 UV-I 0 W/m² 17,8 °C 20,4 °C 1,6 km/h (1 Bft)
04.08.2017 02:31 20,4 °C 20,4 °C 85 % 1011,4 hPa 0,0 mm 0,0 km/h (0 Bft) S 189 ° 0 min 0,000 mm 0,0 UV-I 0 W/m² 17,8 °C 20,4 °C 0,0 km/h (0 Bft)
04.08.2017 02:32 20,3 °C 20,4 °C 85 % 1011,5 hPa 0,0 mm 0,0 km/h (0 Bft) S 189 ° 0 min 0,000 mm 0,0 UV-I 0 W/m² 17,7 °C 20,3 °C 0,0 km/h (0 Bft)
04.08.2017 02:33 20,3 °C 20,4 °C 85 % 1011,5 hPa 0,0 mm 0,1 km/h (0 Bft) S 189 ° 0 min 0,000 mm 0,0 UV-I 0 W/m² 17,7 °C 20,3 °C 1,6 km/h (1 Bft)
04.08.2017 02:34 20,3 °C 20,4 °C 85 % 1011,5 hPa 0,0 mm 0,0 km/h (0 Bft) S 189 ° 0 min 0,000 mm 0,0 UV-I 0 W/m² 17,7 °C 20,3 °C 0,0 km/h (0 Bft)
04.08.2017 02:35 20,4 °C 20,4 °C 85 % 1011,5 hPa 0,0 mm 0,0 km/h (0 Bft) S 189 ° 0 min 0,000 mm 0,0 UV-I 0 W/m² 17,8 °C 20,4 °C 0,0 km/h (0 Bft)
04.08.2017 02:36 20,4 °C 20,4 °C 86 % 1011,4 hPa 0,0 mm 0,0 km/h (0 Bft) S 189 ° 0 min 0,000 mm 0,0 UV-I 0 W/m² 18,0 °C 20,4 °C 0,0 km/h (0 Bft)
04.08.2017 02:37 20,3 °C 20,4 °C 86 % 1011,4 hPa 0,0 mm 0,3 km/h (0 Bft) S 189 ° 0 min 0,000 mm 0,0 UV-I 0 W/m² 17,9 °C 20,3 °C 1,6 km/h (1 Bft)
04.08.2017 02:38 20,3 °C 20,4 °C 86 % 1011,4 hPa 0,0 mm 2,1 km/h (1 Bft) S 189 ° 0 min 0,000 mm 0,0 UV-I 0 W/m² 17,9 °C 20,3 °C 3,2 km/h (1 Bft)
04.08.2017 02:39 20,3 °C 20,3 °C 86 % 1011,4 hPa 0,0 mm 1,2 km/h (1 Bft) S 189 ° 0 min 0,000 mm 0,0 UV-I 0 W/m² 17,9 °C 20,3 °C 3,2 km/h (1 Bft)
04.08.2017 02:40 20,3 °C 20,3 °C 86 % 1011,5 hPa 0,0 mm 0,1 km/h (0 Bft) S 189 ° 0 min 0,000 mm 0,0 UV-I 0 W/m² 17,9 °C 20,3 °C 1,6 km/h (1 Bft)
04.08.2017 02:41 20,3 °C 20,3 °C 86 % 1011,4 hPa 0,0 mm 0,0 km/h (0 Bft) S 189 ° 0 min 0,000 mm 0,0 UV-I 0 W/m² 17,9 °C 20,3 °C 0,0 km/h (0 Bft)
04.08.2017 02:42 20,3 °C 20,3 °C 86 % 1011,4 hPa 0,0 mm 0,0 km/h (0 Bft) S 189 ° 0 min 0,000 mm 0,0 UV-I 0 W/m² 17,9 °C 20,3 °C 0,0 km/h (0 Bft)
04.08.2017 02:43 20,3 °C 20,3 °C 86 % 1011,4 hPa 0,0 mm 0,0 km/h (0 Bft) S 189 ° 0 min 0,000 mm 0,0 UV-I 0 W/m² 17,9 °C 20,3 °C 0,0 km/h (0 Bft)
04.08.2017 02:44 20,3 °C 20,3 °C 86 % 1011,4 hPa 0,0 mm 0,9 km/h (0 Bft) S 189 ° 0 min 0,000 mm 0,0 UV-I 0 W/m² 17,9 °C 20,3 °C 3,2 km/h (1 Bft)
04.08.2017 02:45 20,3 °C 20,3 °C 86 % 1011,4 hPa 0,0 mm 1,9 km/h (1 Bft) S 189 ° 0 min 0,000 mm 0,0 UV-I 0 W/m² 17,9 °C 20,3 °C 3,2 km/h (1 Bft)
04.08.2017 02:46 20,4 °C 20,4 °C 86 % 1011,5 hPa 0,0 mm 1,3 km/h (1 Bft) S 189 ° 0 min 0,000 mm 0,0 UV-I 0 W/m² 18,0 °C 20,4 °C 3,2 km/h (1 Bft)
04.08.2017 02:47 20,4 °C 20,4 °C 85 % 1011,5 hPa 0,0 mm 4,8 km/h (1 Bft) S-SW 199 ° 0 min 0,000 mm 0,0 UV-I 0 W/m² 17,8 °C 20,4 °C 9,7 km/h (2 Bft)
04.08.2017 02:48 20,4 °C 20,4 °C 85 % 1011,5 hPa 0,0 mm 6,0 km/h (2 Bft) S-SW 206 ° 0 min 0,000 mm 0,0 UV-I 0 W/m² 17,8 °C 20,4 °C 9,7 km/h (2 Bft)
04.08.2017 02:49 20,4 °C 20,4 °C 85 % 1011,5 hPa 0,0 mm 5,4 km/h (1 Bft) S-SW 199 ° 0 min 0,000 mm 0,0 UV-I 0 W/m² 17,8 °C 20,4 °C 9,7 km/h (2 Bft)
04.08.2017 02:50 20,5 °C 20,5 °C 85 % 1011,5 hPa 0,0 mm 5,5 km/h (1 Bft) S-SW 195 ° 0 min 0,000 mm 0,0 UV-I 0 W/m² 17,9 °C 20,5 °C 9,7 km/h (2 Bft)
04.08.2017 02:51 20,6 °C 20,6 °C 84 % 1011,5 hPa 0,0 mm 6,0 km/h (2 Bft) S 188 ° 0 min 0,000 mm 0,0 UV-I 0 W/m² 17,8 °C 20,6 °C 8,0 km/h (2 Bft)
04.08.2017 02:52 20,6 °C 20,6 °C 84 % 1011,4 hPa 0,0 mm 3,8 km/h (1 Bft) S 188 ° 0 min 0,000 mm 0,0 UV-I 0 W/m² 17,8 °C 20,6 °C 6,4 km/h (2 Bft)
04.08.2017 02:53 20,7 °C 20,7 °C 85 % 1011,4 hPa 0,0 mm 3,2 km/h (1 Bft) S 188 ° 0 min 0,000 mm 0,0 UV-I 0 W/m² 18,1 °C 20,7 °C 4,8 km/h (1 Bft)
04.08.2017 02:54 20,7 °C 20,7 °C 84 % 1011,5 hPa 0,0 mm 4,4 km/h (1 Bft) S-SW 206 ° 0 min 0,000 mm 0,0 UV-I 0 W/m² 17,9 °C 20,7 °C 6,4 km/h (2 Bft)
04.08.2017 02:55 20,7 °C 20,7 °C 84 % 1011,4 hPa 0,0 mm 6,5 km/h (2 Bft) S-SW 200 ° 0 min 0,000 mm 0,0 UV-I 0 W/m² 17,9 °C 20,7 °C 8,0 km/h (2 Bft)
04.08.2017 02:56 20,7 °C 20,7 °C 84 % 1011,5 hPa 0,0 mm 6,2 km/h (2 Bft) S 188 ° 0 min 0,000 mm 0,0 UV-I 0 W/m² 17,9 °C 20,7 °C 8,0 km/h (2 Bft)
04.08.2017 02:57 20,7 °C 20,7 °C 85 % 1011,5 hPa 0,0 mm 4,6 km/h (1 Bft) S 188 ° 0 min 0,000 mm 0,0 UV-I 0 W/m² 18,1 °C 20,7 °C 6,4 km/h (2 Bft)
04.08.2017 02:58 20,7 °C 20,7 °C 84 % 1011,5 hPa 0,0 mm 5,8 km/h (2 Bft) S-SW 192 ° 0 min 0,000 mm 0,0 UV-I 0 W/m² 17,9 °C 20,7 °C 11,3 km/h (2 Bft)
04.08.2017 02:59 20,7 °C 20,8 °C 84 % 1011,6 hPa 0,0 mm 7,9 km/h (2 Bft) S 178 ° 0 min 0,000 mm 0,0 UV-I 0 W/m² 17,9 °C 20,7 °C 12,9 km/h (3 Bft)
04.08.2017 03:00 20,8 °C 20,8 °C 84 % 1011,5 hPa 0,0 mm 5,9 km/h (2 Bft) S 183 ° 0 min 0,025 mm 0,0 UV-I 0 W/m² 18,0 °C 20,8 °C 9,7 km/h (2 Bft)
04.08.2017 03:01 20,9 °C 20,9 °C 83 % 1011,5 hPa 0,0 mm 4,5 km/h (1 Bft) S-SW 192 ° 0 min 0,000 mm 0,0 UV-I 0 W/m² 17,9 °C 20,9 °C 8,0 km/h (2 Bft)
04.08.2017 03:02 20,9 °C 20,9 °C 83 % 1011,5 hPa 0,0 mm 7,1 km/h (2 Bft) S-SW 202 ° 0 min 0,000 mm 0,0 UV-I 0 W/m² 17,9 °C 20,9 °C 9,7 km/h (2 Bft)
04.08.2017 03:03 21,1 °C 21,1 °C 83 % 1011,5 hPa 0,0 mm 7,3 km/h (2 Bft) S 182 ° 0 min 0,000 mm 0,0 UV-I 0 W/m² 18,1 °C 21,1 °C 9,7 km/h (2 Bft)
04.08.2017 03:04 21,1 °C 21,1 °C 83 % 1011,6 hPa 0,0 mm 3,9 km/h (1 Bft) S 189 ° 0 min 0,000 mm 0,0 UV-I 0 W/m² 18,1 °C 21,1 °C 6,4 km/h (2 Bft)
04.08.2017 03:05 21,1 °C 21,1 °C 82 % 1011,5 hPa 0,0 mm 6,7 km/h (2 Bft) S 178 ° 0 min 0,000 mm 0,0 UV-I 0 W/m² 17,9 °C 21,1 °C 11,3 km/h (2 Bft)
04.08.2017 03:06 21,2 °C 21,2 °C 82 % 1011,5 hPa 0,0 mm 5,8 km/h (2 Bft) S 177 ° 0 min 0,000 mm 0,0 UV-I 0 W/m² 18,0 °C 21,2 °C 8,0 km/h (2 Bft)
04.08.2017 03:07 21,3 °C 21,3 °C 81 % 1011,5 hPa 0,0 mm 6,0 km/h (2 Bft) S 186 ° 0 min 0,000 mm 0,0 UV-I 0 W/m² 17,9 °C 21,3 °C 9,7 km/h (2 Bft)
04.08.2017 03:08 21,4 °C 21,4 °C 81 % 1011,5 hPa 0,0 mm 5,7 km/h (1 Bft) S-SW 206 ° 0 min 0,000 mm 0,0 UV-I 0 W/m² 18,0 °C 21,4 °C 8,0 km/h (2 Bft)
04.08.2017 03:09 21,5 °C 21,6 °C 81 % 1011,5 hPa 0,0 mm 1,3 km/h (1 Bft) S-SW 199 ° 0 min 0,000 mm 0,0 UV-I 0 W/m² 18,1 °C 21,5 °C 3,2 km/h (1 Bft)
04.08.2017 03:10 21,6 °C 21,6 °C 81 % 1011,5 hPa 0,0 mm 3,0 km/h (1 Bft) S-SW 199 ° 0 min 0,000 mm 0,0 UV-I 0 W/m² 18,2 °C 21,6 °C 4,8 km/h (1 Bft)
04.08.2017 03:11 21,6 °C 21,6 °C 81 % 1011,5 hPa 0,0 mm 5,2 km/h (1 Bft) S-SW 200 ° 0 min 0,000 mm 0,0 UV-I 0 W/m² 18,2 °C 21,6 °C 6,4 km/h (2 Bft)
04.08.2017 03:12 21,6 °C 21,6 °C 80 % 1011,5 hPa 0,0 mm 6,2 km/h (2 Bft) SW 228 ° 0 min 0,000 mm 0,0 UV-I 0 W/m² 18,0 °C 21,6 °C 8,0 km/h (2 Bft)
04.08.2017 03:13 21,6 °C 21,6 °C 80 % 1011,4 hPa 0,0 mm 3,6 km/h (1 Bft) S 186 ° 0 min 0,000 mm 0,0 UV-I 0 W/m² 18,0 °C 21,6 °C 8,0 km/h (2 Bft)
04.08.2017 03:14 21,6 °C 21,7 °C 81 % 1011,4 hPa 0,0 mm 5,5 km/h (1 Bft) S-SW 206 ° 0 min 0,000 mm 0,0 UV-I 0 W/m² 18,2 °C 21,6 °C 9,7 km/h (2 Bft)
04.08.2017 03:15 21,7 °C 21,7 °C 80 % 1011,5 hPa 0,0 mm 3,6 km/h (1 Bft) S-SW 196 ° 0 min 0,000 mm 0,0 UV-I 0 W/m² 18,1 °C 21,7 °C 6,4 km/h (2 Bft)
04.08.2017 03:16 21,7 °C 21,7 °C 80 % 1011,4 hPa 0,0 mm 3,4 km/h (1 Bft) SW 222 ° 0 min 0,000 mm 0,0 UV-I 0 W/m² 18,1 °C 21,7 °C 4,8 km/h (1 Bft)
04.08.2017 03:17 21,7 °C 21,7 °C 80 % 1011,4 hPa 0,0 mm 4,0 km/h (1 Bft) S-SW 206 ° 0 min 0,000 mm 0,0 UV-I 0 W/m² 18,1 °C 21,7 °C 8,0 km/h (2 Bft)
04.08.2017 03:18 21,7 °C 21,7 °C 80 % 1011,4 hPa 0,0 mm 6,1 km/h (2 Bft) S-SW 195 ° 0 min 0,000 mm 0,0 UV-I 0 W/m² 18,1 °C 21,7 °C 8,0 km/h (2 Bft)
04.08.2017 03:19 21,7 °C 21,8 °C 80 % 1011,4 hPa 0,0 mm 2,6 km/h (1 Bft) S-SW 195 ° 0 min 0,000 mm 0,0 UV-I 0 W/m² 18,1 °C 21,7 °C 4,8 km/h (1 Bft)
04.08.2017 03:20 21,8 °C 21,8 °C 80 % 1011,4 hPa 0,0 mm 3,8 km/h (1 Bft) S 178 ° 0 min 0,000 mm 0,0 UV-I 0 W/m² 18,2 °C 21,8 °C 4,8 km/h (1 Bft)
04.08.2017 03:21 21,8 °C 21,8 °C 80 % 1011,4 hPa 0,0 mm 3,8 km/h (1 Bft) S-SW 196 ° 0 min 0,000 mm 0,0 UV-I 0 W/m² 18,2 °C 21,8 °C 4,8 km/h (1 Bft)
04.08.2017 03:22 21,8 °C 21,9 °C 79 % 1011,4 hPa 0,0 mm 4,3 km/h (1 Bft) S-SW 195 ° 0 min 0,000 mm 0,0 UV-I 0 W/m² 18,0 °C 21,8 °C 6,4 km/h (2 Bft)
04.08.2017 03:23 21,9 °C 21,9 °C 79 % 1011,4 hPa 0,0 mm 4,0 km/h (1 Bft) S-SW 196 ° 0 min 0,000 mm 0,0 UV-I 0 W/m² 18,1 °C 21,9 °C 4,8 km/h (1 Bft)
04.08.2017 03:24 21,9 °C 21,9 °C 80 % 1011,3 hPa 0,0 mm 4,0 km/h (1 Bft) S-SW 192 ° 0 min 0,000 mm 0,0 UV-I 0 W/m² 18,3 °C 21,9 °C 6,4 km/h (2 Bft)
04.08.2017 03:25 21,9 °C 21,9 °C 79 % 1011,3 hPa 0,0 mm 5,4 km/h (1 Bft) S-SW 199 ° 0 min 0,000 mm 0,0 UV-I 0 W/m² 18,1 °C 21,9 °C 6,4 km/h (2 Bft)
04.08.2017 03:26 21,8 °C 21,9 °C 80 % 1011,3 hPa 0,0 mm 4,2 km/h (1 Bft) S 190 ° 0 min 0,000 mm 0,0 UV-I 0 W/m² 18,2 °C 21,8 °C 8,0 km/h (2 Bft)
04.08.2017 03:27 21,8 °C 21,9 °C 79 % 1011,3 hPa 0,0 mm 6,4 km/h (2 Bft) S-SW 192 ° 0 min 0,000 mm 0,0 UV-I 0 W/m² 18,0 °C 21,8 °C 8,0 km/h (2 Bft)
04.08.2017 03:28 21,8 °C 21,8 °C 80 % 1011,3 hPa 0,0 mm 6,6 km/h (2 Bft) S-SW 199 ° 0 min 0,000 mm 0,0 UV-I 0 W/m² 18,2 °C 21,8 °C 8,0 km/h (2 Bft)
04.08.2017 03:29 21,8 °C 21,8 °C 81 % 1011,3 hPa 0,0 mm 3,8 km/h (1 Bft) S-SW 198 ° 0 min 0,000 mm 0,0 UV-I 0 W/m² 18,4 °C 21,8 °C 8,0 km/h (2 Bft)
04.08.2017 03:30 21,7 °C 21,8 °C 81 % 1011,2 hPa 0,0 mm 1,0 km/h (0 Bft) S-SW 198 ° 0 min 0,000 mm 0,0 UV-I 0 W/m² 18,3 °C 21,7 °C 3,2 km/h (1 Bft)
04.08.2017 03:31 21,6 °C 21,7 °C 81 % 1011,3 hPa 0,0 mm 2,9 km/h (1 Bft) S-SW 198 ° 0 min 0,000 mm 0,0 UV-I 0 W/m² 18,2 °C 21,6 °C 4,8 km/h (1 Bft)
04.08.2017 03:32 21,4 °C 21,6 °C 81 % 1011,3 hPa 0,0 mm 2,7 km/h (1 Bft) S-SW 198 ° 0 min 0,000 mm 0,0 UV-I 0 W/m² 18,0 °C 21,4 °C 4,8 km/h (1 Bft)
04.08.2017 03:33 21,3 °C 21,4 °C 82 % 1011,3 hPa 0,0 mm 3,1 km/h (1 Bft) S-SW 198 ° 0 min 0,000 mm 0,0 UV-I 0 W/m² 18,1 °C 21,3 °C 4,8 km/h (1 Bft)
04.08.2017 03:34 21,2 °C 21,3 °C 83 % 1011,3 hPa 0,0 mm 2,3 km/h (1 Bft) S-SW 198 ° 0 min 0,000 mm 0,0 UV-I 0 W/m² 18,2 °C 21,2 °C 3,2 km/h (1 Bft)
04.08.2017 03:35 21,1 °C 21,2 °C 83 % 1011,3 hPa 0,0 mm 0,7 km/h (0 Bft) S-SW 198 ° 0 min 0,000 mm 0,0 UV-I 0 W/m² 18,1 °C 21,1 °C 3,2 km/h (1 Bft)
04.08.2017 03:36 21,1 °C 21,1 °C 84 % 1011,2 hPa 0,0 mm 0,0 km/h (0 Bft) S-SW 198 ° 0 min 0,000 mm 0,0 UV-I 0 W/m² 18,3 °C 21,1 °C 0,0 km/h (0 Bft)
04.08.2017 03:37 20,9 °C 21,1 °C 83 % 1011,2 hPa 0,0 mm 0,0 km/h (0 Bft) S-SW 198 ° 0 min 0,000 mm 0,0 UV-I 0 W/m² 17,9 °C 20,9 °C 0,0 km/h (0 Bft)
04.08.2017 03:38 20,8 °C 20,9 °C 84 % 1011,2 hPa 0,0 mm 0,0 km/h (0 Bft) S-SW 198 ° 0 min 0,000 mm 0,0 UV-I 0 W/m² 18,0 °C 20,8 °C 0,0 km/h (0 Bft)
04.08.2017 03:39 20,8 °C 20,8 °C 84 % 1011,2 hPa 0,0 mm 0,0 km/h (0 Bft) S-SW 198 ° 0 min 0,000 mm 0,0 UV-I 0 W/m² 18,0 °C 20,8 °C 0,0 km/h (0 Bft)
04.08.2017 03:40 20,8 °C 20,8 °C 84 % 1011,3 hPa 0,0 mm 0,0 km/h (0 Bft) S-SW 198 ° 0 min 0,000 mm 0,0 UV-I 0 W/m² 18,0 °C 20,8 °C 0,0 km/h (0 Bft)
04.08.2017 03:41 20,8 °C 20,8 °C 84 % 1011,3 hPa 0,0 mm 0,0 km/h (0 Bft) S-SW 198 ° 0 min 0,000 mm 0,0 UV-I 0 W/m² 18,0 °C 20,8 °C 0,0 km/h (0 Bft)
04.08.2017 03:42 20,8 °C 20,8 °C 84 % 1011,3 hPa 0,0 mm 0,0 km/h (0 Bft) S-SW 198 ° 0 min 0,000 mm 0,0 UV-I 0 W/m² 18,0 °C 20,8 °C 0,0 km/h (0 Bft)
04.08.2017 03:43 20,8 °C 20,8 °C 84 % 1011,3 hPa 0,0 mm 1,5 km/h (1 Bft) S-SW 197 ° 0 min 0,000 mm 0,0 UV-I 0 W/m² 18,0 °C 20,8 °C 4,8 km/h (1 Bft)
04.08.2017 03:44 20,9 °C 20,9 °C 83 % 1011,3 hPa 0,0 mm 3,1 km/h (1 Bft) S-SW 198 ° 0 min 0,000 mm 0,0 UV-I 0 W/m² 17,9 °C 20,9 °C 6,4 km/h (2 Bft)
04.08.2017 03:45 20,9 °C 20,9 °C 84 % 1011,3 hPa 0,0 mm 0,0 km/h (0 Bft) S-SW 198 ° 0 min 0,000 mm 0,0 UV-I 0 W/m² 18,1 °C 20,9 °C 0,0 km/h (0 Bft)
04.08.2017 03:46 20,8 °C 20,9 °C 84 % 1011,4 hPa 0,0 mm 0,0 km/h (0 Bft) S-SW 198 ° 0 min 0,000 mm 0,0 UV-I 0 W/m² 18,0 °C 20,8 °C 0,0 km/h (0 Bft)
04.08.2017 03:47 20,8 °C 20,8 °C 84 % 1011,4 hPa 0,0 mm 0,0 km/h (0 Bft) S-SW 198 ° 0 min 0,000 mm 0,0 UV-I 0 W/m² 18,0 °C 20,8 °C 0,0 km/h (0 Bft)
04.08.2017 03:48 20,7 °C 20,8 °C 85 % 1011,3 hPa 0,0 mm 0,0 km/h (0 Bft) S-SW 198 ° 0 min 0,000 mm 0,0 UV-I 0 W/m² 18,1 °C 20,7 °C 0,0 km/h (0 Bft)
04.08.2017 03:49 20,5 °C 20,7 °C 85 % 1011,3 hPa 0,0 mm 0,0 km/h (0 Bft) S-SW 198 ° 0 min 0,000 mm 0,0 UV-I 0 W/m² 17,9 °C 20,5 °C 0,0 km/h (0 Bft)
04.08.2017 03:50 20,4 °C 20,5 °C 85 % 1011,3 hPa 0,0 mm 0,0 km/h (0 Bft) S-SW 198 ° 0 min 0,000 mm 0,0 UV-I 0 W/m² 17,8 °C 20,4 °C 0,0 km/h (0 Bft)
04.08.2017 03:51 20,3 °C 20,4 °C 86 % 1011,3 hPa 0,0 mm 0,0 km/h (0 Bft) S-SW 198 ° 0 min 0,000 mm 0,0 UV-I 0 W/m² 17,9 °C 20,3 °C 0,0 km/h (0 Bft)
04.08.2017 03:52 20,2 °C 20,3 °C 87 % 1011,2 hPa 0,0 mm 1,3 km/h (1 Bft) S-SW 198 ° 0 min 0,000 mm 0,0 UV-I 0 W/m² 18,0 °C 20,2 °C 3,2 km/h (1 Bft)
04.08.2017 03:53 20,2 °C 20,2 °C 86 % 1011,1 hPa 0,0 mm 2,1 km/h (1 Bft) S-SW 198 ° 0 min 0,000 mm 0,0 UV-I 0 W/m² 17,8 °C 20,2 °C 3,2 km/h (1 Bft)
04.08.2017 03:54 20,2 °C 20,2 °C 86 % 1011,1 hPa 0,0 mm 1,3 km/h (1 Bft) S-SW 198 ° 0 min 0,000 mm 0,0 UV-I 0 W/m² 17,8 °C 20,2 °C 3,2 km/h (1 Bft)
04.08.2017 03:55 20,3 °C 20,3 °C 86 % 1011,1 hPa 0,0 mm 0,8 km/h (0 Bft) S-SW 198 ° 0 min 0,000 mm 0,0 UV-I 0 W/m² 17,9 °C 20,3 °C 3,2 km/h (1 Bft)
04.08.2017 03:56 20,4 °C 20,4 °C 86 % 1011,1 hPa 0,0 mm 0,3 km/h (0 Bft) S-SW 198 ° 0 min 0,000 mm 0,0 UV-I 0 W/m² 18,0 °C 20,4 °C 1,6 km/h (1 Bft)
04.08.2017 03:57 20,4 °C 20,4 °C 86 % 1011,1 hPa 0,0 mm 2,7 km/h (1 Bft) S-SW 198 ° 0 min 0,000 mm 0,0 UV-I 0 W/m² 18,0 °C 20,4 °C 4,8 km/h (1 Bft)
04.08.2017 03:58 20,4 °C 20,4 °C 86 % 1011,2 hPa 0,0 mm 3,3 km/h (1 Bft) S-SW 198 ° 0 min 0,000 mm 0,0 UV-I 0 W/m² 18,0 °C 20,4 °C 4,8 km/h (1 Bft)
04.08.2017 03:59 20,4 °C 20,4 °C 86 % 1011,1 hPa 0,0 mm 3,9 km/h (1 Bft) S-SW 198 ° 0 min 0,000 mm 0,0 UV-I 0 W/m² 18,0 °C 20,4 °C 4,8 km/h (1 Bft)
04.08.2017 04:00 20,4 °C 20,4 °C 86 % 1011,1 hPa 0,0 mm 3,0 km/h (1 Bft) S-SW 198 ° 0 min 0,000 mm 0,0 UV-I 0 W/m² 18,0 °C 20,4 °C 3,2 km/h (1 Bft)
04.08.2017 04:01 20,4 °C 20,4 °C 86 % 1011,2 hPa 0,0 mm 1,7 km/h (1 Bft) S-SW 198 ° 0 min 0,026 mm 0,0 UV-I 0 W/m² 18,0 °C 20,4 °C 3,2 km/h (1 Bft)
04.08.2017 04:02 20,4 °C 20,4 °C 86 % 1011,2 hPa 0,0 mm 0,5 km/h (0 Bft) S-SW 198 ° 0 min 0,000 mm 0,0 UV-I 0 W/m² 18,0 °C 20,4 °C 1,6 km/h (1 Bft)
04.08.2017 04:03 20,4 °C 20,4 °C 86 % 1011,2 hPa 0,0 mm 0,0 km/h (0 Bft) S-SW 198 ° 0 min 0,000 mm 0,0 UV-I 0 W/m² 18,0 °C 20,4 °C 0,0 km/h (0 Bft)
04.08.2017 04:04 20,4 °C 20,4 °C 86 % 1011,1 hPa 0,0 mm 0,9 km/h (0 Bft) S-SW 198 ° 0 min 0,000 mm 0,0 UV-I 0 W/m² 18,0 °C 20,4 °C 1,6 km/h (1 Bft)
04.08.2017 04:05 20,4 °C 20,4 °C 86 % 1011,1 hPa 0,0 mm 0,4 km/h (0 Bft) S-SW 198 ° 0 min 0,000 mm 0,0 UV-I 0 W/m² 18,0 °C 20,4 °C 1,6 km/h (1 Bft)
04.08.2017 04:06 20,4 °C 20,4 °C 86 % 1011,1 hPa 0,0 mm 0,0 km/h (0 Bft) S-SW 198 ° 0 min 0,000 mm 0,0 UV-I 0 W/m² 18,0 °C 20,4 °C 0,0 km/h (0 Bft)
04.08.2017 04:07 20,3 °C 20,4 °C 87 % 1011,1 hPa 0,0 mm 0,0 km/h (0 Bft) S-SW 198 ° 0 min 0,000 mm 0,0 UV-I 0 W/m² 18,1 °C 20,3 °C 0,0 km/h (0 Bft)
04.08.2017 04:08 20,2 °C 20,3 °C 87 % 1011,1 hPa 0,0 mm 0,0 km/h (0 Bft) S-SW 198 ° 0 min 0,000 mm 0,0 UV-I 0 W/m² 18,0 °C 20,2 °C 0,0 km/h (0 Bft)
04.08.2017 04:09 20,2 °C 20,2 °C 87 % 1011,1 hPa 0,0 mm 0,0 km/h (0 Bft) S-SW 198 ° 0 min 0,000 mm 0,0 UV-I 0 W/m² 18,0 °C 20,2 °C 0,0 km/h (0 Bft)
04.08.2017 04:10 20,1 °C 20,2 °C 87 % 1011,1 hPa 0,0 mm 0,0 km/h (0 Bft) S-SW 198 ° 0 min 0,000 mm 0,0 UV-I 0 W/m² 17,9 °C 20,1 °C 0,0 km/h (0 Bft)
04.08.2017 04:11 20,1 °C 20,1 °C 87 % 1011,1 hPa 0,0 mm 0,0 km/h (0 Bft) S-SW 198 ° 0 min 0,000 mm 0,0 UV-I 0 W/m² 17,9 °C 20,1 °C 0,0 km/h (0 Bft)
04.08.2017 04:12 20,1 °C 20,1 °C 87 % 1011,0 hPa 0,0 mm 0,3 km/h (0 Bft) S-SW 198 ° 0 min 0,000 mm 0,0 UV-I 0 W/m² 17,9 °C 20,1 °C 1,6 km/h (1 Bft)
04.08.2017 04:13 20,1 °C 20,1 °C 87 % 1011,0 hPa 0,0 mm 1,1 km/h (1 Bft) S-SW 198 ° 0 min 0,000 mm 0,0 UV-I 0 W/m² 17,9 °C 20,1 °C 1,6 km/h (1 Bft)
04.08.2017 04:14 20,2 °C 20,2 °C 87 % 1011,0 hPa 0,0 mm 0,0 km/h (0 Bft) S-SW 198 ° 0 min 0,000 mm 0,0 UV-I 0 W/m² 18,0 °C 20,2 °C 0,0 km/h (0 Bft)
04.08.2017 04:15 20,2 °C 20,2 °C 86 % 1011,1 hPa 0,0 mm 0,0 km/h (0 Bft) S-SW 198 ° 0 min 0,000 mm 0,0 UV-I 0 W/m² 17,8 °C 20,2 °C 0,0 km/h (0 Bft)
04.08.2017 04:16 20,2 °C 20,2 °C 87 % 1011,1 hPa 0,0 mm 0,0 km/h (0 Bft) S-SW 198 ° 0 min 0,000 mm 0,0 UV-I 0 W/m² 18,0 °C 20,2 °C 0,0 km/h (0 Bft)
04.08.2017 04:17 20,1 °C 20,2 °C 87 % 1011,0 hPa 0,0 mm 0,0 km/h (0 Bft) S-SW 198 ° 0 min 0,000 mm 0,0 UV-I 0 W/m² 17,9 °C 20,1 °C 0,0 km/h (0 Bft)
04.08.2017 04:18 20,1 °C 20,2 °C 87 % 1011,0 hPa 0,0 mm 0,0 km/h (0 Bft) S-SW 198 ° 0 min 0,000 mm 0,0 UV-I 0 W/m² 17,9 °C 20,1 °C 0,0 km/h (0 Bft)
04.08.2017 04:19 20,1 °C 20,1 °C 87 % 1011,1 hPa 0,0 mm 0,0 km/h (0 Bft) S-SW 198 ° 0 min 0,000 mm 0,0 UV-I 0 W/m² 17,9 °C 20,1 °C 0,0 km/h (0 Bft)
04.08.2017 04:20 20,0 °C 20,1 °C 87 % 1011,1 hPa 0,0 mm 0,0 km/h (0 Bft) S-SW 198 ° 0 min 0,000 mm 0,0 UV-I 0 W/m² 17,8 °C 20,0 °C 0,0 km/h (0 Bft)
04.08.2017 04:21 19,9 °C 20,0 °C 87 % 1011,1 hPa 0,0 mm 0,0 km/h (0 Bft) S-SW 198 ° 0 min 0,000 mm 0,0 UV-I 0 W/m² 17,7 °C 19,9 °C 0,0 km/h (0 Bft)
04.08.2017 04:22 19,8 °C 19,9 °C 88 % 1011,0 hPa 0,0 mm 0,0 km/h (0 Bft) S-SW 198 ° 0 min 0,000 mm 0,0 UV-I 0 W/m² 17,8 °C 19,8 °C 0,0 km/h (0 Bft)
04.08.2017 04:23 19,8 °C 19,8 °C 88 % 1011,0 hPa 0,0 mm 0,0 km/h (0 Bft) S-SW 198 ° 0 min 0,000 mm 0,0 UV-I 0 W/m² 17,8 °C 19,8 °C 0,0 km/h (0 Bft)
04.08.2017 04:24 19,8 °C 19,8 °C 88 % 1010,9 hPa 0,0 mm 0,0 km/h (0 Bft) S-SW 198 ° 0 min 0,000 mm 0,0 UV-I 0 W/m² 17,8 °C 19,8 °C 0,0 km/h (0 Bft)
04.08.2017 04:25 19,8 °C 19,8 °C 88 % 1010,9 hPa 0,0 mm 0,0 km/h (0 Bft) S-SW 198 ° 0 min 0,000 mm 0,0 UV-I 0 W/m² 17,8 °C 19,8 °C 0,0 km/h (0 Bft)
04.08.2017 04:26 19,8 °C 19,8 °C 88 % 1010,9 hPa 0,0 mm 0,0 km/h (0 Bft) S-SW 198 ° 0 min 0,000 mm 0,0 UV-I 0 W/m² 17,8 °C 19,8 °C 0,0 km/h (0 Bft)
04.08.2017 04:27 19,8 °C 19,8 °C 87 % 1010,9 hPa 0,0 mm 1,1 km/h (1 Bft) S-SW 198 ° 0 min 0,000 mm 0,0 UV-I 0 W/m² 17,6 °C 19,8 °C 3,2 km/h (1 Bft)
04.08.2017 04:28 19,9 °C 19,9 °C 87 % 1010,9 hPa 0,0 mm 2,1 km/h (1 Bft) S-SW 198 ° 0 min 0,000 mm 0,0 UV-I 0 W/m² 17,7 °C 19,9 °C 3,2 km/h (1 Bft)
04.08.2017 04:29 19,9 °C 19,9 °C 87 % 1010,9 hPa 0,0 mm 1,3 km/h (1 Bft) S-SW 198 ° 0 min 0,000 mm 0,0 UV-I 0 W/m² 17,7 °C 19,9 °C 1,6 km/h (1 Bft)
04.08.2017 04:30 19,9 °C 19,9 °C 87 % 1010,8 hPa 0,0 mm 0,1 km/h (0 Bft) S-SW 198 ° 0 min 0,000 mm 0,0 UV-I 0 W/m² 17,7 °C 19,9 °C 1,6 km/h (1 Bft)
04.08.2017 04:31 19,9 °C 19,9 °C 87 % 1010,8 hPa 0,0 mm 0,0 km/h (0 Bft) S-SW 198 ° 0 min 0,000 mm 0,0 UV-I 0 W/m² 17,7 °C 19,9 °C 0,0 km/h (0 Bft)
04.08.2017 04:32 19,9 °C 19,9 °C 87 % 1010,8 hPa 0,0 mm 0,0 km/h (0 Bft) S-SW 198 ° 0 min 0,000 mm 0,0 UV-I 0 W/m² 17,7 °C 19,9 °C 0,0 km/h (0 Bft)
04.08.2017 04:33 19,8 °C 19,9 °C 88 % 1010,8 hPa 0,0 mm 0,0 km/h (0 Bft) S-SW 198 ° 0 min 0,000 mm 0,0 UV-I 0 W/m² 17,8 °C 19,8 °C 0,0 km/h (0 Bft)
04.08.2017 04:34 19,8 °C 19,8 °C 88 % 1010,9 hPa 0,0 mm 0,0 km/h (0 Bft) S-SW 198 ° 0 min 0,000 mm 0,0 UV-I 0 W/m² 17,8 °C 19,8 °C 0,0 km/h (0 Bft)
04.08.2017 04:35 19,7 °C 19,8 °C 88 % 1010,9 hPa 0,0 mm 0,0 km/h (0 Bft) S-SW 198 ° 0 min 0,000 mm 0,0 UV-I 0 W/m² 17,7 °C 19,7 °C 0,0 km/h (0 Bft)
04.08.2017 04:36 19,6 °C 19,7 °C 88 % 1010,9 hPa 0,0 mm 0,0 km/h (0 Bft) S-SW 198 ° 0 min 0,000 mm 0,0 UV-I 0 W/m² 17,6 °C 19,6 °C 0,0 km/h (0 Bft)
04.08.2017 04:37 19,6 °C 19,6 °C 89 % 1010,9 hPa 0,0 mm 0,0 km/h (0 Bft) S-SW 198 ° 0 min 0,000 mm 0,0 UV-I 0 W/m² 17,7 °C 19,6 °C 0,0 km/h (0 Bft)
04.08.2017 04:38 19,5 °C 19,6 °C 88 % 1010,9 hPa 0,0 mm 0,0 km/h (0 Bft) S-SW 198 ° 0 min 0,000 mm 0,0 UV-I 0 W/m² 17,5 °C 19,5 °C 0,0 km/h (0 Bft)
04.08.2017 04:39 19,5 °C 19,6 °C 88 % 1010,9 hPa 0,0 mm 0,0 km/h (0 Bft) S-SW 198 ° 0 min 0,000 mm 0,0 UV-I 0 W/m² 17,5 °C 19,5 °C 0,0 km/h (0 Bft)
04.08.2017 04:40 19,5 °C 19,5 °C 88 % 1010,9 hPa 0,0 mm 0,0 km/h (0 Bft) S-SW 198 ° 0 min 0,000 mm 0,0 UV-I 0 W/m² 17,5 °C 19,5 °C 0,0 km/h (0 Bft)
04.08.2017 04:41 19,6 °C 19,6 °C 88 % 1010,9 hPa 0,0 mm 0,0 km/h (0 Bft) S-SW 198 ° 0 min 0,000 mm 0,0 UV-I 0 W/m² 17,6 °C 19,6 °C 0,0 km/h (0 Bft)
04.08.2017 04:42 19,6 °C 19,6 °C 88 % 1010,9 hPa 0,0 mm 1,6 km/h (1 Bft) S-SW 198 ° 0 min 0,000 mm 0,0 UV-I 0 W/m² 17,6 °C 19,6 °C 3,2 km/h (1 Bft)
04.08.2017 04:43 19,6 °C 19,6 °C 88 % 1010,9 hPa 0,0 mm 0,4 km/h (0 Bft) S-SW 198 ° 0 min 0,000 mm 0,0 UV-I 0 W/m² 17,6 °C 19,6 °C 1,6 km/h (1 Bft)
04.08.2017 04:44 19,6 °C 19,6 °C 88 % 1010,9 hPa 0,0 mm 0,0 km/h (0 Bft) S-SW 198 ° 0 min 0,000 mm 0,0 UV-I 0 W/m² 17,6 °C 19,6 °C 0,0 km/h (0 Bft)
04.08.2017 04:45 19,6 °C 19,6 °C 88 % 1010,9 hPa 0,0 mm 0,7 km/h (0 Bft) S-SW 198 ° 0 min 0,000 mm 0,0 UV-I 0 W/m² 17,6 °C 19,6 °C 1,6 km/h (1 Bft)
04.08.2017 04:46 19,5 °C 19,6 °C 88 % 1010,9 hPa 0,0 mm 0,2 km/h (0 Bft) S-SW 198 ° 0 min 0,000 mm 0,0 UV-I 0 W/m² 17,5 °C 19,5 °C 1,6 km/h (1 Bft)
04.08.2017 04:47 19,4 °C 19,5 °C 88 % 1011,0 hPa 0,0 mm 0,0 km/h (0 Bft) S-SW 198 ° 0 min 0,000 mm 0,0 UV-I 0 W/m² 17,4 °C 19,4 °C 0,0 km/h (0 Bft)
04.08.2017 04:48 19,3 °C 19,4 °C 88 % 1010,9 hPa 0,0 mm 0,0 km/h (0 Bft) S-SW 198 ° 0 min 0,000 mm 0,0 UV-I 0 W/m² 17,3 °C 19,3 °C 0,0 km/h (0 Bft)
04.08.2017 04:49 19,3 °C 19,3 °C 89 % 1010,9 hPa 0,0 mm 0,0 km/h (0 Bft) S-SW 198 ° 0 min 0,000 mm 0,0 UV-I 0 W/m² 17,4 °C 19,3 °C 0,0 km/h (0 Bft)
04.08.2017 04:50 19,2 °C 19,3 °C 89 % 1011,0 hPa 0,0 mm 0,0 km/h (0 Bft) S-SW 198 ° 0 min 0,000 mm 0,0 UV-I 0 W/m² 17,3 °C 19,2 °C 0,0 km/h (0 Bft)
04.08.2017 04:51 19,2 °C 19,3 °C 89 % 1010,9 hPa 0,0 mm 0,0 km/h (0 Bft) S-SW 198 ° 0 min 0,000 mm 0,0 UV-I 0 W/m² 17,3 °C 19,2 °C 0,0 km/h (0 Bft)
04.08.2017 04:52 19,2 °C 19,2 °C 89 % 1010,9 hPa 0,0 mm 0,0 km/h (0 Bft) S-SW 198 ° 0 min 0,000 mm 0,0 UV-I 0 W/m² 17,3 °C 19,2 °C 0,0 km/h (0 Bft)
04.08.2017 04:53 19,1 °C 19,2 °C 89 % 1011,0 hPa 0,0 mm 0,0 km/h (0 Bft) S-SW 198 ° 0 min 0,000 mm 0,0 UV-I 0 W/m² 17,2 °C 19,1 °C 0,0 km/h (0 Bft)
04.08.2017 04:54 19,2 °C 19,2 °C 90 % 1010,9 hPa 0,0 mm 0,0 km/h (0 Bft) S-SW 198 ° 0 min 0,000 mm 0,0 UV-I 0 W/m² 17,5 °C 19,2 °C 0,0 km/h (0 Bft)
04.08.2017 04:55 19,2 °C 19,2 °C 90 % 1011,0 hPa 0,0 mm 0,0 km/h (0 Bft) S-SW 198 ° 0 min 0,000 mm 0,0 UV-I 0 W/m² 17,5 °C 19,2 °C 0,0 km/h (0 Bft)
04.08.2017 04:56 19,2 °C 19,2 °C 90 % 1010,9 hPa 0,0 mm 0,0 km/h (0 Bft) S-SW 198 ° 0 min 0,000 mm 0,0 UV-I 0 W/m² 17,5 °C 19,2 °C 0,0 km/h (0 Bft)
04.08.2017 04:57 19,1 °C 19,2 °C 90 % 1011,0 hPa 0,0 mm 0,0 km/h (0 Bft) S-SW 198 ° 0 min 0,000 mm 0,0 UV-I 0 W/m² 17,4 °C 19,1 °C 0,0 km/h (0 Bft)
04.08.2017 04:58 19,2 °C 19,2 °C 90 % 1011,0 hPa 0,0 mm 0,0 km/h (0 Bft) S-SW 198 ° 0 min 0,000 mm 0,0 UV-I 0 W/m² 17,5 °C 19,2 °C 0,0 km/h (0 Bft)
04.08.2017 04:59 19,2 °C 19,2 °C 90 % 1011,0 hPa 0,0 mm 0,0 km/h (0 Bft) S-SW 198 ° 0 min 0,000 mm 0,0 UV-I 0 W/m² 17,5 °C 19,2 °C 0,0 km/h (0 Bft)
04.08.2017 05:00 19,2 °C 19,2 °C 90 % 1011,0 hPa 0,0 mm 0,0 km/h (0 Bft) S-SW 198 ° 0 min 0,000 mm 0,0 UV-I 0 W/m² 17,5 °C 19,2 °C 0,0 km/h (0 Bft)
04.08.2017 05:01 19,2 °C 19,3 °C 90 % 1011,1 hPa 0,0 mm 0,0 km/h (0 Bft) S-SW 198 ° 0 min 0,000 mm 0,0 UV-I 0 W/m² 17,5 °C 19,2 °C 0,0 km/h (0 Bft)
04.08.2017 05:02 19,2 °C 19,2 °C 90 % 1011,1 hPa 0,0 mm 0,0 km/h (0 Bft) S-SW 198 ° 0 min 0,000 mm 0,0 UV-I 0 W/m² 17,5 °C 19,2 °C 0,0 km/h (0 Bft)
04.08.2017 05:03 19,2 °C 19,2 °C 90 % 1011,1 hPa 0,0 mm 0,0 km/h (0 Bft) S-SW 198 ° 0 min 0,000 mm 0,0 UV-I 0 W/m² 17,5 °C 19,2 °C 0,0 km/h (0 Bft)
04.08.2017 05:04 19,1 °C 19,2 °C 90 % 1011,1 hPa 0,0 mm 0,0 km/h (0 Bft) S-SW 198 ° 0 min 0,000 mm 0,0 UV-I 0 W/m² 17,4 °C 19,1 °C 0,0 km/h (0 Bft)
04.08.2017 05:05 19,1 °C 19,1 °C 90 % 1011,1 hPa 0,0 mm 0,0 km/h (0 Bft) S-SW 198 ° 0 min 0,000 mm 0,0 UV-I 0 W/m² 17,4 °C 19,1 °C 0,0 km/h (0 Bft)
04.08.2017 05:06 19,1 °C 19,1 °C 90 % 1011,1 hPa 0,0 mm 0,0 km/h (0 Bft) S-SW 198 ° 0 min 0,000 mm 0,0 UV-I 0 W/m² 17,4 °C 19,1 °C 0,0 km/h (0 Bft)
04.08.2017 05:07 19,1 °C 19,1 °C 90 % 1011,1 hPa 0,0 mm 0,0 km/h (0 Bft) S-SW 198 ° 0 min 0,000 mm 0,0 UV-I 0 W/m² 17,4 °C 19,1 °C 0,0 km/h (0 Bft)
04.08.2017 05:08 19,1 °C 19,1 °C 91 % 1011,1 hPa 0,0 mm 0,0 km/h (0 Bft) S-SW 198 ° 0 min 0,000 mm 0,0 UV-I 0 W/m² 17,6 °C 19,1 °C 0,0 km/h (0 Bft)
04.08.2017 05:09 19,1 °C 19,1 °C 91 % 1011,0 hPa 0,0 mm 0,0 km/h (0 Bft) S-SW 198 ° 0 min 0,000 mm 0,0 UV-I 0 W/m² 17,6 °C 19,1 °C 0,0 km/h (0 Bft)
04.08.2017 05:10 19,1 °C 19,1 °C 91 % 1011,0 hPa 0,0 mm 0,0 km/h (0 Bft) S-SW 198 ° 0 min 0,000 mm 0,0 UV-I 0 W/m² 17,6 °C 19,1 °C 0,0 km/h (0 Bft)
04.08.2017 05:11 19,1 °C 19,1 °C 91 % 1011,0 hPa 0,0 mm 0,0 km/h (0 Bft) S-SW 198 ° 0 min 0,000 mm 0,0 UV-I 0 W/m² 17,6 °C 19,1 °C 0,0 km/h (0 Bft)
04.08.2017 05:12 19,1 °C 19,1 °C 91 % 1011,0 hPa 0,0 mm 0,0 km/h (0 Bft) S-SW 198 ° 0 min 0,000 mm 0,0 UV-I 0 W/m² 17,6 °C 19,1 °C 0,0 km/h (0 Bft)
04.08.2017 05:13 19,2 °C 19,2 °C 90 % 1011,1 hPa 0,0 mm 0,0 km/h (0 Bft) S-SW 198 ° 0 min 0,000 mm 0,0 UV-I 0 W/m² 17,5 °C 19,2 °C 0,0 km/h (0 Bft)
04.08.2017 05:14 19,2 °C 19,2 °C 91 % 1011,1 hPa 0,0 mm 0,0 km/h (0 Bft) S-SW 198 ° 0 min 0,000 mm 0,0 UV-I 0 W/m² 17,7 °C 19,2 °C 0,0 km/h (0 Bft)
04.08.2017 05:15 19,1 °C 19,2 °C 91 % 1011,1 hPa 0,0 mm 0,0 km/h (0 Bft) S-SW 198 ° 0 min 0,000 mm 0,0 UV-I 0 W/m² 17,6 °C 19,1 °C 0,0 km/h (0 Bft)
04.08.2017 05:16 19,1 °C 19,2 °C 91 % 1011,1 hPa 0,0 mm 0,0 km/h (0 Bft) S-SW 198 ° 0 min 0,000 mm 0,0 UV-I 0 W/m² 17,6 °C 19,1 °C 0,0 km/h (0 Bft)
04.08.2017 05:17 19,1 °C 19,1 °C 91 % 1011,1 hPa 0,0 mm 0,0 km/h (0 Bft) S-SW 198 ° 0 min 0,000 mm 0,0 UV-I 0 W/m² 17,6 °C 19,1 °C 0,0 km/h (0 Bft)
04.08.2017 05:18 19,1 °C 19,1 °C 91 % 1011,1 hPa 0,0 mm 0,0 km/h (0 Bft) S-SW 198 ° 0 min 0,000 mm 0,0 UV-I 0 W/m² 17,6 °C 19,1 °C 0,0 km/h (0 Bft)
04.08.2017 05:19 19,1 °C 19,1 °C 91 % 1011,1 hPa 0,0 mm 0,0 km/h (0 Bft) S-SW 198 ° 0 min 0,000 mm 0,0 UV-I 0 W/m² 17,6 °C 19,1 °C 0,0 km/h (0 Bft)
04.08.2017 05:20 19,1 °C 19,1 °C 91 % 1011,1 hPa 0,0 mm 0,0 km/h (0 Bft) S-SW 198 ° 0 min 0,000 mm 0,0 UV-I 0 W/m² 17,6 °C 19,1 °C 0,0 km/h (0 Bft)
04.08.2017 05:21 19,2 °C 19,2 °C 91 % 1011,1 hPa 0,0 mm 0,0 km/h (0 Bft) S-SW 198 ° 0 min 0,000 mm 0,0 UV-I 0 W/m² 17,7 °C 19,2 °C 0,0 km/h (0 Bft)
04.08.2017 05:22 19,3 °C 19,3 °C 90 % 1011,1 hPa 0,0 mm 0,0 km/h (0 Bft) S-SW 198 ° 0 min 0,000 mm 0,0 UV-I 0 W/m² 17,6 °C 19,3 °C 0,0 km/h (0 Bft)
04.08.2017 05:23 19,3 °C 19,3 °C 90 % 1011,1 hPa 0,0 mm 0,0 km/h (0 Bft) S-SW 198 ° 0 min 0,000 mm 0,0 UV-I 0 W/m² 17,6 °C 19,3 °C 0,0 km/h (0 Bft)
04.08.2017 05:24 19,3 °C 19,3 °C 90 % 1011,1 hPa 0,0 mm 0,0 km/h (0 Bft) S-SW 198 ° 0 min 0,000 mm 0,0 UV-I 0 W/m² 17,6 °C 19,3 °C 0,0 km/h (0 Bft)
04.08.2017 05:25 19,3 °C 19,3 °C 90 % 1011,1 hPa 0,0 mm 0,0 km/h (0 Bft) S-SW 198 ° 0 min 0,000 mm 0,0 UV-I 0 W/m² 17,6 °C 19,3 °C 0,0 km/h (0 Bft)
04.08.2017 05:26 19,3 °C 19,3 °C 90 % 1011,2 hPa 0,0 mm 0,0 km/h (0 Bft) S-SW 198 ° 0 min 0,000 mm 0,0 UV-I 0 W/m² 17,6 °C 19,3 °C 0,0 km/h (0 Bft)
04.08.2017 05:27 19,3 °C 19,3 °C 90 % 1011,2 hPa 0,0 mm 0,0 km/h (0 Bft) S-SW 198 ° 0 min 0,000 mm 0,0 UV-I 0 W/m² 17,6 °C 19,3 °C 0,0 km/h (0 Bft)
04.08.2017 05:28 19,3 °C 19,3 °C 90 % 1011,2 hPa 0,0 mm 0,0 km/h (0 Bft) S-SW 198 ° 0 min 0,000 mm 0,0 UV-I 0 W/m² 17,6 °C 19,3 °C 0,0 km/h (0 Bft)
04.08.2017 05:29 19,3 °C 19,3 °C 90 % 1011,2 hPa 0,0 mm 0,0 km/h (0 Bft) S-SW 198 ° 0 min 0,000 mm 0,0 UV-I 0 W/m² 17,6 °C 19,3 °C 0,0 km/h (0 Bft)
04.08.2017 05:30 19,4 °C 19,4 °C 90 % 1011,2 hPa 0,0 mm 0,0 km/h (0 Bft) S-SW 198 ° 0 min 0,000 mm 0,0 UV-I 0 W/m² 17,7 °C 19,4 °C 0,0 km/h (0 Bft)
04.08.2017 05:31 19,3 °C 19,4 °C 90 % 1011,2 hPa 0,0 mm 0,0 km/h (0 Bft) S-SW 198 ° 0 min 0,000 mm 0,0 UV-I 0 W/m² 17,6 °C 19,3 °C 0,0 km/h (0 Bft)
04.08.2017 05:32 19,4 °C 19,4 °C 90 % 1011,3 hPa 0,0 mm 0,0 km/h (0 Bft) S-SW 198 ° 0 min 0,000 mm 0,0 UV-I 0 W/m² 17,7 °C 19,4 °C 0,0 km/h (0 Bft)
04.08.2017 05:33 19,4 °C 19,4 °C 90 % 1011,3 hPa 0,0 mm 0,4 km/h (0 Bft) S-SW 198 ° 0 min 0,000 mm 0,0 UV-I 0 W/m² 17,7 °C 19,4 °C 1,6 km/h (1 Bft)
04.08.2017 05:34 19,4 °C 19,4 °C 89 % 1011,3 hPa 0,0 mm 0,5 km/h (0 Bft) S-SW 198 ° 0 min 0,000 mm 0,0 UV-I 0 W/m² 17,5 °C 19,4 °C 1,6 km/h (1 Bft)
04.08.2017 05:35 19,5 °C 19,5 °C 89 % 1011,4 hPa 0,0 mm 0,0 km/h (0 Bft) S-SW 198 ° 0 min 0,000 mm 0,0 UV-I 0 W/m² 17,6 °C 19,5 °C 0,0 km/h (0 Bft)
04.08.2017 05:36 19,6 °C 19,6 °C 89 % 1011,4 hPa 0,0 mm 0,1 km/h (0 Bft) S-SW 198 ° 0 min 0,000 mm 0,0 UV-I 0 W/m² 17,7 °C 19,6 °C 1,6 km/h (1 Bft)
04.08.2017 05:37 19,7 °C 19,7 °C 88 % 1011,4 hPa 0,0 mm 0,2 km/h (0 Bft) S-SW 198 ° 0 min 0,000 mm 0,0 UV-I 0 W/m² 17,7 °C 19,7 °C 1,6 km/h (1 Bft)
04.08.2017 05:38 19,7 °C 19,7 °C 89 % 1011,4 hPa 0,0 mm 0,6 km/h (0 Bft) S-SW 198 ° 0 min 0,000 mm 0,0 UV-I 0 W/m² 17,8 °C 19,7 °C 1,6 km/h (1 Bft)
04.08.2017 05:39 19,7 °C 19,7 °C 89 % 1011,4 hPa 0,0 mm 0,0 km/h (0 Bft) S-SW 198 ° 0 min 0,000 mm 0,0 UV-I 0 W/m² 17,8 °C 19,7 °C 0,0 km/h (0 Bft)
04.08.2017 05:40 19,7 °C 19,7 °C 89 % 1011,4 hPa 0,0 mm 0,0 km/h (0 Bft) S-SW 198 ° 0 min 0,000 mm 0,0 UV-I 0 W/m² 17,8 °C 19,7 °C 0,0 km/h (0 Bft)
04.08.2017 05:41 19,6 °C 19,7 °C 89 % 1011,3 hPa 0,0 mm 0,0 km/h (0 Bft) S-SW 198 ° 0 min 0,000 mm 0,0 UV-I 0 W/m² 17,7 °C 19,6 °C 0,0 km/h (0 Bft)
04.08.2017 05:42 19,6 °C 19,6 °C 89 % 1011,4 hPa 0,0 mm 0,0 km/h (0 Bft) S-SW 198 ° 0 min 0,000 mm 0,0 UV-I 0 W/m² 17,7 °C 19,6 °C 0,0 km/h (0 Bft)
04.08.2017 05:43 19,5 °C 19,6 °C 89 % 1011,4 hPa 0,0 mm 0,0 km/h (0 Bft) S-SW 198 ° 0 min 0,000 mm 0,0 UV-I 0 W/m² 17,6 °C 19,5 °C 0,0 km/h (0 Bft)
04.08.2017 05:44 19,5 °C 19,5 °C 89 % 1011,4 hPa 0,0 mm 0,0 km/h (0 Bft) S-SW 198 ° 0 min 0,000 mm 0,0 UV-I 0 W/m² 17,6 °C 19,5 °C 0,0 km/h (0 Bft)
04.08.2017 05:45 19,4 °C 19,5 °C 89 % 1011,4 hPa 0,0 mm 0,0 km/h (0 Bft) S-SW 198 ° 0 min 0,000 mm 0,0 UV-I 0 W/m² 17,5 °C 19,4 °C 0,0 km/h (0 Bft)
04.08.2017 05:46 19,4 °C 19,4 °C 90 % 1011,4 hPa 0,0 mm 0,0 km/h (0 Bft) S-SW 198 ° 0 min 0,000 mm 0,0 UV-I 0 W/m² 17,7 °C 19,4 °C 0,0 km/h (0 Bft)
04.08.2017 05:47 19,4 °C 19,4 °C 90 % 1011,4 hPa 0,0 mm 0,0 km/h (0 Bft) S-SW 198 ° 0 min 0,000 mm 0,0 UV-I 0 W/m² 17,7 °C 19,4 °C 0,0 km/h (0 Bft)
04.08.2017 05:48 19,3 °C 19,4 °C 90 % 1011,4 hPa 0,0 mm 0,0 km/h (0 Bft) S-SW 198 ° 0 min 0,000 mm 0,0 UV-I 0 W/m² 17,6 °C 19,3 °C 0,0 km/h (0 Bft)
04.08.2017 05:49 19,3 °C 19,3 °C 90 % 1011,4 hPa 0,0 mm 0,6 km/h (0 Bft) S-SW 198 ° 0 min 0,000 mm 0,0 UV-I 0 W/m² 17,6 °C 19,3 °C 1,6 km/h (1 Bft)
04.08.2017 05:50 19,3 °C 19,3 °C 90 % 1011,5 hPa 0,0 mm 0,0 km/h (0 Bft) S-SW 198 ° 0 min 0,000 mm 0,0 UV-I 0 W/m² 17,6 °C 19,3 °C 0,0 km/h (0 Bft)
04.08.2017 05:51 19,4 °C 19,4 °C 89 % 1011,5 hPa 0,0 mm 0,0 km/h (0 Bft) S-SW 198 ° 0 min 0,000 mm 0,0 UV-I 0 W/m² 17,5 °C 19,4 °C 0,0 km/h (0 Bft)
04.08.2017 05:52 19,3 °C 19,4 °C 89 % 1011,5 hPa 0,0 mm 0,1 km/h (0 Bft) S-SW 198 ° 0 min 0,000 mm 0,0 UV-I 0 W/m² 17,4 °C 19,3 °C 1,6 km/h (1 Bft)
04.08.2017 05:53 19,4 °C 19,4 °C 89 % 1011,5 hPa 0,0 mm 0,0 km/h (0 Bft) S-SW 198 ° 0 min 0,000 mm 0,0 UV-I 0 W/m² 17,5 °C 19,4 °C 0,0 km/h (0 Bft)
04.08.2017 05:54 19,3 °C 19,4 °C 89 % 1011,5 hPa 0,0 mm 0,0 km/h (0 Bft) S-SW 198 ° 0 min 0,000 mm 0,0 UV-I 0 W/m² 17,4 °C 19,3 °C 0,0 km/h (0 Bft)
04.08.2017 05:55 19,3 °C 19,4 °C 89 % 1011,5 hPa 0,0 mm 0,0 km/h (0 Bft) S-SW 198 ° 0 min 0,000 mm 0,0 UV-I 0 W/m² 17,4 °C 19,3 °C 0,0 km/h (0 Bft)
04.08.2017 05:56 19,3 °C 19,3 °C 89 % 1011,5 hPa 0,0 mm 0,0 km/h (0 Bft) S-SW 198 ° 0 min 0,000 mm 0,0 UV-I 0 W/m² 17,4 °C 19,3 °C 0,0 km/h (0 Bft)
04.08.2017 05:57 19,2 °C 19,3 °C 89 % 1011,6 hPa 0,0 mm 0,0 km/h (0 Bft) S-SW 198 ° 0 min 0,000 mm 0,0 UV-I 0 W/m² 17,3 °C 19,2 °C 0,0 km/h (0 Bft)
04.08.2017 05:58 19,1 °C 19,2 °C 89 % 1011,6 hPa 0,0 mm 0,0 km/h (0 Bft) S-SW 198 ° 0 min 0,000 mm 0,0 UV-I 0 W/m² 17,2 °C 19,1 °C 0,0 km/h (0 Bft)
04.08.2017 05:59 19,1 °C 19,1 °C 90 % 1011,5 hPa 0,0 mm 0,0 km/h (0 Bft) S-SW 198 ° 0 min 0,000 mm 0,0 UV-I 0 W/m² 17,4 °C 19,1 °C 0,0 km/h (0 Bft)
04.08.2017 06:00 19,1 °C 19,1 °C 90 % 1011,6 hPa 0,0 mm 0,0 km/h (0 Bft) S-SW 198 ° 0 min 0,000 mm 0,0 UV-I 0 W/m² 17,4 °C 19,1 °C 0,0 km/h (0 Bft)
04.08.2017 06:01 19,1 °C 19,1 °C 90 % 1011,6 hPa 0,0 mm 0,0 km/h (0 Bft) S-SW 198 ° 0 min 0,000 mm 0,0 UV-I 0 W/m² 17,4 °C 19,1 °C 0,0 km/h (0 Bft)
04.08.2017 06:02 19,1 °C 19,1 °C 90 % 1011,6 hPa 0,0 mm 0,0 km/h (0 Bft) S-SW 198 ° 0 min 0,000 mm 0,0 UV-I 0 W/m² 17,4 °C 19,1 °C 0,0 km/h (0 Bft)
04.08.2017 06:03 19,1 °C 19,1 °C 90 % 1011,6 hPa 0,0 mm 0,0 km/h (0 Bft) S-SW 198 ° 0 min 0,000 mm 0,0 UV-I 0 W/m² 17,4 °C 19,1 °C 0,0 km/h (0 Bft)
04.08.2017 06:04 19,1 °C 19,1 °C 90 % 1011,6 hPa 0,0 mm 0,0 km/h (0 Bft) S-SW 198 ° 0 min 0,000 mm 0,0 UV-I 0 W/m² 17,4 °C 19,1 °C 0,0 km/h (0 Bft)
04.08.2017 06:05 19,2 °C 19,2 °C 90 % 1011,5 hPa 0,0 mm 0,0 km/h (0 Bft) S-SW 198 ° 0 min 0,000 mm 0,0 UV-I 0 W/m² 17,5 °C 19,2 °C 0,0 km/h (0 Bft)
04.08.2017 06:06 19,2 °C 19,2 °C 89 % 1011,5 hPa 0,0 mm 0,0 km/h (0 Bft) S-SW 198 ° 0 min 0,000 mm 0,0 UV-I 0 W/m² 17,3 °C 19,2 °C 0,0 km/h (0 Bft)
04.08.2017 06:07 19,1 °C 19,2 °C 89 % 1011,6 hPa 0,0 mm 0,0 km/h (0 Bft) S-SW 198 ° 0 min 0,000 mm 0,0 UV-I 0 W/m² 17,2 °C 19,1 °C 0,0 km/h (0 Bft)
04.08.2017 06:08 19,1 °C 19,1 °C 90 % 1011,5 hPa 0,0 mm 0,0 km/h (0 Bft) S-SW 198 ° 0 min 0,000 mm 0,0 UV-I 0 W/m² 17,4 °C 19,1 °C 0,0 km/h (0 Bft)
04.08.2017 06:09 19,1 °C 19,1 °C 90 % 1011,5 hPa 0,0 mm 0,0 km/h (0 Bft) S-SW 198 ° 0 min 0,000 mm 0,0 UV-I 5 W/m² 17,4 °C 19,1 °C 0,0 km/h (0 Bft)
04.08.2017 06:10 19,0 °C 19,1 °C 90 % 1011,6 hPa 0,0 mm 0,0 km/h (0 Bft) S-SW 198 ° 0 min 0,000 mm 0,0 UV-I 5 W/m² 17,3 °C 19,0 °C 0,0 km/h (0 Bft)
04.08.2017 06:11 19,0 °C 19,0 °C 90 % 1011,6 hPa 0,0 mm 0,0 km/h (0 Bft) S-SW 198 ° 0 min 0,000 mm 0,0 UV-I 5 W/m² 17,3 °C 19,0 °C 0,0 km/h (0 Bft)
04.08.2017 06:12 19,0 °C 19,0 °C 90 % 1011,6 hPa 0,0 mm 0,0 km/h (0 Bft) S-SW 198 ° 0 min 0,000 mm 0,0 UV-I 7 W/m² 17,3 °C 19,0 °C 0,0 km/h (0 Bft)
04.08.2017 06:13 19,0 °C 19,0 °C 90 % 1011,5 hPa 0,0 mm 0,0 km/h (0 Bft) S-SW 198 ° 0 min 0,000 mm 0,0 UV-I 7 W/m² 17,3 °C 19,0 °C 0,0 km/h (0 Bft)
04.08.2017 06:14 19,0 °C 19,0 °C 90 % 1011,6 hPa 0,0 mm 0,0 km/h (0 Bft) S-SW 198 ° 0 min 0,000 mm 0,0 UV-I 9 W/m² 17,3 °C 19,0 °C 0,0 km/h (0 Bft)
04.08.2017 06:15 18,9 °C 19,0 °C 90 % 1011,6 hPa 0,0 mm 0,0 km/h (0 Bft) S-SW 198 ° 0 min 0,000 mm 0,0 UV-I 9 W/m² 17,2 °C 18,9 °C 0,0 km/h (0 Bft)
04.08.2017 06:16 18,9 °C 19,0 °C 90 % 1011,6 hPa 0,0 mm 0,0 km/h (0 Bft) S-SW 198 ° 0 min 0,000 mm 0,0 UV-I 9 W/m² 17,2 °C 18,9 °C 0,0 km/h (0 Bft)
04.08.2017 06:17 18,9 °C 19,0 °C 90 % 1011,6 hPa 0,0 mm 0,0 km/h (0 Bft) S-SW 198 ° 0 min 0,000 mm 0,0 UV-I 9 W/m² 17,2 °C 18,9 °C 0,0 km/h (0 Bft)
04.08.2017 06:18 18,9 °C 18,9 °C 90 % 1011,6 hPa 0,0 mm 0,0 km/h (0 Bft) S-SW 198 ° 0 min 0,000 mm 0,0 UV-I 9 W/m² 17,2 °C 18,9 °C 0,0 km/h (0 Bft)
04.08.2017 06:19 18,8 °C 18,9 °C 90 % 1011,6 hPa 0,0 mm 0,0 km/h (0 Bft) S-SW 198 ° 0 min 0,000 mm 0,0 UV-I 11 W/m² 17,1 °C 18,8 °C 0,0 km/h (0 Bft)
04.08.2017 06:20 18,8 °C 18,9 °C 91 % 1011,6 hPa 0,0 mm 0,0 km/h (0 Bft) S-SW 198 ° 0 min 0,000 mm 0,0 UV-I 11 W/m² 17,3 °C 18,8 °C 0,0 km/h (0 Bft)
04.08.2017 06:21 18,8 °C 18,8 °C 91 % 1011,6 hPa 0,0 mm 0,0 km/h (0 Bft) S-SW 198 ° 0 min 0,000 mm 0,0 UV-I 12 W/m² 17,3 °C 18,8 °C 0,0 km/h (0 Bft)
04.08.2017 06:22 18,8 °C 18,8 °C 91 % 1011,6 hPa 0,0 mm 0,0 km/h (0 Bft) S-SW 198 ° 0 min 0,000 mm 0,0 UV-I 14 W/m² 17,3 °C 18,8 °C 0,0 km/h (0 Bft)
04.08.2017 06:23 18,8 °C 18,8 °C 91 % 1011,6 hPa 0,0 mm 0,0 km/h (0 Bft) S-SW 198 ° 0 min 0,000 mm 0,0 UV-I 16 W/m² 17,3 °C 18,8 °C 0,0 km/h (0 Bft)
04.08.2017 06:24 18,7 °C 18,8 °C 91 % 1011,6 hPa 0,0 mm 0,0 km/h (0 Bft) S-SW 198 ° 0 min 0,000 mm 0,0 UV-I 19 W/m² 17,2 °C 18,7 °C 0,0 km/h (0 Bft)
04.08.2017 06:25 18,7 °C 18,7 °C 91 % 1011,6 hPa 0,0 mm 0,0 km/h (0 Bft) S-SW 198 ° 0 min 0,000 mm 0,0 UV-I 23 W/m² 17,2 °C 18,7 °C 0,0 km/h (0 Bft)
04.08.2017 06:26 18,8 °C 18,8 °C 91 % 1011,6 hPa 0,0 mm 0,0 km/h (0 Bft) S-SW 198 ° 0 min 0,000 mm 0,0 UV-I 32 W/m² 17,3 °C 18,8 °C 0,0 km/h (0 Bft)
04.08.2017 06:27 18,8 °C 18,8 °C 92 % 1011,7 hPa 0,0 mm 0,0 km/h (0 Bft) S-SW 198 ° 0 min 0,000 mm 0,0 UV-I 35 W/m² 17,5 °C 18,8 °C 0,0 km/h (0 Bft)
04.08.2017 06:28 18,9 °C 18,9 °C 91 % 1011,7 hPa 0,0 mm 0,0 km/h (0 Bft) S-SW 198 ° 0 min 0,000 mm 0,0 UV-I 40 W/m² 17,4 °C 18,9 °C 0,0 km/h (0 Bft)
04.08.2017 06:29 18,9 °C 18,9 °C 91 % 1011,6 hPa 0,0 mm 0,0 km/h (0 Bft) S-SW 198 ° 0 min 0,000 mm 0,0 UV-I 44 W/m² 17,4 °C 18,9 °C 0,0 km/h (0 Bft)
04.08.2017 06:30 18,9 °C 18,9 °C 91 % 1011,7 hPa 0,0 mm 0,0 km/h (0 Bft) S-SW 198 ° 0 min 0,000 mm 0,0 UV-I 46 W/m² 17,4 °C 18,9 °C 0,0 km/h (0 Bft)
04.08.2017 06:31 18,9 °C 18,9 °C 91 % 1011,6 hPa 0,0 mm 0,0 km/h (0 Bft) S-SW 198 ° 0 min 0,000 mm 0,0 UV-I 46 W/m² 17,4 °C 18,9 °C 0,0 km/h (0 Bft)
04.08.2017 06:32 19,1 °C 19,1 °C 91 % 1011,7 hPa 0,0 mm 0,0 km/h (0 Bft) S-SW 198 ° 0 min 0,000 mm 0,0 UV-I 46 W/m² 17,6 °C 19,1 °C 0,0 km/h (0 Bft)
04.08.2017 06:33 19,2 °C 19,2 °C 91 % 1011,6 hPa 0,0 mm 0,0 km/h (0 Bft) S-SW 198 ° 0 min 0,000 mm 0,0 UV-I 44 W/m² 17,7 °C 19,2 °C 0,0 km/h (0 Bft)
04.08.2017 06:34 19,2 °C 19,2 °C 91 % 1011,6 hPa 0,0 mm 0,0 km/h (0 Bft) S-SW 198 ° 0 min 0,000 mm 0,0 UV-I 44 W/m² 17,7 °C 19,2 °C 0,0 km/h (0 Bft)
04.08.2017 06:35 19,2 °C 19,2 °C 91 % 1011,7 hPa 0,0 mm 0,0 km/h (0 Bft) S-SW 198 ° 0 min 0,000 mm 0,0 UV-I 44 W/m² 17,7 °C 19,2 °C 0,0 km/h (0 Bft)
04.08.2017 06:36 19,3 °C 19,3 °C 91 % 1011,7 hPa 0,0 mm 0,0 km/h (0 Bft) S-SW 198 ° 0 min 0,000 mm 0,0 UV-I 42 W/m² 17,8 °C 19,3 °C 0,0 km/h (0 Bft)
04.08.2017 06:37 19,3 °C 19,3 °C 91 % 1011,7 hPa 0,0 mm 0,0 km/h (0 Bft) S-SW 198 ° 0 min 0,000 mm 0,0 UV-I 40 W/m² 17,8 °C 19,3 °C 0,0 km/h (0 Bft)
04.08.2017 06:38 19,3 °C 19,3 °C 91 % 1011,8 hPa 0,0 mm 0,0 km/h (0 Bft) S-SW 198 ° 0 min 0,000 mm 0,0 UV-I 40 W/m² 17,8 °C 19,3 °C 0,0 km/h (0 Bft)
04.08.2017 06:39 19,4 °C 19,4 °C 91 % 1011,7 hPa 0,0 mm 0,0 km/h (0 Bft) S-SW 198 ° 0 min 0,000 mm 0,0 UV-I 39 W/m² 17,9 °C 19,4 °C 0,0 km/h (0 Bft)
04.08.2017 06:40 19,4 °C 19,4 °C 91 % 1011,7 hPa 0,0 mm 0,0 km/h (0 Bft) S-SW 198 ° 0 min 0,000 mm 0,0 UV-I 37 W/m² 17,9 °C 19,4 °C 0,0 km/h (0 Bft)
04.08.2017 06:41 19,5 °C 19,5 °C 91 % 1011,7 hPa 0,0 mm 0,0 km/h (0 Bft) S-SW 198 ° 0 min 0,000 mm 0,0 UV-I 37 W/m² 18,0 °C 19,5 °C 0,0 km/h (0 Bft)
04.08.2017 06:42 19,5 °C 19,5 °C 91 % 1011,8 hPa 0,0 mm 0,0 km/h (0 Bft) S-SW 198 ° 0 min 0,000 mm 0,0 UV-I 37 W/m² 18,0 °C 19,5 °C 0,0 km/h (0 Bft)
04.08.2017 06:43 19,6 °C 19,6 °C 91 % 1011,8 hPa 0,0 mm 0,0 km/h (0 Bft) S-SW 198 ° 0 min 0,000 mm 0,0 UV-I 39 W/m² 18,1 °C 19,6 °C 0,0 km/h (0 Bft)
04.08.2017 06:44 19,6 °C 19,6 °C 91 % 1011,8 hPa 0,0 mm 0,0 km/h (0 Bft) S-SW 198 ° 0 min 0,000 mm 0,0 UV-I 39 W/m² 18,1 °C 19,6 °C 0,0 km/h (0 Bft)
04.08.2017 06:45 19,7 °C 19,7 °C 90 % 1011,8 hPa 0,0 mm 0,0 km/h (0 Bft) S-SW 198 ° 0 min 0,000 mm 0,0 UV-I 39 W/m² 18,0 °C 19,7 °C 0,0 km/h (0 Bft)
04.08.2017 06:46 19,7 °C 19,7 °C 90 % 1011,8 hPa 0,0 mm 0,0 km/h (0 Bft) S-SW 198 ° 0 min 0,000 mm 0,0 UV-I 39 W/m² 18,0 °C 19,7 °C 0,0 km/h (0 Bft)
04.08.2017 06:47 19,7 °C 19,7 °C 90 % 1011,7 hPa 0,0 mm 0,0 km/h (0 Bft) S-SW 198 ° 0 min 0,000 mm 0,0 UV-I 39 W/m² 18,0 °C 19,7 °C 0,0 km/h (0 Bft)
04.08.2017 06:48 19,6 °C 19,7 °C 90 % 1011,8 hPa 0,0 mm 0,0 km/h (0 Bft) S-SW 198 ° 0 min 0,000 mm 0,0 UV-I 39 W/m² 17,9 °C 19,6 °C 0,0 km/h (0 Bft)
04.08.2017 06:49 19,6 °C 19,6 °C 90 % 1011,8 hPa 0,0 mm 0,0 km/h (0 Bft) S-SW 198 ° 0 min 0,000 mm 0,0 UV-I 37 W/m² 17,9 °C 19,6 °C 0,0 km/h (0 Bft)
04.08.2017 06:50 19,6 °C 19,6 °C 90 % 1011,8 hPa 0,0 mm 0,0 km/h (0 Bft) S-SW 198 ° 0 min 0,000 mm 0,0 UV-I 32 W/m² 17,9 °C 19,6 °C 0,0 km/h (0 Bft)
04.08.2017 06:51 19,6 °C 19,6 °C 90 % 1011,8 hPa 0,0 mm 0,0 km/h (0 Bft) S-SW 198 ° 0 min 0,000 mm 0,0 UV-I 30 W/m² 17,9 °C 19,6 °C 0,0 km/h (0 Bft)
04.08.2017 06:52 19,7 °C 19,7 °C 90 % 1011,8 hPa 0,0 mm 0,0 km/h (0 Bft) S-SW 198 ° 0 min 0,000 mm 0,0 UV-I 28 W/m² 18,0 °C 19,7 °C 0,0 km/h (0 Bft)
04.08.2017 06:53 19,7 °C 19,7 °C 90 % 1011,7 hPa 0,0 mm 0,0 km/h (0 Bft) S-SW 198 ° 0 min 0,000 mm 0,0 UV-I 26 W/m² 18,0 °C 19,7 °C 0,0 km/h (0 Bft)
04.08.2017 06:54 19,7 °C 19,7 °C 91 % 1011,8 hPa 0,0 mm 0,0 km/h (0 Bft) S-SW 198 ° 0 min 0,000 mm 0,0 UV-I 26 W/m² 18,2 °C 19,7 °C 0,0 km/h (0 Bft)
04.08.2017 06:55 19,8 °C 19,8 °C 91 % 1011,8 hPa 0,0 mm 0,0 km/h (0 Bft) S-SW 198 ° 0 min 0,000 mm 0,0 UV-I 26 W/m² 18,3 °C 19,8 °C 0,0 km/h (0 Bft)
04.08.2017 06:56 19,7 °C 19,8 °C 90 % 1011,8 hPa 0,0 mm 0,0 km/h (0 Bft) S-SW 198 ° 0 min 0,000 mm 0,0 UV-I 26 W/m² 18,0 °C 19,7 °C 0,0 km/h (0 Bft)
04.08.2017 06:57 19,7 °C 19,7 °C 90 % 1011,8 hPa 0,0 mm 0,0 km/h (0 Bft) S-SW 198 ° 0 min 0,000 mm 0,0 UV-I 26 W/m² 18,0 °C 19,7 °C 0,0 km/h (0 Bft)
04.08.2017 06:58 19,6 °C 19,7 °C 90 % 1011,7 hPa 0,0 mm 0,0 km/h (0 Bft) S-SW 198 ° 0 min 0,000 mm 0,0 UV-I 28 W/m² 17,9 °C 19,6 °C 0,0 km/h (0 Bft)
04.08.2017 06:59 19,5 °C 19,6 °C 91 % 1011,7 hPa 0,0 mm 0,4 km/h (0 Bft) S-SW 198 ° 0 min 0,000 mm 0,0 UV-I 28 W/m² 18,0 °C 19,5 °C 1,6 km/h (1 Bft)
04.08.2017 07:00 19,4 °C 19,6 °C 91 % 1011,7 hPa 0,0 mm 0,3 km/h (0 Bft) S-SW 198 ° 0 min 0,000 mm 0,0 UV-I 30 W/m² 17,9 °C 19,4 °C 1,6 km/h (1 Bft)
04.08.2017 07:01 19,4 °C 19,4 °C 91 % 1011,7 hPa 0,0 mm 0,0 km/h (0 Bft) S-SW 198 ° 0 min 0,025 mm 0,0 UV-I 30 W/m² 17,9 °C 19,4 °C 0,0 km/h (0 Bft)
04.08.2017 07:02 19,3 °C 19,4 °C 91 % 1011,7 hPa 0,0 mm 0,1 km/h (0 Bft) S-SW 198 ° 0 min 0,000 mm 0,0 UV-I 32 W/m² 17,8 °C 19,3 °C 1,6 km/h (1 Bft)
04.08.2017 07:03 19,3 °C 19,3 °C 91 % 1011,7 hPa 0,0 mm 0,0 km/h (0 Bft) S-SW 198 ° 0 min 0,000 mm 0,0 UV-I 32 W/m² 17,8 °C 19,3 °C 0,0 km/h (0 Bft)
04.08.2017 07:04 19,3 °C 19,3 °C 91 % 1011,7 hPa 0,0 mm 0,0 km/h (0 Bft) S-SW 198 ° 0 min 0,000 mm 0,0 UV-I 33 W/m² 17,8 °C 19,3 °C 0,0 km/h (0 Bft)
04.08.2017 07:05 19,3 °C 19,3 °C 91 % 1011,6 hPa 0,0 mm 0,0 km/h (0 Bft) S-SW 198 ° 0 min 0,000 mm 0,0 UV-I 33 W/m² 17,8 °C 19,3 °C 0,0 km/h (0 Bft)
04.08.2017 07:06 19,3 °C 19,3 °C 92 % 1011,7 hPa 0,0 mm 0,0 km/h (0 Bft) S-SW 198 ° 0 min 0,000 mm 0,0 UV-I 35 W/m² 18,0 °C 19,3 °C 0,0 km/h (0 Bft)
04.08.2017 07:07 19,4 °C 19,4 °C 92 % 1011,6 hPa 0,0 mm 0,0 km/h (0 Bft) S-SW 198 ° 0 min 0,000 mm 0,0 UV-I 40 W/m² 18,1 °C 19,4 °C 0,0 km/h (0 Bft)
04.08.2017 07:08 19,4 °C 19,4 °C 92 % 1011,7 hPa 0,0 mm 0,0 km/h (0 Bft) S-SW 198 ° 0 min 0,000 mm 0,0 UV-I 42 W/m² 18,1 °C 19,4 °C 0,0 km/h (0 Bft)
04.08.2017 07:09 19,4 °C 19,4 °C 92 % 1011,7 hPa 0,0 mm 0,0 km/h (0 Bft) S-SW 198 ° 0 min 0,000 mm 0,0 UV-I 42 W/m² 18,1 °C 19,4 °C 0,0 km/h (0 Bft)
04.08.2017 07:10 19,5 °C 19,5 °C 92 % 1011,7 hPa 0,0 mm 0,0 km/h (0 Bft) S-SW 198 ° 0 min 0,000 mm 0,0 UV-I 42 W/m² 18,2 °C 19,5 °C 0,0 km/h (0 Bft)
04.08.2017 07:11 19,6 °C 19,6 °C 92 % 1011,7 hPa 0,0 mm 0,0 km/h (0 Bft) S-SW 198 ° 0 min 0,000 mm 0,0 UV-I 42 W/m² 18,3 °C 19,6 °C 0,0 km/h (0 Bft)
04.08.2017 07:12 19,6 °C 19,6 °C 91 % 1011,7 hPa 0,0 mm 0,0 km/h (0 Bft) S-SW 198 ° 0 min 0,000 mm 0,0 UV-I 40 W/m² 18,1 °C 19,6 °C 0,0 km/h (0 Bft)
04.08.2017 07:13 19,7 °C 19,7 °C 91 % 1011,7 hPa 0,0 mm 0,0 km/h (0 Bft) S-SW 198 ° 0 min 0,000 mm 0,0 UV-I 39 W/m² 18,2 °C 19,7 °C 0,0 km/h (0 Bft)
04.08.2017 07:14 19,8 °C 19,8 °C 92 % 1011,6 hPa 0,0 mm 0,0 km/h (0 Bft) S-SW 198 ° 0 min 0,000 mm 0,0 UV-I 39 W/m² 18,5 °C 19,8 °C 0,0 km/h (0 Bft)
04.08.2017 07:15 19,8 °C 19,8 °C 91 % 1011,6 hPa 0,0 mm 0,0 km/h (0 Bft) S-SW 198 ° 0 min 0,000 mm 0,0 UV-I 39 W/m² 18,3 °C 19,8 °C 0,0 km/h (0 Bft)
04.08.2017 07:16 19,8 °C 19,8 °C 91 % 1011,7 hPa 0,0 mm 0,0 km/h (0 Bft) S-SW 198 ° 0 min 0,000 mm 0,0 UV-I 40 W/m² 18,3 °C 19,8 °C 0,0 km/h (0 Bft)
04.08.2017 07:17 19,9 °C 19,9 °C 91 % 1011,6 hPa 0,0 mm 0,0 km/h (0 Bft) S-SW 198 ° 0 min 0,000 mm 0,0 UV-I 42 W/m² 18,4 °C 19,9 °C 0,0 km/h (0 Bft)
04.08.2017 07:18 19,9 °C 19,9 °C 91 % 1011,7 hPa 0,0 mm 0,0 km/h (0 Bft) S-SW 198 ° 0 min 0,000 mm 0,0 UV-I 42 W/m² 18,4 °C 19,9 °C 0,0 km/h (0 Bft)
04.08.2017 07:19 19,9 °C 19,9 °C 91 % 1011,6 hPa 0,0 mm 0,0 km/h (0 Bft) S-SW 198 ° 0 min 0,000 mm 0,0 UV-I 42 W/m² 18,4 °C 19,9 °C 0,0 km/h (0 Bft)
04.08.2017 07:20 19,9 °C 19,9 °C 91 % 1011,6 hPa 0,0 mm 0,0 km/h (0 Bft) S-SW 198 ° 0 min 0,000 mm 0,0 UV-I 42 W/m² 18,4 °C 19,9 °C 0,0 km/h (0 Bft)
04.08.2017 07:21 19,9 °C 19,9 °C 91 % 1011,6 hPa 0,0 mm 0,0 km/h (0 Bft) S-SW 198 ° 0 min 0,000 mm 0,0 UV-I 42 W/m² 18,4 °C 19,9 °C 0,0 km/h (0 Bft)
04.08.2017 07:22 19,9 °C 19,9 °C 91 % 1011,6 hPa 0,0 mm 0,0 km/h (0 Bft) S-SW 198 ° 0 min 0,000 mm 0,0 UV-I 44 W/m² 18,4 °C 19,9 °C 0,0 km/h (0 Bft)
04.08.2017 07:23 19,9 °C 19,9 °C 91 % 1011,6 hPa 0,0 mm 0,0 km/h (0 Bft) S-SW 198 ° 0 min 0,000 mm 0,0 UV-I 46 W/m² 18,4 °C 19,9 °C 0,0 km/h (0 Bft)
04.08.2017 07:24 19,8 °C 19,9 °C 91 % 1011,6 hPa 0,0 mm 0,0 km/h (0 Bft) S-SW 198 ° 0 min 0,000 mm 0,0 UV-I 47 W/m² 18,3 °C 19,8 °C 0,0 km/h (0 Bft)
04.08.2017 07:25 19,8 °C 19,8 °C 91 % 1011,6 hPa 0,0 mm 0,0 km/h (0 Bft) S-SW 198 ° 0 min 0,000 mm 0,0 UV-I 53 W/m² 18,3 °C 19,8 °C 0,0 km/h (0 Bft)
04.08.2017 07:26 19,8 °C 19,8 °C 91 % 1011,6 hPa 0,0 mm 0,0 km/h (0 Bft) S-SW 198 ° 0 min 0,000 mm 0,0 UV-I 54 W/m² 18,3 °C 19,8 °C 0,0 km/h (0 Bft)
04.08.2017 07:27 19,8 °C 19,8 °C 91 % 1011,6 hPa 0,0 mm 0,0 km/h (0 Bft) S-SW 198 ° 0 min 0,000 mm 0,0 UV-I 56 W/m² 18,3 °C 19,8 °C 0,0 km/h (0 Bft)
04.08.2017 07:28 19,8 °C 19,8 °C 92 % 1011,6 hPa 0,0 mm 0,0 km/h (0 Bft) S-SW 198 ° 0 min 0,000 mm 0,0 UV-I 58 W/m² 18,5 °C 19,8 °C 0,0 km/h (0 Bft)
04.08.2017 07:29 19,8 °C 19,8 °C 92 % 1011,6 hPa 0,0 mm 0,0 km/h (0 Bft) S-SW 198 ° 0 min 0,000 mm 0,0 UV-I 60 W/m² 18,5 °C 19,8 °C 0,0 km/h (0 Bft)
04.08.2017 07:30 19,8 °C 19,8 °C 92 % 1011,6 hPa 0,0 mm 0,0 km/h (0 Bft) S-SW 198 ° 0 min 0,000 mm 0,0 UV-I 63 W/m² 18,5 °C 19,8 °C 0,0 km/h (0 Bft)
04.08.2017 07:31 19,8 °C 19,8 °C 92 % 1011,6 hPa 0,0 mm 0,0 km/h (0 Bft) S-SW 198 ° 0 min 0,000 mm 0,0 UV-I 69 W/m² 18,5 °C 19,8 °C 0,0 km/h (0 Bft)
04.08.2017 07:32 19,8 °C 19,8 °C 92 % 1011,5 hPa 0,0 mm 0,0 km/h (0 Bft) S-SW 198 ° 0 min 0,000 mm 0,0 UV-I 72 W/m² 18,5 °C 19,8 °C 0,0 km/h (0 Bft)
04.08.2017 07:33 19,8 °C 19,8 °C 92 % 1011,6 hPa 0,0 mm 0,0 km/h (0 Bft) S-SW 198 ° 0 min 0,000 mm 0,5 UV-I 76 W/m² 18,5 °C 19,8 °C 0,0 km/h (0 Bft)
04.08.2017 07:34 19,9 °C 19,9 °C 92 % 1011,5 hPa 0,0 mm 0,0 km/h (0 Bft) S-SW 198 ° 0 min 0,000 mm 0,5 UV-I 79 W/m² 18,6 °C 19,9 °C 0,0 km/h (0 Bft)
04.08.2017 07:35 20,0 °C 20,0 °C 92 % 1011,6 hPa 0,0 mm 3,1 km/h (1 Bft) S-SW 206 ° 0 min 0,000 mm 0,5 UV-I 83 W/m² 18,7 °C 20,0 °C 4,8 km/h (1 Bft)
04.08.2017 07:36 20,1 °C 20,1 °C 92 % 1011,5 hPa 0,0 mm 2,4 km/h (1 Bft) S-SW 207 ° 0 min 0,000 mm 0,5 UV-I 84 W/m² 18,8 °C 20,1 °C 4,8 km/h (1 Bft)
04.08.2017 07:37 20,1 °C 20,1 °C 92 % 1011,5 hPa 0,0 mm 3,2 km/h (1 Bft) W-SW 245 ° 0 min 0,000 mm 0,5 UV-I 84 W/m² 18,8 °C 20,1 °C 4,8 km/h (1 Bft)
04.08.2017 07:38 20,1 °C 20,1 °C 91 % 1011,6 hPa 0,0 mm 2,4 km/h (1 Bft) W-SW 245 ° 0 min 0,000 mm 0,5 UV-I 116 W/m² 18,6 °C 20,1 °C 3,2 km/h (1 Bft)
04.08.2017 07:39 20,2 °C 20,2 °C 91 % 1011,6 hPa 0,0 mm 0,5 km/h (0 Bft) S-SW 206 ° 0 min 0,000 mm 0,5 UV-I 100 W/m² 18,7 °C 20,2 °C 3,2 km/h (1 Bft)
04.08.2017 07:40 20,3 °C 20,3 °C 91 % 1011,6 hPa 0,0 mm 3,2 km/h (1 Bft) S-SW 206 ° 0 min 0,000 mm 0,6 UV-I 104 W/m² 18,8 °C 20,3 °C 4,8 km/h (1 Bft)
04.08.2017 07:41 20,4 °C 20,4 °C 91 % 1011,5 hPa 0,0 mm 1,9 km/h (1 Bft) S-SW 206 ° 0 min 0,000 mm 0,6 UV-I 90 W/m² 18,9 °C 20,4 °C 3,2 km/h (1 Bft)
04.08.2017 07:42 20,4 °C 20,4 °C 91 % 1011,5 hPa 0,0 mm 1,3 km/h (1 Bft) S-SW 206 ° 0 min 0,000 mm 0,6 UV-I 123 W/m² 18,9 °C 20,4 °C 1,6 km/h (1 Bft)
04.08.2017 07:43 20,4 °C 20,4 °C 91 % 1011,5 hPa 0,0 mm 0,1 km/h (0 Bft) S-SW 206 ° 0 min 0,000 mm 0,6 UV-I 98 W/m² 18,9 °C 20,4 °C 1,6 km/h (1 Bft)
04.08.2017 07:44 20,4 °C 20,4 °C 91 % 1011,6 hPa 0,0 mm 0,5 km/h (0 Bft) S-SW 206 ° 0 min 0,000 mm 0,6 UV-I 132 W/m² 18,9 °C 20,4 °C 3,2 km/h (1 Bft)
04.08.2017 07:45 20,4 °C 20,4 °C 91 % 1011,6 hPa 0,0 mm 2,1 km/h (1 Bft) W-SW 256 ° 0 min 0,000 mm 0,6 UV-I 151 W/m² 18,9 °C 20,4 °C 3,2 km/h (1 Bft)
04.08.2017 07:46 20,5 °C 20,5 °C 90 % 1011,6 hPa 0,0 mm 0,1 km/h (0 Bft) W-SW 256 ° 0 min 0,000 mm 0,6 UV-I 104 W/m² 18,8 °C 20,5 °C 1,6 km/h (1 Bft)
04.08.2017 07:47 20,5 °C 20,5 °C 91 % 1011,6 hPa 0,0 mm 0,0 km/h (0 Bft) W-SW 256 ° 0 min 0,000 mm 0,6 UV-I 102 W/m² 19,0 °C 20,5 °C 0,0 km/h (0 Bft)
04.08.2017 07:48 20,6 °C 20,6 °C 90 % 1011,6 hPa 0,0 mm 0,0 km/h (0 Bft) W-SW 256 ° 0 min 0,000 mm 0,6 UV-I 114 W/m² 18,9 °C 20,6 °C 0,0 km/h (0 Bft)
04.08.2017 07:49 20,6 °C 20,6 °C 90 % 1011,6 hPa 0,0 mm 0,0 km/h (0 Bft) W-SW 255 ° 0 min 0,000 mm 0,6 UV-I 97 W/m² 18,9 °C 20,6 °C 0,0 km/h (0 Bft)
04.08.2017 07:50 20,6 °C 20,6 °C 90 % 1011,6 hPa 0,0 mm 0,0 km/h (0 Bft) W-SW 256 ° 0 min 0,000 mm 0,7 UV-I 113 W/m² 18,9 °C 20,6 °C 0,0 km/h (0 Bft)
04.08.2017 07:51 20,6 °C 20,6 °C 90 % 1011,5 hPa 0,0 mm 0,0 km/h (0 Bft) W-SW 256 ° 0 min 0,000 mm 0,7 UV-I 139 W/m² 18,9 °C 20,6 °C 0,0 km/h (0 Bft)
04.08.2017 07:52 20,6 °C 20,7 °C 90 % 1011,6 hPa 0,0 mm 0,0 km/h (0 Bft) W-SW 256 ° 0 min 0,000 mm 0,7 UV-I 98 W/m² 18,9 °C 20,6 °C 0,0 km/h (0 Bft)
04.08.2017 07:53 20,7 °C 20,7 °C 89 % 1011,7 hPa 0,0 mm 0,0 km/h (0 Bft) W-SW 256 ° 0 min 0,000 mm 0,7 UV-I 105 W/m² 18,8 °C 20,7 °C 0,0 km/h (0 Bft)
04.08.2017 07:54 20,7 °C 20,7 °C 89 % 1011,6 hPa 0,0 mm 0,0 km/h (0 Bft) W-SW 256 ° 0 min 0,000 mm 0,8 UV-I 114 W/m² 18,8 °C 20,7 °C 0,0 km/h (0 Bft)
04.08.2017 07:55 20,7 °C 20,7 °C 89 % 1011,7 hPa 0,0 mm 0,0 km/h (0 Bft) W-SW 256 ° 0 min 0,000 mm 0,8 UV-I 111 W/m² 18,8 °C 20,7 °C 0,0 km/h (0 Bft)
04.08.2017 07:56 20,8 °C 20,8 °C 89 % 1011,6 hPa 0,0 mm 0,0 km/h (0 Bft) W-SW 256 ° 0 min 0,000 mm 0,7 UV-I 105 W/m² 18,9 °C 20,8 °C 0,0 km/h (0 Bft)
04.08.2017 07:57 20,8 °C 20,8 °C 89 % 1011,7 hPa 0,0 mm 0,0 km/h (0 Bft) W-SW 256 ° 0 min 0,000 mm 0,7 UV-I 102 W/m² 18,9 °C 20,8 °C 0,0 km/h (0 Bft)
04.08.2017 07:58 20,8 °C 20,8 °C 89 % 1011,8 hPa 0,0 mm 0,0 km/h (0 Bft) W-SW 256 ° 0 min 0,000 mm 0,7 UV-I 100 W/m² 18,9 °C 20,8 °C 0,0 km/h (0 Bft)
04.08.2017 07:59 20,8 °C 20,8 °C 89 % 1011,8 hPa 0,0 mm 1,3 km/h (1 Bft) W-SW 256 ° 0 min 0,000 mm 0,8 UV-I 98 W/m² 18,9 °C 20,8 °C 3,2 km/h (1 Bft)
04.08.2017 08:00 20,8 °C 20,8 °C 89 % 1011,8 hPa 0,0 mm 2,3 km/h (1 Bft) W-SW 256 ° 0 min 0,000 mm 0,8 UV-I 98 W/m² 18,9 °C 20,8 °C 3,2 km/h (1 Bft)
04.08.2017 08:01 20,8 °C 20,8 °C 88 % 1011,8 hPa 0,0 mm 0,2 km/h (0 Bft) W-SW 256 ° 0 min 0,051 mm 0,8 UV-I 100 W/m² 18,7 °C 20,8 °C 1,6 km/h (1 Bft)
04.08.2017 08:02 20,7 °C 20,8 °C 88 % 1011,9 hPa 0,0 mm 0,0 km/h (0 Bft) W-SW 256 ° 0 min 0,000 mm 0,8 UV-I 98 W/m² 18,6 °C 20,7 °C 0,0 km/h (0 Bft)
04.08.2017 08:03 20,7 °C 20,7 °C 87 % 1011,9 hPa 0,0 mm 0,0 km/h (0 Bft) W-SW 256 ° 0 min 0,000 mm 0,8 UV-I 98 W/m² 18,5 °C 20,7 °C 0,0 km/h (0 Bft)
04.08.2017 08:04 20,8 °C 20,8 °C 88 % 1011,9 hPa 0,0 mm 0,0 km/h (0 Bft) W-SW 256 ° 0 min 0,000 mm 0,8 UV-I 97 W/m² 18,7 °C 20,8 °C 0,0 km/h (0 Bft)
04.08.2017 08:05 20,8 °C 20,8 °C 88 % 1012,0 hPa 0,0 mm 0,0 km/h (0 Bft) W-SW 256 ° 0 min 0,000 mm 0,8 UV-I 97 W/m² 18,7 °C 20,8 °C 0,0 km/h (0 Bft)
04.08.2017 08:06 20,8 °C 20,8 °C 88 % 1012,0 hPa 0,0 mm 0,0 km/h (0 Bft) W-SW 256 ° 0 min 0,000 mm 0,9 UV-I 97 W/m² 18,7 °C 20,8 °C 0,0 km/h (0 Bft)
04.08.2017 08:07 20,8 °C 20,8 °C 87 % 1011,9 hPa 0,0 mm 0,0 km/h (0 Bft) W-SW 256 ° 0 min 0,000 mm 0,9 UV-I 104 W/m² 18,6 °C 20,8 °C 0,0 km/h (0 Bft)
04.08.2017 08:08 20,8 °C 20,8 °C 87 % 1012,0 hPa 0,0 mm 0,0 km/h (0 Bft) W-SW 256 ° 0 min 0,000 mm 0,9 UV-I 111 W/m² 18,6 °C 20,8 °C 0,0 km/h (0 Bft)
04.08.2017 08:09 20,8 °C 20,8 °C 88 % 1012,0 hPa 0,0 mm 0,6 km/h (0 Bft) W-SW 256 ° 0 min 0,000 mm 1,0 UV-I 118 W/m² 18,7 °C 20,8 °C 1,6 km/h (1 Bft)
04.08.2017 08:10 20,8 °C 20,8 °C 88 % 1012,0 hPa 0,0 mm 2,8 km/h (1 Bft) W-SW 256 ° 0 min 0,000 mm 1,0 UV-I 125 W/m² 18,7 °C 20,8 °C 4,8 km/h (1 Bft)
04.08.2017 08:11 20,8 °C 20,8 °C 88 % 1012,0 hPa 0,0 mm 1,3 km/h (1 Bft) W-SW 256 ° 0 min 0,000 mm 1,0 UV-I 128 W/m² 18,7 °C 20,8 °C 3,2 km/h (1 Bft)
04.08.2017 08:12 20,9 °C 20,9 °C 89 % 1012,0 hPa 0,0 mm 1,7 km/h (1 Bft) W-SW 256 ° 0 min 0,000 mm 1,0 UV-I 128 W/m² 19,0 °C 20,9 °C 3,2 km/h (1 Bft)
04.08.2017 08:13 20,9 °C 20,9 °C 89 % 1012,0 hPa 0,0 mm 0,8 km/h (0 Bft) W-SW 256 ° 0 min 0,000 mm 1,0 UV-I 128 W/m² 19,0 °C 20,9 °C 1,6 km/h (1 Bft)
04.08.2017 08:14 21,0 °C 21,0 °C 88 % 1012,0 hPa 0,0 mm 0,0 km/h (0 Bft) W-SW 256 ° 0 min 0,000 mm 1,0 UV-I 128 W/m² 18,9 °C 21,0 °C 0,0 km/h (0 Bft)
04.08.2017 08:15 21,0 °C 21,0 °C 88 % 1012,0 hPa 0,0 mm 0,0 km/h (0 Bft) W-SW 256 ° 0 min 0,000 mm 1,0 UV-I 128 W/m² 18,9 °C 21,0 °C 0,0 km/h (0 Bft)
04.08.2017 08:16 21,1 °C 21,1 °C 88 % 1012,0 hPa 0,0 mm 0,0 km/h (0 Bft) W-SW 256 ° 0 min 0,000 mm 1,1 UV-I 132 W/m² 19,0 °C 21,1 °C 0,0 km/h (0 Bft)
04.08.2017 08:17 21,1 °C 21,1 °C 89 % 1012,0 hPa 0,0 mm 0,0 km/h (0 Bft) W-SW 256 ° 0 min 0,000 mm 1,1 UV-I 137 W/m² 19,2 °C 21,1 °C 0,0 km/h (0 Bft)
04.08.2017 08:18 21,1 °C 21,1 °C 87 % 1012,0 hPa 0,0 mm 0,0 km/h (0 Bft) W-SW 256 ° 0 min 0,000 mm 1,1 UV-I 148 W/m² 18,8 °C 21,1 °C 0,0 km/h (0 Bft)
04.08.2017 08:19 21,2 °C 21,2 °C 87 % 1012,0 hPa 0,0 mm 0,0 km/h (0 Bft) W-SW 256 ° 0 min 0,000 mm 1,2 UV-I 229 W/m² 18,9 °C 21,2 °C 0,0 km/h (0 Bft)
04.08.2017 08:20 21,2 °C 21,2 °C 87 % 1012,0 hPa 0,0 mm 0,0 km/h (0 Bft) W-SW 256 ° 0 min 0,000 mm 1,2 UV-I 229 W/m² 18,9 °C 21,2 °C 0,0 km/h (0 Bft)
04.08.2017 08:21 21,2 °C 21,2 °C 87 % 1012,0 hPa 0,0 mm 0,0 km/h (0 Bft) W-SW 256 ° 0 min 0,000 mm 1,2 UV-I 149 W/m² 18,9 °C 21,2 °C 0,0 km/h (0 Bft)
04.08.2017 08:22 21,2 °C 21,2 °C 86 % 1012,0 hPa 0,0 mm 0,0 km/h (0 Bft) W-SW 256 ° 0 min 0,000 mm 1,2 UV-I 149 W/m² 18,8 °C 21,2 °C 0,0 km/h (0 Bft)
04.08.2017 08:23 21,2 °C 21,2 °C 87 % 1012,0 hPa 0,0 mm 0,0 km/h (0 Bft) W-SW 256 ° 0 min 0,000 mm 1,2 UV-I 144 W/m² 18,9 °C 21,2 °C 0,0 km/h (0 Bft)
04.08.2017 08:24 21,2 °C 21,2 °C 89 % 1012,0 hPa 0,0 mm 0,0 km/h (0 Bft) W-SW 256 ° 0 min 0,000 mm 1,2 UV-I 144 W/m² 19,3 °C 21,2 °C 0,0 km/h (0 Bft)
04.08.2017 08:25 21,2 °C 21,3 °C 89 % 1012,0 hPa 0,0 mm 0,0 km/h (0 Bft) W-SW 256 ° 0 min 0,000 mm 1,2 UV-I 146 W/m² 19,3 °C 21,2 °C 0,0 km/h (0 Bft)
04.08.2017 08:26 21,2 °C 21,2 °C 88 % 1012,0 hPa 0,0 mm 0,0 km/h (0 Bft) W-SW 256 ° 0 min 0,000 mm 1,2 UV-I 146 W/m² 19,1 °C 21,2 °C 0,0 km/h (0 Bft)
04.08.2017 08:27 21,3 °C 21,3 °C 87 % 1012,1 hPa 0,0 mm 0,0 km/h (0 Bft) W-SW 256 ° 0 min 0,000 mm 1,3 UV-I 149 W/m² 19,0 °C 21,3 °C 0,0 km/h (0 Bft)
04.08.2017 08:28 21,4 °C 21,4 °C 87 % 1012,0 hPa 0,0 mm 0,5 km/h (0 Bft) W-SW 256 ° 0 min 0,000 mm 1,3 UV-I 153 W/m² 19,1 °C 21,4 °C 1,6 km/h (1 Bft)
04.08.2017 08:29 21,4 °C 21,4 °C 87 % 1012,0 hPa 0,0 mm 0,5 km/h (0 Bft) W-SW 256 ° 0 min 0,000 mm 1,3 UV-I 160 W/m² 19,1 °C 21,4 °C 1,6 km/h (1 Bft)
04.08.2017 08:30 21,4 °C 21,4 °C 88 % 1012,0 hPa 0,0 mm 0,0 km/h (0 Bft) W-SW 256 ° 0 min 0,000 mm 1,3 UV-I 163 W/m² 19,3 °C 21,4 °C 0,0 km/h (0 Bft)
04.08.2017 08:31 21,4 °C 21,4 °C 88 % 1012,0 hPa 0,0 mm 0,0 km/h (0 Bft) W-SW 256 ° 0 min 0,000 mm 1,3 UV-I 167 W/m² 19,3 °C 21,4 °C 0,0 km/h (0 Bft)
04.08.2017 08:32 21,4 °C 21,4 °C 86 % 1011,9 hPa 0,0 mm 0,0 km/h (0 Bft) W-SW 256 ° 0 min 0,000 mm 1,4 UV-I 172 W/m² 19,0 °C 21,4 °C 0,0 km/h (0 Bft)
04.08.2017 08:33 21,4 °C 21,4 °C 87 % 1011,9 hPa 0,0 mm 0,0 km/h (0 Bft) W-SW 256 ° 0 min 0,000 mm 1,4 UV-I 178 W/m² 19,1 °C 21,4 °C 0,0 km/h (0 Bft)
04.08.2017 08:34 21,4 °C 21,4 °C 86 % 1012,0 hPa 0,0 mm 0,0 km/h (0 Bft) W-SW 256 ° 0 min 0,000 mm 1,4 UV-I 181 W/m² 19,0 °C 21,4 °C 0,0 km/h (0 Bft)
04.08.2017 08:35 21,5 °C 21,5 °C 86 % 1011,9 hPa 0,0 mm 0,0 km/h (0 Bft) W-SW 256 ° 0 min 0,000 mm 1,4 UV-I 185 W/m² 19,1 °C 21,5 °C 0,0 km/h (0 Bft)
04.08.2017 08:36 21,6 °C 21,6 °C 86 % 1011,9 hPa 0,0 mm 0,0 km/h (0 Bft) W-SW 256 ° 0 min 0,000 mm 1,4 UV-I 190 W/m² 19,2 °C 21,6 °C 0,0 km/h (0 Bft)
04.08.2017 08:37 21,6 °C 21,6 °C 85 % 1012,0 hPa 0,0 mm 0,0 km/h (0 Bft) W-SW 256 ° 0 min 0,000 mm 1,5 UV-I 190 W/m² 19,0 °C 21,6 °C 0,0 km/h (0 Bft)
04.08.2017 08:38 21,6 °C 21,7 °C 85 % 1011,9 hPa 0,0 mm 0,0 km/h (0 Bft) W-SW 256 ° 0 min 0,000 mm 1,5 UV-I 193 W/m² 19,0 °C 21,6 °C 0,0 km/h (0 Bft)
04.08.2017 08:39 21,7 °C 21,7 °C 87 % 1011,9 hPa 0,0 mm 0,0 km/h (0 Bft) W-SW 256 ° 0 min 0,000 mm 1,5 UV-I 195 W/m² 19,4 °C 21,7 °C 0,0 km/h (0 Bft)
04.08.2017 08:40 21,8 °C 21,8 °C 86 % 1012,0 hPa 0,0 mm 0,0 km/h (0 Bft) W-SW 256 ° 0 min 0,000 mm 1,5 UV-I 200 W/m² 19,3 °C 21,8 °C 0,0 km/h (0 Bft)
04.08.2017 08:41 21,8 °C 21,8 °C 86 % 1011,9 hPa 0,0 mm 0,2 km/h (0 Bft) W-SW 256 ° 0 min 0,000 mm 1,5 UV-I 207 W/m² 19,3 °C 21,8 °C 1,6 km/h (1 Bft)
04.08.2017 08:42 21,9 °C 21,9 °C 84 % 1011,9 hPa 0,0 mm 1,3 km/h (1 Bft) W-SW 257 ° 0 min 0,000 mm 1,5 UV-I 206 W/m² 19,1 °C 21,9 °C 3,2 km/h (1 Bft)
04.08.2017 08:43 21,8 °C 21,9 °C 84 % 1011,9 hPa 0,0 mm 2,3 km/h (1 Bft) W-SW 257 ° 0 min 0,000 mm 1,5 UV-I 202 W/m² 19,0 °C 21,8 °C 3,2 km/h (1 Bft)
04.08.2017 08:44 21,9 °C 21,9 °C 84 % 1011,9 hPa 0,0 mm 3,0 km/h (1 Bft) W-SW 257 ° 0 min 0,000 mm 1,5 UV-I 202 W/m² 19,1 °C 21,9 °C 4,8 km/h (1 Bft)
04.08.2017 08:45 21,9 °C 21,9 °C 84 % 1012,0 hPa 0,0 mm 1,7 km/h (1 Bft) W-SW 257 ° 0 min 0,000 mm 1,5 UV-I 204 W/m² 19,1 °C 21,9 °C 3,2 km/h (1 Bft)
04.08.2017 08:46 21,9 °C 21,9 °C 84 % 1012,0 hPa 0,0 mm 2,7 km/h (1 Bft) W-SW 257 ° 0 min 0,000 mm 1,6 UV-I 207 W/m² 19,1 °C 21,9 °C 3,2 km/h (1 Bft)
04.08.2017 08:47 21,9 °C 22,0 °C 85 % 1011,9 hPa 0,0 mm 1,3 km/h (1 Bft) W-SW 257 ° 0 min 0,000 mm 1,6 UV-I 206 W/m² 19,3 °C 21,9 °C 3,2 km/h (1 Bft)
04.08.2017 08:48 22,0 °C 22,0 °C 83 % 1012,0 hPa 0,0 mm 0,0 km/h (0 Bft) W-SW 257 ° 0 min 0,000 mm 1,6 UV-I 202 W/m² 19,0 °C 22,0 °C 0,0 km/h (0 Bft)
04.08.2017 08:49 22,1 °C 22,1 °C 84 % 1011,9 hPa 0,0 mm 0,0 km/h (0 Bft) W-SW 257 ° 0 min 0,000 mm 1,6 UV-I 202 W/m² 19,3 °C 22,1 °C 0,0 km/h (0 Bft)
04.08.2017 08:50 22,1 °C 22,1 °C 83 % 1011,9 hPa 0,0 mm 0,0 km/h (0 Bft) W-SW 257 ° 0 min 0,000 mm 1,6 UV-I 197 W/m² 19,1 °C 22,1 °C 0,0 km/h (0 Bft)
04.08.2017 08:51 22,1 °C 22,1 °C 83 % 1011,9 hPa 0,0 mm 0,0 km/h (0 Bft) W-SW 257 ° 0 min 0,000 mm 1,5 UV-I 190 W/m² 19,1 °C 22,1 °C 0,0 km/h (0 Bft)
04.08.2017 08:52 22,1 °C 22,1 °C 83 % 1011,9 hPa 0,0 mm 0,0 km/h (0 Bft) W-SW 257 ° 0 min 0,000 mm 1,5 UV-I 188 W/m² 19,1 °C 22,1 °C 0,0 km/h (0 Bft)
04.08.2017 08:53 22,1 °C 22,1 °C 83 % 1011,9 hPa 0,0 mm 0,0 km/h (0 Bft) W-SW 257 ° 0 min 0,000 mm 1,6 UV-I 185 W/m² 19,1 °C 22,1 °C 0,0 km/h (0 Bft)
04.08.2017 08:54 22,1 °C 22,1 °C 82 % 1011,9 hPa 0,0 mm 0,0 km/h (0 Bft) W-SW 257 ° 0 min 0,000 mm 1,6 UV-I 185 W/m² 18,9 °C 22,1 °C 0,0 km/h (0 Bft)
04.08.2017 08:55 22,1 °C 22,2 °C 83 % 1011,9 hPa 0,0 mm 0,0 km/h (0 Bft) W-SW 257 ° 0 min 0,000 mm 1,6 UV-I 185 W/m² 19,1 °C 22,1 °C 0,0 km/h (0 Bft)
04.08.2017 08:56 22,1 °C 22,2 °C 82 % 1011,9 hPa 0,0 mm 1,6 km/h (1 Bft) W-SW 257 ° 0 min 0,000 mm 1,6 UV-I 185 W/m² 18,9 °C 22,1 °C 3,2 km/h (1 Bft)
04.08.2017 08:57 22,2 °C 22,2 °C 83 % 1012,0 hPa 0,0 mm 0,9 km/h (0 Bft) W-SW 257 ° 0 min 0,000 mm 1,6 UV-I 185 W/m² 19,2 °C 22,2 °C 3,2 km/h (1 Bft)
04.08.2017 08:58 22,1 °C 22,2 °C 82 % 1011,9 hPa 0,0 mm 1,3 km/h (1 Bft) W-SW 257 ° 0 min 0,000 mm 1,6 UV-I 186 W/m² 18,9 °C 22,1 °C 1,6 km/h (1 Bft)
04.08.2017 08:59 22,1 °C 22,1 °C 83 % 1011,9 hPa 0,0 mm 0,2 km/h (0 Bft) W-SW 257 ° 0 min 0,000 mm 1,7 UV-I 192 W/m² 19,1 °C 22,1 °C 1,6 km/h (1 Bft)
04.08.2017 09:00 22,1 °C 22,1 °C 84 % 1011,8 hPa 0,0 mm 0,1 km/h (0 Bft) W-SW 257 ° 0 min 0,000 mm 1,8 UV-I 209 W/m² 19,3 °C 22,1 °C 1,6 km/h (1 Bft)
04.08.2017 09:01 22,2 °C 22,2 °C 85 % 1011,8 hPa 0,0 mm 0,0 km/h (0 Bft) W-SW 257 ° 0 min 0,101 mm 1,9 UV-I 234 W/m² 19,6 °C 22,2 °C 0,0 km/h (0 Bft)
04.08.2017 09:02 22,2 °C 22,2 °C 83 % 1011,8 hPa 0,0 mm 0,0 km/h (0 Bft) W-SW 257 ° 0 min 0,000 mm 2,0 UV-I 262 W/m² 19,2 °C 22,2 °C 0,0 km/h (0 Bft)
04.08.2017 09:03 22,3 °C 22,3 °C 84 % 1011,9 hPa 0,0 mm 0,2 km/h (0 Bft) W-SW 257 ° 1 min 0,000 mm 2,3 UV-I 325 W/m² 19,5 °C 22,3 °C 1,6 km/h (1 Bft)
04.08.2017 09:04 22,3 °C 22,3 °C 82 % 1011,9 hPa 0,0 mm 1,7 km/h (1 Bft) W-SW 257 ° 0 min 0,000 mm 2,2 UV-I 262 W/m² 19,1 °C 22,3 °C 3,2 km/h (1 Bft)
04.08.2017 09:05 22,4 °C 22,4 °C 82 % 1011,9 hPa 0,0 mm 0,6 km/h (0 Bft) W-SW 257 ° 1 min 0,000 mm 2,2 UV-I 318 W/m² 19,2 °C 22,4 °C 3,2 km/h (1 Bft)
04.08.2017 09:06 22,5 °C 22,5 °C 82 % 1011,9 hPa 0,0 mm 2,4 km/h (1 Bft) W 268 ° 1 min 0,000 mm 2,1 UV-I 302 W/m² 19,3 °C 22,5 °C 4,8 km/h (1 Bft)
04.08.2017 09:07 22,5 °C 22,5 °C 81 % 1011,9 hPa 0,0 mm 1,5 km/h (1 Bft) NW 304 ° 0 min 0,000 mm 2,2 UV-I 265 W/m² 19,1 °C 22,5 °C 3,2 km/h (1 Bft)
04.08.2017 09:08 22,6 °C 22,6 °C 79 % 1011,9 hPa 0,0 mm 5,2 km/h (1 Bft) W-NW 292 ° 1 min 0,000 mm 2,0 UV-I 306 W/m² 18,8 °C 22,6 °C 9,7 km/h (2 Bft)
04.08.2017 09:09 22,5 °C 22,6 °C 77 % 1011,9 hPa 0,0 mm 3,4 km/h (1 Bft) NW 304 ° 1 min 0,000 mm 1,9 UV-I 306 W/m² 18,3 °C 22,5 °C 8,0 km/h (2 Bft)
04.08.2017 09:10 22,5 °C 22,5 °C 78 % 1011,9 hPa 0,0 mm 4,5 km/h (1 Bft) N-NW 335 ° 0 min 0,000 mm 2,1 UV-I 236 W/m² 18,5 °C 22,5 °C 8,0 km/h (2 Bft)
04.08.2017 09:11 22,4 °C 22,5 °C 78 % 1011,9 hPa 0,0 mm 2,6 km/h (1 Bft) W-NW 300 ° 0 min 0,000 mm 2,5 UV-I 236 W/m² 18,4 °C 22,4 °C 3,2 km/h (1 Bft)
04.08.2017 09:12 22,6 °C 22,6 °C 80 % 1011,9 hPa 0,0 mm 5,4 km/h (1 Bft) NW 304 ° 0 min 0,000 mm 2,8 UV-I 236 W/m² 19,0 °C 22,6 °C 8,0 km/h (2 Bft)
04.08.2017 09:13 22,6 °C 22,6 °C 78 % 1011,9 hPa 0,0 mm 4,3 km/h (1 Bft) W-NW 290 ° 1 min 0,000 mm 2,9 UV-I 429 W/m² 18,6 °C 22,6 °C 6,4 km/h (2 Bft)
04.08.2017 09:14 22,7 °C 22,7 °C 79 % 1011,9 hPa 0,0 mm 4,8 km/h (1 Bft) W 263 ° 1 min 0,000 mm 2,8 UV-I 483 W/m² 18,9 °C 22,7 °C 6,4 km/h (2 Bft)
04.08.2017 09:15 22,7 °C 22,7 °C 76 % 1011,9 hPa 0,0 mm 6,5 km/h (2 Bft) W-NW 300 ° 1 min 0,000 mm 2,5 UV-I 483 W/m² 18,2 °C 22,7 °C 11,3 km/h (2 Bft)
04.08.2017 09:16 22,7 °C 22,7 °C 77 % 1011,9 hPa 0,0 mm 4,7 km/h (1 Bft) W 279 ° 1 min 0,000 mm 2,8 UV-I 483 W/m² 18,5 °C 22,7 °C 6,4 km/h (2 Bft)
04.08.2017 09:17 22,8 °C 22,8 °C 77 % 1011,9 hPa 0,0 mm 3,8 km/h (1 Bft) W-NW 297 ° 1 min 0,000 mm 2,7 UV-I 357 W/m² 18,5 °C 22,8 °C 4,8 km/h (1 Bft)
04.08.2017 09:18 22,8 °C 22,8 °C 79 % 1011,9 hPa 0,0 mm 6,6 km/h (2 Bft) NW 319 ° 1 min 0,000 mm 2,8 UV-I 420 W/m² 19,0 °C 22,8 °C 11,3 km/h (2 Bft)
04.08.2017 09:19 22,9 °C 22,9 °C 80 % 1011,9 hPa 0,0 mm 5,4 km/h (1 Bft) W-NW 296 ° 1 min 0,000 mm 3,0 UV-I 420 W/m² 19,3 °C 22,9 °C 9,7 km/h (2 Bft)
04.08.2017 09:20 23,0 °C 23,0 °C 77 % 1011,9 hPa 0,0 mm 5,1 km/h (1 Bft) W 277 ° 1 min 0,000 mm 2,6 UV-I 420 W/m² 18,7 °C 23,0 °C 8,0 km/h (2 Bft)
04.08.2017 09:21 23,1 °C 23,1 °C 78 % 1012,0 hPa 0,0 mm 4,8 km/h (1 Bft) W-NW 284 ° 1 min 0,000 mm 2,5 UV-I 366 W/m² 19,0 °C 23,1 °C 8,0 km/h (2 Bft)
04.08.2017 09:22 23,1 °C 23,1 °C 78 % 1012,0 hPa 0,0 mm 6,2 km/h (2 Bft) W-SW 238 ° 1 min 0,000 mm 2,4 UV-I 348 W/m² 19,0 °C 23,1 °C 11,3 km/h (2 Bft)
04.08.2017 09:23 23,0 °C 23,1 °C 77 % 1012,0 hPa 0,0 mm 3,9 km/h (1 Bft) N-NW 332 ° 1 min 0,000 mm 2,5 UV-I 359 W/m² 18,7 °C 23,0 °C 6,4 km/h (2 Bft)
04.08.2017 09:24 23,0 °C 23,0 °C 77 % 1011,9 hPa 0,0 mm 7,0 km/h (2 Bft) W-NW 299 ° 1 min 0,000 mm 2,6 UV-I 380 W/m² 18,7 °C 23,0 °C 12,9 km/h (3 Bft)
04.08.2017 09:25 23,0 °C 23,0 °C 78 % 1012,0 hPa 0,0 mm 8,1 km/h (2 Bft) W 272 ° 1 min 0,000 mm 2,7 UV-I 401 W/m² 18,9 °C 23,0 °C 12,9 km/h (3 Bft)
04.08.2017 09:26 23,0 °C 23,0 °C 77 % 1011,9 hPa 0,0 mm 6,7 km/h (2 Bft) W 269 ° 1 min 0,000 mm 2,9 UV-I 436 W/m² 18,7 °C 23,0 °C 11,3 km/h (2 Bft)
04.08.2017 09:27 23,1 °C 23,1 °C 78 % 1011,9 hPa 0,0 mm 7,4 km/h (2 Bft) W 277 ° 1 min 0,000 mm 2,8 UV-I 464 W/m² 19,0 °C 23,1 °C 11,3 km/h (2 Bft)
04.08.2017 09:28 23,1 °C 23,1 °C 78 % 1011,9 hPa 0,0 mm 6,2 km/h (2 Bft) W-NW 302 ° 1 min 0,000 mm 3,0 UV-I 461 W/m² 19,0 °C 23,1 °C 9,7 km/h (2 Bft)
04.08.2017 09:29 23,2 °C 23,2 °C 78 % 1011,9 hPa 0,0 mm 4,6 km/h (1 Bft) W 274 ° 1 min 0,000 mm 3,1 UV-I 490 W/m² 19,1 °C 23,2 °C 8,0 km/h (2 Bft)
04.08.2017 09:30 23,2 °C 23,2 °C 79 % 1011,9 hPa 0,0 mm 6,9 km/h (2 Bft) W 275 ° 1 min 0,000 mm 3,1 UV-I 520 W/m² 19,3 °C 23,2 °C 11,3 km/h (2 Bft)
04.08.2017 09:31 23,3 °C 23,3 °C 76 % 1011,9 hPa 0,0 mm 7,0 km/h (2 Bft) NW 308 ° 1 min 0,000 mm 3,1 UV-I 487 W/m² 18,8 °C 23,3 °C 12,9 km/h (3 Bft)
04.08.2017 09:32 23,3 °C 23,3 °C 78 % 1011,9 hPa 0,0 mm 6,7 km/h (2 Bft) W-NW 289 ° 1 min 0,000 mm 2,9 UV-I 469 W/m² 19,2 °C 23,3 °C 11,3 km/h (2 Bft)
04.08.2017 09:33 23,3 °C 23,3 °C 77 % 1011,9 hPa 0,0 mm 3,7 km/h (1 Bft) NW 321 ° 1 min 0,000 mm 2,7 UV-I 469 W/m² 19,0 °C 23,3 °C 6,4 km/h (2 Bft)
04.08.2017 09:34 23,3 °C 23,3 °C 78 % 1011,9 hPa 0,0 mm 8,5 km/h (2 Bft) W 267 ° 1 min 0,000 mm 2,6 UV-I 359 W/m² 19,2 °C 23,3 °C 14,5 km/h (3 Bft)
04.08.2017 09:35 23,2 °C 23,3 °C 78 % 1011,9 hPa 0,0 mm 8,4 km/h (2 Bft) NW 309 ° 1 min 0,000 mm 2,7 UV-I 360 W/m² 19,1 °C 23,2 °C 12,9 km/h (3 Bft)
04.08.2017 09:36 23,2 °C 23,2 °C 76 % 1011,9 hPa 0,0 mm 6,6 km/h (2 Bft) W 273 ° 1 min 0,000 mm 2,7 UV-I 334 W/m² 18,7 °C 23,2 °C 11,3 km/h (2 Bft)
04.08.2017 09:37 23,1 °C 23,2 °C 77 % 1011,9 hPa 0,0 mm 9,3 km/h (2 Bft) W-NW 298 ° 1 min 0,000 mm 2,7 UV-I 343 W/m² 18,8 °C 23,1 °C 14,5 km/h (3 Bft)
04.08.2017 09:38 23,0 °C 23,1 °C 76 % 1011,9 hPa 0,0 mm 6,2 km/h (2 Bft) W-NW 302 ° 1 min 0,000 mm 2,7 UV-I 343 W/m² 18,5 °C 23,0 °C 8,0 km/h (2 Bft)
04.08.2017 09:39 22,9 °C 23,0 °C 78 % 1011,9 hPa 0,0 mm 4,1 km/h (1 Bft) NW 319 ° 1 min 0,000 mm 2,7 UV-I 323 W/m² 18,9 °C 22,9 °C 8,0 km/h (2 Bft)
04.08.2017 09:40 22,9 °C 22,9 °C 77 % 1011,9 hPa 0,0 mm 3,1 km/h (1 Bft) NW 309 ° 1 min 0,000 mm 2,6 UV-I 355 W/m² 18,6 °C 22,9 °C 4,8 km/h (1 Bft)
04.08.2017 09:41 23,0 °C 23,0 °C 78 % 1011,9 hPa 0,0 mm 5,7 km/h (1 Bft) W-NW 285 ° 1 min 0,000 mm 2,7 UV-I 362 W/m² 18,9 °C 23,0 °C 9,7 km/h (2 Bft)
04.08.2017 09:42 23,0 °C 23,0 °C 77 % 1011,9 hPa 0,0 mm 7,4 km/h (2 Bft) W-NW 289 ° 1 min 0,000 mm 2,7 UV-I 346 W/m² 18,7 °C 23,0 °C 11,3 km/h (2 Bft)
04.08.2017 09:43 22,9 °C 23,0 °C 76 % 1011,9 hPa 0,0 mm 4,8 km/h (1 Bft) W-SW 251 ° 1 min 0,000 mm 2,7 UV-I 341 W/m² 18,4 °C 22,9 °C 6,4 km/h (2 Bft)
04.08.2017 09:44 22,9 °C 22,9 °C 77 % 1011,9 hPa 0,0 mm 7,2 km/h (2 Bft) W 281 ° 1 min 0,000 mm 2,7 UV-I 338 W/m² 18,6 °C 22,9 °C 12,9 km/h (3 Bft)
04.08.2017 09:45 22,9 °C 22,9 °C 78 % 1011,9 hPa 0,0 mm 5,8 km/h (2 Bft) W 264 ° 1 min 0,000 mm 2,8 UV-I 348 W/m² 18,9 °C 22,9 °C 9,7 km/h (2 Bft)
04.08.2017 09:46 22,9 °C 22,9 °C 76 % 1011,9 hPa 0,0 mm 9,4 km/h (2 Bft) NW 313 ° 1 min 0,000 mm 2,8 UV-I 343 W/m² 18,4 °C 22,9 °C 14,5 km/h (3 Bft)
04.08.2017 09:47 22,9 °C 22,9 °C 78 % 1011,9 hPa 0,0 mm 4,0 km/h (1 Bft) NW 313 ° 1 min 0,000 mm 2,8 UV-I 345 W/m² 18,9 °C 22,9 °C 6,4 km/h (2 Bft)
04.08.2017 09:48 22,9 °C 22,9 °C 78 % 1011,9 hPa 0,0 mm 5,4 km/h (1 Bft) N-NW 337 ° 1 min 0,000 mm 2,8 UV-I 362 W/m² 18,9 °C 22,9 °C 11,3 km/h (2 Bft)
04.08.2017 09:49 22,9 °C 22,9 °C 77 % 1011,9 hPa 0,0 mm 4,4 km/h (1 Bft) W-NW 296 ° 1 min 0,000 mm 2,9 UV-I 364 W/m² 18,6 °C 22,9 °C 6,4 km/h (2 Bft)
04.08.2017 09:50 22,9 °C 22,9 °C 78 % 1011,9 hPa 0,0 mm 6,7 km/h (2 Bft) NW 320 ° 1 min 0,000 mm 2,9 UV-I 371 W/m² 18,9 °C 22,9 °C 12,9 km/h (3 Bft)
04.08.2017 09:51 23,0 °C 23,0 °C 78 % 1011,9 hPa 0,0 mm 6,3 km/h (2 Bft) W-NW 294 ° 1 min 0,000 mm 2,9 UV-I 373 W/m² 18,9 °C 23,0 °C 11,3 km/h (2 Bft)
04.08.2017 09:52 23,0 °C 23,0 °C 77 % 1011,9 hPa 0,0 mm 8,1 km/h (2 Bft) NW 307 ° 1 min 0,000 mm 3,0 UV-I 374 W/m² 18,7 °C 23,0 °C 14,5 km/h (3 Bft)
04.08.2017 09:53 23,0 °C 23,1 °C 77 % 1011,9 hPa 0,0 mm 5,7 km/h (1 Bft) W-NW 284 ° 1 min 0,000 mm 2,9 UV-I 355 W/m² 18,7 °C 23,0 °C 9,7 km/h (2 Bft)
04.08.2017 09:54 23,0 °C 23,0 °C 76 % 1011,9 hPa 0,0 mm 6,1 km/h (2 Bft) W-NW 303 ° 1 min 0,000 mm 2,8 UV-I 339 W/m² 18,5 °C 23,0 °C 11,3 km/h (2 Bft)
04.08.2017 09:55 23,0 °C 23,0 °C 76 % 1011,8 hPa 0,0 mm 4,9 km/h (1 Bft) N 355 ° 1 min 0,000 mm 2,8 UV-I 334 W/m² 18,5 °C 23,0 °C 8,0 km/h (2 Bft)
04.08.2017 09:56 22,9 °C 23,0 °C 78 % 1011,8 hPa 0,0 mm 7,0 km/h (2 Bft) NW 315 ° 1 min 0,000 mm 3,3 UV-I 350 W/m² 18,9 °C 22,9 °C 11,3 km/h (2 Bft)
04.08.2017 09:57 23,0 °C 23,0 °C 79 % 1011,7 hPa 0,0 mm 4,0 km/h (1 Bft) N-NO 17 ° 1 min 0,000 mm 3,0 UV-I 332 W/m² 19,2 °C 23,0 °C 8,0 km/h (2 Bft)
04.08.2017 09:58 23,1 °C 23,1 °C 79 % 1011,7 hPa 0,0 mm 3,3 km/h (1 Bft) NW 315 ° 1 min 0,000 mm 2,9 UV-I 345 W/m² 19,3 °C 23,1 °C 4,8 km/h (1 Bft)
04.08.2017 09:59 23,1 °C 23,1 °C 79 % 1011,7 hPa 0,0 mm 3,6 km/h (1 Bft) NW 322 ° 1 min 0,000 mm 3,1 UV-I 364 W/m² 19,3 °C 23,1 °C 4,8 km/h (1 Bft)
04.08.2017 10:00 23,2 °C 23,2 °C 79 % 1011,7 hPa 0,0 mm 5,9 km/h (2 Bft) NW 305 ° 1 min 0,000 mm 3,1 UV-I 392 W/m² 19,3 °C 23,2 °C 8,0 km/h (2 Bft)
04.08.2017 10:01 23,2 °C 23,2 °C 78 % 1011,7 hPa 0,0 mm 5,0 km/h (1 Bft) NW 325 ° 1 min 0,229 mm 3,0 UV-I 339 W/m² 19,1 °C 23,2 °C 6,4 km/h (2 Bft)
04.08.2017 10:02 23,2 °C 23,2 °C 76 % 1011,7 hPa 0,0 mm 6,3 km/h (2 Bft) W-NW 288 ° 1 min 0,000 mm 3,1 UV-I 353 W/m² 18,7 °C 23,2 °C 8,0 km/h (2 Bft)
04.08.2017 10:03 23,2 °C 23,2 °C 76 % 1011,7 hPa 0,0 mm 3,6 km/h (1 Bft) W-NW 300 ° 1 min 0,000 mm 3,4 UV-I 390 W/m² 18,7 °C 23,2 °C 4,8 km/h (1 Bft)
04.08.2017 10:04 23,1 °C 23,2 °C 76 % 1011,7 hPa 0,0 mm 4,5 km/h (1 Bft) NW 322 ° 1 min 0,000 mm 3,3 UV-I 392 W/m² 18,6 °C 23,1 °C 8,0 km/h (2 Bft)
04.08.2017 10:05 23,2 °C 23,2 °C 78 % 1011,7 hPa 0,0 mm 4,9 km/h (1 Bft) NW 322 ° 1 min 0,000 mm 3,3 UV-I 418 W/m² 19,1 °C 23,2 °C 8,0 km/h (2 Bft)
04.08.2017 10:06 23,3 °C 23,3 °C 77 % 1011,7 hPa 0,0 mm 2,5 km/h (1 Bft) NW 319 ° 1 min 0,000 mm 4,4 UV-I 418 W/m² 19,0 °C 23,3 °C 4,8 km/h (1 Bft)
04.08.2017 10:07 23,4 °C 23,4 °C 78 % 1011,7 hPa 0,0 mm 8,2 km/h (2 Bft) NW 312 ° 1 min 0,000 mm 3,3 UV-I 418 W/m² 19,3 °C 23,4 °C 14,5 km/h (3 Bft)
04.08.2017 10:08 23,4 °C 23,4 °C 76 % 1011,6 hPa 0,0 mm 6,7 km/h (2 Bft) W 276 ° 1 min 0,000 mm 3,9 UV-I 418 W/m² 18,9 °C 23,4 °C 11,3 km/h (2 Bft)
04.08.2017 10:09 23,4 °C 23,4 °C 75 % 1011,6 hPa 0,0 mm 5,0 km/h (1 Bft) W-NW 283 ° 1 min 0,000 mm 3,6 UV-I 559 W/m² 18,7 °C 23,4 °C 9,7 km/h (2 Bft)
04.08.2017 10:10 23,4 °C 23,4 °C 75 % 1011,6 hPa 0,0 mm 2,8 km/h (1 Bft) NW 310 ° 1 min 0,000 mm 3,4 UV-I 559 W/m² 18,7 °C 23,4 °C 4,8 km/h (1 Bft)
04.08.2017 10:11 23,4 °C 23,4 °C 76 % 1011,6 hPa 0,0 mm 3,4 km/h (1 Bft) W-SW 250 ° 1 min 0,000 mm 3,3 UV-I 374 W/m² 18,9 °C 23,4 °C 6,4 km/h (2 Bft)
04.08.2017 10:12 23,3 °C 23,4 °C 77 % 1011,6 hPa 0,0 mm 6,3 km/h (2 Bft) NW 321 ° 1 min 0,000 mm 4,7 UV-I 461 W/m² 19,0 °C 23,3 °C 9,7 km/h (2 Bft)
04.08.2017 10:13 23,3 °C 23,4 °C 77 % 1011,6 hPa 0,0 mm 3,8 km/h (1 Bft) W-NW 295 ° 1 min 0,000 mm 4,7 UV-I 461 W/m² 19,0 °C 23,3 °C 4,8 km/h (1 Bft)
04.08.2017 10:14 23,5 °C 23,5 °C 77 % 1011,6 hPa 0,0 mm 6,3 km/h (2 Bft) N-NW 333 ° 1 min 0,000 mm 4,7 UV-I 461 W/m² 19,2 °C 23,5 °C 11,3 km/h (2 Bft)
04.08.2017 10:15 23,6 °C 23,6 °C 76 % 1011,6 hPa 0,0 mm 7,6 km/h (2 Bft) NW 306 ° 1 min 0,000 mm 3,3 UV-I 380 W/m² 19,1 °C 23,6 °C 11,3 km/h (2 Bft)
04.08.2017 10:16 23,6 °C 23,6 °C 77 % 1011,6 hPa 0,0 mm 6,4 km/h (2 Bft) NW 312 ° 1 min 0,000 mm 3,2 UV-I 373 W/m² 19,3 °C 23,6 °C 8,0 km/h (2 Bft)
04.08.2017 10:17 23,6 °C 23,6 °C 77 % 1011,6 hPa 0,0 mm 4,5 km/h (1 Bft) NW 313 ° 1 min 0,000 mm 4,6 UV-I 454 W/m² 19,3 °C 23,6 °C 8,0 km/h (2 Bft)
04.08.2017 10:18 23,6 °C 23,6 °C 77 % 1011,6 hPa 0,0 mm 7,2 km/h (2 Bft) NW 304 ° 1 min 0,000 mm 3,1 UV-I 378 W/m² 19,3 °C 23,6 °C 9,7 km/h (2 Bft)
04.08.2017 10:19 23,6 °C 23,6 °C 76 % 1011,5 hPa 0,0 mm 4,8 km/h (1 Bft) N-NW 344 ° 1 min 0,000 mm 3,6 UV-I 378 W/m² 19,1 °C 23,6 °C 6,4 km/h (2 Bft)
04.08.2017 10:20 23,6 °C 23,6 °C 76 % 1011,6 hPa 0,0 mm 3,7 km/h (1 Bft) N-NW 331 ° 1 min 0,000 mm 4,4 UV-I 418 W/m² 19,1 °C 23,6 °C 6,4 km/h (2 Bft)
04.08.2017 10:21 23,6 °C 23,6 °C 76 % 1011,6 hPa 0,0 mm 4,0 km/h (1 Bft) NW 323 ° 1 min 0,000 mm 4,8 UV-I 816 W/m² 19,1 °C 23,6 °C 6,4 km/h (2 Bft)
04.08.2017 10:22 23,7 °C 23,7 °C 79 % 1011,6 hPa 0,0 mm 3,8 km/h (1 Bft) N-NW 332 ° 1 min 0,000 mm 5,0 UV-I 768 W/m² 19,8 °C 23,7 °C 6,4 km/h (2 Bft)
04.08.2017 10:23 23,9 °C 23,9 °C 78 % 1011,6 hPa 0,0 mm 5,6 km/h (1 Bft) W-NW 300 ° 1 min 0,000 mm 3,3 UV-I 768 W/m² 19,8 °C 23,9 °C 9,7 km/h (2 Bft)
04.08.2017 10:24 23,8 °C 23,9 °C 74 % 1011,6 hPa 0,0 mm 6,2 km/h (2 Bft) W-NW 291 ° 1 min 0,000 mm 4,0 UV-I 404 W/m² 18,9 °C 23,8 °C 9,7 km/h (2 Bft)
04.08.2017 10:25 23,8 °C 23,8 °C 75 % 1011,6 hPa 0,0 mm 9,1 km/h (2 Bft) W 266 ° 1 min 0,000 mm 3,2 UV-I 352 W/m² 19,1 °C 23,8 °C 11,3 km/h (2 Bft)
04.08.2017 10:26 23,7 °C 23,8 °C 75 % 1011,5 hPa 0,0 mm 4,1 km/h (1 Bft) W 267 ° 1 min 0,000 mm 3,2 UV-I 353 W/m² 19,0 °C 23,7 °C 8,0 km/h (2 Bft)
04.08.2017 10:27 23,6 °C 23,7 °C 75 % 1011,5 hPa 0,0 mm 5,6 km/h (1 Bft) W 271 ° 1 min 0,000 mm 3,1 UV-I 353 W/m² 18,9 °C 23,6 °C 9,7 km/h (2 Bft)
04.08.2017 10:28 23,6 °C 23,6 °C 76 % 1011,5 hPa 0,0 mm 9,1 km/h (2 Bft) W 261 ° 1 min 0,000 mm 3,1 UV-I 353 W/m² 19,1 °C 23,6 °C 12,9 km/h (3 Bft)
04.08.2017 10:29 23,3 °C 23,6 °C 74 % 1011,5 hPa 0,0 mm 4,8 km/h (1 Bft) W-NW 286 ° 1 min 0,000 mm 3,1 UV-I 323 W/m² 18,4 °C 23,3 °C 9,7 km/h (2 Bft)
04.08.2017 10:30 23,3 °C 23,3 °C 76 % 1011,5 hPa 0,0 mm 5,6 km/h (1 Bft) W 265 ° 1 min 0,000 mm 3,2 UV-I 355 W/m² 18,8 °C 23,3 °C 9,7 km/h (2 Bft)
04.08.2017 10:31 23,3 °C 23,3 °C 77 % 1011,5 hPa 0,0 mm 4,2 km/h (1 Bft) W 272 ° 1 min 0,000 mm 3,2 UV-I 329 W/m² 19,0 °C 23,3 °C 6,4 km/h (2 Bft)
04.08.2017 10:32 23,2 °C 23,3 °C 78 % 1011,5 hPa 0,0 mm 3,8 km/h (1 Bft) NW 312 ° 1 min 0,000 mm 3,2 UV-I 339 W/m² 19,1 °C 23,2 °C 4,8 km/h (1 Bft)
04.08.2017 10:33 23,2 °C 23,2 °C 77 % 1011,5 hPa 0,0 mm 6,0 km/h (2 Bft) W-SW 251 ° 1 min 0,000 mm 3,2 UV-I 339 W/m² 18,9 °C 23,2 °C 11,3 km/h (2 Bft)
04.08.2017 10:34 23,2 °C 23,2 °C 78 % 1011,5 hPa 0,0 mm 8,1 km/h (2 Bft) W 268 ° 1 min 0,000 mm 3,2 UV-I 339 W/m² 19,1 °C 23,2 °C 9,7 km/h (2 Bft)
04.08.2017 10:35 23,2 °C 23,2 °C 77 % 1011,5 hPa 0,0 mm 5,9 km/h (2 Bft) W-NW 288 ° 1 min 0,000 mm 3,3 UV-I 339 W/m² 18,9 °C 23,2 °C 8,0 km/h (2 Bft)
04.08.2017 10:36 23,2 °C 23,2 °C 77 % 1011,5 hPa 0,0 mm 7,2 km/h (2 Bft) W-NW 302 ° 1 min 0,000 mm 3,9 UV-I 339 W/m² 18,9 °C 23,2 °C 11,3 km/h (2 Bft)
04.08.2017 10:37 23,3 °C 23,3 °C 78 % 1011,5 hPa 0,0 mm 4,5 km/h (1 Bft) W 264 ° 1 min 0,000 mm 3,2 UV-I 339 W/m² 19,2 °C 23,3 °C 6,4 km/h (2 Bft)
04.08.2017 10:38 23,3 °C 23,3 °C 78 % 1011,5 hPa 0,0 mm 5,0 km/h (1 Bft) W-NW 294 ° 1 min 0,000 mm 3,2 UV-I 327 W/m² 19,2 °C 23,3 °C 8,0 km/h (2 Bft)
04.08.2017 10:39 23,2 °C 23,3 °C 76 % 1011,5 hPa 0,0 mm 5,7 km/h (1 Bft) W 262 ° 1 min 0,000 mm 3,1 UV-I 320 W/m² 18,7 °C 23,2 °C 6,4 km/h (2 Bft)
04.08.2017 10:40 23,2 °C 23,2 °C 77 % 1011,5 hPa 0,0 mm 5,3 km/h (1 Bft) W-NW 284 ° 1 min 0,000 mm 3,2 UV-I 346 W/m² 18,9 °C 23,2 °C 9,7 km/h (2 Bft)
04.08.2017 10:41 23,2 °C 23,2 °C 77 % 1011,4 hPa 0,0 mm 2,5 km/h (1 Bft) NW 304 ° 1 min 0,000 mm 3,1 UV-I 325 W/m² 18,9 °C 23,2 °C 6,4 km/h (2 Bft)
04.08.2017 10:42 23,3 °C 23,3 °C 79 % 1011,4 hPa 0,0 mm 0,2 km/h (0 Bft) NW 304 ° 1 min 0,000 mm 3,3 UV-I 334 W/m² 19,4 °C 23,3 °C 1,6 km/h (1 Bft)
04.08.2017 10:43 23,3 °C 23,3 °C 79 % 1011,4 hPa 0,0 mm 0,3 km/h (0 Bft) NW 304 ° 1 min 0,000 mm 3,3 UV-I 320 W/m² 19,4 °C 23,3 °C 1,6 km/h (1 Bft)
04.08.2017 10:44 23,3 °C 23,3 °C 79 % 1011,5 hPa 0,0 mm 2,6 km/h (1 Bft) W 277 ° 1 min 0,000 mm 3,1 UV-I 318 W/m² 19,4 °C 23,3 °C 4,8 km/h (1 Bft)
04.08.2017 10:45 23,4 °C 23,4 °C 76 % 1011,5 hPa 0,0 mm 2,5 km/h (1 Bft) W 277 ° 1 min 0,000 mm 3,1 UV-I 318 W/m² 18,9 °C 23,4 °C 4,8 km/h (1 Bft)
04.08.2017 10:46 23,4 °C 23,4 °C 78 % 1011,5 hPa 0,0 mm 2,9 km/h (1 Bft) W 277 ° 1 min 0,000 mm 3,1 UV-I 295 W/m² 19,3 °C 23,4 °C 4,8 km/h (1 Bft)
04.08.2017 10:47 23,5 °C 23,5 °C 78 % 1011,5 hPa 0,0 mm 5,6 km/h (1 Bft) W-NW 290 ° 1 min 0,000 mm 3,1 UV-I 292 W/m² 19,4 °C 23,5 °C 11,3 km/h (2 Bft)
04.08.2017 10:48 23,6 °C 23,6 °C 78 % 1011,5 hPa 0,0 mm 5,0 km/h (1 Bft) W-NW 284 ° 1 min 0,000 mm 3,1 UV-I 295 W/m² 19,5 °C 23,6 °C 6,4 km/h (2 Bft)
04.08.2017 10:49 23,5 °C 23,6 °C 77 % 1011,5 hPa 0,0 mm 4,0 km/h (1 Bft) W 274 ° 1 min 0,000 mm 3,1 UV-I 309 W/m² 19,2 °C 23,5 °C 4,8 km/h (1 Bft)
04.08.2017 10:50 23,4 °C 23,5 °C 77 % 1011,5 hPa 0,0 mm 3,6 km/h (1 Bft) NW 315 ° 1 min 0,000 mm 3,3 UV-I 315 W/m² 19,1 °C 23,4 °C 6,4 km/h (2 Bft)
04.08.2017 10:51 23,4 °C 23,4 °C 77 % 1011,5 hPa 0,0 mm 2,1 km/h (1 Bft) NW 315 ° 1 min 0,000 mm 3,3 UV-I 334 W/m² 19,1 °C 23,4 °C 3,2 km/h (1 Bft)
04.08.2017 10:52 23,4 °C 23,4 °C 76 % 1011,4 hPa 0,0 mm 4,2 km/h (1 Bft) NW 319 ° 1 min 0,000 mm 3,4 UV-I 399 W/m² 18,9 °C 23,4 °C 8,0 km/h (2 Bft)
04.08.2017 10:53 23,3 °C 23,4 °C 76 % 1011,4 hPa 0,0 mm 3,2 km/h (1 Bft) W-NW 297 ° 1 min 0,000 mm 3,5 UV-I 355 W/m² 18,8 °C 23,3 °C 6,4 km/h (2 Bft)
04.08.2017 10:54 23,3 °C 23,3 °C 77 % 1011,5 hPa 0,0 mm 3,8 km/h (1 Bft) W-NW 301 ° 1 min 0,000 mm 3,6 UV-I 374 W/m² 19,0 °C 23,3 °C 4,8 km/h (1 Bft)
04.08.2017 10:55 23,3 °C 23,3 °C 78 % 1011,5 hPa 0,0 mm 3,5 km/h (1 Bft) N-NW 343 ° 1 min 0,000 mm 3,7 UV-I 427 W/m² 19,2 °C 23,3 °C 4,8 km/h (1 Bft)
04.08.2017 10:56 23,4 °C 23,4 °C 78 % 1011,5 hPa 0,0 mm 4,8 km/h (1 Bft) NW 314 ° 1 min 0,000 mm 3,9 UV-I 339 W/m² 19,3 °C 23,4 °C 8,0 km/h (2 Bft)
04.08.2017 10:57 23,4 °C 23,4 °C 78 % 1011,5 hPa 0,0 mm 6,0 km/h (2 Bft) N-NW 331 ° 1 min 0,000 mm 4,0 UV-I 425 W/m² 19,3 °C 23,4 °C 8,0 km/h (2 Bft)
04.08.2017 10:58 23,5 °C 23,5 °C 78 % 1011,4 hPa 0,0 mm 6,0 km/h (2 Bft) NW 309 ° 1 min 0,000 mm 4,2 UV-I 483 W/m² 19,4 °C 23,5 °C 8,0 km/h (2 Bft)
04.08.2017 10:59 23,6 °C 23,6 °C 78 % 1011,5 hPa 0,0 mm 5,0 km/h (1 Bft) NW 318 ° 1 min 0,000 mm 3,8 UV-I 438 W/m² 19,5 °C 23,6 °C 6,4 km/h (2 Bft)
04.08.2017 11:00 23,7 °C 23,7 °C 76 % 1011,4 hPa 0,0 mm 4,6 km/h (1 Bft) NW 323 ° 1 min 0,000 mm 3,5 UV-I 341 W/m² 19,2 °C 23,7 °C 6,4 km/h (2 Bft)
04.08.2017 11:01 23,7 °C 23,7 °C 77 % 1011,5 hPa 0,0 mm 4,5 km/h (1 Bft) W-NW 300 ° 1 min 0,279 mm 4,3 UV-I 417 W/m² 19,4 °C 23,7 °C 11,3 km/h (2 Bft)
04.08.2017 11:02 23,8 °C 23,8 °C 79 % 1011,5 hPa 0,0 mm 6,3 km/h (2 Bft) W 275 ° 1 min 0,000 mm 5,2 UV-I 631 W/m² 19,9 °C 23,8 °C 9,7 km/h (2 Bft)
04.08.2017 11:03 23,8 °C 23,8 °C 76 % 1011,5 hPa 0,0 mm 5,3 km/h (1 Bft) W-NW 285 ° 1 min 0,000 mm 4,5 UV-I 631 W/m² 19,3 °C 23,8 °C 9,7 km/h (2 Bft)
04.08.2017 11:04 23,9 °C 23,9 °C 77 % 1011,5 hPa 0,0 mm 4,6 km/h (1 Bft) NW 317 ° 1 min 0,000 mm 4,5 UV-I 659 W/m² 19,6 °C 23,9 °C 6,4 km/h (2 Bft)
04.08.2017 11:05 23,9 °C 23,9 °C 75 % 1011,5 hPa 0,0 mm 3,0 km/h (1 Bft) NW 321 ° 1 min 0,000 mm 4,9 UV-I 626 W/m² 19,2 °C 23,9 °C 4,8 km/h (1 Bft)
04.08.2017 11:06 23,9 °C 23,9 °C 77 % 1011,5 hPa 0,0 mm 2,6 km/h (1 Bft) NW 309 ° 1 min 0,000 mm 5,7 UV-I 687 W/m² 19,6 °C 23,9 °C 4,8 km/h (1 Bft)
04.08.2017 11:07 24,1 °C 24,1 °C 76 % 1011,5 hPa 0,0 mm 0,8 km/h (0 Bft) NW 309 ° 1 min 0,000 mm 5,7 UV-I 621 W/m² 19,6 °C 24,1 °C 3,2 km/h (1 Bft)
04.08.2017 11:08 24,0 °C 24,1 °C 76 % 1011,5 hPa 0,0 mm 0,5 km/h (0 Bft) NW 309 ° 1 min 0,000 mm 5,1 UV-I 570 W/m² 19,5 °C 24,0 °C 3,2 km/h (1 Bft)
04.08.2017 11:09 24,1 °C 24,1 °C 77 % 1011,5 hPa 0,0 mm 5,7 km/h (1 Bft) W 267 ° 1 min 0,000 mm 4,2 UV-I 499 W/m² 19,8 °C 24,1 °C 11,3 km/h (2 Bft)
04.08.2017 11:10 24,2 °C 24,2 °C 78 % 1011,5 hPa 0,0 mm 8,4 km/h (2 Bft) W 260 ° 1 min 0,000 mm 4,2 UV-I 439 W/m² 20,1 °C 24,2 °C 12,9 km/h (3 Bft)
04.08.2017 11:11 24,0 °C 24,2 °C 74 % 1011,5 hPa 0,0 mm 4,2 km/h (1 Bft) W 271 ° 1 min 0,000 mm 4,2 UV-I 494 W/m² 19,1 °C 24,0 °C 9,7 km/h (2 Bft)
04.08.2017 11:12 23,9 °C 24,0 °C 77 % 1011,5 hPa 0,0 mm 2,7 km/h (1 Bft) W 271 ° 1 min 0,000 mm 4,2 UV-I 418 W/m² 19,6 °C 23,9 °C 6,4 km/h (2 Bft)
04.08.2017 11:13 23,8 °C 23,9 °C 75 % 1011,5 hPa 0,0 mm 2,5 km/h (1 Bft) W 267 ° 1 min 0,000 mm 4,4 UV-I 476 W/m² 19,1 °C 23,8 °C 4,8 km/h (1 Bft)
04.08.2017 11:14 23,8 °C 23,8 °C 79 % 1011,5 hPa 0,0 mm 4,8 km/h (1 Bft) W 264 ° 1 min 0,000 mm 4,1 UV-I 443 W/m² 19,9 °C 23,8 °C 9,7 km/h (2 Bft)
04.08.2017 11:15 23,8 °C 23,8 °C 76 % 1011,5 hPa 0,0 mm 4,2 km/h (1 Bft) W-NW 294 ° 1 min 0,000 mm 4,0 UV-I 420 W/m² 19,3 °C 23,8 °C 4,8 km/h (1 Bft)
04.08.2017 11:16 23,8 °C 23,8 °C 77 % 1011,5 hPa 0,0 mm 4,6 km/h (1 Bft) NW 318 ° 1 min 0,000 mm 4,4 UV-I 420 W/m² 19,5 °C 23,8 °C 6,4 km/h (2 Bft)
04.08.2017 11:17 24,0 °C 24,0 °C 79 % 1011,5 hPa 0,0 mm 3,6 km/h (1 Bft) N-NW 327 ° 1 min 0,000 mm 6,1 UV-I 420 W/m² 20,1 °C 24,0 °C 4,8 km/h (1 Bft)
04.08.2017 11:18 24,2 °C 24,2 °C 75 % 1011,5 hPa 0,0 mm 1,4 km/h (1 Bft) N-NW 330 ° 1 min 0,000 mm 6,4 UV-I 842 W/m² 19,5 °C 24,2 °C 3,2 km/h (1 Bft)
04.08.2017 11:19 24,3 °C 24,3 °C 80 % 1011,5 hPa 0,0 mm 2,3 km/h (1 Bft) N-NW 327 ° 1 min 0,000 mm 6,7 UV-I 940 W/m² 20,6 °C 24,3 °C 4,8 km/h (1 Bft)
04.08.2017 11:20 24,4 °C 24,4 °C 76 % 1011,4 hPa 0,0 mm 1,5 km/h (1 Bft) N-NW 327 ° 1 min 0,000 mm 6,3 UV-I 840 W/m² 19,9 °C 24,4 °C 3,2 km/h (1 Bft)
04.08.2017 11:21 24,6 °C 24,6 °C 77 % 1011,5 hPa 0,0 mm 5,2 km/h (1 Bft) W-SW 243 ° 1 min 0,000 mm 6,4 UV-I 840 W/m² 20,3 °C 24,6 °C 8,0 km/h (2 Bft)
04.08.2017 11:22 24,6 °C 24,6 °C 74 % 1011,5 hPa 0,0 mm 4,1 km/h (1 Bft) W 268 ° 1 min 0,000 mm 6,7 UV-I 905 W/m² 19,6 °C 24,6 °C 6,4 km/h (2 Bft)
04.08.2017 11:23 24,6 °C 24,6 °C 75 % 1011,4 hPa 0,0 mm 5,1 km/h (1 Bft) W-SW 254 ° 1 min 0,000 mm 6,8 UV-I 905 W/m² 19,9 °C 24,6 °C 8,0 km/h (2 Bft)
04.08.2017 11:24 24,6 °C 24,6 °C 73 % 1011,4 hPa 0,0 mm 3,9 km/h (1 Bft) W 263 ° 1 min 0,000 mm 6,8 UV-I 1005 W/m² 19,4 °C 24,6 °C 6,4 km/h (2 Bft)
04.08.2017 11:25 24,7 °C 24,7 °C 73 % 1011,4 hPa 0,0 mm 6,0 km/h (2 Bft) W-NW 296 ° 1 min 0,000 mm 6,8 UV-I 970 W/m² 19,5 °C 24,7 °C 9,7 km/h (2 Bft)
04.08.2017 11:26 24,8 °C 24,8 °C 79 % 1011,4 hPa 0,0 mm 6,1 km/h (2 Bft) W-SW 258 ° 1 min 0,000 mm 4,5 UV-I 970 W/m² 20,9 °C 24,8 °C 9,7 km/h (2 Bft)
04.08.2017 11:27 24,8 °C 24,9 °C 75 % 1011,4 hPa 0,0 mm 9,3 km/h (2 Bft) W-NW 282 ° 1 min 0,000 mm 5,4 UV-I 701 W/m² 20,1 °C 24,8 °C 12,9 km/h (3 Bft)
04.08.2017 11:28 24,9 °C 24,9 °C 74 % 1011,4 hPa 0,0 mm 7,4 km/h (2 Bft) W 275 ° 1 min 0,000 mm 4,2 UV-I 701 W/m² 19,9 °C 24,9 °C 11,3 km/h (2 Bft)
04.08.2017 11:29 24,8 °C 24,9 °C 73 % 1011,4 hPa 0,0 mm 7,0 km/h (2 Bft) W 261 ° 1 min 0,000 mm 3,5 UV-I 701 W/m² 19,6 °C 24,8 °C 9,7 km/h (2 Bft)
04.08.2017 11:30 24,6 °C 24,8 °C 72 % 1011,4 hPa 0,0 mm 5,5 km/h (1 Bft) W 278 ° 1 min 0,000 mm 3,5 UV-I 346 W/m² 19,2 °C 24,6 °C 9,7 km/h (2 Bft)
04.08.2017 11:31 24,4 °C 24,6 °C 75 % 1011,4 hPa 0,0 mm 3,8 km/h (1 Bft) W-NW 286 ° 1 min 0,000 mm 3,7 UV-I 439 W/m² 19,7 °C 24,4 °C 6,4 km/h (2 Bft)
04.08.2017 11:32 24,3 °C 24,4 °C 72 % 1011,4 hPa 0,0 mm 4,6 km/h (1 Bft) W 266 ° 1 min 0,000 mm 3,4 UV-I 357 W/m² 18,9 °C 24,3 °C 6,4 km/h (2 Bft)
04.08.2017 11:33 24,2 °C 24,3 °C 74 % 1011,4 hPa 0,0 mm 2,4 km/h (1 Bft) W 267 ° 1 min 0,000 mm 3,8 UV-I 424 W/m² 19,3 °C 24,2 °C 4,8 km/h (1 Bft)
04.08.2017 11:34 24,2 °C 24,2 °C 76 % 1011,4 hPa 0,0 mm 2,7 km/h (1 Bft) W-SW 252 ° 1 min 0,000 mm 5,4 UV-I 424 W/m² 19,7 °C 24,2 °C 4,8 km/h (1 Bft)
04.08.2017 11:35 24,3 °C 24,3 °C 77 % 1011,5 hPa 0,0 mm 2,2 km/h (1 Bft) W-SW 255 ° 1 min 0,000 mm 4,9 UV-I 424 W/m² 20,0 °C 24,3 °C 4,8 km/h (1 Bft)
04.08.2017 11:36 24,5 °C 24,5 °C 75 % 1011,4 hPa 0,0 mm 0,8 km/h (0 Bft) W-SW 255 ° 1 min 0,000 mm 5,5 UV-I 905 W/m² 19,8 °C 24,5 °C 1,6 km/h (1 Bft)
04.08.2017 11:37 24,7 °C 24,7 °C 76 % 1011,4 hPa 0,0 mm 2,2 km/h (1 Bft) W 280 ° 1 min 0,000 mm 5,7 UV-I 905 W/m² 20,2 °C 24,7 °C 3,2 km/h (1 Bft)
04.08.2017 11:38 24,9 °C 24,9 °C 76 % 1011,3 hPa 0,0 mm 4,3 km/h (1 Bft) N-NW 329 ° 1 min 0,000 mm 4,0 UV-I 905 W/m² 20,4 °C 24,9 °C 6,4 km/h (2 Bft)
04.08.2017 11:39 25,0 °C 25,0 °C 73 % 1011,4 hPa 0,0 mm 6,4 km/h (2 Bft) N-NW 327 ° 1 min 0,000 mm 2,7 UV-I 905 W/m² 19,8 °C 25,0 °C 12,9 km/h (3 Bft)
04.08.2017 11:40 25,0 °C 25,1 °C 75 % 1011,5 hPa 0,0 mm 6,5 km/h (2 Bft) N-NW 338 ° 1 min 0,000 mm 2,4 UV-I 905 W/m² 20,2 °C 25,0 °C 9,7 km/h (2 Bft)
04.08.2017 11:41 24,9 °C 25,0 °C 75 % 1011,5 hPa 0,0 mm 7,4 km/h (2 Bft) NW 326 ° 0 min 0,000 mm 2,3 UV-I 253 W/m² 20,2 °C 24,9 °C 9,7 km/h (2 Bft)
04.08.2017 11:42 24,8 °C 24,9 °C 76 % 1011,5 hPa 0,0 mm 6,1 km/h (2 Bft) N-NO 16 ° 0 min 0,000 mm 2,3 UV-I 250 W/m² 20,3 °C 24,8 °C 8,0 km/h (2 Bft)
04.08.2017 11:43 24,6 °C 24,8 °C 75 % 1011,5 hPa 0,0 mm 6,1 km/h (2 Bft) N 360 ° 0 min 0,000 mm 2,3 UV-I 255 W/m² 19,9 °C 24,6 °C 11,3 km/h (2 Bft)
04.08.2017 11:44 24,4 °C 24,6 °C 74 % 1011,5 hPa 0,0 mm 4,2 km/h (1 Bft) N-NW 344 ° 0 min 0,000 mm 2,5 UV-I 260 W/m² 19,5 °C 24,4 °C 4,8 km/h (1 Bft)
04.08.2017 11:45 24,3 °C 24,4 °C 75 % 1011,5 hPa 0,0 mm 3,0 km/h (1 Bft) N-NO 24 ° 0 min 0,000 mm 2,5 UV-I 267 W/m² 19,6 °C 24,3 °C 6,4 km/h (2 Bft)
04.08.2017 11:46 24,3 °C 24,3 °C 77 % 1011,5 hPa 0,0 mm 4,7 km/h (1 Bft) N 5 ° 0 min 0,000 mm 2,6 UV-I 271 W/m² 20,0 °C 24,3 °C 6,4 km/h (2 Bft)
04.08.2017 11:47 24,3 °C 24,3 °C 78 % 1011,5 hPa 0,0 mm 1,9 km/h (1 Bft) N 355 ° 0 min 0,000 mm 2,6 UV-I 276 W/m² 20,2 °C 24,3 °C 3,2 km/h (1 Bft)
04.08.2017 11:48 24,3 °C 24,3 °C 77 % 1011,4 hPa 0,0 mm 0,1 km/h (0 Bft) N 355 ° 1 min 0,000 mm 2,9 UV-I 306 W/m² 20,0 °C 24,3 °C 1,6 km/h (1 Bft)
04.08.2017 11:49 24,3 °C 24,3 °C 77 % 1011,5 hPa 0,0 mm 3,1 km/h (1 Bft) W 266 ° 1 min 0,000 mm 2,8 UV-I 301 W/m² 20,0 °C 24,3 °C 4,8 km/h (1 Bft)
04.08.2017 11:50 24,2 °C 24,3 °C 75 % 1011,5 hPa 0,0 mm 5,2 km/h (1 Bft) NW 325 ° 1 min 0,000 mm 2,8 UV-I 297 W/m² 19,5 °C 24,2 °C 9,7 km/h (2 Bft)
04.08.2017 11:51 24,2 °C 24,2 °C 77 % 1011,5 hPa 0,0 mm 5,7 km/h (1 Bft) NW 311 ° 1 min 0,000 mm 2,8 UV-I 297 W/m² 19,9 °C 24,2 °C 6,4 km/h (2 Bft)
04.08.2017 11:52 24,2 °C 24,2 °C 77 % 1011,5 hPa 0,0 mm 2,6 km/h (1 Bft) N-NW 330 ° 1 min 0,000 mm 2,9 UV-I 301 W/m² 19,9 °C 24,2 °C 4,8 km/h (1 Bft)
04.08.2017 11:53 24,2 °C 24,2 °C 76 % 1011,5 hPa 0,0 mm 4,0 km/h (1 Bft) N-NW 331 ° 1 min 0,000 mm 3,0 UV-I 309 W/m² 19,7 °C 24,2 °C 6,4 km/h (2 Bft)
04.08.2017 11:54 24,2 °C 24,2 °C 77 % 1011,6 hPa 0,0 mm 4,4 km/h (1 Bft) NW 322 ° 1 min 0,000 mm 3,3 UV-I 367 W/m² 19,9 °C 24,2 °C 6,4 km/h (2 Bft)
04.08.2017 11:55 24,3 °C 24,3 °C 78 % 1011,6 hPa 0,0 mm 7,6 km/h (2 Bft) NW 326 ° 1 min 0,000 mm 3,8 UV-I 406 W/m² 20,2 °C 24,3 °C 8,0 km/h (2 Bft)
04.08.2017 11:56 24,3 °C 24,3 °C 77 % 1011,6 hPa 0,0 mm 4,8 km/h (1 Bft) N-NW 331 ° 1 min 0,000 mm 4,0 UV-I 443 W/m² 20,0 °C 24,3 °C 8,0 km/h (2 Bft)
04.08.2017 11:57 24,4 °C 24,4 °C 76 % 1011,6 hPa 0,0 mm 3,0 km/h (1 Bft) N-NW 328 ° 1 min 0,000 mm 4,1 UV-I 443 W/m² 19,9 °C 24,4 °C 4,8 km/h (1 Bft)
04.08.2017 11:58 24,4 °C 24,4 °C 76 % 1011,6 hPa 0,0 mm 1,3 km/h (1 Bft) N-NW 328 ° 1 min 0,000 mm 3,7 UV-I 415 W/m² 19,9 °C 24,4 °C 1,6 km/h (1 Bft)
04.08.2017 11:59 24,4 °C 24,4 °C 76 % 1011,6 hPa 0,0 mm 5,0 km/h (1 Bft) W-NW 286 ° 1 min 0,000 mm 3,8 UV-I 411 W/m² 19,9 °C 24,4 °C 8,0 km/h (2 Bft)
04.08.2017 12:00 24,4 °C 24,4 °C 75 % 1011,6 hPa 0,0 mm 6,1 km/h (2 Bft) W 277 ° 1 min 0,000 mm 3,7 UV-I 396 W/m² 19,7 °C 24,4 °C 11,3 km/h (2 Bft)
04.08.2017 12:01 24,4 °C 24,4 °C 74 % 1011,6 hPa 0,0 mm 6,8 km/h (2 Bft) W 264 ° 1 min 0,356 mm 3,4 UV-I 366 W/m² 19,5 °C 24,4 °C 12,9 km/h (3 Bft)
04.08.2017 12:02 24,3 °C 24,4 °C 73 % 1011,6 hPa 0,0 mm 6,8 km/h (2 Bft) N 360 ° 1 min 0,000 mm 3,1 UV-I 325 W/m² 19,1 °C 24,3 °C 11,3 km/h (2 Bft)
04.08.2017 12:03 24,3 °C 24,3 °C 75 % 1011,6 hPa 0,0 mm 4,2 km/h (1 Bft) NW 309 ° 1 min 0,000 mm 3,2 UV-I 325 W/m² 19,6 °C 24,3 °C 6,4 km/h (2 Bft)
04.08.2017 12:04 24,3 °C 24,3 °C 76 % 1011,6 hPa 0,0 mm 5,5 km/h (1 Bft) W-NW 290 ° 1 min 0,000 mm 3,3 UV-I 352 W/m² 19,8 °C 24,3 °C 6,4 km/h (2 Bft)
04.08.2017 12:05 24,3 °C 24,3 °C 76 % 1011,6 hPa 0,0 mm 5,0 km/h (1 Bft) NW 313 ° 1 min 0,000 mm 3,4 UV-I 374 W/m² 19,8 °C 24,3 °C 8,0 km/h (2 Bft)
04.08.2017 12:06 24,3 °C 24,3 °C 76 % 1011,6 hPa 0,0 mm 5,8 km/h (2 Bft) W-NW 284 ° 1 min 0,000 mm 3,2 UV-I 348 W/m² 19,8 °C 24,3 °C 11,3 km/h (2 Bft)
04.08.2017 12:07 24,3 °C 24,3 °C 75 % 1011,6 hPa 0,0 mm 4,6 km/h (1 Bft) NW 304 ° 1 min 0,000 mm 3,6 UV-I 376 W/m² 19,6 °C 24,3 °C 9,7 km/h (2 Bft)
04.08.2017 12:08 24,2 °C 24,3 °C 76 % 1011,6 hPa 0,0 mm 2,1 km/h (1 Bft) NW 305 ° 1 min 0,000 mm 3,6 UV-I 381 W/m² 19,7 °C 24,2 °C 4,8 km/h (1 Bft)
04.08.2017 12:09 24,2 °C 24,2 °C 74 % 1011,6 hPa 0,0 mm 3,6 km/h (1 Bft) N 360 ° 1 min 0,000 mm 3,5 UV-I 366 W/m² 19,3 °C 24,2 °C 8,0 km/h (2 Bft)
04.08.2017 12:10 24,2 °C 24,2 °C 77 % 1011,6 hPa 0,0 mm 4,4 km/h (1 Bft) W-NW 302 ° 1 min 0,000 mm 3,4 UV-I 357 W/m² 19,9 °C 24,2 °C 6,4 km/h (2 Bft)
04.08.2017 12:11 24,3 °C 24,3 °C 75 % 1011,6 hPa 0,0 mm 3,2 km/h (1 Bft) W-NW 302 ° 1 min 0,000 mm 3,1 UV-I 313 W/m² 19,6 °C 24,3 °C 4,8 km/h (1 Bft)
04.08.2017 12:12 24,2 °C 24,3 °C 73 % 1011,5 hPa 0,0 mm 4,3 km/h (1 Bft) NW 320 ° 1 min 0,000 mm 3,0 UV-I 306 W/m² 19,0 °C 24,2 °C 6,4 km/h (2 Bft)
04.08.2017 12:13 24,3 °C 24,3 °C 75 % 1011,6 hPa 0,0 mm 3,9 km/h (1 Bft) NW 319 ° 1 min 0,000 mm 3,1 UV-I 311 W/m² 19,6 °C 24,3 °C 6,4 km/h (2 Bft)
04.08.2017 12:14 24,3 °C 24,3 °C 75 % 1011,6 hPa 0,0 mm 5,0 km/h (1 Bft) N 5 ° 1 min 0,000 mm 3,1 UV-I 313 W/m² 19,6 °C 24,3 °C 6,4 km/h (2 Bft)
04.08.2017 12:15 24,3 °C 24,3 °C 76 % 1011,5 hPa 0,0 mm 2,9 km/h (1 Bft) N 355 ° 1 min 0,000 mm 3,2 UV-I 313 W/m² 19,8 °C 24,3 °C 4,8 km/h (1 Bft)
04.08.2017 12:16 24,3 °C 24,3 °C 75 % 1011,5 hPa 0,0 mm 2,6 km/h (1 Bft) N 5 ° 1 min 0,000 mm 3,1 UV-I 325 W/m² 19,6 °C 24,3 °C 3,2 km/h (1 Bft)
04.08.2017 12:17 24,3 °C 24,3 °C 74 % 1011,5 hPa 0,0 mm 1,2 km/h (1 Bft) N 5 ° 1 min 0,000 mm 2,9 UV-I 302 W/m² 19,4 °C 24,3 °C 3,2 km/h (1 Bft)
04.08.2017 12:18 24,3 °C 24,3 °C 77 % 1011,5 hPa 0,0 mm 2,6 km/h (1 Bft) N-NW 347 ° 0 min 0,000 mm 2,6 UV-I 244 W/m² 20,0 °C 24,3 °C 4,8 km/h (1 Bft)
04.08.2017 12:19 24,3 °C 24,3 °C 74 % 1011,5 hPa 0,0 mm 2,7 km/h (1 Bft) N-NW 327 ° 0 min 0,000 mm 2,3 UV-I 230 W/m² 19,4 °C 24,3 °C 4,8 km/h (1 Bft)
04.08.2017 12:20 24,3 °C 24,3 °C 76 % 1011,6 hPa 0,0 mm 3,6 km/h (1 Bft) NW 305 ° 0 min 0,000 mm 2,2 UV-I 221 W/m² 19,8 °C 24,3 °C 8,0 km/h (2 Bft)
04.08.2017 12:21 24,3 °C 24,3 °C 76 % 1011,6 hPa 0,0 mm 5,8 km/h (2 Bft) NW 321 ° 0 min 0,000 mm 2,1 UV-I 209 W/m² 19,8 °C 24,3 °C 8,0 km/h (2 Bft)
04.08.2017 12:22 24,3 °C 24,4 °C 75 % 1011,6 hPa 0,0 mm 5,2 km/h (1 Bft) N-NO 16 ° 0 min 0,000 mm 1,9 UV-I 195 W/m² 19,6 °C 24,3 °C 8,0 km/h (2 Bft)
04.08.2017 12:23 24,3 °C 24,3 °C 76 % 1011,6 hPa 0,0 mm 4,7 km/h (1 Bft) NW 311 ° 0 min 0,000 mm 1,8 UV-I 178 W/m² 19,8 °C 24,3 °C 6,4 km/h (2 Bft)
04.08.2017 12:24 24,2 °C 24,3 °C 75 % 1011,6 hPa 0,0 mm 5,2 km/h (1 Bft) N-NW 340 ° 0 min 0,000 mm 1,8 UV-I 183 W/m² 19,5 °C 24,2 °C 8,0 km/h (2 Bft)
04.08.2017 12:25 24,1 °C 24,2 °C 76 % 1011,6 hPa 0,0 mm 7,5 km/h (2 Bft) N-NW 336 ° 0 min 0,000 mm 2,0 UV-I 197 W/m² 19,6 °C 24,1 °C 12,9 km/h (3 Bft)
04.08.2017 12:26 24,1 °C 24,1 °C 75 % 1011,6 hPa 0,0 mm 6,8 km/h (2 Bft) N-NW 345 ° 0 min 0,000 mm 2,1 UV-I 211 W/m² 19,4 °C 24,1 °C 12,9 km/h (3 Bft)
04.08.2017 12:27 24,0 °C 24,1 °C 76 % 1011,6 hPa 0,0 mm 4,7 km/h (1 Bft) NW 317 ° 0 min 0,000 mm 2,2 UV-I 221 W/m² 19,5 °C 24,0 °C 6,4 km/h (2 Bft)
04.08.2017 12:28 23,9 °C 24,0 °C 75 % 1011,6 hPa 0,0 mm 4,1 km/h (1 Bft) N-NO 12 ° 0 min 0,000 mm 2,3 UV-I 229 W/m² 19,2 °C 23,9 °C 6,4 km/h (2 Bft)
04.08.2017 12:29 23,9 °C 23,9 °C 76 % 1011,6 hPa 0,0 mm 5,5 km/h (1 Bft) NW 309 ° 0 min 0,000 mm 2,4 UV-I 232 W/m² 19,4 °C 23,9 °C 8,0 km/h (2 Bft)
04.08.2017 12:30 23,8 °C 23,9 °C 75 % 1011,6 hPa 0,0 mm 8,7 km/h (2 Bft) NW 316 ° 0 min 0,000 mm 2,5 UV-I 237 W/m² 19,1 °C 23,8 °C 12,9 km/h (3 Bft)
04.08.2017 12:31 23,8 °C 23,8 °C 75 % 1011,6 hPa 0,0 mm 8,6 km/h (2 Bft) NW 317 ° 0 min 0,000 mm 2,7 UV-I 250 W/m² 19,1 °C 23,8 °C 12,9 km/h (3 Bft)
04.08.2017 12:32 23,7 °C 23,8 °C 75 % 1011,6 hPa 0,0 mm 6,1 km/h (2 Bft) N-NW 332 ° 0 min 0,000 mm 3,0 UV-I 267 W/m² 19,0 °C 23,7 °C 9,7 km/h (2 Bft)
04.08.2017 12:33 23,7 °C 23,7 °C 77 % 1011,6 hPa 0,0 mm 1,9 km/h (1 Bft) N-NW 340 ° 0 min 0,000 mm 3,2 UV-I 267 W/m² 19,4 °C 23,7 °C 3,2 km/h (1 Bft)
04.08.2017 12:34 23,8 °C 23,8 °C 78 % 1011,5 hPa 0,0 mm 2,5 km/h (1 Bft) N-NW 333 ° 1 min 0,000 mm 3,5 UV-I 323 W/m² 19,7 °C 23,8 °C 4,8 km/h (1 Bft)
04.08.2017 12:35 23,8 °C 23,8 °C 77 % 1011,5 hPa 0,0 mm 0,9 km/h (0 Bft) N-NW 333 ° 1 min 0,000 mm 3,6 UV-I 341 W/m² 19,5 °C 23,8 °C 3,2 km/h (1 Bft)
04.08.2017 12:36 23,9 °C 23,9 °C 77 % 1011,5 hPa 0,0 mm 1,5 km/h (1 Bft) N-NW 334 ° 1 min 0,000 mm 3,5 UV-I 329 W/m² 19,6 °C 23,9 °C 3,2 km/h (1 Bft)
04.08.2017 12:37 23,9 °C 23,9 °C 76 % 1011,5 hPa 0,0 mm 1,7 km/h (1 Bft) N-NW 334 ° 1 min 0,000 mm 3,3 UV-I 325 W/m² 19,4 °C 23,9 °C 3,2 km/h (1 Bft)
04.08.2017 12:38 23,9 °C 23,9 °C 77 % 1011,5 hPa 0,0 mm 3,1 km/h (1 Bft) W 279 ° 1 min 0,000 mm 4,8 UV-I 411 W/m² 19,6 °C 23,9 °C 6,4 km/h (2 Bft)
04.08.2017 12:39 24,0 °C 24,0 °C 77 % 1011,6 hPa 0,0 mm 5,8 km/h (2 Bft) NW 325 ° 1 min 0,000 mm 3,7 UV-I 381 W/m² 19,7 °C 24,0 °C 9,7 km/h (2 Bft)
04.08.2017 12:40 24,1 °C 24,1 °C 77 % 1011,5 hPa 0,0 mm 4,2 km/h (1 Bft) N-NW 338 ° 1 min 0,000 mm 3,9 UV-I 397 W/m² 19,8 °C 24,1 °C 6,4 km/h (2 Bft)
04.08.2017 12:41 24,2 °C 24,2 °C 76 % 1011,6 hPa 0,0 mm 1,5 km/h (1 Bft) N-NW 338 ° 1 min 0,000 mm 3,9 UV-I 374 W/m² 19,7 °C 24,2 °C 3,2 km/h (1 Bft)
04.08.2017 12:42 24,2 °C 24,2 °C 75 % 1011,6 hPa 0,0 mm 3,5 km/h (1 Bft) N-NW 338 ° 1 min 0,000 mm 3,8 UV-I 366 W/m² 19,5 °C 24,2 °C 6,4 km/h (2 Bft)
04.08.2017 12:43 24,2 °C 24,2 °C 77 % 1011,6 hPa 0,0 mm 1,9 km/h (1 Bft) N-NW 338 ° 1 min 0,000 mm 4,0 UV-I 380 W/m² 19,9 °C 24,2 °C 4,8 km/h (1 Bft)
04.08.2017 12:44 24,3 °C 24,3 °C 77 % 1011,6 hPa 0,0 mm 3,7 km/h (1 Bft) W-NW 298 ° 1 min 0,000 mm 3,9 UV-I 394 W/m² 20,0 °C 24,3 °C 6,4 km/h (2 Bft)
04.08.2017 12:45 24,3 °C 24,3 °C 76 % 1011,6 hPa 0,0 mm 5,4 km/h (1 Bft) W-NW 296 ° 1 min 0,000 mm 4,0 UV-I 399 W/m² 19,8 °C 24,3 °C 6,4 km/h (2 Bft)
04.08.2017 12:46 24,3 °C 24,3 °C 77 % 1011,6 hPa 0,0 mm 6,0 km/h (2 Bft) W 281 ° 1 min 0,000 mm 4,1 UV-I 406 W/m² 20,0 °C 24,3 °C 9,7 km/h (2 Bft)
04.08.2017 12:47 24,3 °C 24,3 °C 75 % 1011,6 hPa 0,0 mm 8,4 km/h (2 Bft) W-NW 294 ° 1 min 0,000 mm 4,3 UV-I 432 W/m² 19,6 °C 24,3 °C 12,9 km/h (3 Bft)
04.08.2017 12:48 24,4 °C 24,4 °C 78 % 1011,5 hPa 0,0 mm 6,6 km/h (2 Bft) W 281 ° 1 min 0,000 mm 4,5 UV-I 457 W/m² 20,3 °C 24,4 °C 9,7 km/h (2 Bft)
04.08.2017 12:49 24,6 °C 24,6 °C 78 % 1011,5 hPa 0,0 mm 4,6 km/h (1 Bft) W-SW 244 ° 1 min 0,000 mm 4,6 UV-I 446 W/m² 20,5 °C 24,6 °C 8,0 km/h (2 Bft)
04.08.2017 12:50 24,6 °C 24,6 °C 76 % 1011,5 hPa 0,0 mm 5,4 km/h (1 Bft) W 265 ° 1 min 0,000 mm 4,6 UV-I 448 W/m² 20,1 °C 24,6 °C 9,7 km/h (2 Bft)
04.08.2017 12:51 24,6 °C 24,6 °C 77 % 1011,5 hPa 0,0 mm 4,6 km/h (1 Bft) W 273 ° 1 min 0,000 mm 4,7 UV-I 448 W/m² 20,3 °C 24,6 °C 6,4 km/h (2 Bft)
04.08.2017 12:52 24,7 °C 24,7 °C 77 % 1011,5 hPa 0,0 mm 4,7 km/h (1 Bft) W-SW 257 ° 1 min 0,000 mm 5,6 UV-I 448 W/m² 20,4 °C 24,7 °C 6,4 km/h (2 Bft)
04.08.2017 12:53 24,7 °C 24,7 °C 77 % 1011,4 hPa 0,0 mm 4,1 km/h (1 Bft) W 263 ° 1 min 0,000 mm 4,8 UV-I 499 W/m² 20,4 °C 24,7 °C 6,4 km/h (2 Bft)
04.08.2017 12:54 24,7 °C 24,7 °C 75 % 1011,4 hPa 0,0 mm 5,4 km/h (1 Bft) W-SW 241 ° 1 min 0,000 mm 5,5 UV-I 499 W/m² 20,0 °C 24,7 °C 9,7 km/h (2 Bft)
04.08.2017 12:55 24,7 °C 24,7 °C 77 % 1011,4 hPa 0,0 mm 3,4 km/h (1 Bft) W 268 ° 1 min 0,000 mm 7,8 UV-I 969 W/m² 20,4 °C 24,7 °C 8,0 km/h (2 Bft)
04.08.2017 12:56 24,7 °C 24,7 °C 76 % 1011,4 hPa 0,0 mm 1,3 km/h (1 Bft) W 267 ° 1 min 0,000 mm 7,8 UV-I 1004 W/m² 20,2 °C 24,7 °C 4,8 km/h (1 Bft)
04.08.2017 12:57 24,8 °C 24,8 °C 77 % 1011,4 hPa 0,0 mm 6,5 km/h (2 Bft) W 264 ° 1 min 0,000 mm 7,8 UV-I 976 W/m² 20,5 °C 24,8 °C 11,3 km/h (2 Bft)
04.08.2017 12:58 24,8 °C 24,9 °C 75 % 1011,4 hPa 0,0 mm 9,2 km/h (2 Bft) W-SW 255 ° 1 min 0,000 mm 6,1 UV-I 561 W/m² 20,1 °C 24,8 °C 12,9 km/h (3 Bft)
04.08.2017 12:59 24,8 °C 24,8 °C 74 % 1011,4 hPa 0,0 mm 5,2 km/h (1 Bft) SW 218 ° 1 min 0,000 mm 6,9 UV-I 561 W/m² 19,8 °C 24,8 °C 8,0 km/h (2 Bft)
04.08.2017 13:00 24,8 °C 24,8 °C 74 % 1011,4 hPa 0,0 mm 5,6 km/h (1 Bft) W 281 ° 1 min 0,000 mm 7,8 UV-I 933 W/m² 19,8 °C 24,8 °C 9,7 km/h (2 Bft)
04.08.2017 13:01 24,9 °C 24,9 °C 75 % 1011,4 hPa 0,0 mm 4,4 km/h (1 Bft) NW 313 ° 1 min 0,254 mm 7,8 UV-I 926 W/m² 20,2 °C 24,9 °C 6,4 km/h (2 Bft)
04.08.2017 13:02 25,1 °C 25,1 °C 76 % 1011,4 hPa 0,0 mm 3,2 km/h (1 Bft) W 266 ° 1 min 0,000 mm 7,8 UV-I 932 W/m² 20,6 °C 25,1 °C 6,4 km/h (2 Bft)
04.08.2017 13:03 25,2 °C 25,2 °C 75 % 1011,3 hPa 0,0 mm 4,4 km/h (1 Bft) W-NW 286 ° 1 min 0,000 mm 7,9 UV-I 951 W/m² 20,4 °C 25,2 °C 6,4 km/h (2 Bft)
04.08.2017 13:04 25,3 °C 25,3 °C 74 % 1011,3 hPa 0,0 mm 5,8 km/h (2 Bft) W-NW 298 ° 1 min 0,000 mm 8,0 UV-I 981 W/m² 20,3 °C 25,3 °C 9,7 km/h (2 Bft)
04.08.2017 13:05 25,4 °C 25,4 °C 73 % 1011,3 hPa 0,0 mm 7,1 km/h (2 Bft) W 273 ° 1 min 0,000 mm 7,9 UV-I 970 W/m² 20,2 °C 25,4 °C 11,3 km/h (2 Bft)
04.08.2017 13:06 25,4 °C 25,4 °C 72 % 1011,3 hPa 0,0 mm 3,3 km/h (1 Bft) NW 315 ° 1 min 0,000 mm 7,6 UV-I 962 W/m² 20,0 °C 25,4 °C 4,8 km/h (1 Bft)
04.08.2017 13:07 25,5 °C 25,5 °C 73 % 1011,3 hPa 0,0 mm 3,0 km/h (1 Bft) N-NW 334 ° 1 min 0,000 mm 7,6 UV-I 962 W/m² 20,3 °C 25,5 °C 6,4 km/h (2 Bft)
04.08.2017 13:08 25,6 °C 25,6 °C 74 % 1011,3 hPa 0,0 mm 7,0 km/h (2 Bft) N 355 ° 1 min 0,000 mm 4,3 UV-I 962 W/m² 20,6 °C 25,6 °C 9,7 km/h (2 Bft)
04.08.2017 13:09 25,6 °C 25,7 °C 72 % 1011,3 hPa 0,0 mm 7,5 km/h (2 Bft) NW 312 ° 1 min 0,000 mm 4,2 UV-I 962 W/m² 20,2 °C 25,6 °C 12,9 km/h (3 Bft)
04.08.2017 13:10 25,5 °C 25,6 °C 72 % 1011,3 hPa 0,0 mm 6,0 km/h (2 Bft) NW 321 ° 1 min 0,000 mm 4,2 UV-I 427 W/m² 20,1 °C 25,5 °C 12,9 km/h (3 Bft)
04.08.2017 13:11 25,4 °C 25,5 °C 74 % 1011,3 hPa 0,0 mm 7,6 km/h (2 Bft) N-NW 348 ° 1 min 0,000 mm 5,1 UV-I 526 W/m² 20,4 °C 25,4 °C 12,9 km/h (3 Bft)
04.08.2017 13:12 25,3 °C 25,4 °C 72 % 1011,3 hPa 0,0 mm 5,4 km/h (1 Bft) W 259 ° 1 min 0,000 mm 5,1 UV-I 454 W/m² 19,9 °C 25,3 °C 12,9 km/h (3 Bft)
04.08.2017 13:13 25,2 °C 25,3 °C 74 % 1011,3 hPa 0,0 mm 9,0 km/h (2 Bft) W-SW 256 ° 1 min 0,000 mm 4,4 UV-I 443 W/m² 20,2 °C 25,2 °C 14,5 km/h (3 Bft)
04.08.2017 13:14 25,1 °C 25,2 °C 72 % 1011,3 hPa 0,0 mm 3,8 km/h (1 Bft) W-SW 255 ° 1 min 0,000 mm 4,2 UV-I 432 W/m² 19,7 °C 25,1 °C 6,4 km/h (2 Bft)
04.08.2017 13:15 24,9 °C 25,1 °C 73 % 1011,2 hPa 0,0 mm 1,6 km/h (1 Bft) W-SW 255 ° 1 min 0,000 mm 4,0 UV-I 415 W/m² 19,7 °C 24,9 °C 4,8 km/h (1 Bft)
04.08.2017 13:16 24,8 °C 24,9 °C 71 % 1011,2 hPa 0,0 mm 3,7 km/h (1 Bft) W-SW 240 ° 1 min 0,000 mm 3,8 UV-I 376 W/m² 19,2 °C 24,8 °C 6,4 km/h (2 Bft)
04.08.2017 13:17 24,8 °C 24,8 °C 76 % 1011,2 hPa 0,0 mm 0,7 km/h (0 Bft) W-SW 240 ° 1 min 0,000 mm 3,7 UV-I 385 W/m² 20,3 °C 24,8 °C 3,2 km/h (1 Bft)
04.08.2017 13:18 24,8 °C 24,8 °C 74 % 1011,2 hPa 0,0 mm 1,6 km/h (1 Bft) W-NW 294 ° 1 min 0,000 mm 3,9 UV-I 425 W/m² 19,8 °C 24,8 °C 4,8 km/h (1 Bft)
04.08.2017 13:19 24,8 °C 24,8 °C 74 % 1011,2 hPa 0,0 mm 8,2 km/h (2 Bft) NW 306 ° 1 min 0,000 mm 3,0 UV-I 425 W/m² 19,8 °C 24,8 °C 14,5 km/h (3 Bft)
04.08.2017 13:20 24,7 °C 24,8 °C 71 % 1011,2 hPa 0,0 mm 3,2 km/h (1 Bft) NW 306 ° 0 min 0,000 mm 2,6 UV-I 267 W/m² 19,1 °C 24,7 °C 6,4 km/h (2 Bft)
04.08.2017 13:21 24,6 °C 24,7 °C 72 % 1011,2 hPa 0,0 mm 3,3 km/h (1 Bft) W-NW 289 ° 0 min 0,000 mm 2,4 UV-I 243 W/m² 19,2 °C 24,6 °C 4,8 km/h (1 Bft)
04.08.2017 13:22 24,6 °C 24,6 °C 73 % 1011,3 hPa 0,0 mm 5,4 km/h (1 Bft) W 280 ° 0 min 0,000 mm 2,1 UV-I 202 W/m² 19,4 °C 24,6 °C 11,3 km/h (2 Bft)
04.08.2017 13:23 24,5 °C 24,6 °C 73 % 1011,2 hPa 0,0 mm 10,7 km/h (2 Bft) W 271 ° 0 min 0,000 mm 1,8 UV-I 188 W/m² 19,3 °C 24,5 °C 12,9 km/h (3 Bft)
04.08.2017 13:24 24,4 °C 24,5 °C 74 % 1011,3 hPa 0,0 mm 7,4 km/h (2 Bft) W-SW 256 ° 0 min 0,000 mm 1,7 UV-I 179 W/m² 19,5 °C 24,4 °C 12,9 km/h (3 Bft)
04.08.2017 13:25 24,4 °C 24,4 °C 74 % 1011,2 hPa 0,0 mm 5,3 km/h (1 Bft) NW 309 ° 0 min 0,000 mm 1,6 UV-I 172 W/m² 19,5 °C 24,4 °C 8,0 km/h (2 Bft)
04.08.2017 13:26 24,3 °C 24,4 °C 74 % 1011,2 hPa 0,0 mm 6,2 km/h (2 Bft) NW 315 ° 0 min 0,000 mm 1,7 UV-I 172 W/m² 19,4 °C 24,3 °C 8,0 km/h (2 Bft)
04.08.2017 13:27 24,2 °C 24,3 °C 76 % 1011,2 hPa 0,0 mm 3,6 km/h (1 Bft) W-NW 303 ° 0 min 0,000 mm 1,7 UV-I 172 W/m² 19,7 °C 24,2 °C 4,8 km/h (1 Bft)
04.08.2017 13:28 24,2 °C 24,2 °C 77 % 1011,3 hPa 0,0 mm 4,0 km/h (1 Bft) NW 318 ° 0 min 0,000 mm 1,7 UV-I 174 W/m² 19,9 °C 24,2 °C 6,4 km/h (2 Bft)
04.08.2017 13:29 24,2 °C 24,2 °C 77 % 1011,3 hPa 0,0 mm 3,3 km/h (1 Bft) W-NW 294 ° 0 min 0,000 mm 1,7 UV-I 176 W/m² 19,9 °C 24,2 °C 6,4 km/h (2 Bft)
04.08.2017 13:30 24,1 °C 24,2 °C 77 % 1011,3 hPa 0,0 mm 3,7 km/h (1 Bft) W-NW 284 ° 0 min 0,000 mm 1,8 UV-I 181 W/m² 19,8 °C 24,1 °C 4,8 km/h (1 Bft)
04.08.2017 13:31 24,1 °C 24,2 °C 76 % 1011,2 hPa 0,0 mm 3,3 km/h (1 Bft) NW 320 ° 0 min 0,000 mm 1,9 UV-I 195 W/m² 19,6 °C 24,1 °C 4,8 km/h (1 Bft)
04.08.2017 13:32 24,1 °C 24,1 °C 78 % 1011,2 hPa 0,0 mm 3,8 km/h (1 Bft) W-NW 302 ° 0 min 0,000 mm 2,0 UV-I 207 W/m² 20,0 °C 24,1 °C 6,4 km/h (2 Bft)
04.08.2017 13:33 24,1 °C 24,1 °C 76 % 1011,3 hPa 0,0 mm 3,4 km/h (1 Bft) W-NW 302 ° 0 min 0,000 mm 2,1 UV-I 213 W/m² 19,6 °C 24,1 °C 4,8 km/h (1 Bft)
04.08.2017 13:34 24,1 °C 24,1 °C 76 % 1011,2 hPa 0,0 mm 5,6 km/h (1 Bft) W-NW 284 ° 0 min 0,000 mm 2,1 UV-I 207 W/m² 19,6 °C 24,1 °C 8,0 km/h (2 Bft)
04.08.2017 13:35 24,1 °C 24,1 °C 76 % 1011,2 hPa 0,0 mm 4,6 km/h (1 Bft) NW 309 ° 0 min 0,000 mm 2,1 UV-I 207 W/m² 19,6 °C 24,1 °C 6,4 km/h (2 Bft)
04.08.2017 13:36 24,1 °C 24,1 °C 76 % 1011,3 hPa 0,0 mm 4,1 km/h (1 Bft) NW 310 ° 0 min 0,000 mm 2,0 UV-I 204 W/m² 19,6 °C 24,1 °C 6,4 km/h (2 Bft)
04.08.2017 13:37 24,1 °C 24,1 °C 77 % 1011,3 hPa 0,0 mm 4,7 km/h (1 Bft) NW 313 ° 0 min 0,000 mm 2,0 UV-I 195 W/m² 19,8 °C 24,1 °C 6,4 km/h (2 Bft)
04.08.2017 13:38 24,1 °C 24,1 °C 76 % 1011,3 hPa 0,0 mm 3,4 km/h (1 Bft) NW 304 ° 0 min 0,000 mm 1,9 UV-I 188 W/m² 19,6 °C 24,1 °C 4,8 km/h (1 Bft)
04.08.2017 13:39 24,0 °C 24,1 °C 75 % 1011,3 hPa 0,0 mm 5,0 km/h (1 Bft) W-NW 284 ° 0 min 0,000 mm 2,0 UV-I 190 W/m² 19,3 °C 24,0 °C 8,0 km/h (2 Bft)
04.08.2017 13:40 24,1 °C 24,1 °C 76 % 1011,3 hPa 0,0 mm 6,9 km/h (2 Bft) W-NW 300 ° 0 min 0,000 mm 2,0 UV-I 200 W/m² 19,6 °C 24,1 °C 11,3 km/h (2 Bft)
04.08.2017 13:41 24,1 °C 24,1 °C 77 % 1011,3 hPa 0,0 mm 5,5 km/h (1 Bft) W-NW 294 ° 0 min 0,000 mm 2,1 UV-I 207 W/m² 19,8 °C 24,1 °C 9,7 km/h (2 Bft)
04.08.2017 13:42 24,1 °C 24,1 °C 76 % 1011,3 hPa 0,0 mm 3,0 km/h (1 Bft) W-NW 292 ° 0 min 0,000 mm 2,1 UV-I 206 W/m² 19,6 °C 24,1 °C 4,8 km/h (1 Bft)
04.08.2017 13:43 24,1 °C 24,1 °C 75 % 1011,3 hPa 0,0 mm 3,9 km/h (1 Bft) W-NW 292 ° 0 min 0,000 mm 2,1 UV-I 202 W/m² 19,4 °C 24,1 °C 4,8 km/h (1 Bft)
04.08.2017 13:44 24,1 °C 24,1 °C 76 % 1011,3 hPa 0,0 mm 4,7 km/h (1 Bft) W-NW 290 ° 0 min 0,000 mm 2,1 UV-I 204 W/m² 19,6 °C 24,1 °C 6,4 km/h (2 Bft)
04.08.2017 13:45 24,1 °C 24,1 °C 77 % 1011,3 hPa 0,0 mm 4,9 km/h (1 Bft) W-NW 290 ° 0 min 0,000 mm 2,1 UV-I 206 W/m² 19,8 °C 24,1 °C 6,4 km/h (2 Bft)
04.08.2017 13:46 24,1 °C 24,1 °C 76 % 1011,3 hPa 0,0 mm 2,7 km/h (1 Bft) W-NW 290 ° 0 min 0,000 mm 2,1 UV-I 207 W/m² 19,6 °C 24,1 °C 4,8 km/h (1 Bft)
04.08.2017 13:47 24,1 °C 24,1 °C 75 % 1011,3 hPa 0,0 mm 3,1 km/h (1 Bft) W 281 ° 0 min 0,000 mm 2,0 UV-I 204 W/m² 19,4 °C 24,1 °C 6,4 km/h (2 Bft)
04.08.2017 13:48 24,1 °C 24,1 °C 76 % 1011,3 hPa 0,0 mm 1,5 km/h (1 Bft) W 281 ° 0 min 0,000 mm 2,0 UV-I 200 W/m² 19,6 °C 24,1 °C 4,8 km/h (1 Bft)
04.08.2017 13:49 24,2 °C 24,2 °C 78 % 1011,3 hPa 0,0 mm 0,6 km/h (0 Bft) W 278 ° 0 min 0,000 mm 2,0 UV-I 200 W/m² 20,1 °C 24,2 °C 4,8 km/h (1 Bft)
04.08.2017 13:50 24,2 °C 24,2 °C 77 % 1011,2 hPa 0,0 mm 6,0 km/h (2 Bft) N-NW 327 ° 0 min 0,000 mm 1,9 UV-I 192 W/m² 19,9 °C 24,2 °C 8,0 km/h (2 Bft)
04.08.2017 13:51 24,2 °C 24,2 °C 77 % 1011,3 hPa 0,0 mm 5,3 km/h (1 Bft) N-NW 342 ° 0 min 0,000 mm 1,8 UV-I 176 W/m² 19,9 °C 24,2 °C 8,0 km/h (2 Bft)
04.08.2017 13:52 24,2 °C 24,2 °C 76 % 1011,3 hPa 0,0 mm 4,0 km/h (1 Bft) N-NW 342 ° 0 min 0,000 mm 1,8 UV-I 167 W/m² 19,7 °C 24,2 °C 4,8 km/h (1 Bft)
04.08.2017 13:53 24,2 °C 24,2 °C 79 % 1011,3 hPa 0,0 mm 1,5 km/h (1 Bft) N-NW 342 ° 0 min 0,000 mm 1,6 UV-I 162 W/m² 20,3 °C 24,2 °C 3,2 km/h (1 Bft)
04.08.2017 13:54 24,2 °C 24,2 °C 77 % 1011,3 hPa 0,0 mm 2,4 km/h (1 Bft) W-NW 295 ° 0 min 0,000 mm 1,5 UV-I 156 W/m² 19,9 °C 24,2 °C 4,8 km/h (1 Bft)
04.08.2017 13:55 24,2 °C 24,2 °C 75 % 1011,3 hPa 0,0 mm 6,5 km/h (2 Bft) W 278 ° 0 min 0,000 mm 1,5 UV-I 151 W/m² 19,5 °C 24,2 °C 8,0 km/h (2 Bft)
04.08.2017 13:56 24,2 °C 24,2 °C 77 % 1011,3 hPa 0,0 mm 4,7 km/h (1 Bft) W 270 ° 0 min 0,000 mm 1,4 UV-I 144 W/m² 19,9 °C 24,2 °C 6,4 km/h (2 Bft)
04.08.2017 13:57 24,1 °C 24,2 °C 78 % 1011,3 hPa 0,0 mm 8,1 km/h (2 Bft) W-NW 291 ° 0 min 0,000 mm 1,3 UV-I 135 W/m² 20,0 °C 24,1 °C 12,9 km/h (3 Bft)
04.08.2017 13:58 24,1 °C 24,1 °C 76 % 1011,3 hPa 0,0 mm 3,3 km/h (1 Bft) W-NW 291 ° 0 min 0,000 mm 1,3 UV-I 134 W/m² 19,6 °C 24,1 °C 4,8 km/h (1 Bft)
04.08.2017 13:59 24,0 °C 24,1 °C 76 % 1011,4 hPa 0,0 mm 2,7 km/h (1 Bft) W-NW 291 ° 0 min 0,000 mm 1,3 UV-I 128 W/m² 19,5 °C 24,0 °C 4,8 km/h (1 Bft)
04.08.2017 14:00 23,9 °C 24,0 °C 76 % 1011,4 hPa 0,0 mm 2,9 km/h (1 Bft) W-NW 291 ° 0 min 0,000 mm 1,3 UV-I 130 W/m² 19,4 °C 23,9 °C 4,8 km/h (1 Bft)
04.08.2017 14:01 23,9 °C 23,9 °C 78 % 1011,3 hPa 0,0 mm 5,8 km/h (2 Bft) NW 318 ° 0 min 0,203 mm 1,3 UV-I 127 W/m² 19,8 °C 23,9 °C 12,9 km/h (3 Bft)
04.08.2017 14:02 23,9 °C 23,9 °C 77 % 1011,3 hPa 0,0 mm 3,3 km/h (1 Bft) NW 318 ° 0 min 0,000 mm 1,3 UV-I 121 W/m² 19,6 °C 23,9 °C 6,4 km/h (2 Bft)
04.08.2017 14:03 23,8 °C 23,9 °C 77 % 1011,4 hPa 0,0 mm 3,6 km/h (1 Bft) NW 314 ° 0 min 0,000 mm 1,3 UV-I 120 W/m² 19,5 °C 23,8 °C 6,4 km/h (2 Bft)
04.08.2017 14:04 23,9 °C 23,9 °C 77 % 1011,3 hPa 0,0 mm 4,3 km/h (1 Bft) NW 309 ° 0 min 0,000 mm 1,3 UV-I 121 W/m² 19,6 °C 23,9 °C 6,4 km/h (2 Bft)
04.08.2017 14:05 23,8 °C 23,9 °C 77 % 1011,4 hPa 0,0 mm 3,9 km/h (1 Bft) W-NW 292 ° 0 min 0,000 mm 1,5 UV-I 139 W/m² 19,5 °C 23,8 °C 6,4 km/h (2 Bft)
04.08.2017 14:06 23,9 °C 23,9 °C 77 % 1011,3 hPa 0,0 mm 1,4 km/h (1 Bft) W-NW 290 ° 0 min 0,000 mm 1,5 UV-I 162 W/m² 19,6 °C 23,9 °C 4,8 km/h (1 Bft)
04.08.2017 14:07 23,9 °C 23,9 °C 77 % 1011,4 hPa 0,0 mm 4,4 km/h (1 Bft) NW 314 ° 0 min 0,000 mm 1,8 UV-I 179 W/m² 19,6 °C 23,9 °C 6,4 km/h (2 Bft)
04.08.2017 14:08 23,9 °C 23,9 °C 76 % 1011,3 hPa 0,0 mm 4,2 km/h (1 Bft) W-NW 293 ° 0 min 0,000 mm 1,8 UV-I 181 W/m² 19,4 °C 23,9 °C 6,4 km/h (2 Bft)
04.08.2017 14:09 23,8 °C 23,9 °C 75 % 1011,3 hPa 0,0 mm 2,1 km/h (1 Bft) W-NW 292 ° 0 min 0,000 mm 1,9 UV-I 204 W/m² 19,1 °C 23,8 °C 4,8 km/h (1 Bft)
04.08.2017 14:10 23,9 °C 23,9 °C 78 % 1011,2 hPa 0,0 mm 1,7 km/h (1 Bft) W-NW 292 ° 0 min 0,000 mm 2,2 UV-I 218 W/m² 19,8 °C 23,9 °C 4,8 km/h (1 Bft)
04.08.2017 14:11 23,9 °C 23,9 °C 77 % 1011,3 hPa 0,0 mm 4,6 km/h (1 Bft) W-NW 288 ° 0 min 0,000 mm 2,3 UV-I 230 W/m² 19,6 °C 23,9 °C 6,4 km/h (2 Bft)
04.08.2017 14:12 23,9 °C 23,9 °C 77 % 1011,3 hPa 0,0 mm 5,8 km/h (2 Bft) W 281 ° 0 min 0,000 mm 2,5 UV-I 251 W/m² 19,6 °C 23,9 °C 9,7 km/h (2 Bft)
04.08.2017 14:13 23,9 °C 23,9 °C 77 % 1011,3 hPa 0,0 mm 4,3 km/h (1 Bft) W 265 ° 0 min 0,000 mm 2,6 UV-I 262 W/m² 19,6 °C 23,9 °C 6,4 km/h (2 Bft)
04.08.2017 14:14 23,9 °C 23,9 °C 75 % 1011,3 hPa 0,0 mm 4,8 km/h (1 Bft) W 281 ° 0 min 0,000 mm 2,5 UV-I 260 W/m² 19,2 °C 23,9 °C 6,4 km/h (2 Bft)
04.08.2017 14:15 23,9 °C 24,0 °C 76 % 1011,2 hPa 0,0 mm 4,4 km/h (1 Bft) NW 306 ° 0 min 0,000 mm 2,5 UV-I 244 W/m² 19,4 °C 23,9 °C 6,4 km/h (2 Bft)
04.08.2017 14:16 24,1 °C 24,1 °C 76 % 1011,3 hPa 0,0 mm 7,2 km/h (2 Bft) NW 311 ° 0 min 0,000 mm 2,3 UV-I 237 W/m² 19,6 °C 24,1 °C 12,9 km/h (3 Bft)
04.08.2017 14:17 24,1 °C 24,1 °C 77 % 1011,3 hPa 0,0 mm 3,8 km/h (1 Bft) W-NW 295 ° 0 min 0,000 mm 2,2 UV-I 230 W/m² 19,8 °C 24,1 °C 4,8 km/h (1 Bft)
04.08.2017 14:18 24,1 °C 24,1 °C 76 % 1011,3 hPa 0,0 mm 4,3 km/h (1 Bft) W 275 ° 0 min 0,000 mm 2,2 UV-I 221 W/m² 19,6 °C 24,1 °C 6,4 km/h (2 Bft)
04.08.2017 14:19 24,1 °C 24,1 °C 76 % 1011,3 hPa 0,0 mm 2,0 km/h (1 Bft) W 274 ° 0 min 0,000 mm 2,1 UV-I 214 W/m² 19,6 °C 24,1 °C 3,2 km/h (1 Bft)
04.08.2017 14:20 24,1 °C 24,1 °C 75 % 1011,3 hPa 0,0 mm 3,2 km/h (1 Bft) W 264 ° 0 min 0,000 mm 2,1 UV-I 213 W/m² 19,4 °C 24,1 °C 6,4 km/h (2 Bft)
04.08.2017 14:21 24,0 °C 24,1 °C 75 % 1011,3 hPa 0,0 mm 4,9 km/h (1 Bft) NW 307 ° 0 min 0,000 mm 2,1 UV-I 220 W/m² 19,3 °C 24,0 °C 6,4 km/h (2 Bft)
04.08.2017 14:22 24,1 °C 24,1 °C 75 % 1011,3 hPa 0,0 mm 4,0 km/h (1 Bft) W-NW 294 ° 0 min 0,000 mm 2,2 UV-I 227 W/m² 19,4 °C 24,1 °C 4,8 km/h (1 Bft)
04.08.2017 14:23 24,0 °C 24,1 °C 75 % 1011,3 hPa 0,0 mm 4,6 km/h (1 Bft) W-NW 288 ° 0 min 0,000 mm 2,2 UV-I 232 W/m² 19,3 °C 24,0 °C 8,0 km/h (2 Bft)
04.08.2017 14:24 24,0 °C 24,0 °C 77 % 1011,3 hPa 0,0 mm 2,1 km/h (1 Bft) W-NW 288 ° 0 min 0,000 mm 2,2 UV-I 229 W/m² 19,7 °C 24,0 °C 3,2 km/h (1 Bft)
04.08.2017 14:25 24,0 °C 24,0 °C 76 % 1011,3 hPa 0,0 mm 3,8 km/h (1 Bft) W 278 ° 0 min 0,000 mm 2,1 UV-I 216 W/m² 19,5 °C 24,0 °C 6,4 km/h (2 Bft)
04.08.2017 14:26 23,9 °C 24,0 °C 75 % 1011,3 hPa 0,0 mm 6,0 km/h (2 Bft) W-SW 245 ° 0 min 0,000 mm 2,0 UV-I 197 W/m² 19,2 °C 23,9 °C 9,7 km/h (2 Bft)
04.08.2017 14:27 23,9 °C 24,0 °C 74 % 1011,4 hPa 0,0 mm 6,5 km/h (2 Bft) W-NW 284 ° 0 min 0,000 mm 1,9 UV-I 188 W/m² 19,0 °C 23,9 °C 12,9 km/h (3 Bft)
04.08.2017 14:28 23,9 °C 23,9 °C 75 % 1011,4 hPa 0,0 mm 5,3 km/h (1 Bft) W-NW 293 ° 0 min 0,000 mm 1,7 UV-I 179 W/m² 19,2 °C 23,9 °C 9,7 km/h (2 Bft)
04.08.2017 14:29 23,9 °C 23,9 °C 75 % 1011,3 hPa 0,0 mm 3,5 km/h (1 Bft) W-NW 300 ° 0 min 0,000 mm 1,7 UV-I 174 W/m² 19,2 °C 23,9 °C 4,8 km/h (1 Bft)
04.08.2017 14:30 23,9 °C 23,9 °C 74 % 1011,3 hPa 0,0 mm 5,3 km/h (1 Bft) W 278 ° 0 min 0,000 mm 1,7 UV-I 171 W/m² 19,0 °C 23,9 °C 6,4 km/h (2 Bft)
04.08.2017 14:31 23,9 °C 23,9 °C 76 % 1011,3 hPa 0,0 mm 5,4 km/h (1 Bft) W-SW 246 ° 0 min 0,000 mm 1,7 UV-I 171 W/m² 19,4 °C 23,9 °C 11,3 km/h (2 Bft)
04.08.2017 14:32 23,9 °C 23,9 °C 75 % 1011,4 hPa 0,0 mm 4,7 km/h (1 Bft) NW 319 ° 0 min 0,000 mm 1,7 UV-I 174 W/m² 19,2 °C 23,9 °C 6,4 km/h (2 Bft)
04.08.2017 14:33 23,9 °C 23,9 °C 75 % 1011,4 hPa 0,0 mm 7,5 km/h (2 Bft) W-NW 295 ° 0 min 0,000 mm 1,7 UV-I 179 W/m² 19,2 °C 23,9 °C 11,3 km/h (2 Bft)
04.08.2017 14:34 23,9 °C 23,9 °C 76 % 1011,4 hPa 0,0 mm 7,3 km/h (2 Bft) NW 310 ° 0 min 0,000 mm 1,8 UV-I 186 W/m² 19,4 °C 23,9 °C 11,3 km/h (2 Bft)
04.08.2017 14:35 23,9 °C 23,9 °C 77 % 1011,4 hPa 0,0 mm 3,8 km/h (1 Bft) W-NW 296 ° 0 min 0,000 mm 1,9 UV-I 195 W/m² 19,6 °C 23,9 °C 6,4 km/h (2 Bft)
04.08.2017 14:36 23,9 °C 23,9 °C 74 % 1011,4 hPa 0,0 mm 2,9 km/h (1 Bft) NW 319 ° 0 min 0,000 mm 2,0 UV-I 206 W/m² 19,0 °C 23,9 °C 6,4 km/h (2 Bft)
04.08.2017 14:37 23,9 °C 23,9 °C 74 % 1011,3 hPa 0,0 mm 3,7 km/h (1 Bft) N-NW 336 ° 0 min 0,000 mm 2,1 UV-I 213 W/m² 19,0 °C 23,9 °C 6,4 km/h (2 Bft)
04.08.2017 14:38 23,9 °C 23,9 °C 76 % 1011,3 hPa 0,0 mm 4,9 km/h (1 Bft) N-NW 328 ° 0 min 0,000 mm 2,1 UV-I 218 W/m² 19,4 °C 23,9 °C 8,0 km/h (2 Bft)
04.08.2017 14:39 23,9 °C 23,9 °C 77 % 1011,3 hPa 0,0 mm 3,3 km/h (1 Bft) W-NW 290 ° 0 min 0,000 mm 2,1 UV-I 214 W/m² 19,6 °C 23,9 °C 4,8 km/h (1 Bft)
04.08.2017 14:40 23,9 °C 23,9 °C 73 % 1011,3 hPa 0,0 mm 2,1 km/h (1 Bft) NW 304 ° 0 min 0,000 mm 2,0 UV-I 207 W/m² 18,8 °C 23,9 °C 3,2 km/h (1 Bft)
04.08.2017 14:41 23,9 °C 23,9 °C 75 % 1011,4 hPa 0,0 mm 3,6 km/h (1 Bft) W 277 ° 0 min 0,000 mm 1,9 UV-I 200 W/m² 19,2 °C 23,9 °C 6,4 km/h (2 Bft)
04.08.2017 14:42 23,9 °C 23,9 °C 74 % 1011,4 hPa 0,0 mm 1,7 km/h (1 Bft) W 277 ° 0 min 0,000 mm 1,9 UV-I 193 W/m² 19,0 °C 23,9 °C 3,2 km/h (1 Bft)
04.08.2017 14:43 23,9 °C 23,9 °C 74 % 1011,3 hPa 0,0 mm 1,4 km/h (1 Bft) W 278 ° 0 min 0,000 mm 1,8 UV-I 188 W/m² 19,0 °C 23,9 °C 3,2 km/h (1 Bft)
04.08.2017 14:44 23,9 °C 23,9 °C 75 % 1011,4 hPa 0,0 mm 2,1 km/h (1 Bft) W 279 ° 0 min 0,000 mm 1,8 UV-I 185 W/m² 19,2 °C 23,9 °C 4,8 km/h (1 Bft)
04.08.2017 14:45 23,9 °C 23,9 °C 76 % 1011,3 hPa 0,0 mm 1,2 km/h (1 Bft) W 281 ° 0 min 0,000 mm 1,8 UV-I 185 W/m² 19,4 °C 23,9 °C 3,2 km/h (1 Bft)
04.08.2017 14:46 23,9 °C 24,0 °C 75 % 1011,3 hPa 0,0 mm 1,8 km/h (1 Bft) NW 322 ° 0 min 0,000 mm 1,8 UV-I 183 W/m² 19,2 °C 23,9 °C 4,8 km/h (1 Bft)
04.08.2017 14:47 23,9 °C 24,0 °C 76 % 1011,4 hPa 0,0 mm 5,8 km/h (2 Bft) NW 323 ° 0 min 0,000 mm 1,8 UV-I 181 W/m² 19,4 °C 23,9 °C 8,0 km/h (2 Bft)
04.08.2017 14:48 24,0 °C 24,0 °C 74 % 1011,3 hPa 0,0 mm 5,5 km/h (1 Bft) W 275 ° 0 min 0,000 mm 1,8 UV-I 181 W/m² 19,1 °C 24,0 °C 8,0 km/h (2 Bft)
04.08.2017 14:49 24,0 °C 24,0 °C 75 % 1011,3 hPa 0,0 mm 2,1 km/h (1 Bft) W 279 ° 0 min 0,000 mm 1,7 UV-I 179 W/m² 19,3 °C 24,0 °C 3,2 km/h (1 Bft)
04.08.2017 14:50 24,0 °C 24,0 °C 75 % 1011,3 hPa 0,0 mm 2,6 km/h (1 Bft) W 279 ° 0 min 0,000 mm 1,7 UV-I 171 W/m² 19,3 °C 24,0 °C 4,8 km/h (1 Bft)
04.08.2017 14:51 24,0 °C 24,0 °C 75 % 1011,4 hPa 0,0 mm 3,8 km/h (1 Bft) W-NW 292 ° 0 min 0,000 mm 1,6 UV-I 165 W/m² 19,3 °C 24,0 °C 4,8 km/h (1 Bft)
04.08.2017 14:52 23,9 °C 24,0 °C 75 % 1011,4 hPa 0,0 mm 2,1 km/h (1 Bft) W-NW 292 ° 0 min 0,000 mm 1,5 UV-I 160 W/m² 19,2 °C 23,9 °C 4,8 km/h (1 Bft)
04.08.2017 14:53 23,9 °C 23,9 °C 75 % 1011,4 hPa 0,0 mm 2,9 km/h (1 Bft) W-NW 296 ° 0 min 0,000 mm 1,5 UV-I 156 W/m² 19,2 °C 23,9 °C 4,8 km/h (1 Bft)
04.08.2017 14:54 23,9 °C 24,0 °C 76 % 1011,4 hPa 0,0 mm 3,8 km/h (1 Bft) W-NW 296 ° 0 min 0,000 mm 1,5 UV-I 156 W/m² 19,4 °C 23,9 °C 6,4 km/h (2 Bft)
04.08.2017 14:55 23,9 °C 23,9 °C 76 % 1011,4 hPa 0,0 mm 5,7 km/h (1 Bft) W-NW 288 ° 0 min 0,000 mm 1,5 UV-I 158 W/m² 19,4 °C 23,9 °C 8,0 km/h (2 Bft)
04.08.2017 14:56 23,9 °C 23,9 °C 75 % 1011,4 hPa 0,0 mm 4,8 km/h (1 Bft) W-NW 292 ° 0 min 0,000 mm 1,5 UV-I 158 W/m² 19,2 °C 23,9 °C 8,0 km/h (2 Bft)
04.08.2017 14:57 23,9 °C 23,9 °C 76 % 1011,4 hPa 0,0 mm 4,4 km/h (1 Bft) NW 305 ° 0 min 0,000 mm 1,5 UV-I 156 W/m² 19,4 °C 23,9 °C 6,4 km/h (2 Bft)
04.08.2017 14:58 23,9 °C 23,9 °C 77 % 1011,4 hPa 0,0 mm 3,4 km/h (1 Bft) NW 308 ° 0 min 0,000 mm 1,5 UV-I 156 W/m² 19,6 °C 23,9 °C 4,8 km/h (1 Bft)
04.08.2017 14:59 23,9 °C 23,9 °C 75 % 1011,4 hPa 0,0 mm 2,5 km/h (1 Bft) W-NW 301 ° 0 min 0,000 mm 1,5 UV-I 156 W/m² 19,2 °C 23,9 °C 4,8 km/h (1 Bft)
04.08.2017 15:00 23,9 °C 23,9 °C 76 % 1011,4 hPa 0,0 mm 2,3 km/h (1 Bft) W-NW 301 ° 0 min 0,000 mm 1,6 UV-I 162 W/m² 19,4 °C 23,9 °C 3,2 km/h (1 Bft)
04.08.2017 15:01 23,9 °C 23,9 °C 77 % 1011,4 hPa 0,0 mm 2,3 km/h (1 Bft) W-NW 301 ° 0 min 0,127 mm 1,6 UV-I 167 W/m² 19,6 °C 23,9 °C 3,2 km/h (1 Bft)
04.08.2017 15:02 23,9 °C 23,9 °C 78 % 1011,4 hPa 0,0 mm 1,9 km/h (1 Bft) W-NW 301 ° 0 min 0,000 mm 1,6 UV-I 171 W/m² 19,8 °C 23,9 °C 3,2 km/h (1 Bft)
04.08.2017 15:03 23,9 °C 23,9 °C 77 % 1011,4 hPa 0,0 mm 1,3 km/h (1 Bft) W-NW 300 ° 0 min 0,000 mm 1,6 UV-I 171 W/m² 19,6 °C 23,9 °C 4,8 km/h (1 Bft)
04.08.2017 15:04 23,9 °C 24,0 °C 78 % 1011,4 hPa 0,0 mm 0,0 km/h (0 Bft) W-NW 300 ° 0 min 0,000 mm 1,6 UV-I 171 W/m² 19,8 °C 23,9 °C 0,0 km/h (0 Bft)
04.08.2017 15:05 23,9 °C 23,9 °C 76 % 1011,4 hPa 0,0 mm 1,9 km/h (1 Bft) W-NW 300 ° 0 min 0,000 mm 1,6 UV-I 172 W/m² 19,4 °C 23,9 °C 3,2 km/h (1 Bft)
04.08.2017 15:06 23,9 °C 23,9 °C 76 % 1011,4 hPa 0,0 mm 4,2 km/h (1 Bft) W-NW 288 ° 0 min 0,000 mm 1,7 UV-I 174 W/m² 19,4 °C 23,9 °C 6,4 km/h (2 Bft)
04.08.2017 15:07 23,9 °C 23,9 °C 76 % 1011,3 hPa 0,0 mm 3,2 km/h (1 Bft) W-NW 288 ° 0 min 0,000 mm 1,7 UV-I 178 W/m² 19,4 °C 23,9 °C 3,2 km/h (1 Bft)
04.08.2017 15:08 24,0 °C 24,0 °C 77 % 1011,4 hPa 0,0 mm 3,2 km/h (1 Bft) W-NW 292 ° 0 min 0,000 mm 1,8 UV-I 186 W/m² 19,7 °C 24,0 °C 4,8 km/h (1 Bft)
04.08.2017 15:09 24,0 °C 24,0 °C 77 % 1011,3 hPa 0,0 mm 3,2 km/h (1 Bft) W 270 ° 0 min 0,000 mm 1,8 UV-I 190 W/m² 19,7 °C 24,0 °C 4,8 km/h (1 Bft)
04.08.2017 15:10 24,0 °C 24,0 °C 78 % 1011,4 hPa 0,0 mm 4,8 km/h (1 Bft) W 270 ° 0 min 0,000 mm 1,9 UV-I 192 W/m² 19,9 °C 24,0 °C 6,4 km/h (2 Bft)
04.08.2017 15:11 24,0 °C 24,0 °C 76 % 1011,4 hPa 0,0 mm 3,2 km/h (1 Bft) W 270 ° 0 min 0,000 mm 1,8 UV-I 190 W/m² 19,5 °C 24,0 °C 6,4 km/h (2 Bft)
04.08.2017 15:12 24,0 °C 24,0 °C 76 % 1011,4 hPa 0,0 mm 4,8 km/h (1 Bft) W 270 ° 0 min 0,000 mm 1,8 UV-I 183 W/m² 19,5 °C 24,0 °C 6,4 km/h (2 Bft)
04.08.2017 15:13 24,1 °C 24,1 °C 76 % 1011,4 hPa 0,0 mm 3,2 km/h (1 Bft) W 270 ° 0 min 0,000 mm 1,7 UV-I 178 W/m² 19,6 °C 24,1 °C 4,8 km/h (1 Bft)
04.08.2017 15:14 24,1 °C 24,1 °C 76 % 1011,5 hPa 0,0 mm 1,6 km/h (1 Bft) W 270 ° 0 min 0,000 mm 1,6 UV-I 163 W/m² 19,6 °C 24,1 °C 3,2 km/h (1 Bft)
04.08.2017 15:15 24,1 °C 24,1 °C 76 % 1011,4 hPa 0,0 mm 0,0 km/h (0 Bft) W 270 ° 0 min 0,000 mm 1,4 UV-I 156 W/m² 19,6 °C 24,1 °C 1,6 km/h (1 Bft)
04.08.2017 15:16 24,1 °C 24,1 °C 77 % 1011,4 hPa 0,0 mm 0,0 km/h (0 Bft) W 270 ° 0 min 0,000 mm 1,4 UV-I 151 W/m² 19,8 °C 24,1 °C 1,6 km/h (1 Bft)
04.08.2017 15:18 24,1 °C 24,1 °C 76 % 1011,4 hPa 0,0 mm 0,0 km/h (0 Bft) W 270 ° 0 min 0,000 mm 1,3 UV-I 144 W/m² 19,6 °C 24,1 °C 0,0 km/h (0 Bft)
04.08.2017 15:19 24,1 °C 24,1 °C 77 % 1011,4 hPa 0,0 mm 0,4 km/h (0 Bft) W 270 ° 0 min 0,000 mm 1,3 UV-I 146 W/m² 19,8 °C 24,1 °C 1,6 km/h (1 Bft)
04.08.2017 15:20 24,1 °C 24,1 °C 77 % 1011,4 hPa 0,0 mm 1,1 km/h (1 Bft) W 270 ° 0 min 0,000 mm 1,3 UV-I 148 W/m² 19,8 °C 24,1 °C 1,6 km/h (1 Bft)
04.08.2017 15:21 24,1 °C 24,1 °C 77 % 1011,4 hPa 0,0 mm 0,0 km/h (0 Bft) W 270 ° 0 min 0,000 mm 1,3 UV-I 151 W/m² 19,8 °C 24,1 °C 0,0 km/h (0 Bft)
04.08.2017 15:22 24,1 °C 24,1 °C 76 % 1011,5 hPa 0,0 mm 1,7 km/h (1 Bft) W 271 ° 0 min 0,000 mm 1,4 UV-I 156 W/m² 19,6 °C 24,1 °C 4,8 km/h (1 Bft)
04.08.2017 15:23 24,1 °C 24,1 °C 78 % 1011,5 hPa 0,0 mm 3,3 km/h (1 Bft) W 270 ° 0 min 0,000 mm 1,5 UV-I 167 W/m² 20,0 °C 24,1 °C 4,8 km/h (1 Bft)
04.08.2017 15:24 24,1 °C 24,1 °C 79 % 1011,5 hPa 0,0 mm 3,1 km/h (1 Bft) W 271 ° 0 min 0,000 mm 1,6 UV-I 178 W/m² 20,2 °C 24,1 °C 4,8 km/h (1 Bft)
04.08.2017 15:25 24,1 °C 24,2 °C 76 % 1011,5 hPa 0,0 mm 0,5 km/h (0 Bft) W 271 ° 0 min 0,000 mm 1,7 UV-I 199 W/m² 19,6 °C 24,1 °C 1,6 km/h (1 Bft)
04.08.2017 15:26 24,1 °C 24,1 °C 75 % 1011,5 hPa 0,0 mm 2,9 km/h (1 Bft) W 273 ° 0 min 0,000 mm 1,8 UV-I 206 W/m² 19,4 °C 24,1 °C 4,8 km/h (1 Bft)
04.08.2017 15:27 24,1 °C 24,2 °C 76 % 1011,5 hPa 0,0 mm 1,3 km/h (1 Bft) W 273 ° 0 min 0,000 mm 2,0 UV-I 214 W/m² 19,6 °C 24,1 °C 3,2 km/h (1 Bft)
04.08.2017 15:28 24,2 °C 24,2 °C 77 % 1011,5 hPa 0,0 mm 2,1 km/h (1 Bft) W 273 ° 0 min 0,000 mm 2,0 UV-I 223 W/m² 19,9 °C 24,2 °C 3,2 km/h (1 Bft)
04.08.2017 15:29 24,2 °C 24,2 °C 77 % 1011,5 hPa 0,0 mm 3,2 km/h (1 Bft) W-SW 246 ° 0 min 0,000 mm 2,1 UV-I 227 W/m² 19,9 °C 24,2 °C 6,4 km/h (2 Bft)
04.08.2017 15:30 24,3 °C 24,3 °C 75 % 1011,5 hPa 0,0 mm 5,3 km/h (1 Bft) W-NW 283 ° 0 min 0,000 mm 2,1 UV-I 230 W/m² 19,6 °C 24,3 °C 9,7 km/h (2 Bft)
04.08.2017 15:31 24,3 °C 24,3 °C 77 % 1011,6 hPa 0,0 mm 3,7 km/h (1 Bft) W 271 ° 0 min 0,000 mm 2,1 UV-I 239 W/m² 20,0 °C 24,3 °C 6,4 km/h (2 Bft)
04.08.2017 15:32 24,3 °C 24,3 °C 76 % 1011,6 hPa 0,0 mm 4,1 km/h (1 Bft) W 278 ° 0 min 0,000 mm 2,2 UV-I 251 W/m² 19,8 °C 24,3 °C 6,4 km/h (2 Bft)
04.08.2017 15:33 24,3 °C 24,3 °C 76 % 1011,5 hPa 0,0 mm 4,4 km/h (1 Bft) W 278 ° 0 min 0,000 mm 2,4 UV-I 265 W/m² 19,8 °C 24,3 °C 6,4 km/h (2 Bft)
04.08.2017 15:34 24,3 °C 24,3 °C 76 % 1011,5 hPa 0,0 mm 5,3 km/h (1 Bft) W-NW 284 ° 0 min 0,000 mm 2,5 UV-I 281 W/m² 19,8 °C 24,3 °C 8,0 km/h (2 Bft)
04.08.2017 15:35 24,4 °C 24,4 °C 77 % 1011,5 hPa 0,0 mm 3,6 km/h (1 Bft) W-NW 299 ° 1 min 0,000 mm 2,6 UV-I 295 W/m² 20,1 °C 24,4 °C 4,8 km/h (1 Bft)
04.08.2017 15:36 24,5 °C 24,5 °C 77 % 1011,5 hPa 0,0 mm 5,4 km/h (1 Bft) W-NW 288 ° 1 min 0,000 mm 2,6 UV-I 295 W/m² 20,2 °C 24,5 °C 8,0 km/h (2 Bft)
04.08.2017 15:37 24,5 °C 24,6 °C 75 % 1011,5 hPa 0,0 mm 3,6 km/h (1 Bft) W-NW 298 ° 1 min 0,000 mm 2,6 UV-I 290 W/m² 19,8 °C 24,5 °C 6,4 km/h (2 Bft)
04.08.2017 15:38 24,6 °C 24,6 °C 75 % 1011,5 hPa 0,0 mm 4,7 km/h (1 Bft) W-NW 292 ° 1 min 0,000 mm 2,6 UV-I 292 W/m² 19,9 °C 24,6 °C 6,4 km/h (2 Bft)
04.08.2017 15:39 24,6 °C 24,6 °C 74 % 1011,5 hPa 0,0 mm 5,7 km/h (1 Bft) W-SW 257 ° 0 min 0,000 mm 2,6 UV-I 283 W/m² 19,6 °C 24,6 °C 9,7 km/h (2 Bft)
04.08.2017 15:40 24,6 °C 24,6 °C 75 % 1011,5 hPa 0,0 mm 6,9 km/h (2 Bft) W-NW 283 ° 0 min 0,000 mm 2,4 UV-I 272 W/m² 19,9 °C 24,6 °C 9,7 km/h (2 Bft)
04.08.2017 15:41 24,6 °C 24,6 °C 75 % 1011,5 hPa 0,0 mm 5,8 km/h (2 Bft) W 268 ° 0 min 0,000 mm 2,3 UV-I 260 W/m² 19,9 °C 24,6 °C 8,0 km/h (2 Bft)
04.08.2017 15:42 24,6 °C 24,6 °C 74 % 1011,5 hPa 0,0 mm 8,4 km/h (2 Bft) W 264 ° 0 min 0,000 mm 2,2 UV-I 237 W/m² 19,6 °C 24,6 °C 12,9 km/h (3 Bft)
04.08.2017 15:43 24,6 °C 24,6 °C 75 % 1011,5 hPa 0,0 mm 7,5 km/h (2 Bft) W 275 ° 0 min 0,000 mm 2,0 UV-I 195 W/m² 19,9 °C 24,6 °C 11,3 km/h (2 Bft)
04.08.2017 15:44 24,4 °C 24,6 °C 75 % 1011,5 hPa 0,0 mm 5,6 km/h (1 Bft) W 270 ° 0 min 0,000 mm 1,6 UV-I 171 W/m² 19,7 °C 24,4 °C 9,7 km/h (2 Bft)
04.08.2017 15:45 24,4 °C 24,4 °C 74 % 1011,5 hPa 0,0 mm 5,7 km/h (1 Bft) W 262 ° 0 min 0,000 mm 1,6 UV-I 162 W/m² 19,5 °C 24,4 °C 9,7 km/h (2 Bft)
04.08.2017 15:46 24,3 °C 24,4 °C 74 % 1011,5 hPa 0,0 mm 5,7 km/h (1 Bft) N-NW 334 ° 0 min 0,000 mm 1,6 UV-I 162 W/m² 19,4 °C 24,3 °C 6,4 km/h (2 Bft)
04.08.2017 15:47 24,3 °C 24,3 °C 74 % 1011,6 hPa 0,0 mm 4,1 km/h (1 Bft) N-NW 342 ° 0 min 0,000 mm 1,6 UV-I 158 W/m² 19,4 °C 24,3 °C 8,0 km/h (2 Bft)
04.08.2017 15:48 24,3 °C 24,3 °C 75 % 1011,6 hPa 0,0 mm 1,9 km/h (1 Bft) NW 306 ° 0 min 0,000 mm 1,6 UV-I 169 W/m² 19,6 °C 24,3 °C 4,8 km/h (1 Bft)
04.08.2017 15:49 24,3 °C 24,3 °C 73 % 1011,5 hPa 0,0 mm 2,5 km/h (1 Bft) NW 311 ° 0 min 0,000 mm 1,7 UV-I 181 W/m² 19,1 °C 24,3 °C 4,8 km/h (1 Bft)
04.08.2017 15:50 24,2 °C 24,3 °C 76 % 1011,6 hPa 0,0 mm 6,6 km/h (2 Bft) W-SW 255 ° 0 min 0,000 mm 1,9 UV-I 193 W/m² 19,7 °C 24,2 °C 9,7 km/h (2 Bft)
04.08.2017 15:51 24,2 °C 24,2 °C 76 % 1011,6 hPa 0,0 mm 3,6 km/h (1 Bft) SW 233 ° 0 min 0,000 mm 1,9 UV-I 197 W/m² 19,7 °C 24,2 °C 8,0 km/h (2 Bft)
04.08.2017 15:52 24,2 °C 24,2 °C 75 % 1011,6 hPa 0,0 mm 9,8 km/h (2 Bft) W 260 ° 0 min 0,000 mm 1,8 UV-I 188 W/m² 19,5 °C 24,2 °C 17,7 km/h (3 Bft)
04.08.2017 15:53 24,2 °C 24,2 °C 75 % 1011,6 hPa 0,0 mm 11,9 km/h (2 Bft) W-SW 241 ° 0 min 0,000 mm 1,7 UV-I 178 W/m² 19,5 °C 24,2 °C 17,7 km/h (3 Bft)
04.08.2017 15:54 24,2 °C 24,2 °C 76 % 1011,6 hPa 0,0 mm 5,7 km/h (1 Bft) W 270 ° 0 min 0,000 mm 1,6 UV-I 169 W/m² 19,7 °C 24,2 °C 9,7 km/h (2 Bft)
04.08.2017 15:55 24,2 °C 24,2 °C 76 % 1011,7 hPa 0,0 mm 9,2 km/h (2 Bft) W-SW 254 ° 0 min 0,000 mm 1,6 UV-I 163 W/m² 19,7 °C 24,2 °C 11,3 km/h (2 Bft)
04.08.2017 15:56 24,1 °C 24,2 °C 74 % 1011,7 hPa 0,0 mm 6,5 km/h (2 Bft) W-NW 292 ° 0 min 0,000 mm 1,6 UV-I 171 W/m² 19,2 °C 24,1 °C 12,9 km/h (3 Bft)
04.08.2017 15:57 24,1 °C 24,1 °C 75 % 1011,7 hPa 0,0 mm 7,6 km/h (2 Bft) W 277 ° 0 min 0,000 mm 1,8 UV-I 185 W/m² 19,4 °C 24,1 °C 12,9 km/h (3 Bft)
04.08.2017 15:58 24,1 °C 24,1 °C 75 % 1011,6 hPa 0,0 mm 2,4 km/h (1 Bft) W 277 ° 0 min 0,000 mm 2,0 UV-I 197 W/m² 19,4 °C 24,1 °C 4,8 km/h (1 Bft)
04.08.2017 15:59 24,1 °C 24,1 °C 76 % 1011,6 hPa 0,0 mm 3,0 km/h (1 Bft) W 276 ° 0 min 0,000 mm 2,2 UV-I 213 W/m² 19,6 °C 24,1 °C 3,2 km/h (1 Bft)
04.08.2017 16:00 24,1 °C 24,1 °C 77 % 1011,6 hPa 0,0 mm 3,6 km/h (1 Bft) W-NW 282 ° 0 min 0,000 mm 2,6 UV-I 251 W/m² 19,8 °C 24,1 °C 4,8 km/h (1 Bft)
04.08.2017 16:01 24,1 °C 24,1 °C 78 % 1011,6 hPa 0,0 mm 4,4 km/h (1 Bft) W-NW 298 ° 0 min 0,127 mm 2,7 UV-I 274 W/m² 20,0 °C 24,1 °C 9,7 km/h (2 Bft)
04.08.2017 16:02 24,2 °C 24,2 °C 77 % 1011,6 hPa 0,0 mm 2,7 km/h (1 Bft) W-NW 298 ° 1 min 0,000 mm 2,8 UV-I 294 W/m² 19,9 °C 24,2 °C 4,8 km/h (1 Bft)
04.08.2017 16:03 24,2 °C 24,2 °C 78 % 1011,6 hPa 0,0 mm 5,6 km/h (1 Bft) W 263 ° 1 min 0,000 mm 2,9 UV-I 313 W/m² 20,1 °C 24,2 °C 9,7 km/h (2 Bft)
04.08.2017 16:04 24,3 °C 24,3 °C 77 % 1011,6 hPa 0,0 mm 6,2 km/h (2 Bft) W 264 ° 1 min 0,000 mm 3,0 UV-I 313 W/m² 20,0 °C 24,3 °C 12,9 km/h (3 Bft)
04.08.2017 16:05 24,3 °C 24,3 °C 77 % 1011,6 hPa 0,0 mm 4,6 km/h (1 Bft) W 280 ° 1 min 0,000 mm 3,0 UV-I 322 W/m² 20,0 °C 24,3 °C 9,7 km/h (2 Bft)
04.08.2017 16:06 24,3 °C 24,3 °C 77 % 1011,6 hPa 0,0 mm 5,7 km/h (1 Bft) W-NW 298 ° 1 min 0,000 mm 2,9 UV-I 301 W/m² 20,0 °C 24,3 °C 8,0 km/h (2 Bft)
04.08.2017 16:07 24,3 °C 24,3 °C 75 % 1011,6 hPa 0,0 mm 9,1 km/h (2 Bft) W-NW 288 ° 0 min 0,000 mm 2,7 UV-I 283 W/m² 19,6 °C 24,3 °C 14,5 km/h (3 Bft)
04.08.2017 16:08 24,3 °C 24,3 °C 76 % 1011,6 hPa 0,0 mm 8,3 km/h (2 Bft) W 261 ° 0 min 0,000 mm 2,7 UV-I 272 W/m² 19,8 °C 24,3 °C 11,3 km/h (2 Bft)
04.08.2017 16:09 24,3 °C 24,3 °C 75 % 1011,6 hPa 0,0 mm 5,4 km/h (1 Bft) W-NW 284 ° 0 min 0,000 mm 2,7 UV-I 271 W/m² 19,6 °C 24,3 °C 9,7 km/h (2 Bft)
04.08.2017 16:10 24,4 °C 24,4 °C 76 % 1011,6 hPa 0,0 mm 3,3 km/h (1 Bft) W 268 ° 0 min 0,000 mm 2,7 UV-I 271 W/m² 19,9 °C 24,4 °C 4,8 km/h (1 Bft)
04.08.2017 16:11 24,4 °C 24,4 °C 75 % 1011,6 hPa 0,0 mm 4,2 km/h (1 Bft) W 281 ° 0 min 0,000 mm 2,7 UV-I 262 W/m² 19,7 °C 24,4 °C 6,4 km/h (2 Bft)
04.08.2017 16:12 24,4 °C 24,4 °C 76 % 1011,6 hPa 0,0 mm 4,7 km/h (1 Bft) NW 319 ° 0 min 0,000 mm 2,6 UV-I 250 W/m² 19,9 °C 24,4 °C 6,4 km/h (2 Bft)
04.08.2017 16:13 24,4 °C 24,4 °C 75 % 1011,7 hPa 0,0 mm 5,4 km/h (1 Bft) N-NW 333 ° 0 min 0,000 mm 2,6 UV-I 248 W/m² 19,7 °C 24,4 °C 8,0 km/h (2 Bft)
04.08.2017 16:14 24,3 °C 24,4 °C 74 % 1011,7 hPa 0,0 mm 4,5 km/h (1 Bft) W 266 ° 0 min 0,000 mm 2,4 UV-I 234 W/m² 19,4 °C 24,3 °C 8,0 km/h (2 Bft)
04.08.2017 16:15 24,3 °C 24,3 °C 74 % 1011,6 hPa 0,0 mm 8,0 km/h (2 Bft) N-NW 330 ° 0 min 0,000 mm 2,2 UV-I 213 W/m² 19,4 °C 24,3 °C 12,9 km/h (3 Bft)
04.08.2017 16:16 24,3 °C 24,3 °C 74 % 1011,8 hPa 0,0 mm 6,6 km/h (2 Bft) NW 325 ° 0 min 0,000 mm 2,0 UV-I 197 W/m² 19,4 °C 24,3 °C 12,9 km/h (3 Bft)
04.08.2017 16:17 24,2 °C 24,3 °C 75 % 1011,7 hPa 0,0 mm 4,8 km/h (1 Bft) W-NW 300 ° 0 min 0,000 mm 1,9 UV-I 193 W/m² 19,5 °C 24,2 °C 9,7 km/h (2 Bft)
04.08.2017 16:18 24,2 °C 24,2 °C 75 % 1011,7 hPa 0,0 mm 5,5 km/h (1 Bft) NW 306 ° 0 min 0,000 mm 1,9 UV-I 195 W/m² 19,5 °C 24,2 °C 9,7 km/h (2 Bft)
04.08.2017 16:19 24,1 °C 24,2 °C 75 % 1011,7 hPa 0,0 mm 5,9 km/h (2 Bft) W-NW 288 ° 0 min 0,000 mm 1,9 UV-I 202 W/m² 19,4 °C 24,1 °C 8,0 km/h (2 Bft)
04.08.2017 16:20 24,1 °C 24,1 °C 75 % 1011,7 hPa 0,0 mm 3,0 km/h (1 Bft) W-NW 297 ° 0 min 0,000 mm 2,0 UV-I 206 W/m² 19,4 °C 24,1 °C 4,8 km/h (1 Bft)
04.08.2017 16:21 24,0 °C 24,1 °C 77 % 1011,7 hPa 0,0 mm 4,3 km/h (1 Bft) W 278 ° 0 min 0,000 mm 1,9 UV-I 206 W/m² 19,7 °C 24,0 °C 9,7 km/h (2 Bft)
04.08.2017 16:22 24,0 °C 24,1 °C 75 % 1011,7 hPa 0,0 mm 2,3 km/h (1 Bft) NW 317 ° 0 min 0,000 mm 1,9 UV-I 200 W/m² 19,3 °C 24,0 °C 6,4 km/h (2 Bft)
04.08.2017 16:23 23,9 °C 24,0 °C 76 % 1011,7 hPa 0,0 mm 2,7 km/h (1 Bft) W-SW 247 ° 0 min 0,000 mm 1,8 UV-I 193 W/m² 19,4 °C 23,9 °C 6,4 km/h (2 Bft)
04.08.2017 16:24 23,9 °C 23,9 °C 75 % 1011,7 hPa 0,0 mm 7,5 km/h (2 Bft) NW 321 ° 0 min 0,000 mm 1,7 UV-I 171 W/m² 19,2 °C 23,9 °C 11,3 km/h (2 Bft)
04.08.2017 16:25 23,9 °C 23,9 °C 75 % 1011,8 hPa 0,0 mm 4,4 km/h (1 Bft) W 276 ° 0 min 0,000 mm 1,5 UV-I 158 W/m² 19,2 °C 23,9 °C 8,0 km/h (2 Bft)
04.08.2017 16:26 23,9 °C 23,9 °C 75 % 1011,8 hPa 0,0 mm 4,7 km/h (1 Bft) W-NW 292 ° 0 min 0,000 mm 1,4 UV-I 149 W/m² 19,2 °C 23,9 °C 8,0 km/h (2 Bft)
04.08.2017 16:27 23,8 °C 23,9 °C 75 % 1011,8 hPa 0,0 mm 7,1 km/h (2 Bft) W-NW 286 ° 0 min 0,000 mm 1,3 UV-I 144 W/m² 19,1 °C 23,8 °C 11,3 km/h (2 Bft)
04.08.2017 16:28 23,8 °C 23,8 °C 76 % 1011,8 hPa 0,0 mm 5,7 km/h (1 Bft) W 272 ° 0 min 0,000 mm 1,3 UV-I 142 W/m² 19,3 °C 23,8 °C 9,7 km/h (2 Bft)
04.08.2017 16:29 23,8 °C 23,8 °C 75 % 1011,8 hPa 0,0 mm 5,5 km/h (1 Bft) W-NW 290 ° 0 min 0,000 mm 1,3 UV-I 137 W/m² 19,1 °C 23,8 °C 9,7 km/h (2 Bft)
04.08.2017 16:30 23,7 °C 23,8 °C 77 % 1011,8 hPa 0,0 mm 4,3 km/h (1 Bft) W-NW 286 ° 0 min 0,000 mm 1,2 UV-I 135 W/m² 19,4 °C 23,7 °C 6,4 km/h (2 Bft)
04.08.2017 16:31 23,7 °C 23,7 °C 76 % 1011,8 hPa 0,0 mm 4,5 km/h (1 Bft) W-NW 286 ° 0 min 0,000 mm 1,2 UV-I 137 W/m² 19,2 °C 23,7 °C 6,4 km/h (2 Bft)
04.08.2017 16:32 23,7 °C 23,7 °C 76 % 1011,8 hPa 0,0 mm 4,8 km/h (1 Bft) W-NW 292 ° 0 min 0,000 mm 1,3 UV-I 141 W/m² 19,2 °C 23,7 °C 9,7 km/h (2 Bft)
04.08.2017 16:33 23,7 °C 23,7 °C 76 % 1011,8 hPa 0,0 mm 5,4 km/h (1 Bft) W 277 ° 0 min 0,000 mm 1,3 UV-I 142 W/m² 19,2 °C 23,7 °C 6,4 km/h (2 Bft)
04.08.2017 16:34 23,7 °C 23,7 °C 76 % 1011,8 hPa 0,0 mm 5,4 km/h (1 Bft) W 278 ° 0 min 0,000 mm 1,2 UV-I 139 W/m² 19,2 °C 23,7 °C 9,7 km/h (2 Bft)
04.08.2017 16:35 23,6 °C 23,7 °C 77 % 1011,8 hPa 0,0 mm 5,8 km/h (2 Bft) W 263 ° 0 min 0,000 mm 1,2 UV-I 125 W/m² 19,3 °C 23,6 °C 6,4 km/h (2 Bft)
04.08.2017 16:36 23,6 °C 23,6 °C 77 % 1011,8 hPa 0,0 mm 2,3 km/h (1 Bft) W 265 ° 0 min 0,000 mm 1,1 UV-I 118 W/m² 19,3 °C 23,6 °C 4,8 km/h (1 Bft)
04.08.2017 16:37 23,6 °C 23,6 °C 76 % 1011,9 hPa 0,0 mm 4,4 km/h (1 Bft) W-SW 248 ° 0 min 0,000 mm 1,0 UV-I 113 W/m² 19,1 °C 23,6 °C 9,7 km/h (2 Bft)
04.08.2017 16:38 23,6 °C 23,6 °C 78 % 1011,8 hPa 0,0 mm 3,4 km/h (1 Bft) W-SW 250 ° 0 min 0,000 mm 1,0 UV-I 111 W/m² 19,5 °C 23,6 °C 6,4 km/h (2 Bft)
04.08.2017 16:39 23,6 °C 23,6 °C 77 % 1011,8 hPa 0,0 mm 4,5 km/h (1 Bft) W-NW 287 ° 0 min 0,000 mm 1,0 UV-I 114 W/m² 19,3 °C 23,6 °C 6,4 km/h (2 Bft)
04.08.2017 16:40 23,6 °C 23,6 °C 77 % 1011,8 hPa 0,0 mm 2,8 km/h (1 Bft) W-NW 287 ° 0 min 0,000 mm 1,1 UV-I 121 W/m² 19,3 °C 23,6 °C 4,8 km/h (1 Bft)
04.08.2017 16:41 23,6 °C 23,6 °C 77 % 1011,8 hPa 0,0 mm 3,1 km/h (1 Bft) W-NW 287 ° 0 min 0,000 mm 1,1 UV-I 142 W/m² 19,3 °C 23,6 °C 4,8 km/h (1 Bft)
04.08.2017 16:42 23,6 °C 23,6 °C 78 % 1011,8 hPa 0,0 mm 2,3 km/h (1 Bft) W-NW 287 ° 0 min 0,000 mm 1,3 UV-I 155 W/m² 19,5 °C 23,6 °C 3,2 km/h (1 Bft)
04.08.2017 16:43 23,5 °C 23,6 °C 79 % 1011,8 hPa 0,0 mm 1,3 km/h (1 Bft) W-NW 287 ° 0 min 0,000 mm 1,4 UV-I 165 W/m² 19,6 °C 23,5 °C 3,2 km/h (1 Bft)
04.08.2017 16:44 23,5 °C 23,6 °C 80 % 1011,8 hPa 0,0 mm 0,9 km/h (0 Bft) W-NW 287 ° 0 min 0,000 mm 1,5 UV-I 176 W/m² 19,8 °C 23,5 °C 1,6 km/h (1 Bft)
04.08.2017 16:45 23,6 °C 23,6 °C 79 % 1011,8 hPa 0,0 mm 0,0 km/h (0 Bft) W-NW 287 ° 0 min 0,000 mm 1,6 UV-I 186 W/m² 19,7 °C 23,6 °C 0,0 km/h (0 Bft)
04.08.2017 16:46 23,7 °C 23,7 °C 78 % 1011,8 hPa 0,0 mm 1,3 km/h (1 Bft) W-NW 287 ° 0 min 0,000 mm 1,6 UV-I 192 W/m² 19,6 °C 23,7 °C 3,2 km/h (1 Bft)
04.08.2017 16:47 23,7 °C 23,7 °C 78 % 1011,8 hPa 0,0 mm 1,8 km/h (1 Bft) W-NW 287 ° 0 min 0,000 mm 1,6 UV-I 185 W/m² 19,6 °C 23,7 °C 3,2 km/h (1 Bft)
04.08.2017 16:48 23,7 °C 23,8 °C 77 % 1011,8 hPa 0,0 mm 1,3 km/h (1 Bft) W-NW 287 ° 0 min 0,000 mm 1,5 UV-I 185 W/m² 19,4 °C 23,7 °C 1,6 km/h (1 Bft)
04.08.2017 16:49 23,8 °C 23,8 °C 76 % 1011,8 hPa 0,0 mm 1,0 km/h (0 Bft) W-NW 287 ° 0 min 0,000 mm 1,6 UV-I 188 W/m² 19,3 °C 23,8 °C 1,6 km/h (1 Bft)
04.08.2017 16:50 23,8 °C 23,8 °C 77 % 1011,8 hPa 0,0 mm 2,7 km/h (1 Bft) W 275 ° 0 min 0,000 mm 1,6 UV-I 199 W/m² 19,5 °C 23,8 °C 4,8 km/h (1 Bft)
04.08.2017 16:51 23,8 °C 23,8 °C 77 % 1011,8 hPa 0,0 mm 6,2 km/h (2 Bft) W-NW 287 ° 0 min 0,000 mm 1,7 UV-I 202 W/m² 19,5 °C 23,8 °C 9,7 km/h (2 Bft)
04.08.2017 16:52 23,8 °C 23,8 °C 79 % 1011,8 hPa 0,0 mm 5,0 km/h (1 Bft) W-SW 257 ° 0 min 0,000 mm 1,6 UV-I 195 W/m² 19,9 °C 23,8 °C 6,4 km/h (2 Bft)
04.08.2017 16:53 23,8 °C 23,9 °C 77 % 1011,7 hPa 0,0 mm 5,3 km/h (1 Bft) W 273 ° 0 min 0,000 mm 1,6 UV-I 213 W/m² 19,5 °C 23,8 °C 6,4 km/h (2 Bft)
04.08.2017 16:54 23,8 °C 23,9 °C 78 % 1011,8 hPa 0,0 mm 4,8 km/h (1 Bft) W 268 ° 0 min 0,000 mm 1,9 UV-I 230 W/m² 19,7 °C 23,8 °C 6,4 km/h (2 Bft)
04.08.2017 16:55 23,8 °C 23,8 °C 75 % 1011,7 hPa 0,0 mm 3,9 km/h (1 Bft) W-NW 296 ° 0 min 0,000 mm 2,0 UV-I 237 W/m² 19,1 °C 23,8 °C 6,4 km/h (2 Bft)
04.08.2017 16:56 23,8 °C 23,8 °C 76 % 1011,7 hPa 0,0 mm 4,8 km/h (1 Bft) W-NW 288 ° 0 min 0,000 mm 2,0 UV-I 239 W/m² 19,3 °C 23,8 °C 8,0 km/h (2 Bft)
04.08.2017 16:57 23,8 °C 23,8 °C 75 % 1011,6 hPa 0,0 mm 1,4 km/h (1 Bft) W-NW 288 ° 0 min 0,000 mm 2,0 UV-I 236 W/m² 19,1 °C 23,8 °C 4,8 km/h (1 Bft)
04.08.2017 16:58 23,8 °C 23,8 °C 77 % 1011,5 hPa 0,0 mm 3,9 km/h (1 Bft) W 273 ° 0 min 0,000 mm 2,0 UV-I 232 W/m² 19,5 °C 23,8 °C 11,3 km/h (2 Bft)
04.08.2017 16:59 23,8 °C 23,8 °C 78 % 1011,5 hPa 0,0 mm 9,2 km/h (2 Bft) W-SW 252 ° 0 min 0,000 mm 1,9 UV-I 220 W/m² 19,7 °C 23,8 °C 12,9 km/h (3 Bft)
04.08.2017 17:00 23,9 °C 23,9 °C 77 % 1011,7 hPa 0,0 mm 5,5 km/h (1 Bft) W-SW 256 ° 0 min 0,000 mm 1,7 UV-I 204 W/m² 19,6 °C 23,9 °C 11,3 km/h (2 Bft)
04.08.2017 17:01 23,8 °C 23,9 °C 76 % 1011,7 hPa 0,0 mm 3,6 km/h (1 Bft) W-NW 302 ° 0 min 0,153 mm 1,6 UV-I 186 W/m² 19,3 °C 23,8 °C 4,8 km/h (1 Bft)
04.08.2017 17:02 23,8 °C 23,9 °C 76 % 1011,7 hPa 0,0 mm 2,5 km/h (1 Bft) NW 304 ° 0 min 0,000 mm 1,5 UV-I 176 W/m² 19,3 °C 23,8 °C 6,4 km/h (2 Bft)
04.08.2017 17:03 23,8 °C 23,8 °C 75 % 1011,7 hPa 0,0 mm 1,8 km/h (1 Bft) W-NW 303 ° 0 min 0,000 mm 1,4 UV-I 169 W/m² 19,1 °C 23,8 °C 4,8 km/h (1 Bft)
04.08.2017 17:04 23,9 °C 23,9 °C 77 % 1011,7 hPa 0,0 mm 3,0 km/h (1 Bft) NW 317 ° 0 min 0,000 mm 1,4 UV-I 165 W/m² 19,6 °C 23,9 °C 6,4 km/h (2 Bft)
04.08.2017 17:05 23,9 °C 23,9 °C 77 % 1011,7 hPa 0,0 mm 4,5 km/h (1 Bft) NW 318 ° 0 min 0,000 mm 1,4 UV-I 162 W/m² 19,6 °C 23,9 °C 6,4 km/h (2 Bft)
04.08.2017 17:06 23,9 °C 23,9 °C 78 % 1011,7 hPa 0,0 mm 3,3 km/h (1 Bft) NW 321 ° 0 min 0,000 mm 1,4 UV-I 163 W/m² 19,8 °C 23,9 °C 6,4 km/h (2 Bft)
04.08.2017 17:07 23,9 °C 23,9 °C 77 % 1011,6 hPa 0,0 mm 5,2 km/h (1 Bft) NW 304 ° 0 min 0,000 mm 1,4 UV-I 172 W/m² 19,6 °C 23,9 °C 6,4 km/h (2 Bft)
04.08.2017 17:08 23,9 °C 23,9 °C 77 % 1011,6 hPa 0,0 mm 4,0 km/h (1 Bft) NW 321 ° 0 min 0,000 mm 1,5 UV-I 181 W/m² 19,6 °C 23,9 °C 8,0 km/h (2 Bft)
04.08.2017 17:09 23,9 °C 23,9 °C 77 % 1011,7 hPa 0,0 mm 6,2 km/h (2 Bft) W-NW 292 ° 0 min 0,000 mm 1,5 UV-I 185 W/m² 19,6 °C 23,9 °C 9,7 km/h (2 Bft)
04.08.2017 17:10 23,8 °C 23,9 °C 76 % 1011,6 hPa 0,0 mm 6,1 km/h (2 Bft) N-NW 327 ° 0 min 0,000 mm 1,5 UV-I 199 W/m² 19,3 °C 23,8 °C 11,3 km/h (2 Bft)
04.08.2017 17:11 23,8 °C 23,9 °C 76 % 1011,6 hPa 0,0 mm 5,4 km/h (1 Bft) NW 326 ° 0 min 0,000 mm 1,7 UV-I 207 W/m² 19,3 °C 23,8 °C 8,0 km/h (2 Bft)
04.08.2017 17:12 23,8 °C 23,8 °C 76 % 1011,6 hPa 0,0 mm 5,4 km/h (1 Bft) NW 321 ° 0 min 0,000 mm 1,7 UV-I 216 W/m² 19,3 °C 23,8 °C 8,0 km/h (2 Bft)
04.08.2017 17:13 23,8 °C 23,8 °C 76 % 1011,6 hPa 0,0 mm 5,7 km/h (1 Bft) W 279 ° 0 min 0,000 mm 1,8 UV-I 223 W/m² 19,3 °C 23,8 °C 9,7 km/h (2 Bft)
04.08.2017 17:14 23,8 °C 23,8 °C 78 % 1011,6 hPa 0,0 mm 7,9 km/h (2 Bft) W-NW 302 ° 0 min 0,000 mm 1,8 UV-I 230 W/m² 19,7 °C 23,8 °C 12,9 km/h (3 Bft)
04.08.2017 17:15 23,8 °C 23,8 °C 76 % 1011,6 hPa 0,0 mm 10,3 km/h (2 Bft) W-NW 282 ° 0 min 0,000 mm 1,9 UV-I 241 W/m² 19,3 °C 23,8 °C 14,5 km/h (3 Bft)
04.08.2017 17:16 23,8 °C 23,8 °C 76 % 1011,6 hPa 0,0 mm 8,6 km/h (2 Bft) W-NW 288 ° 0 min 0,000 mm 1,9 UV-I 239 W/m² 19,3 °C 23,8 °C 12,9 km/h (3 Bft)
04.08.2017 17:17 23,8 °C 23,8 °C 76 % 1011,6 hPa 0,0 mm 5,7 km/h (1 Bft) W 274 ° 0 min 0,000 mm 1,8 UV-I 234 W/m² 19,3 °C 23,8 °C 8,0 km/h (2 Bft)
04.08.2017 17:18 23,8 °C 23,8 °C 76 % 1011,7 hPa 0,0 mm 6,9 km/h (2 Bft) W-NW 284 ° 0 min 0,000 mm 1,7 UV-I 213 W/m² 19,3 °C 23,8 °C 11,3 km/h (2 Bft)
04.08.2017 17:19 23,8 °C 23,8 °C 76 % 1011,7 hPa 0,0 mm 6,5 km/h (2 Bft) W 281 ° 0 min 0,000 mm 1,5 UV-I 193 W/m² 19,3 °C 23,8 °C 11,3 km/h (2 Bft)
04.08.2017 17:20 23,8 °C 23,8 °C 75 % 1011,7 hPa 0,0 mm 9,1 km/h (2 Bft) N-NW 345 ° 0 min 0,000 mm 1,5 UV-I 190 W/m² 19,1 °C 23,8 °C 12,9 km/h (3 Bft)
04.08.2017 17:21 23,8 °C 23,8 °C 75 % 1011,7 hPa 0,0 mm 4,4 km/h (1 Bft) W 279 ° 0 min 0,000 mm 1,5 UV-I 193 W/m² 19,1 °C 23,8 °C 6,4 km/h (2 Bft)
04.08.2017 17:22 23,8 °C 23,8 °C 76 % 1011,6 hPa 0,0 mm 4,2 km/h (1 Bft) W-NW 290 ° 0 min 0,000 mm 1,6 UV-I 197 W/m² 19,3 °C 23,8 °C 6,4 km/h (2 Bft)
04.08.2017 17:23 23,8 °C 23,8 °C 76 % 1011,6 hPa 0,0 mm 4,2 km/h (1 Bft) W-SW 250 ° 0 min 0,000 mm 1,5 UV-I 181 W/m² 19,3 °C 23,8 °C 8,0 km/h (2 Bft)
04.08.2017 17:24 23,7 °C 23,8 °C 77 % 1011,6 hPa 0,0 mm 11,3 km/h (2 Bft) W-SW 257 ° 0 min 0,000 mm 1,4 UV-I 169 W/m² 19,4 °C 23,7 °C 14,5 km/h (3 Bft)
04.08.2017 17:25 23,7 °C 23,7 °C 77 % 1011,6 hPa 0,0 mm 6,6 km/h (2 Bft) W 270 ° 0 min 0,000 mm 1,3 UV-I 162 W/m² 19,4 °C 23,7 °C 11,3 km/h (2 Bft)
04.08.2017 17:26 23,6 °C 23,7 °C 76 % 1011,6 hPa 0,0 mm 5,6 km/h (1 Bft) W-NW 285 ° 0 min 0,000 mm 1,4 UV-I 169 W/m² 19,1 °C 23,6 °C 11,3 km/h (2 Bft)
04.08.2017 17:27 23,6 °C 23,6 °C 77 % 1011,6 hPa 0,0 mm 5,0 km/h (1 Bft) W 268 ° 0 min 0,000 mm 1,4 UV-I 179 W/m² 19,3 °C 23,6 °C 9,7 km/h (2 Bft)
04.08.2017 17:28 23,5 °C 23,6 °C 75 % 1011,6 hPa 0,0 mm 5,2 km/h (1 Bft) W 269 ° 0 min 0,000 mm 1,4 UV-I 176 W/m² 18,8 °C 23,5 °C 9,7 km/h (2 Bft)
04.08.2017 17:29 23,5 °C 23,6 °C 77 % 1011,6 hPa 0,0 mm 4,2 km/h (1 Bft) NW 312 ° 0 min 0,000 mm 1,3 UV-I 162 W/m² 19,2 °C 23,5 °C 6,4 km/h (2 Bft)
04.08.2017 17:30 23,5 °C 23,5 °C 76 % 1011,6 hPa 0,0 mm 4,0 km/h (1 Bft) W 263 ° 0 min 0,000 mm 1,2 UV-I 151 W/m² 19,0 °C 23,5 °C 9,7 km/h (2 Bft)
04.08.2017 17:31 23,4 °C 23,5 °C 77 % 1011,6 hPa 0,0 mm 5,8 km/h (2 Bft) W-NW 282 ° 0 min 0,000 mm 1,2 UV-I 156 W/m² 19,1 °C 23,4 °C 9,7 km/h (2 Bft)
04.08.2017 17:32 23,4 °C 23,4 °C 76 % 1011,6 hPa 0,0 mm 4,8 km/h (1 Bft) W 280 ° 0 min 0,000 mm 1,3 UV-I 174 W/m² 18,9 °C 23,4 °C 6,4 km/h (2 Bft)
04.08.2017 17:33 23,4 °C 23,4 °C 76 % 1011,5 hPa 0,0 mm 7,7 km/h (2 Bft) W 263 ° 0 min 0,000 mm 1,4 UV-I 186 W/m² 18,9 °C 23,4 °C 11,3 km/h (2 Bft)
04.08.2017 17:34 23,4 °C 23,4 °C 78 % 1011,5 hPa 0,0 mm 3,3 km/h (1 Bft) W 263 ° 0 min 0,000 mm 1,5 UV-I 186 W/m² 19,3 °C 23,4 °C 6,4 km/h (2 Bft)
04.08.2017 17:35 23,4 °C 23,4 °C 78 % 1011,5 hPa 0,0 mm 4,6 km/h (1 Bft) W 279 ° 0 min 0,000 mm 1,4 UV-I 185 W/m² 19,3 °C 23,4 °C 6,4 km/h (2 Bft)
04.08.2017 17:36 23,4 °C 23,4 °C 78 % 1011,5 hPa 0,0 mm 5,2 km/h (1 Bft) W-NW 298 ° 0 min 0,000 mm 1,4 UV-I 185 W/m² 19,3 °C 23,4 °C 9,7 km/h (2 Bft)
04.08.2017 17:37 23,4 °C 23,4 °C 79 % 1011,5 hPa 0,0 mm 6,3 km/h (2 Bft) W 265 ° 0 min 0,000 mm 1,4 UV-I 185 W/m² 19,5 °C 23,4 °C 9,7 km/h (2 Bft)
04.08.2017 17:38 23,4 °C 23,4 °C 77 % 1011,5 hPa 0,0 mm 6,9 km/h (2 Bft) W-NW 286 ° 0 min 0,000 mm 1,4 UV-I 181 W/m² 19,1 °C 23,4 °C 12,9 km/h (3 Bft)
04.08.2017 17:39 23,4 °C 23,4 °C 77 % 1011,4 hPa 0,0 mm 6,1 km/h (2 Bft) W-NW 282 ° 0 min 0,000 mm 1,4 UV-I 183 W/m² 19,1 °C 23,4 °C 11,3 km/h (2 Bft)
04.08.2017 17:40 23,4 °C 23,4 °C 78 % 1011,5 hPa 0,0 mm 3,0 km/h (1 Bft) W-NW 283 ° 0 min 0,000 mm 1,4 UV-I 186 W/m² 19,3 °C 23,4 °C 4,8 km/h (1 Bft)
04.08.2017 17:41 23,4 °C 23,4 °C 76 % 1011,4 hPa 0,0 mm 5,2 km/h (1 Bft) W 269 ° 0 min 0,000 mm 1,4 UV-I 186 W/m² 18,9 °C 23,4 °C 6,4 km/h (2 Bft)
04.08.2017 17:42 23,4 °C 23,4 °C 77 % 1011,4 hPa 0,0 mm 6,4 km/h (2 Bft) W 263 ° 0 min 0,000 mm 1,4 UV-I 185 W/m² 19,1 °C 23,4 °C 9,7 km/h (2 Bft)
04.08.2017 17:43 23,4 °C 23,4 °C 78 % 1011,3 hPa 0,0 mm 3,4 km/h (1 Bft) W 275 ° 0 min 0,000 mm 1,4 UV-I 185 W/m² 19,3 °C 23,4 °C 4,8 km/h (1 Bft)
04.08.2017 17:44 23,4 °C 23,4 °C 78 % 1011,4 hPa 0,0 mm 3,5 km/h (1 Bft) W 275 ° 0 min 0,000 mm 1,4 UV-I 186 W/m² 19,3 °C 23,4 °C 4,8 km/h (1 Bft)
04.08.2017 17:45 23,4 °C 23,4 °C 77 % 1011,4 hPa 0,0 mm 5,4 km/h (1 Bft) W 271 ° 0 min 0,000 mm 1,4 UV-I 186 W/m² 19,1 °C 23,4 °C 8,0 km/h (2 Bft)
04.08.2017 17:46 23,4 °C 23,4 °C 77 % 1011,4 hPa 0,0 mm 5,0 km/h (1 Bft) W-NW 290 ° 0 min 0,000 mm 1,4 UV-I 183 W/m² 19,1 °C 23,4 °C 8,0 km/h (2 Bft)
04.08.2017 17:47 23,4 °C 23,4 °C 76 % 1011,4 hPa 0,0 mm 5,1 km/h (1 Bft) W-NW 288 ° 0 min 0,000 mm 1,4 UV-I 183 W/m² 18,9 °C 23,4 °C 6,4 km/h (2 Bft)
04.08.2017 17:48 23,4 °C 23,4 °C 76 % 1011,4 hPa 0,0 mm 5,5 km/h (1 Bft) W-NW 290 ° 0 min 0,000 mm 1,3 UV-I 178 W/m² 18,9 °C 23,4 °C 11,3 km/h (2 Bft)
04.08.2017 17:49 23,4 °C 23,4 °C 77 % 1011,4 hPa 0,0 mm 5,2 km/h (1 Bft) W-SW 254 ° 0 min 0,000 mm 1,3 UV-I 178 W/m² 19,1 °C 23,4 °C 11,3 km/h (2 Bft)
04.08.2017 17:50 23,4 °C 23,5 °C 77 % 1011,4 hPa 0,0 mm 5,3 km/h (1 Bft) W-NW 290 ° 0 min 0,000 mm 1,3 UV-I 176 W/m² 19,1 °C 23,4 °C 6,4 km/h (2 Bft)
04.08.2017 17:51 23,5 °C 23,5 °C 77 % 1011,4 hPa 0,0 mm 3,1 km/h (1 Bft) W-NW 290 ° 0 min 0,000 mm 1,3 UV-I 176 W/m² 19,2 °C 23,5 °C 4,8 km/h (1 Bft)
04.08.2017 17:52 23,4 °C 23,5 °C 76 % 1011,3 hPa 0,0 mm 5,6 km/h (1 Bft) W-NW 296 ° 0 min 0,000 mm 1,3 UV-I 176 W/m² 18,9 °C 23,4 °C 9,7 km/h (2 Bft)
04.08.2017 17:53 23,4 °C 23,5 °C 78 % 1011,3 hPa 0,0 mm 5,9 km/h (2 Bft) W-SW 257 ° 0 min 0,000 mm 1,3 UV-I 176 W/m² 19,3 °C 23,4 °C 11,3 km/h (2 Bft)
04.08.2017 17:54 23,5 °C 23,5 °C 78 % 1011,3 hPa 0,0 mm 7,2 km/h (2 Bft) W-SW 258 ° 0 min 0,000 mm 1,3 UV-I 176 W/m² 19,4 °C 23,5 °C 11,3 km/h (2 Bft)
04.08.2017 17:55 23,5 °C 23,5 °C 77 % 1011,3 hPa 0,0 mm 4,3 km/h (1 Bft) W-NW 292 ° 0 min 0,000 mm 1,3 UV-I 176 W/m² 19,2 °C 23,5 °C 6,4 km/h (2 Bft)
04.08.2017 17:56 23,5 °C 23,5 °C 77 % 1011,4 hPa 0,0 mm 5,3 km/h (1 Bft) W-NW 293 ° 0 min 0,000 mm 1,3 UV-I 178 W/m² 19,2 °C 23,5 °C 9,7 km/h (2 Bft)
04.08.2017 17:57 23,5 °C 23,5 °C 77 % 1011,3 hPa 0,0 mm 3,1 km/h (1 Bft) W 278 ° 0 min 0,000 mm 1,3 UV-I 185 W/m² 19,2 °C 23,5 °C 8,0 km/h (2 Bft)
04.08.2017 17:58 23,5 °C 23,5 °C 77 % 1011,2 hPa 0,0 mm 2,7 km/h (1 Bft) W 278 ° 0 min 0,000 mm 1,4 UV-I 185 W/m² 19,2 °C 23,5 °C 4,8 km/h (1 Bft)
04.08.2017 17:59 23,6 °C 23,6 °C 79 % 1011,3 hPa 0,0 mm 2,7 km/h (1 Bft) NW 306 ° 0 min 0,000 mm 1,4 UV-I 188 W/m² 19,7 °C 23,6 °C 4,8 km/h (1 Bft)
04.08.2017 18:00 23,6 °C 23,6 °C 78 % 1011,3 hPa 0,0 mm 3,7 km/h (1 Bft) W-NW 301 ° 0 min 0,127 mm 1,4 UV-I 192 W/m² 19,5 °C 23,6 °C 4,8 km/h (1 Bft)
04.08.2017 18:01 23,6 °C 23,6 °C 78 % 1011,3 hPa 0,0 mm 4,2 km/h (1 Bft) NW 309 ° 0 min 0,000 mm 1,5 UV-I 190 W/m² 19,5 °C 23,6 °C 6,4 km/h (2 Bft)
04.08.2017 18:02 23,7 °C 23,7 °C 78 % 1011,3 hPa 0,0 mm 5,4 km/h (1 Bft) W-NW 290 ° 0 min 0,000 mm 1,5 UV-I 195 W/m² 19,6 °C 23,7 °C 8,0 km/h (2 Bft)
04.08.2017 18:03 23,7 °C 23,7 °C 77 % 1011,2 hPa 0,0 mm 4,7 km/h (1 Bft) NW 321 ° 0 min 0,000 mm 1,5 UV-I 193 W/m² 19,4 °C 23,7 °C 6,4 km/h (2 Bft)
04.08.2017 18:04 23,8 °C 23,8 °C 78 % 1011,1 hPa 0,0 mm 5,0 km/h (1 Bft) NW 325 ° 0 min 0,000 mm 1,5 UV-I 193 W/m² 19,7 °C 23,8 °C 8,0 km/h (2 Bft)
04.08.2017 18:05 23,8 °C 23,8 °C 78 % 1011,2 hPa 0,0 mm 4,4 km/h (1 Bft) NW 325 ° 0 min 0,000 mm 1,5 UV-I 183 W/m² 19,7 °C 23,8 °C 6,4 km/h (2 Bft)
04.08.2017 18:06 23,8 °C 23,8 °C 77 % 1011,2 hPa 0,0 mm 5,4 km/h (1 Bft) N-NW 328 ° 0 min 0,000 mm 1,5 UV-I 176 W/m² 19,5 °C 23,8 °C 6,4 km/h (2 Bft)
04.08.2017 18:07 23,9 °C 23,9 °C 79 % 1011,2 hPa 0,0 mm 6,0 km/h (2 Bft) N-NW 333 ° 0 min 0,000 mm 1,4 UV-I 176 W/m² 20,0 °C 23,9 °C 8,0 km/h (2 Bft)
04.08.2017 18:08 24,0 °C 24,0 °C 77 % 1011,2 hPa 0,0 mm 6,2 km/h (2 Bft) N-NW 333 ° 0 min 0,000 mm 1,4 UV-I 163 W/m² 19,7 °C 24,0 °C 8,0 km/h (2 Bft)
04.08.2017 18:09 24,1 °C 24,1 °C 78 % 1011,2 hPa 0,0 mm 6,0 km/h (2 Bft) N-NW 327 ° 0 min 0,000 mm 1,4 UV-I 162 W/m² 20,0 °C 24,1 °C 8,0 km/h (2 Bft)
04.08.2017 18:10 24,1 °C 24,1 °C 76 % 1011,3 hPa 0,0 mm 5,0 km/h (1 Bft) W-NW 299 ° 0 min 0,000 mm 1,4 UV-I 148 W/m² 19,6 °C 24,1 °C 8,0 km/h (2 Bft)
04.08.2017 18:11 24,1 °C 24,1 °C 76 % 1011,2 hPa 0,0 mm 5,8 km/h (2 Bft) W-NW 285 ° 0 min 0,000 mm 1,3 UV-I 144 W/m² 19,6 °C 24,1 °C 9,7 km/h (2 Bft)
04.08.2017 18:12 24,1 °C 24,1 °C 77 % 1011,2 hPa 0,0 mm 6,1 km/h (2 Bft) W-NW 294 ° 0 min 0,000 mm 1,3 UV-I 139 W/m² 19,8 °C 24,1 °C 8,0 km/h (2 Bft)
04.08.2017 18:13 24,1 °C 24,1 °C 77 % 1011,2 hPa 0,0 mm 2,8 km/h (1 Bft) NW 317 ° 0 min 0,000 mm 1,4 UV-I 167 W/m² 19,8 °C 24,1 °C 4,8 km/h (1 Bft)
04.08.2017 18:14 24,0 °C 24,1 °C 78 % 1011,2 hPa 0,0 mm 3,2 km/h (1 Bft) NW 315 ° 0 min 0,000 mm 1,3 UV-I 141 W/m² 19,9 °C 24,0 °C 4,8 km/h (1 Bft)
04.08.2017 18:15 24,1 °C 24,1 °C 78 % 1011,3 hPa 0,0 mm 2,7 km/h (1 Bft) NW 315 ° 0 min 0,000 mm 1,3 UV-I 148 W/m² 20,0 °C 24,1 °C 8,0 km/h (2 Bft)
04.08.2017 18:16 24,1 °C 24,1 °C 77 % 1011,3 hPa 0,0 mm 4,8 km/h (1 Bft) W-NW 292 ° 0 min 0,000 mm 1,3 UV-I 134 W/m² 19,8 °C 24,1 °C 8,0 km/h (2 Bft)
04.08.2017 18:17 24,0 °C 24,1 °C 76 % 1011,3 hPa 0,0 mm 4,3 km/h (1 Bft) W-NW 284 ° 0 min 0,000 mm 1,3 UV-I 114 W/m² 19,5 °C 24,0 °C 6,4 km/h (2 Bft)
04.08.2017 18:18 24,0 °C 24,1 °C 76 % 1011,3 hPa 0,0 mm 3,3 km/h (1 Bft) W-NW 299 ° 0 min 0,000 mm 1,3 UV-I 118 W/m² 19,5 °C 24,0 °C 6,4 km/h (2 Bft)
04.08.2017 18:19 23,9 °C 24,0 °C 76 % 1011,3 hPa 0,0 mm 2,3 km/h (1 Bft) W-NW 299 ° 0 min 0,000 mm 1,2 UV-I 118 W/m² 19,4 °C 23,9 °C 4,8 km/h (1 Bft)
04.08.2017 18:20 23,9 °C 23,9 °C 77 % 1011,3 hPa 0,0 mm 5,8 km/h (2 Bft) NW 316 ° 0 min 0,000 mm 1,2 UV-I 109 W/m² 19,6 °C 23,9 °C 8,0 km/h (2 Bft)
04.08.2017 18:21 23,9 °C 23,9 °C 77 % 1011,3 hPa 0,0 mm 5,3 km/h (1 Bft) NW 317 ° 0 min 0,000 mm 1,2 UV-I 109 W/m² 19,6 °C 23,9 °C 8,0 km/h (2 Bft)
04.08.2017 18:22 23,9 °C 23,9 °C 77 % 1011,3 hPa 0,0 mm 4,5 km/h (1 Bft) NW 324 ° 0 min 0,000 mm 1,2 UV-I 98 W/m² 19,6 °C 23,9 °C 4,8 km/h (1 Bft)
04.08.2017 18:23 23,9 °C 23,9 °C 76 % 1011,3 hPa 0,0 mm 8,4 km/h (2 Bft) NW 314 ° 0 min 0,000 mm 1,2 UV-I 91 W/m² 19,4 °C 23,9 °C 16,1 km/h (3 Bft)
04.08.2017 18:24 23,9 °C 23,9 °C 76 % 1011,3 hPa 0,0 mm 9,9 km/h (2 Bft) N-NW 332 ° 0 min 0,000 mm 1,1 UV-I 79 W/m² 19,4 °C 23,9 °C 14,5 km/h (3 Bft)
04.08.2017 18:25 23,9 °C 23,9 °C 76 % 1011,3 hPa 0,0 mm 8,7 km/h (2 Bft) W-NW 284 ° 0 min 0,000 mm 1,1 UV-I 83 W/m² 19,4 °C 23,9 °C 14,5 km/h (3 Bft)
04.08.2017 18:26 23,9 °C 23,9 °C 76 % 1011,3 hPa 0,0 mm 5,7 km/h (1 Bft) W-NW 286 ° 0 min 0,000 mm 1,1 UV-I 81 W/m² 19,4 °C 23,9 °C 9,7 km/h (2 Bft)
04.08.2017 18:27 23,9 °C 23,9 °C 76 % 1011,3 hPa 0,0 mm 5,0 km/h (1 Bft) W 277 ° 0 min 0,000 mm 1,1 UV-I 88 W/m² 19,4 °C 23,9 °C 6,4 km/h (2 Bft)
04.08.2017 18:28 23,8 °C 23,9 °C 76 % 1011,3 hPa 0,0 mm 5,1 km/h (1 Bft) W-NW 284 ° 0 min 0,000 mm 1,1 UV-I 79 W/m² 19,3 °C 23,8 °C 9,7 km/h (2 Bft)
04.08.2017 18:29 23,9 °C 23,9 °C 76 % 1011,3 hPa 0,0 mm 6,9 km/h (2 Bft) NW 311 ° 0 min 0,000 mm 1,1 UV-I 74 W/m² 19,4 °C 23,9 °C 9,7 km/h (2 Bft)
04.08.2017 18:30 23,8 °C 23,9 °C 75 % 1011,4 hPa 0,0 mm 8,9 km/h (2 Bft) NW 323 ° 0 min 0,000 mm 1,0 UV-I 70 W/m² 19,1 °C 23,8 °C 14,5 km/h (3 Bft)
04.08.2017 18:31 23,8 °C 23,8 °C 75 % 1011,4 hPa 0,0 mm 5,9 km/h (2 Bft) NW 315 ° 0 min 0,000 mm 1,0 UV-I 69 W/m² 19,1 °C 23,8 °C 12,9 km/h (3 Bft)
04.08.2017 18:32 23,7 °C 23,8 °C 76 % 1011,5 hPa 0,0 mm 3,1 km/h (1 Bft) NW 317 ° 0 min 0,000 mm 1,0 UV-I 67 W/m² 19,2 °C 23,7 °C 6,4 km/h (2 Bft)
04.08.2017 18:33 23,6 °C 23,7 °C 76 % 1011,5 hPa 0,0 mm 3,5 km/h (1 Bft) W-SW 257 ° 0 min 0,000 mm 1,0 UV-I 74 W/m² 19,1 °C 23,6 °C 6,4 km/h (2 Bft)
04.08.2017 18:34 23,6 °C 23,6 °C 76 % 1011,5 hPa 0,0 mm 8,0 km/h (2 Bft) W 275 ° 0 min 0,000 mm 1,0 UV-I 79 W/m² 19,1 °C 23,6 °C 11,3 km/h (2 Bft)
04.08.2017 18:35 23,4 °C 23,6 °C 76 % 1011,5 hPa 0,0 mm 3,4 km/h (1 Bft) W 273 ° 0 min 0,000 mm 1,0 UV-I 83 W/m² 18,9 °C 23,4 °C 4,8 km/h (1 Bft)
04.08.2017 18:36 23,4 °C 23,5 °C 76 % 1011,5 hPa 0,0 mm 2,5 km/h (1 Bft) W-NW 288 ° 0 min 0,000 mm 1,0 UV-I 90 W/m² 18,9 °C 23,4 °C 4,8 km/h (1 Bft)
04.08.2017 18:37 23,4 °C 23,4 °C 77 % 1011,5 hPa 0,0 mm 1,5 km/h (1 Bft) W-NW 288 ° 0 min 0,000 mm 1,0 UV-I 97 W/m² 19,1 °C 23,4 °C 3,2 km/h (1 Bft)
04.08.2017 18:38 23,4 °C 23,4 °C 76 % 1011,5 hPa 0,0 mm 3,9 km/h (1 Bft) W 271 ° 0 min 0,000 mm 1,0 UV-I 109 W/m² 18,9 °C 23,4 °C 6,4 km/h (2 Bft)
04.08.2017 18:39 23,3 °C 23,4 °C 77 % 1011,5 hPa 0,0 mm 3,1 km/h (1 Bft) W-NW 300 ° 0 min 0,000 mm 1,0 UV-I 114 W/m² 19,0 °C 23,3 °C 6,4 km/h (2 Bft)
04.08.2017 18:40 23,3 °C 23,4 °C 78 % 1011,6 hPa 0,0 mm 1,4 km/h (1 Bft) W-NW 300 ° 0 min 0,000 mm 1,0 UV-I 118 W/m² 19,2 °C 23,3 °C 3,2 km/h (1 Bft)
04.08.2017 18:41 23,4 °C 23,4 °C 77 % 1011,6 hPa 0,0 mm 1,4 km/h (1 Bft) W-NW 300 ° 0 min 0,000 mm 1,0 UV-I 121 W/m² 19,1 °C 23,4 °C 3,2 km/h (1 Bft)
04.08.2017 18:42 23,4 °C 23,4 °C 76 % 1011,6 hPa 0,0 mm 2,1 km/h (1 Bft) W 260 ° 0 min 0,000 mm 1,0 UV-I 111 W/m² 18,9 °C 23,4 °C 6,4 km/h (2 Bft)
04.08.2017 18:43 23,4 °C 23,4 °C 76 % 1011,6 hPa 0,0 mm 4,0 km/h (1 Bft) NW 317 ° 0 min 0,000 mm 0,9 UV-I 104 W/m² 18,9 °C 23,4 °C 6,4 km/h (2 Bft)
04.08.2017 18:44 23,4 °C 23,4 °C 78 % 1011,6 hPa 0,0 mm 1,1 km/h (1 Bft) NW 317 ° 0 min 0,000 mm 0,9 UV-I 111 W/m² 19,3 °C 23,4 °C 3,2 km/h (1 Bft)
04.08.2017 18:45 23,4 °C 23,4 °C 77 % 1011,7 hPa 0,0 mm 3,5 km/h (1 Bft) W-NW 287 ° 0 min 0,000 mm 0,9 UV-I 104 W/m² 19,1 °C 23,4 °C 4,8 km/h (1 Bft)
04.08.2017 18:46 23,4 °C 23,4 °C 77 % 1011,8 hPa 0,0 mm 4,8 km/h (1 Bft) W 268 ° 0 min 0,000 mm 0,9 UV-I 102 W/m² 19,1 °C 23,4 °C 6,4 km/h (2 Bft)
04.08.2017 18:47 23,4 °C 23,4 °C 78 % 1011,8 hPa 0,0 mm 3,4 km/h (1 Bft) W 263 ° 0 min 0,000 mm 0,9 UV-I 104 W/m² 19,3 °C 23,4 °C 4,8 km/h (1 Bft)
04.08.2017 18:48 23,4 °C 23,4 °C 77 % 1011,9 hPa 0,0 mm 4,9 km/h (1 Bft) W-NW 291 ° 0 min 0,000 mm 0,9 UV-I 102 W/m² 19,1 °C 23,4 °C 11,3 km/h (2 Bft)
04.08.2017 18:49 23,3 °C 23,4 °C 77 % 1011,9 hPa 0,0 mm 4,3 km/h (1 Bft) W 281 ° 0 min 0,000 mm 0,8 UV-I 104 W/m² 19,0 °C 23,3 °C 4,8 km/h (1 Bft)
04.08.2017 18:50 23,3 °C 23,3 °C 77 % 1011,9 hPa 0,0 mm 2,7 km/h (1 Bft) W 277 ° 0 min 0,000 mm 0,8 UV-I 105 W/m² 19,0 °C 23,3 °C 4,8 km/h (1 Bft)
04.08.2017 18:51 23,3 °C 23,4 °C 77 % 1011,9 hPa 0,0 mm 5,8 km/h (2 Bft) NW 313 ° 0 min 0,000 mm 0,8 UV-I 104 W/m² 19,0 °C 23,3 °C 11,3 km/h (2 Bft)
04.08.2017 18:52 23,3 °C 23,3 °C 77 % 1011,9 hPa 0,0 mm 4,3 km/h (1 Bft) W-NW 295 ° 0 min 0,000 mm 0,8 UV-I 104 W/m² 19,0 °C 23,3 °C 6,4 km/h (2 Bft)
04.08.2017 18:53 23,3 °C 23,3 °C 77 % 1011,9 hPa 0,0 mm 3,3 km/h (1 Bft) W 262 ° 0 min 0,000 mm 0,8 UV-I 104 W/m² 19,0 °C 23,3 °C 4,8 km/h (1 Bft)
04.08.2017 18:54 23,3 °C 23,3 °C 78 % 1011,9 hPa 0,0 mm 7,1 km/h (2 Bft) W 271 ° 0 min 0,000 mm 0,8 UV-I 102 W/m² 19,2 °C 23,3 °C 9,7 km/h (2 Bft)
04.08.2017 18:55 23,2 °C 23,3 °C 78 % 1011,9 hPa 0,0 mm 4,5 km/h (1 Bft) W 266 ° 0 min 0,000 mm 0,7 UV-I 100 W/m² 19,1 °C 23,2 °C 6,4 km/h (2 Bft)
04.08.2017 18:56 23,2 °C 23,2 °C 77 % 1012,0 hPa 0,0 mm 5,9 km/h (2 Bft) W-NW 296 ° 0 min 0,000 mm 0,7 UV-I 93 W/m² 18,9 °C 23,2 °C 9,7 km/h (2 Bft)
04.08.2017 18:57 23,2 °C 23,2 °C 77 % 1011,9 hPa 0,0 mm 5,2 km/h (1 Bft) W-NW 290 ° 0 min 0,000 mm 0,6 UV-I 84 W/m² 18,9 °C 23,2 °C 6,4 km/h (2 Bft)
04.08.2017 18:58 23,2 °C 23,2 °C 77 % 1012,0 hPa 0,0 mm 4,0 km/h (1 Bft) W-NW 290 ° 0 min 0,000 mm 0,6 UV-I 77 W/m² 18,9 °C 23,2 °C 4,8 km/h (1 Bft)
04.08.2017 18:59 23,2 °C 23,2 °C 78 % 1012,0 hPa 0,0 mm 3,8 km/h (1 Bft) W-NW 294 ° 0 min 0,000 mm 0,6 UV-I 79 W/m² 19,1 °C 23,2 °C 6,4 km/h (2 Bft)
04.08.2017 19:00 23,2 °C 23,2 °C 80 % 1012,0 hPa 0,0 mm 5,9 km/h (2 Bft) W 259 ° 0 min 0,101 mm 0,6 UV-I 86 W/m² 19,6 °C 23,2 °C 12,9 km/h (3 Bft)
04.08.2017 19:01 23,1 °C 23,2 °C 78 % 1012,0 hPa 0,0 mm 8,0 km/h (2 Bft) W-NW 301 ° 0 min 0,000 mm 0,6 UV-I 81 W/m² 19,0 °C 23,1 °C 11,3 km/h (2 Bft)
04.08.2017 19:02 23,1 °C 23,1 °C 78 % 1012,0 hPa 0,0 mm 5,7 km/h (1 Bft) W-NW 294 ° 0 min 0,000 mm 0,5 UV-I 69 W/m² 19,0 °C 23,1 °C 6,4 km/h (2 Bft)
04.08.2017 19:03 23,1 °C 23,1 °C 78 % 1012,0 hPa 0,0 mm 3,9 km/h (1 Bft) W-NW 290 ° 0 min 0,000 mm 0,5 UV-I 72 W/m² 19,0 °C 23,1 °C 4,8 km/h (1 Bft)
04.08.2017 19:04 23,0 °C 23,1 °C 78 % 1012,0 hPa 0,0 mm 1,1 km/h (1 Bft) W-NW 290 ° 0 min 0,000 mm 0,5 UV-I 79 W/m² 18,9 °C 23,0 °C 3,2 km/h (1 Bft)
04.08.2017 19:05 23,0 °C 23,1 °C 79 % 1012,0 hPa 0,0 mm 6,2 km/h (2 Bft) W 271 ° 0 min 0,000 mm 0,5 UV-I 84 W/m² 19,2 °C 23,0 °C 11,3 km/h (2 Bft)
04.08.2017 19:06 23,0 °C 23,0 °C 79 % 1011,9 hPa 0,0 mm 2,5 km/h (1 Bft) W 267 ° 0 min 0,000 mm 0,5 UV-I 84 W/m² 19,2 °C 23,0 °C 3,2 km/h (1 Bft)
04.08.2017 19:07 22,9 °C 23,0 °C 78 % 1012,0 hPa 0,0 mm 7,1 km/h (2 Bft) NW 308 ° 0 min 0,000 mm 0,6 UV-I 91 W/m² 18,9 °C 22,9 °C 12,9 km/h (3 Bft)
04.08.2017 19:08 22,9 °C 23,0 °C 78 % 1012,0 hPa 0,0 mm 5,6 km/h (1 Bft) W-NW 294 ° 0 min 0,000 mm 0,6 UV-I 91 W/m² 18,9 °C 22,9 °C 8,0 km/h (2 Bft)
04.08.2017 19:09 22,9 °C 22,9 °C 79 % 1012,0 hPa 0,0 mm 5,1 km/h (1 Bft) W 278 ° 0 min 0,000 mm 0,6 UV-I 88 W/m² 19,1 °C 22,9 °C 9,7 km/h (2 Bft)
04.08.2017 19:10 22,9 °C 22,9 °C 78 % 1012,0 hPa 0,0 mm 5,0 km/h (1 Bft) W-NW 291 ° 0 min 0,000 mm 0,6 UV-I 86 W/m² 18,9 °C 22,9 °C 11,3 km/h (2 Bft)
04.08.2017 19:11 22,9 °C 22,9 °C 78 % 1012,0 hPa 0,0 mm 7,0 km/h (2 Bft) W 265 ° 0 min 0,000 mm 0,5 UV-I 88 W/m² 18,9 °C 22,9 °C 11,3 km/h (2 Bft)
04.08.2017 19:12 22,9 °C 22,9 °C 78 % 1012,0 hPa 0,0 mm 3,5 km/h (1 Bft) W 277 ° 0 min 0,000 mm 0,5 UV-I 84 W/m² 18,9 °C 22,9 °C 4,8 km/h (1 Bft)
04.08.2017 19:13 22,9 °C 22,9 °C 78 % 1012,0 hPa 0,0 mm 4,9 km/h (1 Bft) W-NW 288 ° 0 min 0,000 mm 0,5 UV-I 83 W/m² 18,9 °C 22,9 °C 9,7 km/h (2 Bft)
04.08.2017 19:14 22,9 °C 22,9 °C 78 % 1012,0 hPa 0,0 mm 6,1 km/h (2 Bft) W-NW 298 ° 0 min 0,000 mm 0,5 UV-I 81 W/m² 18,9 °C 22,9 °C 8,0 km/h (2 Bft)
04.08.2017 19:15 22,9 °C 22,9 °C 78 % 1012,0 hPa 0,0 mm 3,5 km/h (1 Bft) W-NW 294 ° 0 min 0,000 mm 0,5 UV-I 81 W/m² 18,9 °C 22,9 °C 4,8 km/h (1 Bft)
04.08.2017 19:16 22,9 °C 22,9 °C 78 % 1011,9 hPa 0,0 mm 3,4 km/h (1 Bft) W 265 ° 0 min 0,000 mm 0,5 UV-I 81 W/m² 18,9 °C 22,9 °C 6,4 km/h (2 Bft)
04.08.2017 19:17 22,9 °C 22,9 °C 80 % 1011,9 hPa 0,0 mm 1,7 km/h (1 Bft) W 265 ° 0 min 0,000 mm 0,5 UV-I 81 W/m² 19,3 °C 22,9 °C 4,8 km/h (1 Bft)
04.08.2017 19:18 22,9 °C 22,9 °C 78 % 1012,0 hPa 0,0 mm 2,0 km/h (1 Bft) W 265 ° 0 min 0,000 mm 0,5 UV-I 81 W/m² 18,9 °C 22,9 °C 3,2 km/h (1 Bft)
04.08.2017 19:19 22,8 °C 22,9 °C 79 % 1012,0 hPa 0,0 mm 4,3 km/h (1 Bft) W 261 ° 0 min 0,000 mm 0,5 UV-I 74 W/m² 19,0 °C 22,8 °C 11,3 km/h (2 Bft)
04.08.2017 19:20 22,8 °C 22,8 °C 77 % 1012,0 hPa 0,0 mm 9,9 km/h (2 Bft) W 259 ° 0 min 0,000 mm 0,5 UV-I 69 W/m² 18,5 °C 22,8 °C 11,3 km/h (2 Bft)
04.08.2017 19:21 22,8 °C 22,8 °C 78 % 1011,9 hPa 0,0 mm 3,2 km/h (1 Bft) W 261 ° 0 min 0,000 mm 0,5 UV-I 67 W/m² 18,8 °C 22,8 °C 9,7 km/h (2 Bft)
04.08.2017 19:22 22,8 °C 22,8 °C 78 % 1012,0 hPa 0,0 mm 5,0 km/h (1 Bft) W 264 ° 0 min 0,000 mm 0,5 UV-I 65 W/m² 18,8 °C 22,8 °C 9,7 km/h (2 Bft)
04.08.2017 19:23 22,8 °C 22,8 °C 79 % 1012,0 hPa 0,0 mm 1,6 km/h (1 Bft) W 264 ° 0 min 0,000 mm 0,5 UV-I 65 W/m² 19,0 °C 22,8 °C 3,2 km/h (1 Bft)
04.08.2017 19:24 22,7 °C 22,8 °C 79 % 1012,0 hPa 0,0 mm 8,0 km/h (2 Bft) W 269 ° 0 min 0,000 mm 0,5 UV-I 67 W/m² 18,9 °C 22,7 °C 12,9 km/h (3 Bft)
04.08.2017 19:25 22,7 °C 22,7 °C 79 % 1012,0 hPa 0,0 mm 5,0 km/h (1 Bft) W-SW 247 ° 0 min 0,000 mm 0,5 UV-I 62 W/m² 18,9 °C 22,7 °C 9,7 km/h (2 Bft)
04.08.2017 19:26 22,7 °C 22,7 °C 79 % 1011,9 hPa 0,0 mm 0,9 km/h (0 Bft) W-SW 247 ° 0 min 0,000 mm 0,5 UV-I 60 W/m² 18,9 °C 22,7 °C 3,2 km/h (1 Bft)
04.08.2017 19:27 22,7 °C 22,7 °C 79 % 1011,9 hPa 0,0 mm 2,1 km/h (1 Bft) W 263 ° 0 min 0,000 mm 0,5 UV-I 58 W/m² 18,9 °C 22,7 °C 6,4 km/h (2 Bft)
04.08.2017 19:28 22,6 °C 22,7 °C 79 % 1011,9 hPa 0,0 mm 4,8 km/h (1 Bft) SW 229 ° 0 min 0,000 mm 0,5 UV-I 56 W/m² 18,8 °C 22,6 °C 6,4 km/h (2 Bft)
04.08.2017 19:29 22,6 °C 22,6 °C 79 % 1011,9 hPa 0,0 mm 1,3 km/h (1 Bft) SW 229 ° 0 min 0,000 mm 0,0 UV-I 51 W/m² 18,8 °C 22,6 °C 3,2 km/h (1 Bft)
04.08.2017 19:30 22,6 °C 22,6 °C 79 % 1011,9 hPa 0,0 mm 1,4 km/h (1 Bft) SW 232 ° 0 min 0,000 mm 0,0 UV-I 44 W/m² 18,8 °C 22,6 °C 3,2 km/h (1 Bft)
04.08.2017 19:31 22,5 °C 22,6 °C 79 % 1011,9 hPa 0,0 mm 1,8 km/h (1 Bft) W-NW 284 ° 0 min 0,000 mm 0,0 UV-I 32 W/m² 18,7 °C 22,5 °C 4,8 km/h (1 Bft)
04.08.2017 19:32 22,4 °C 22,5 °C 80 % 1011,9 hPa 0,0 mm 5,4 km/h (1 Bft) W-SW 257 ° 0 min 0,000 mm 0,0 UV-I 32 W/m² 18,8 °C 22,4 °C 8,0 km/h (2 Bft)
04.08.2017 19:33 22,4 °C 22,4 °C 81 % 1011,9 hPa 0,0 mm 2,2 km/h (1 Bft) W-SW 257 ° 0 min 0,000 mm 0,0 UV-I 32 W/m² 19,0 °C 22,4 °C 3,2 km/h (1 Bft)
04.08.2017 19:34 22,3 °C 22,4 °C 80 % 1011,9 hPa 0,0 mm 0,1 km/h (0 Bft) W-SW 257 ° 0 min 0,000 mm 0,0 UV-I 32 W/m² 18,7 °C 22,3 °C 1,6 km/h (1 Bft)
04.08.2017 19:35 22,3 °C 22,3 °C 80 % 1011,9 hPa 0,0 mm 0,6 km/h (0 Bft) W-SW 257 ° 0 min 0,000 mm 0,0 UV-I 30 W/m² 18,7 °C 22,3 °C 1,6 km/h (1 Bft)
04.08.2017 19:36 22,3 °C 22,3 °C 80 % 1011,9 hPa 0,0 mm 3,3 km/h (1 Bft) SW 229 ° 0 min 0,000 mm 0,0 UV-I 28 W/m² 18,7 °C 22,3 °C 6,4 km/h (2 Bft)
04.08.2017 19:37 22,3 °C 22,3 °C 80 % 1011,9 hPa 0,0 mm 0,6 km/h (0 Bft) SW 229 ° 0 min 0,000 mm 0,0 UV-I 28 W/m² 18,7 °C 22,3 °C 1,6 km/h (1 Bft)
04.08.2017 19:38 22,2 °C 22,3 °C 80 % 1011,9 hPa 0,0 mm 2,2 km/h (1 Bft) SW 229 ° 0 min 0,000 mm 0,0 UV-I 26 W/m² 18,6 °C 22,2 °C 4,8 km/h (1 Bft)
04.08.2017 19:39 22,2 °C 22,2 °C 80 % 1011,9 hPa 0,0 mm 1,1 km/h (1 Bft) W-SW 252 ° 0 min 0,000 mm 0,0 UV-I 28 W/m² 18,6 °C 22,2 °C 3,2 km/h (1 Bft)
04.08.2017 19:40 22,1 °C 22,2 °C 80 % 1011,9 hPa 0,0 mm 2,5 km/h (1 Bft) W-SW 244 ° 0 min 0,000 mm 0,0 UV-I 30 W/m² 18,5 °C 22,1 °C 4,8 km/h (1 Bft)
04.08.2017 19:41 22,1 °C 22,1 °C 80 % 1011,9 hPa 0,0 mm 1,8 km/h (1 Bft) W-SW 244 ° 0 min 0,000 mm 0,0 UV-I 32 W/m² 18,5 °C 22,1 °C 3,2 km/h (1 Bft)
04.08.2017 19:42 22,1 °C 22,1 °C 80 % 1012,0 hPa 0,0 mm 1,8 km/h (1 Bft) W-SW 244 ° 0 min 0,000 mm 0,0 UV-I 33 W/m² 18,5 °C 22,1 °C 4,8 km/h (1 Bft)
04.08.2017 19:43 22,1 °C 22,1 °C 80 % 1012,0 hPa 0,0 mm 2,9 km/h (1 Bft) S-SW 200 ° 0 min 0,000 mm 0,0 UV-I 44 W/m² 18,5 °C 22,1 °C 4,8 km/h (1 Bft)
04.08.2017 19:44 22,1 °C 22,1 °C 80 % 1012,0 hPa 0,0 mm 2,7 km/h (1 Bft) S-SW 200 ° 0 min 0,000 mm 0,0 UV-I 53 W/m² 18,5 °C 22,1 °C 4,8 km/h (1 Bft)
04.08.2017 19:45 22,2 °C 22,2 °C 80 % 1012,0 hPa 0,0 mm 4,7 km/h (1 Bft) S 186 ° 0 min 0,000 mm 0,0 UV-I 60 W/m² 18,6 °C 22,2 °C 6,4 km/h (2 Bft)
04.08.2017 19:46 22,2 °C 22,2 °C 79 % 1012,0 hPa 0,0 mm 2,6 km/h (1 Bft) S-SW 211 ° 0 min 0,000 mm 0,0 UV-I 65 W/m² 18,4 °C 22,2 °C 4,8 km/h (1 Bft)
04.08.2017 19:47 22,2 °C 22,2 °C 79 % 1012,0 hPa 0,0 mm 2,0 km/h (1 Bft) S-SW 211 ° 0 min 0,000 mm 0,0 UV-I 65 W/m² 18,4 °C 22,2 °C 3,2 km/h (1 Bft)
04.08.2017 19:48 22,3 °C 22,3 °C 80 % 1012,1 hPa 0,0 mm 2,6 km/h (1 Bft) W-SW 245 ° 0 min 0,000 mm 0,0 UV-I 62 W/m² 18,7 °C 22,3 °C 11,3 km/h (2 Bft)
04.08.2017 19:49 22,3 °C 22,3 °C 80 % 1012,0 hPa 0,0 mm 4,6 km/h (1 Bft) W-SW 256 ° 0 min 0,000 mm 0,0 UV-I 53 W/m² 18,7 °C 22,3 °C 8,0 km/h (2 Bft)
04.08.2017 19:50 22,3 °C 22,3 °C 79 % 1012,0 hPa 0,0 mm 1,8 km/h (1 Bft) S 185 ° 0 min 0,000 mm 0,0 UV-I 46 W/m² 18,5 °C 22,3 °C 4,8 km/h (1 Bft)
04.08.2017 19:51 22,3 °C 22,3 °C 79 % 1012,1 hPa 0,0 mm 3,0 km/h (1 Bft) S-SW 193 ° 0 min 0,000 mm 0,0 UV-I 39 W/m² 18,5 °C 22,3 °C 4,8 km/h (1 Bft)
04.08.2017 19:52 22,3 °C 22,3 °C 79 % 1012,1 hPa 0,0 mm 4,4 km/h (1 Bft) S 185 ° 0 min 0,000 mm 0,0 UV-I 35 W/m² 18,5 °C 22,3 °C 8,0 km/h (2 Bft)
04.08.2017 19:53 22,3 °C 22,3 °C 79 % 1012,1 hPa 0,0 mm 3,4 km/h (1 Bft) S-SW 196 ° 0 min 0,000 mm 0,0 UV-I 33 W/m² 18,5 °C 22,3 °C 4,8 km/h (1 Bft)
04.08.2017 19:54 22,3 °C 22,3 °C 79 % 1012,1 hPa 0,0 mm 4,3 km/h (1 Bft) S 185 ° 0 min 0,000 mm 0,0 UV-I 32 W/m² 18,5 °C 22,3 °C 6,4 km/h (2 Bft)
04.08.2017 19:55 22,3 °C 22,3 °C 79 % 1012,1 hPa 0,0 mm 5,0 km/h (1 Bft) S-SO 168 ° 0 min 0,000 mm 0,0 UV-I 30 W/m² 18,5 °C 22,3 °C 8,0 km/h (2 Bft)
04.08.2017 19:56 22,3 °C 22,3 °C 79 % 1012,1 hPa 0,0 mm 3,2 km/h (1 Bft) S 175 ° 0 min 0,000 mm 0,0 UV-I 28 W/m² 18,5 °C 22,3 °C 8,0 km/h (2 Bft)
04.08.2017 19:57 22,2 °C 22,3 °C 79 % 1012,1 hPa 0,0 mm 2,9 km/h (1 Bft) S-SW 203 ° 0 min 0,000 mm 0,0 UV-I 28 W/m² 18,4 °C 22,2 °C 4,8 km/h (1 Bft)
04.08.2017 19:58 22,2 °C 22,2 °C 80 % 1012,2 hPa 0,0 mm 3,7 km/h (1 Bft) SW 232 ° 0 min 0,000 mm 0,0 UV-I 28 W/m² 18,6 °C 22,2 °C 6,4 km/h (2 Bft)
04.08.2017 19:59 22,2 °C 22,2 °C 80 % 1012,2 hPa 0,0 mm 1,1 km/h (1 Bft) SW 232 ° 0 min 0,000 mm 0,0 UV-I 28 W/m² 18,6 °C 22,2 °C 3,2 km/h (1 Bft)
04.08.2017 20:00 22,1 °C 22,2 °C 80 % 1012,1 hPa 0,0 mm 2,8 km/h (1 Bft) SW 220 ° 0 min 0,000 mm 0,0 UV-I 26 W/m² 18,5 °C 22,1 °C 4,8 km/h (1 Bft)
04.08.2017 20:01 22,1 °C 22,1 °C 80 % 1012,2 hPa 0,0 mm 2,5 km/h (1 Bft) SW 221 ° 0 min 0,051 mm 0,0 UV-I 26 W/m² 18,5 °C 22,1 °C 3,2 km/h (1 Bft)
04.08.2017 20:02 22,0 °C 22,1 °C 80 % 1012,2 hPa 0,0 mm 1,1 km/h (1 Bft) SW 221 ° 0 min 0,000 mm 0,0 UV-I 25 W/m² 18,4 °C 22,0 °C 3,2 km/h (1 Bft)
04.08.2017 20:03 22,0 °C 22,0 °C 80 % 1012,2 hPa 0,0 mm 1,1 km/h (1 Bft) SW 221 ° 0 min 0,000 mm 0,0 UV-I 25 W/m² 18,4 °C 22,0 °C 1,6 km/h (1 Bft)
04.08.2017 20:04 21,9 °C 22,0 °C 81 % 1012,2 hPa 0,0 mm 0,1 km/h (0 Bft) SW 221 ° 0 min 0,000 mm 0,0 UV-I 25 W/m² 18,5 °C 21,9 °C 1,6 km/h (1 Bft)
04.08.2017 20:05 21,9 °C 21,9 °C 81 % 1012,2 hPa 0,0 mm 0,0 km/h (0 Bft) SW 221 ° 0 min 0,000 mm 0,0 UV-I 25 W/m² 18,5 °C 21,9 °C 0,0 km/h (0 Bft)
04.08.2017 20:06 21,8 °C 21,9 °C 81 % 1012,2 hPa 0,0 mm 0,7 km/h (0 Bft) SW 221 ° 0 min 0,000 mm 0,0 UV-I 25 W/m² 18,4 °C 21,8 °C 3,2 km/h (1 Bft)
04.08.2017 20:07 21,8 °C 21,8 °C 81 % 1012,3 hPa 0,0 mm 2,4 km/h (1 Bft) SW 220 ° 0 min 0,000 mm 0,0 UV-I 25 W/m² 18,4 °C 21,8 °C 3,2 km/h (1 Bft)
04.08.2017 20:08 21,8 °C 21,8 °C 82 % 1012,3 hPa 0,0 mm 1,7 km/h (1 Bft) SW 220 ° 0 min 0,000 mm 0,0 UV-I 23 W/m² 18,6 °C 21,8 °C 3,2 km/h (1 Bft)
04.08.2017 20:09 21,7 °C 21,8 °C 82 % 1012,2 hPa 0,0 mm 0,1 km/h (0 Bft) SW 220 ° 0 min 0,000 mm 0,0 UV-I 21 W/m² 18,5 °C 21,7 °C 1,6 km/h (1 Bft)
04.08.2017 20:10 21,7 °C 21,7 °C 82 % 1012,2 hPa 0,0 mm 0,0 km/h (0 Bft) SW 220 ° 0 min 0,000 mm 0,0 UV-I 19 W/m² 18,5 °C 21,7 °C 0,0 km/h (0 Bft)
04.08.2017 20:11 21,6 °C 21,7 °C 83 % 1012,3 hPa 0,0 mm 0,0 km/h (0 Bft) SW 220 ° 0 min 0,000 mm 0,0 UV-I 19 W/m² 18,6 °C 21,6 °C 0,0 km/h (0 Bft)
04.08.2017 20:12 21,5 °C 21,6 °C 83 % 1012,3 hPa 0,0 mm 0,0 km/h (0 Bft) SW 220 ° 0 min 0,000 mm 0,0 UV-I 18 W/m² 18,5 °C 21,5 °C 0,0 km/h (0 Bft)
04.08.2017 20:13 21,5 °C 21,5 °C 83 % 1012,3 hPa 0,0 mm 0,3 km/h (0 Bft) SW 220 ° 0 min 0,000 mm 0,0 UV-I 18 W/m² 18,5 °C 21,5 °C 1,6 km/h (1 Bft)
04.08.2017 20:14 21,5 °C 21,5 °C 83 % 1012,2 hPa 0,0 mm 0,8 km/h (0 Bft) SW 220 ° 0 min 0,000 mm 0,0 UV-I 16 W/m² 18,5 °C 21,5 °C 3,2 km/h (1 Bft)
04.08.2017 20:15 21,4 °C 21,5 °C 83 % 1012,2 hPa 0,0 mm 1,5 km/h (1 Bft) SW 220 ° 0 min 0,000 mm 0,0 UV-I 14 W/m² 18,4 °C 21,4 °C 3,2 km/h (1 Bft)
04.08.2017 20:16 21,4 °C 21,4 °C 83 % 1012,2 hPa 0,0 mm 1,6 km/h (1 Bft) SW 220 ° 0 min 0,000 mm 0,0 UV-I 14 W/m² 18,4 °C 21,4 °C 3,2 km/h (1 Bft)
04.08.2017 20:17 21,4 °C 21,4 °C 83 % 1012,3 hPa 0,0 mm 1,2 km/h (1 Bft) S-SW 208 ° 0 min 0,000 mm 0,0 UV-I 12 W/m² 18,4 °C 21,4 °C 3,2 km/h (1 Bft)
04.08.2017 20:18 21,5 °C 21,5 °C 82 % 1012,3 hPa 0,0 mm 2,5 km/h (1 Bft) S-SW 208 ° 0 min 0,000 mm 0,0 UV-I 12 W/m² 18,3 °C 21,5 °C 4,8 km/h (1 Bft)
04.08.2017 20:19 21,6 °C 21,6 °C 83 % 1012,3 hPa 0,0 mm 0,3 km/h (0 Bft) S-SW 208 ° 0 min 0,000 mm 0,0 UV-I 11 W/m² 18,6 °C 21,6 °C 1,6 km/h (1 Bft)
04.08.2017 20:20 21,6 °C 21,6 °C 83 % 1012,3 hPa 0,0 mm 2,0 km/h (1 Bft) S-SW 208 ° 0 min 0,000 mm 0,0 UV-I 11 W/m² 18,6 °C 21,6 °C 3,2 km/h (1 Bft)
04.08.2017 20:21 21,6 °C 21,6 °C 83 % 1012,3 hPa 0,0 mm 1,7 km/h (1 Bft) S-SW 208 ° 0 min 0,000 mm 0,0 UV-I 11 W/m² 18,6 °C 21,6 °C 3,2 km/h (1 Bft)
04.08.2017 20:22 21,6 °C 21,6 °C 83 % 1012,4 hPa 0,0 mm 0,9 km/h (0 Bft) S-SW 208 ° 0 min 0,000 mm 0,0 UV-I 11 W/m² 18,6 °C 21,6 °C 1,6 km/h (1 Bft)
04.08.2017 20:23 21,4 °C 21,6 °C 83 % 1012,3 hPa 0,0 mm 0,0 km/h (0 Bft) S-SW 208 ° 0 min 0,000 mm 0,0 UV-I 11 W/m² 18,4 °C 21,4 °C 0,0 km/h (0 Bft)
04.08.2017 20:24 21,4 °C 21,4 °C 83 % 1012,3 hPa 0,0 mm 2,0 km/h (1 Bft) S-SW 197 ° 0 min 0,000 mm 0,0 UV-I 11 W/m² 18,4 °C 21,4 °C 6,4 km/h (2 Bft)
04.08.2017 20:25 21,4 °C 21,4 °C 83 % 1012,4 hPa 0,0 mm 1,7 km/h (1 Bft) S-SW 197 ° 0 min 0,000 mm 0,0 UV-I 9 W/m² 18,4 °C 21,4 °C 3,2 km/h (1 Bft)
04.08.2017 20:26 21,4 °C 21,4 °C 84 % 1012,3 hPa 0,0 mm 3,1 km/h (1 Bft) S-SW 197 ° 0 min 0,000 mm 0,0 UV-I 7 W/m² 18,6 °C 21,4 °C 6,4 km/h (2 Bft)
04.08.2017 20:27 21,4 °C 21,4 °C 83 % 1012,3 hPa 0,0 mm 1,5 km/h (1 Bft) S-SW 192 ° 0 min 0,000 mm 0,0 UV-I 7 W/m² 18,4 °C 21,4 °C 3,2 km/h (1 Bft)
04.08.2017 20:28 21,4 °C 21,4 °C 83 % 1012,4 hPa 0,0 mm 0,3 km/h (0 Bft) S-SW 192 ° 0 min 0,000 mm 0,0 UV-I 7 W/m² 18,4 °C 21,4 °C 1,6 km/h (1 Bft)
04.08.2017 20:29 21,4 °C 21,4 °C 83 % 1012,3 hPa 0,0 mm 1,0 km/h (0 Bft) S-SW 192 ° 0 min 0,000 mm 0,0 UV-I 7 W/m² 18,4 °C 21,4 °C 3,2 km/h (1 Bft)
04.08.2017 20:30 21,4 °C 21,4 °C 82 % 1012,4 hPa 0,0 mm 2,5 km/h (1 Bft) S-SW 192 ° 0 min 0,000 mm 0,0 UV-I 7 W/m² 18,2 °C 21,4 °C 4,8 km/h (1 Bft)
04.08.2017 20:31 21,4 °C 21,4 °C 83 % 1012,4 hPa 0,0 mm 2,5 km/h (1 Bft) S-SW 192 ° 0 min 0,000 mm 0,0 UV-I 9 W/m² 18,4 °C 21,4 °C 3,2 km/h (1 Bft)
04.08.2017 20:32 21,5 °C 21,5 °C 82 % 1012,4 hPa 0,0 mm 3,1 km/h (1 Bft) S-SW 192 ° 0 min 0,000 mm 0,0 UV-I 11 W/m² 18,3 °C 21,5 °C 4,8 km/h (1 Bft)
04.08.2017 20:33 21,6 °C 21,6 °C 82 % 1012,4 hPa 0,0 mm 3,7 km/h (1 Bft) S-SW 192 ° 0 min 0,000 mm 0,0 UV-I 11 W/m² 18,4 °C 21,6 °C 4,8 km/h (1 Bft)
04.08.2017 20:34 21,6 °C 21,6 °C 81 % 1012,4 hPa 0,0 mm 3,3 km/h (1 Bft) S 189 ° 0 min 0,000 mm 0,0 UV-I 12 W/m² 18,2 °C 21,6 °C 4,8 km/h (1 Bft)
04.08.2017 20:35 21,6 °C 21,6 °C 81 % 1012,4 hPa 0,0 mm 3,1 km/h (1 Bft) S 189 ° 0 min 0,000 mm 0,0 UV-I 14 W/m² 18,2 °C 21,6 °C 4,8 km/h (1 Bft)
04.08.2017 20:36 21,7 °C 21,7 °C 81 % 1012,4 hPa 0,0 mm 1,5 km/h (1 Bft) S 189 ° 0 min 0,000 mm 0,0 UV-I 12 W/m² 18,3 °C 21,7 °C 3,2 km/h (1 Bft)
04.08.2017 20:37 21,7 °C 21,7 °C 81 % 1012,4 hPa 0,0 mm 1,9 km/h (1 Bft) S 190 ° 0 min 0,000 mm 0,0 UV-I 12 W/m² 18,3 °C 21,7 °C 3,2 km/h (1 Bft)
04.08.2017 20:38 21,7 °C 21,7 °C 80 % 1012,4 hPa 0,0 mm 1,9 km/h (1 Bft) S 190 ° 0 min 0,000 mm 0,0 UV-I 11 W/m² 18,1 °C 21,7 °C 3,2 km/h (1 Bft)
04.08.2017 20:39 21,7 °C 21,7 °C 80 % 1012,5 hPa 0,0 mm 0,0 km/h (0 Bft) S 190 ° 0 min 0,000 mm 0,0 UV-I 9 W/m² 18,1 °C 21,7 °C 0,0 km/h (0 Bft)
04.08.2017 20:40 21,7 °C 21,7 °C 81 % 1012,5 hPa 0,0 mm 0,1 km/h (0 Bft) S 190 ° 0 min 0,000 mm 0,0 UV-I 9 W/m² 18,3 °C 21,7 °C 1,6 km/h (1 Bft)
04.08.2017 20:41 21,7 °C 21,7 °C 81 % 1012,5 hPa 0,0 mm 0,9 km/h (0 Bft) S-SW 205 ° 0 min 0,000 mm 0,0 UV-I 5 W/m² 18,3 °C 21,7 °C 3,2 km/h (1 Bft)
04.08.2017 20:42 21,6 °C 21,7 °C 81 % 1012,5 hPa 0,0 mm 0,1 km/h (0 Bft) S-SW 205 ° 0 min 0,000 mm 0,0 UV-I 5 W/m² 18,2 °C 21,6 °C 1,6 km/h (1 Bft)
04.08.2017 20:43 21,6 °C 21,6 °C 81 % 1012,5 hPa 0,0 mm 0,8 km/h (0 Bft) S-SW 210 ° 0 min 0,000 mm 0,0 UV-I 0 W/m² 18,2 °C 21,6 °C 3,2 km/h (1 Bft)
04.08.2017 20:44 21,6 °C 21,6 °C 81 % 1012,5 hPa 0,0 mm 0,9 km/h (0 Bft) S-SW 210 ° 0 min 0,000 mm 0,0 UV-I 0 W/m² 18,2 °C 21,6 °C 3,2 km/h (1 Bft)
04.08.2017 20:45 21,5 °C 21,6 °C 81 % 1012,5 hPa 0,0 mm 0,1 km/h (0 Bft) S-SW 209 ° 0 min 0,000 mm 0,0 UV-I 0 W/m² 18,1 °C 21,5 °C 1,6 km/h (1 Bft)
04.08.2017 20:46 21,5 °C 21,5 °C 81 % 1012,6 hPa 0,0 mm 2,2 km/h (1 Bft) W-SW 250 ° 0 min 0,000 mm 0,0 UV-I 0 W/m² 18,1 °C 21,5 °C 4,8 km/h (1 Bft)
04.08.2017 20:47 21,5 °C 21,5 °C 81 % 1012,6 hPa 0,0 mm 0,2 km/h (0 Bft) W-SW 250 ° 0 min 0,000 mm 0,0 UV-I 0 W/m² 18,1 °C 21,5 °C 1,6 km/h (1 Bft)
04.08.2017 20:48 21,5 °C 21,6 °C 81 % 1012,6 hPa 0,0 mm 2,1 km/h (1 Bft) W-SW 240 ° 0 min 0,000 mm 0,0 UV-I 0 W/m² 18,1 °C 21,5 °C 4,8 km/h (1 Bft)
04.08.2017 20:49 21,6 °C 21,6 °C 81 % 1012,6 hPa 0,0 mm 0,4 km/h (0 Bft) W-SW 240 ° 0 min 0,000 mm 0,0 UV-I 0 W/m² 18,2 °C 21,6 °C 1,6 km/h (1 Bft)
04.08.2017 20:50 21,5 °C 21,6 °C 81 % 1012,5 hPa 0,0 mm 0,2 km/h (0 Bft) W-SW 240 ° 0 min 0,000 mm 0,0 UV-I 0 W/m² 18,1 °C 21,5 °C 1,6 km/h (1 Bft)
04.08.2017 20:51 21,6 °C 21,6 °C 80 % 1012,6 hPa 0,0 mm 0,9 km/h (0 Bft) W-SW 240 ° 0 min 0,000 mm 0,0 UV-I 0 W/m² 18,0 °C 21,6 °C 1,6 km/h (1 Bft)
04.08.2017 20:52 21,6 °C 21,6 °C 80 % 1012,6 hPa 0,0 mm 0,0 km/h (0 Bft) W-SW 240 ° 0 min 0,000 mm 0,0 UV-I 0 W/m² 18,0 °C 21,6 °C 0,0 km/h (0 Bft)
04.08.2017 20:53 21,6 °C 21,6 °C 80 % 1012,6 hPa 0,0 mm 2,1 km/h (1 Bft) W-SW 258 ° 0 min 0,000 mm 0,0 UV-I 0 W/m² 18,0 °C 21,6 °C 6,4 km/h (2 Bft)
04.08.2017 20:54 21,6 °C 21,6 °C 81 % 1012,6 hPa 0,0 mm 1,5 km/h (1 Bft) W-SW 258 ° 0 min 0,000 mm 0,0 UV-I 0 W/m² 18,2 °C 21,6 °C 4,8 km/h (1 Bft)
04.08.2017 20:55 21,6 °C 21,6 °C 81 % 1012,6 hPa 0,0 mm 2,5 km/h (1 Bft) W 259 ° 0 min 0,000 mm 0,0 UV-I 0 W/m² 18,2 °C 21,6 °C 6,4 km/h (2 Bft)
04.08.2017 20:56 21,6 °C 21,6 °C 81 % 1012,5 hPa 0,0 mm 0,0 km/h (0 Bft) W 259 ° 0 min 0,000 mm 0,0 UV-I 0 W/m² 18,2 °C 21,6 °C 0,0 km/h (0 Bft)
04.08.2017 20:57 21,6 °C 21,6 °C 81 % 1012,6 hPa 0,0 mm 0,6 km/h (0 Bft) W 259 ° 0 min 0,000 mm 0,0 UV-I 0 W/m² 18,2 °C 21,6 °C 3,2 km/h (1 Bft)
04.08.2017 20:58 21,6 °C 21,6 °C 81 % 1012,6 hPa 0,0 mm 0,3 km/h (0 Bft) W 259 ° 0 min 0,000 mm 0,0 UV-I 0 W/m² 18,2 °C 21,6 °C 1,6 km/h (1 Bft)
04.08.2017 20:59 21,6 °C 21,6 °C 81 % 1012,6 hPa 0,0 mm 0,0 km/h (0 Bft) W 259 ° 0 min 0,000 mm 0,0 UV-I 0 W/m² 18,2 °C 21,6 °C 0,0 km/h (0 Bft)
04.08.2017 21:00 21,6 °C 21,6 °C 81 % 1012,6 hPa 0,0 mm 0,3 km/h (0 Bft) W 259 ° 0 min 0,025 mm 0,0 UV-I 0 W/m² 18,2 °C 21,6 °C 1,6 km/h (1 Bft)
04.08.2017 21:01 21,6 °C 21,6 °C 81 % 1012,6 hPa 0,0 mm 1,5 km/h (1 Bft) W-SW 258 ° 0 min 0,000 mm 0,0 UV-I 0 W/m² 18,2 °C 21,6 °C 4,8 km/h (1 Bft)
04.08.2017 21:02 21,6 °C 21,6 °C 80 % 1012,6 hPa 0,0 mm 2,7 km/h (1 Bft) S-SW 211 ° 0 min 0,000 mm 0,0 UV-I 0 W/m² 18,0 °C 21,6 °C 4,8 km/h (1 Bft)
04.08.2017 21:03 21,7 °C 21,7 °C 80 % 1012,7 hPa 0,0 mm 1,5 km/h (1 Bft) S-SW 211 ° 0 min 0,000 mm 0,0 UV-I 0 W/m² 18,1 °C 21,7 °C 4,8 km/h (1 Bft)
04.08.2017 21:04 21,7 °C 21,7 °C 80 % 1012,6 hPa 0,0 mm 0,2 km/h (0 Bft) S-SW 211 ° 0 min 0,000 mm 0,0 UV-I 0 W/m² 18,1 °C 21,7 °C 1,6 km/h (1 Bft)
04.08.2017 21:05 21,7 °C 21,7 °C 80 % 1012,7 hPa 0,0 mm 1,4 km/h (1 Bft) S-SW 211 ° 0 min 0,000 mm 0,0 UV-I 0 W/m² 18,1 °C 21,7 °C 1,6 km/h (1 Bft)
04.08.2017 21:06 21,7 °C 21,7 °C 80 % 1012,6 hPa 0,0 mm 0,5 km/h (0 Bft) S-SW 211 ° 0 min 0,000 mm 0,0 UV-I 0 W/m² 18,1 °C 21,7 °C 1,6 km/h (1 Bft)
04.08.2017 21:07 21,7 °C 21,7 °C 80 % 1012,7 hPa 0,0 mm 0,0 km/h (0 Bft) S-SW 211 ° 0 min 0,000 mm 0,0 UV-I 0 W/m² 18,1 °C 21,7 °C 0,0 km/h (0 Bft)
04.08.2017 21:08 21,7 °C 21,7 °C 80 % 1012,7 hPa 0,0 mm 0,2 km/h (0 Bft) SW 215 ° 0 min 0,000 mm 0,0 UV-I 0 W/m² 18,1 °C 21,7 °C 1,6 km/h (1 Bft)
04.08.2017 21:09 21,7 °C 21,7 °C 79 % 1012,7 hPa 0,0 mm 1,0 km/h (0 Bft) S-SW 213 ° 0 min 0,000 mm 0,0 UV-I 0 W/m² 17,9 °C 21,7 °C 4,8 km/h (1 Bft)
04.08.2017 21:10 21,7 °C 21,7 °C 80 % 1012,7 hPa 0,0 mm 0,0 km/h (0 Bft) S-SW 213 ° 0 min 0,000 mm 0,0 UV-I 0 W/m² 18,1 °C 21,7 °C 0,0 km/h (0 Bft)
04.08.2017 21:11 21,7 °C 21,7 °C 80 % 1012,7 hPa 0,0 mm 0,0 km/h (0 Bft) S-SW 213 ° 0 min 0,000 mm 0,0 UV-I 0 W/m² 18,1 °C 21,7 °C 0,0 km/h (0 Bft)
04.08.2017 21:12 21,7 °C 21,7 °C 80 % 1012,7 hPa 0,0 mm 0,9 km/h (0 Bft) S-SW 213 ° 0 min 0,000 mm 0,0 UV-I 0 W/m² 18,1 °C 21,7 °C 1,6 km/h (1 Bft)
04.08.2017 21:13 21,6 °C 21,7 °C 80 % 1012,7 hPa 0,0 mm 0,2 km/h (0 Bft) S-SW 213 ° 0 min 0,000 mm 0,0 UV-I 0 W/m² 18,0 °C 21,6 °C 1,6 km/h (1 Bft)
04.08.2017 21:14 21,6 °C 21,6 °C 81 % 1012,7 hPa 0,0 mm 2,3 km/h (1 Bft) W-SW 246 ° 0 min 0,000 mm 0,0 UV-I 0 W/m² 18,2 °C 21,6 °C 6,4 km/h (2 Bft)
04.08.2017 21:15 21,6 °C 21,6 °C 80 % 1012,8 hPa 0,0 mm 1,0 km/h (0 Bft) W-SW 246 ° 0 min 0,000 mm 0,0 UV-I 0 W/m² 18,0 °C 21,6 °C 3,2 km/h (1 Bft)
04.08.2017 21:16 21,6 °C 21,6 °C 80 % 1012,8 hPa 0,0 mm 0,0 km/h (0 Bft) W-SW 246 ° 0 min 0,000 mm 0,0 UV-I 0 W/m² 18,0 °C 21,6 °C 0,0 km/h (0 Bft)
04.08.2017 21:17 21,6 °C 21,6 °C 80 % 1012,9 hPa 0,0 mm 0,0 km/h (0 Bft) W-SW 246 ° 0 min 0,000 mm 0,0 UV-I 0 W/m² 18,0 °C 21,6 °C 0,0 km/h (0 Bft)
04.08.2017 21:19 21,4 °C 21,6 °C 81 % 1013,0 hPa 0,0 mm 0,7 km/h (0 Bft) W-SW 246 ° 0 min 0,000 mm 0,0 UV-I 0 W/m² 18,0 °C 21,4 °C 1,6 km/h (1 Bft)
04.08.2017 21:20 21,4 °C 21,4 °C 81 % 1013,0 hPa 0,0 mm 1,0 km/h (0 Bft) W-SW 246 ° 0 min 0,000 mm 0,0 UV-I 0 W/m² 18,0 °C 21,4 °C 1,6 km/h (1 Bft)
04.08.2017 21:21 21,4 °C 21,4 °C 81 % 1013,0 hPa 0,0 mm 0,6 km/h (0 Bft) W-SW 246 ° 0 min 0,000 mm 0,0 UV-I 0 W/m² 18,0 °C 21,4 °C 1,6 km/h (1 Bft)
04.08.2017 21:22 21,4 °C 21,4 °C 81 % 1013,0 hPa 0,0 mm 0,2 km/h (0 Bft) W-SW 246 ° 0 min 0,000 mm 0,0 UV-I 0 W/m² 18,0 °C 21,4 °C 3,2 km/h (1 Bft)
04.08.2017 21:23 21,4 °C 21,5 °C 81 % 1013,0 hPa 0,0 mm 0,5 km/h (0 Bft) W-SW 246 ° 0 min 0,000 mm 0,0 UV-I 0 W/m² 18,0 °C 21,4 °C 3,2 km/h (1 Bft)
04.08.2017 21:24 21,4 °C 21,5 °C 81 % 1013,0 hPa 0,0 mm 0,4 km/h (0 Bft) W-SW 246 ° 0 min 0,000 mm 0,0 UV-I 0 W/m² 18,0 °C 21,4 °C 1,6 km/h (1 Bft)
04.08.2017 21:25 21,4 °C 21,4 °C 81 % 1013,0 hPa 0,0 mm 0,0 km/h (0 Bft) W-SW 246 ° 0 min 0,000 mm 0,0 UV-I 0 W/m² 18,0 °C 21,4 °C 0,0 km/h (0 Bft)
04.08.2017 21:26 21,4 °C 21,4 °C 82 % 1013,0 hPa 0,0 mm 0,0 km/h (0 Bft) W-SW 246 ° 0 min 0,000 mm 0,0 UV-I 0 W/m² 18,2 °C 21,4 °C 0,0 km/h (0 Bft)
04.08.2017 21:27 21,3 °C 21,4 °C 82 % 1013,1 hPa 0,0 mm 0,0 km/h (0 Bft) W-SW 246 ° 0 min 0,000 mm 0,0 UV-I 0 W/m² 18,1 °C 21,3 °C 0,0 km/h (0 Bft)
04.08.2017 21:28 21,3 °C 21,3 °C 81 % 1013,1 hPa 0,0 mm 0,9 km/h (0 Bft) W-SW 246 ° 0 min 0,000 mm 0,0 UV-I 0 W/m² 17,9 °C 21,3 °C 3,2 km/h (1 Bft)
04.08.2017 21:29 21,3 °C 21,3 °C 81 % 1013,1 hPa 0,0 mm 1,0 km/h (0 Bft) W-SW 246 ° 0 min 0,000 mm 0,0 UV-I 0 W/m² 17,9 °C 21,3 °C 1,6 km/h (1 Bft)
04.08.2017 21:30 21,3 °C 21,3 °C 81 % 1013,1 hPa 0,0 mm 0,9 km/h (0 Bft) W-SW 246 ° 0 min 0,000 mm 0,0 UV-I 0 W/m² 17,9 °C 21,3 °C 3,2 km/h (1 Bft)
04.08.2017 21:31 21,3 °C 21,3 °C 81 % 1013,1 hPa 0,0 mm 0,9 km/h (0 Bft) W-SW 246 ° 0 min 0,000 mm 0,0 UV-I 0 W/m² 17,9 °C 21,3 °C 1,6 km/h (1 Bft)
04.08.2017 21:32 21,3 °C 21,3 °C 81 % 1013,1 hPa 0,0 mm 1,9 km/h (1 Bft) W-SW 246 ° 0 min 0,000 mm 0,0 UV-I 0 W/m² 17,9 °C 21,3 °C 3,2 km/h (1 Bft)
04.08.2017 21:34 21,4 °C 21,4 °C 80 % 1013,2 hPa 0,0 mm 1,7 km/h (1 Bft) W-SW 246 ° 0 min 0,000 mm 0,0 UV-I 0 W/m² 17,8 °C 21,4 °C 3,2 km/h (1 Bft)
04.08.2017 21:35 21,4 °C 21,4 °C 80 % 1013,2 hPa 0,0 mm 0,7 km/h (0 Bft) W-SW 246 ° 0 min 0,000 mm 0,0 UV-I 0 W/m² 17,8 °C 21,4 °C 1,6 km/h (1 Bft)
04.08.2017 21:36 21,4 °C 21,4 °C 81 % 1013,1 hPa 0,0 mm 0,0 km/h (0 Bft) W-SW 246 ° 0 min 0,000 mm 0,0 UV-I 0 W/m² 18,0 °C 21,4 °C 0,0 km/h (0 Bft)
04.08.2017 21:37 21,4 °C 21,4 °C 80 % 1013,1 hPa 0,0 mm 0,0 km/h (0 Bft) W-SW 246 ° 0 min 0,000 mm 0,0 UV-I 0 W/m² 17,8 °C 21,4 °C 0,0 km/h (0 Bft)
04.08.2017 21:38 21,4 °C 21,4 °C 80 % 1013,1 hPa 0,0 mm 0,0 km/h (0 Bft) W-SW 246 ° 0 min 0,000 mm 0,0 UV-I 0 W/m² 17,8 °C 21,4 °C 0,0 km/h (0 Bft)
04.08.2017 21:39 21,4 °C 21,4 °C 80 % 1013,1 hPa 0,0 mm 0,2 km/h (0 Bft) W-SW 246 ° 0 min 0,000 mm 0,0 UV-I 0 W/m² 17,8 °C 21,4 °C 1,6 km/h (1 Bft)
04.08.2017 21:40 21,4 °C 21,4 °C 80 % 1013,1 hPa 0,0 mm 2,2 km/h (1 Bft) W-SW 246 ° 0 min 0,000 mm 0,0 UV-I 0 W/m² 17,8 °C 21,4 °C 3,2 km/h (1 Bft)
04.08.2017 21:41 21,4 °C 21,4 °C 80 % 1013,1 hPa 0,0 mm 3,0 km/h (1 Bft) W-SW 246 ° 0 min 0,000 mm 0,0 UV-I 0 W/m² 17,8 °C 21,4 °C 4,8 km/h (1 Bft)
04.08.2017 21:42 21,4 °C 21,4 °C 80 % 1013,1 hPa 0,0 mm 2,6 km/h (1 Bft) W-SW 246 ° 0 min 0,000 mm 0,0 UV-I 0 W/m² 17,8 °C 21,4 °C 4,8 km/h (1 Bft)
04.08.2017 21:43 21,4 °C 21,4 °C 80 % 1013,1 hPa 0,0 mm 3,1 km/h (1 Bft) S-SW 213 ° 0 min 0,000 mm 0,0 UV-I 0 W/m² 17,8 °C 21,4 °C 4,8 km/h (1 Bft)
04.08.2017 21:44 21,5 °C 21,5 °C 80 % 1013,1 hPa 0,0 mm 3,0 km/h (1 Bft) S-SW 213 ° 0 min 0,000 mm 0,0 UV-I 0 W/m² 17,9 °C 21,5 °C 4,8 km/h (1 Bft)
04.08.2017 21:45 21,5 °C 21,5 °C 79 % 1013,1 hPa 0,0 mm 1,7 km/h (1 Bft) S-SW 213 ° 0 min 0,000 mm 0,0 UV-I 0 W/m² 17,7 °C 21,5 °C 3,2 km/h (1 Bft)
04.08.2017 21:46 21,4 °C 21,5 °C 81 % 1013,2 hPa 0,0 mm 2,7 km/h (1 Bft) S-SW 213 ° 0 min 0,000 mm 0,0 UV-I 0 W/m² 18,0 °C 21,4 °C 4,8 km/h (1 Bft)
04.08.2017 21:47 21,3 °C 21,4 °C 81 % 1013,2 hPa 0,0 mm 1,3 km/h (1 Bft) S-SW 213 ° 0 min 0,000 mm 0,0 UV-I 0 W/m² 17,9 °C 21,3 °C 3,2 km/h (1 Bft)
04.08.2017 21:48 21,3 °C 21,3 °C 82 % 1013,2 hPa 0,0 mm 0,6 km/h (0 Bft) S-SW 213 ° 0 min 0,000 mm 0,0 UV-I 0 W/m² 18,1 °C 21,3 °C 1,6 km/h (1 Bft)
04.08.2017 21:49 21,2 °C 21,3 °C 82 % 1013,2 hPa 0,0 mm 0,5 km/h (0 Bft) S-SW 213 ° 0 min 0,000 mm 0,0 UV-I 0 W/m² 18,0 °C 21,2 °C 1,6 km/h (1 Bft)
04.08.2017 21:50 21,1 °C 21,2 °C 82 % 1013,2 hPa 0,0 mm 1,5 km/h (1 Bft) S-SW 213 ° 0 min 0,000 mm 0,0 UV-I 0 W/m² 17,9 °C 21,1 °C 1,6 km/h (1 Bft)
04.08.2017 21:51 21,1 °C 21,1 °C 82 % 1013,2 hPa 0,0 mm 0,6 km/h (0 Bft) S-SW 213 ° 0 min 0,000 mm 0,0 UV-I 0 W/m² 17,9 °C 21,1 °C 1,6 km/h (1 Bft)
04.08.2017 21:52 21,1 °C 21,1 °C 82 % 1013,2 hPa 0,0 mm 0,0 km/h (0 Bft) S-SW 213 ° 0 min 0,000 mm 0,0 UV-I 0 W/m² 17,9 °C 21,1 °C 0,0 km/h (0 Bft)
04.08.2017 21:53 21,1 °C 21,1 °C 82 % 1013,2 hPa 0,0 mm 0,0 km/h (0 Bft) S-SW 213 ° 0 min 0,000 mm 0,0 UV-I 0 W/m² 17,9 °C 21,1 °C 0,0 km/h (0 Bft)
04.08.2017 21:54 21,1 °C 21,1 °C 82 % 1013,3 hPa 0,0 mm 0,0 km/h (0 Bft) S-SW 213 ° 0 min 0,000 mm 0,0 UV-I 0 W/m² 17,9 °C 21,1 °C 0,0 km/h (0 Bft)
04.08.2017 21:55 21,1 °C 21,1 °C 82 % 1013,3 hPa 0,0 mm 0,0 km/h (0 Bft) S-SW 213 ° 0 min 0,000 mm 0,0 UV-I 0 W/m² 17,9 °C 21,1 °C 0,0 km/h (0 Bft)
04.08.2017 21:56 21,1 °C 21,1 °C 82 % 1013,3 hPa 0,0 mm 0,0 km/h (0 Bft) S-SW 213 ° 0 min 0,000 mm 0,0 UV-I 0 W/m² 17,9 °C 21,1 °C 0,0 km/h (0 Bft)
04.08.2017 21:57 21,0 °C 21,1 °C 83 % 1013,2 hPa 0,0 mm 0,0 km/h (0 Bft) S-SW 213 ° 0 min 0,000 mm 0,0 UV-I 0 W/m² 18,0 °C 21,0 °C 0,0 km/h (0 Bft)
04.08.2017 21:58 20,9 °C 21,0 °C 84 % 1013,2 hPa 0,0 mm 0,0 km/h (0 Bft) S-SW 213 ° 0 min 0,000 mm 0,0 UV-I 0 W/m² 18,1 °C 20,9 °C 0,0 km/h (0 Bft)
04.08.2017 21:59 20,8 °C 20,9 °C 83 % 1013,3 hPa 0,0 mm 0,0 km/h (0 Bft) S-SW 213 ° 0 min 0,000 mm 0,0 UV-I 0 W/m² 17,8 °C 20,8 °C 0,0 km/h (0 Bft)
04.08.2017 22:00 20,8 °C 20,8 °C 83 % 1013,2 hPa 0,0 mm 0,0 km/h (0 Bft) S-SW 213 ° 0 min 0,000 mm 0,0 UV-I 0 W/m² 17,8 °C 20,8 °C 0,0 km/h (0 Bft)
04.08.2017 22:01 20,8 °C 20,8 °C 84 % 1013,2 hPa 0,0 mm 0,0 km/h (0 Bft) S-SW 213 ° 0 min 0,026 mm 0,0 UV-I 0 W/m² 18,0 °C 20,8 °C 0,0 km/h (0 Bft)
04.08.2017 22:02 20,7 °C 20,8 °C 83 % 1013,2 hPa 0,0 mm 0,0 km/h (0 Bft) S-SW 213 ° 0 min 0,000 mm 0,0 UV-I 0 W/m² 17,7 °C 20,7 °C 0,0 km/h (0 Bft)
04.08.2017 22:03 20,7 °C 20,7 °C 83 % 1013,2 hPa 0,0 mm 0,0 km/h (0 Bft) S-SW 213 ° 0 min 0,000 mm 0,0 UV-I 0 W/m² 17,7 °C 20,7 °C 0,0 km/h (0 Bft)
04.08.2017 22:04 20,7 °C 20,7 °C 83 % 1013,3 hPa 0,0 mm 0,0 km/h (0 Bft) S-SW 213 ° 0 min 0,000 mm 0,0 UV-I 0 W/m² 17,7 °C 20,7 °C 0,0 km/h (0 Bft)
04.08.2017 22:05 20,8 °C 20,8 °C 82 % 1013,3 hPa 0,0 mm 0,0 km/h (0 Bft) S-SW 213 ° 0 min 0,000 mm 0,0 UV-I 0 W/m² 17,6 °C 20,8 °C 0,0 km/h (0 Bft)
04.08.2017 22:06 20,8 °C 20,8 °C 83 % 1013,3 hPa 0,0 mm 0,0 km/h (0 Bft) S-SW 213 ° 0 min 0,000 mm 0,0 UV-I 0 W/m² 17,8 °C 20,8 °C 0,0 km/h (0 Bft)
04.08.2017 22:07 20,8 °C 20,8 °C 82 % 1013,3 hPa 0,0 mm 0,0 km/h (0 Bft) S-SW 213 ° 0 min 0,000 mm 0,0 UV-I 0 W/m² 17,6 °C 20,8 °C 0,0 km/h (0 Bft)
04.08.2017 22:08 20,8 °C 20,8 °C 83 % 1013,3 hPa 0,0 mm 0,8 km/h (0 Bft) S-SW 213 ° 0 min 0,000 mm 0,0 UV-I 0 W/m² 17,8 °C 20,8 °C 3,2 km/h (1 Bft)
04.08.2017 22:09 20,8 °C 20,9 °C 82 % 1013,3 hPa 0,0 mm 1,9 km/h (1 Bft) S-SW 213 ° 0 min 0,000 mm 0,0 UV-I 0 W/m² 17,6 °C 20,8 °C 3,2 km/h (1 Bft)
04.08.2017 22:10 20,9 °C 20,9 °C 83 % 1013,3 hPa 0,0 mm 0,4 km/h (0 Bft) S-SW 213 ° 0 min 0,000 mm 0,0 UV-I 0 W/m² 17,9 °C 20,9 °C 1,6 km/h (1 Bft)
04.08.2017 22:11 20,9 °C 20,9 °C 82 % 1013,3 hPa 0,0 mm 3,6 km/h (1 Bft) S-SW 212 ° 0 min 0,000 mm 0,0 UV-I 0 W/m² 17,7 °C 20,9 °C 6,4 km/h (2 Bft)
04.08.2017 22:12 20,9 °C 20,9 °C 82 % 1013,3 hPa 0,0 mm 4,3 km/h (1 Bft) S-SW 198 ° 0 min 0,000 mm 0,0 UV-I 0 W/m² 17,7 °C 20,9 °C 6,4 km/h (2 Bft)
04.08.2017 22:13 20,9 °C 20,9 °C 82 % 1013,3 hPa 0,0 mm 4,0 km/h (1 Bft) S-SW 198 ° 0 min 0,000 mm 0,0 UV-I 0 W/m² 17,7 °C 20,9 °C 4,8 km/h (1 Bft)
04.08.2017 22:14 20,9 °C 20,9 °C 83 % 1013,4 hPa 0,0 mm 3,5 km/h (1 Bft) S-SW 198 ° 0 min 0,000 mm 0,0 UV-I 0 W/m² 17,9 °C 20,9 °C 4,8 km/h (1 Bft)
04.08.2017 22:15 20,9 °C 20,9 °C 82 % 1013,4 hPa 0,0 mm 3,2 km/h (1 Bft) S-SW 198 ° 0 min 0,000 mm 0,0 UV-I 0 W/m² 17,7 °C 20,9 °C 6,4 km/h (2 Bft)
04.08.2017 22:16 20,9 °C 20,9 °C 82 % 1013,4 hPa 0,0 mm 3,2 km/h (1 Bft) S-SW 198 ° 0 min 0,000 mm 0,0 UV-I 0 W/m² 17,7 °C 20,9 °C 6,4 km/h (2 Bft)
04.08.2017 22:17 20,9 °C 20,9 °C 82 % 1013,5 hPa 0,0 mm 0,6 km/h (0 Bft) S-SW 198 ° 0 min 0,000 mm 0,0 UV-I 0 W/m² 17,7 °C 20,9 °C 1,6 km/h (1 Bft)
04.08.2017 22:18 20,9 °C 20,9 °C 82 % 1013,4 hPa 0,0 mm 1,7 km/h (1 Bft) S-SW 198 ° 0 min 0,000 mm 0,0 UV-I 0 W/m² 17,7 °C 20,9 °C 3,2 km/h (1 Bft)
04.08.2017 22:19 20,9 °C 20,9 °C 82 % 1013,4 hPa 0,0 mm 1,2 km/h (1 Bft) S-SW 198 ° 0 min 0,000 mm 0,0 UV-I 0 W/m² 17,7 °C 20,9 °C 3,2 km/h (1 Bft)
04.08.2017 22:20 21,0 °C 21,0 °C 81 % 1013,5 hPa 0,0 mm 1,7 km/h (1 Bft) S-SW 198 ° 0 min 0,000 mm 0,0 UV-I 0 W/m² 17,6 °C 21,0 °C 4,8 km/h (1 Bft)
04.08.2017 22:21 21,1 °C 21,1 °C 81 % 1013,6 hPa 0,0 mm 0,4 km/h (0 Bft) S-SW 198 ° 0 min 0,000 mm 0,0 UV-I 0 W/m² 17,7 °C 21,1 °C 1,6 km/h (1 Bft)
04.08.2017 22:22 21,1 °C 21,1 °C 81 % 1013,5 hPa 0,0 mm 0,0 km/h (0 Bft) S-SW 198 ° 0 min 0,000 mm 0,0 UV-I 0 W/m² 17,7 °C 21,1 °C 0,0 km/h (0 Bft)
04.08.2017 22:23 21,1 °C 21,1 °C 81 % 1013,5 hPa 0,0 mm 0,0 km/h (0 Bft) S-SW 198 ° 0 min 0,000 mm 0,0 UV-I 0 W/m² 17,7 °C 21,1 °C 0,0 km/h (0 Bft)
04.08.2017 22:24 21,1 °C 21,1 °C 82 % 1013,6 hPa 0,0 mm 0,0 km/h (0 Bft) S-SW 198 ° 0 min 0,000 mm 0,0 UV-I 0 W/m² 17,9 °C 21,1 °C 0,0 km/h (0 Bft)
04.08.2017 22:25 21,1 °C 21,1 °C 81 % 1013,6 hPa 0,0 mm 0,0 km/h (0 Bft) S-SW 198 ° 0 min 0,000 mm 0,0 UV-I 0 W/m² 17,7 °C 21,1 °C 0,0 km/h (0 Bft)
04.08.2017 22:26 21,1 °C 21,1 °C 80 % 1013,6 hPa 0,0 mm 0,4 km/h (0 Bft) S-SW 198 ° 0 min 0,000 mm 0,0 UV-I 0 W/m² 17,5 °C 21,1 °C 3,2 km/h (1 Bft)
04.08.2017 22:27 21,1 °C 21,1 °C 80 % 1013,6 hPa 0,0 mm 2,3 km/h (1 Bft) S-SW 198 ° 0 min 0,000 mm 0,0 UV-I 0 W/m² 17,5 °C 21,1 °C 4,8 km/h (1 Bft)
04.08.2017 22:28 21,2 °C 21,2 °C 80 % 1013,6 hPa 0,0 mm 0,5 km/h (0 Bft) S-SW 198 ° 0 min 0,000 mm 0,0 UV-I 0 W/m² 17,6 °C 21,2 °C 1,6 km/h (1 Bft)
04.08.2017 22:29 21,2 °C 21,2 °C 80 % 1013,6 hPa 0,0 mm 0,8 km/h (0 Bft) S-SW 198 ° 0 min 0,000 mm 0,0 UV-I 0 W/m² 17,6 °C 21,2 °C 3,2 km/h (1 Bft)
04.08.2017 22:30 21,3 °C 21,3 °C 80 % 1013,6 hPa 0,0 mm 1,7 km/h (1 Bft) S-SW 198 ° 0 min 0,000 mm 0,0 UV-I 0 W/m² 17,7 °C 21,3 °C 4,8 km/h (1 Bft)
04.08.2017 22:31 21,2 °C 21,3 °C 79 % 1013,6 hPa 0,0 mm 0,6 km/h (0 Bft) S-SW 198 ° 0 min 0,000 mm 0,0 UV-I 0 W/m² 17,4 °C 21,2 °C 1,6 km/h (1 Bft)
04.08.2017 22:32 21,3 °C 21,3 °C 80 % 1013,6 hPa 0,0 mm 2,8 km/h (1 Bft) S-SW 198 ° 0 min 0,000 mm 0,0 UV-I 0 W/m² 17,7 °C 21,3 °C 3,2 km/h (1 Bft)
04.08.2017 22:33 21,2 °C 21,3 °C 80 % 1013,6 hPa 0,0 mm 0,7 km/h (0 Bft) S-SW 198 ° 0 min 0,000 mm 0,0 UV-I 0 W/m² 17,6 °C 21,2 °C 1,6 km/h (1 Bft)
04.08.2017 22:34 21,2 °C 21,2 °C 79 % 1013,6 hPa 0,0 mm 1,0 km/h (0 Bft) S-SW 198 ° 0 min 0,000 mm 0,0 UV-I 0 W/m² 17,4 °C 21,2 °C 1,6 km/h (1 Bft)
04.08.2017 22:35 21,2 °C 21,2 °C 80 % 1013,6 hPa 0,0 mm 1,0 km/h (0 Bft) S-SW 198 ° 0 min 0,000 mm 0,0 UV-I 0 W/m² 17,6 °C 21,2 °C 3,2 km/h (1 Bft)
04.08.2017 22:36 21,2 °C 21,2 °C 80 % 1013,6 hPa 0,0 mm 0,1 km/h (0 Bft) S-SW 198 ° 0 min 0,000 mm 0,0 UV-I 0 W/m² 17,6 °C 21,2 °C 1,6 km/h (1 Bft)
04.08.2017 22:37 21,1 °C 21,2 °C 80 % 1013,6 hPa 0,0 mm 0,0 km/h (0 Bft) S-SW 198 ° 0 min 0,000 mm 0,0 UV-I 0 W/m² 17,5 °C 21,1 °C 0,0 km/h (0 Bft)
04.08.2017 22:38 21,0 °C 21,1 °C 81 % 1013,6 hPa 0,0 mm 0,0 km/h (0 Bft) S-SW 198 ° 0 min 0,000 mm 0,0 UV-I 0 W/m² 17,6 °C 21,0 °C 0,0 km/h (0 Bft)
04.08.2017 22:39 20,9 °C 21,0 °C 81 % 1013,6 hPa 0,0 mm 0,0 km/h (0 Bft) S-SW 198 ° 0 min 0,000 mm 0,0 UV-I 0 W/m² 17,5 °C 20,9 °C 0,0 km/h (0 Bft)
04.08.2017 22:40 20,8 °C 20,9 °C 81 % 1013,6 hPa 0,0 mm 0,0 km/h (0 Bft) S-SW 198 ° 0 min 0,000 mm 0,0 UV-I 0 W/m² 17,4 °C 20,8 °C 0,0 km/h (0 Bft)
04.08.2017 22:41 20,8 °C 20,8 °C 82 % 1013,6 hPa 0,0 mm 3,8 km/h (1 Bft) NW 315 ° 0 min 0,000 mm 0,0 UV-I 0 W/m² 17,6 °C 20,8 °C 8,0 km/h (2 Bft)
04.08.2017 22:42 20,6 °C 20,8 °C 84 % 1013,7 hPa 0,0 mm 6,0 km/h (2 Bft) NW 313 ° 0 min 0,000 mm 0,0 UV-I 0 W/m² 17,8 °C 20,6 °C 9,7 km/h (2 Bft)
04.08.2017 22:43 20,4 °C 20,6 °C 84 % 1013,7 hPa 0,0 mm 7,6 km/h (2 Bft) W-NW 290 ° 0 min 0,000 mm 0,0 UV-I 0 W/m² 17,6 °C 20,4 °C 11,3 km/h (2 Bft)
04.08.2017 22:44 20,4 °C 20,4 °C 82 % 1013,7 hPa 0,0 mm 4,3 km/h (1 Bft) W 278 ° 0 min 0,000 mm 0,0 UV-I 0 W/m² 17,2 °C 20,4 °C 6,4 km/h (2 Bft)
04.08.2017 22:45 20,3 °C 20,4 °C 82 % 1013,8 hPa 0,0 mm 4,2 km/h (1 Bft) W-NW 284 ° 0 min 0,000 mm 0,0 UV-I 0 W/m² 17,1 °C 20,3 °C 9,7 km/h (2 Bft)
04.08.2017 22:46 20,3 °C 20,3 °C 82 % 1013,9 hPa 0,0 mm 5,7 km/h (1 Bft) NW 315 ° 0 min 0,000 mm 0,0 UV-I 0 W/m² 17,1 °C 20,3 °C 9,7 km/h (2 Bft)
04.08.2017 22:47 20,3 °C 20,3 °C 82 % 1013,9 hPa 0,0 mm 3,5 km/h (1 Bft) N-NO 17 ° 0 min 0,000 mm 0,0 UV-I 0 W/m² 17,1 °C 20,3 °C 6,4 km/h (2 Bft)
04.08.2017 22:48 20,3 °C 20,3 °C 83 % 1013,9 hPa 0,0 mm 3,6 km/h (1 Bft) N 351 ° 0 min 0,000 mm 0,0 UV-I 0 W/m² 17,3 °C 20,3 °C 6,4 km/h (2 Bft)
04.08.2017 22:49 20,2 °C 20,3 °C 82 % 1014,0 hPa 0,0 mm 5,2 km/h (1 Bft) N-NW 343 ° 0 min 0,000 mm 0,0 UV-I 0 W/m² 17,0 °C 20,2 °C 9,7 km/h (2 Bft)
04.08.2017 22:50 20,2 °C 20,2 °C 81 % 1013,9 hPa 0,0 mm 5,9 km/h (2 Bft) N 355 ° 0 min 0,000 mm 0,0 UV-I 0 W/m² 16,8 °C 20,2 °C 9,7 km/h (2 Bft)
04.08.2017 22:51 20,2 °C 20,2 °C 81 % 1013,9 hPa 0,0 mm 4,1 km/h (1 Bft) N-NW 346 ° 0 min 0,000 mm 0,0 UV-I 0 W/m² 16,8 °C 20,2 °C 6,4 km/h (2 Bft)
04.08.2017 22:52 20,2 °C 20,2 °C 81 % 1013,9 hPa 0,0 mm 2,7 km/h (1 Bft) N-NW 347 ° 0 min 0,000 mm 0,0 UV-I 0 W/m² 16,8 °C 20,2 °C 4,8 km/h (1 Bft)
04.08.2017 22:53 20,2 °C 20,2 °C 81 % 1013,9 hPa 0,0 mm 3,0 km/h (1 Bft) N-NW 347 ° 0 min 0,000 mm 0,0 UV-I 0 W/m² 16,8 °C 20,2 °C 4,8 km/h (1 Bft)
04.08.2017 22:54 20,1 °C 20,2 °C 80 % 1013,9 hPa 0,0 mm 0,3 km/h (0 Bft) N-NW 347 ° 0 min 0,000 mm 0,0 UV-I 0 W/m² 16,5 °C 20,1 °C 1,6 km/h (1 Bft)
04.08.2017 22:55 20,1 °C 20,1 °C 80 % 1013,8 hPa 0,0 mm 0,1 km/h (0 Bft) N-NW 347 ° 0 min 0,000 mm 0,0 UV-I 0 W/m² 16,5 °C 20,1 °C 1,6 km/h (1 Bft)
04.08.2017 22:56 20,1 °C 20,1 °C 81 % 1013,8 hPa 0,0 mm 0,0 km/h (0 Bft) N-NW 347 ° 0 min 0,000 mm 0,0 UV-I 0 W/m² 16,7 °C 20,1 °C 0,0 km/h (0 Bft)
04.08.2017 22:57 20,0 °C 20,1 °C 81 % 1013,7 hPa 0,0 mm 0,7 km/h (0 Bft) N-NW 347 ° 0 min 0,000 mm 0,0 UV-I 0 W/m² 16,6 °C 20,0 °C 3,2 km/h (1 Bft)
04.08.2017 22:58 20,0 °C 20,1 °C 81 % 1013,8 hPa 0,0 mm 1,7 km/h (1 Bft) N-NW 347 ° 0 min 0,000 mm 0,0 UV-I 0 W/m² 16,6 °C 20,0 °C 3,2 km/h (1 Bft)
04.08.2017 22:59 19,9 °C 20,0 °C 81 % 1013,8 hPa 0,0 mm 0,1 km/h (0 Bft) N-NW 347 ° 0 min 0,000 mm 0,0 UV-I 0 W/m² 16,5 °C 19,9 °C 1,6 km/h (1 Bft)
04.08.2017 23:00 19,9 °C 19,9 °C 81 % 1013,8 hPa 0,0 mm 0,0 km/h (0 Bft) N-NW 347 ° 0 min 0,000 mm 0,0 UV-I 0 W/m² 16,5 °C 19,9 °C 0,0 km/h (0 Bft)
04.08.2017 23:01 19,9 °C 19,9 °C 81 % 1013,8 hPa 0,0 mm 0,0 km/h (0 Bft) N-NW 347 ° 0 min 0,025 mm 0,0 UV-I 0 W/m² 16,5 °C 19,9 °C 0,0 km/h (0 Bft)
04.08.2017 23:02 19,8 °C 19,9 °C 80 % 1013,8 hPa 0,0 mm 0,0 km/h (0 Bft) N-NW 347 ° 0 min 0,000 mm 0,0 UV-I 0 W/m² 16,2 °C 19,8 °C 0,0 km/h (0 Bft)
04.08.2017 23:03 19,8 °C 19,8 °C 80 % 1013,8 hPa 0,0 mm 0,0 km/h (0 Bft) N-NW 347 ° 0 min 0,000 mm 0,0 UV-I 0 W/m² 16,2 °C 19,8 °C 0,0 km/h (0 Bft)
04.08.2017 23:04 19,8 °C 19,8 °C 80 % 1013,8 hPa 0,0 mm 0,0 km/h (0 Bft) N-NW 347 ° 0 min 0,000 mm 0,0 UV-I 0 W/m² 16,2 °C 19,8 °C 0,0 km/h (0 Bft)
04.08.2017 23:05 19,8 °C 19,8 °C 80 % 1013,7 hPa 0,0 mm 0,0 km/h (0 Bft) N-NW 347 ° 0 min 0,000 mm 0,0 UV-I 0 W/m² 16,2 °C 19,8 °C 0,0 km/h (0 Bft)
04.08.2017 23:06 19,7 °C 19,8 °C 81 % 1013,7 hPa 0,0 mm 0,0 km/h (0 Bft) N-NW 347 ° 0 min 0,000 mm 0,0 UV-I 0 W/m² 16,3 °C 19,7 °C 0,0 km/h (0 Bft)
04.08.2017 23:07 19,7 °C 19,7 °C 81 % 1013,8 hPa 0,0 mm 0,0 km/h (0 Bft) N-NW 347 ° 0 min 0,000 mm 0,0 UV-I 0 W/m² 16,3 °C 19,7 °C 0,0 km/h (0 Bft)
04.08.2017 23:08 19,6 °C 19,7 °C 81 % 1013,7 hPa 0,0 mm 0,0 km/h (0 Bft) N-NW 347 ° 0 min 0,000 mm 0,0 UV-I 0 W/m² 16,2 °C 19,6 °C 0,0 km/h (0 Bft)
04.08.2017 23:09 19,6 °C 19,6 °C 82 % 1013,8 hPa 0,0 mm 0,0 km/h (0 Bft) N-NW 347 ° 0 min 0,000 mm 0,0 UV-I 0 W/m² 16,4 °C 19,6 °C 0,0 km/h (0 Bft)
04.08.2017 23:10 19,5 °C 19,6 °C 82 % 1013,8 hPa 0,0 mm 0,0 km/h (0 Bft) N-NW 347 ° 0 min 0,000 mm 0,0 UV-I 0 W/m² 16,3 °C 19,5 °C 0,0 km/h (0 Bft)
04.08.2017 23:11 19,5 °C 19,6 °C 82 % 1013,7 hPa 0,0 mm 0,1 km/h (0 Bft) N-NW 347 ° 0 min 0,000 mm 0,0 UV-I 0 W/m² 16,3 °C 19,5 °C 1,6 km/h (1 Bft)
04.08.2017 23:12 19,4 °C 19,5 °C 82 % 1013,8 hPa 0,0 mm 0,0 km/h (0 Bft) N-NW 347 ° 0 min 0,000 mm 0,0 UV-I 0 W/m² 16,2 °C 19,4 °C 0,0 km/h (0 Bft)
04.08.2017 23:13 19,4 °C 19,4 °C 82 % 1013,8 hPa 0,0 mm 0,0 km/h (0 Bft) N-NW 347 ° 0 min 0,000 mm 0,0 UV-I 0 W/m² 16,2 °C 19,4 °C 0,0 km/h (0 Bft)
04.08.2017 23:14 19,4 °C 19,4 °C 83 % 1013,7 hPa 0,0 mm 0,0 km/h (0 Bft) N-NW 347 ° 0 min 0,000 mm 0,0 UV-I 0 W/m² 16,4 °C 19,4 °C 0,0 km/h (0 Bft)
04.08.2017 23:15 19,4 °C 19,4 °C 83 % 1013,7 hPa 0,0 mm 0,0 km/h (0 Bft) N-NW 347 ° 0 min 0,000 mm 0,0 UV-I 0 W/m² 16,4 °C 19,4 °C 0,0 km/h (0 Bft)
04.08.2017 23:16 19,3 °C 19,4 °C 83 % 1013,7 hPa 0,0 mm 0,1 km/h (0 Bft) N-NW 347 ° 0 min 0,000 mm 0,0 UV-I 0 W/m² 16,3 °C 19,3 °C 1,6 km/h (1 Bft)
04.08.2017 23:17 19,3 °C 19,4 °C 83 % 1013,7 hPa 0,0 mm 1,3 km/h (1 Bft) N-NW 347 ° 0 min 0,000 mm 0,0 UV-I 0 W/m² 16,3 °C 19,3 °C 3,2 km/h (1 Bft)
04.08.2017 23:18 19,3 °C 19,3 °C 83 % 1013,8 hPa 0,0 mm 1,9 km/h (1 Bft) N-NW 347 ° 0 min 0,000 mm 0,0 UV-I 0 W/m² 16,3 °C 19,3 °C 3,2 km/h (1 Bft)
04.08.2017 23:19 19,3 °C 19,3 °C 83 % 1013,8 hPa 0,0 mm 0,4 km/h (0 Bft) N-NW 347 ° 0 min 0,000 mm 0,0 UV-I 0 W/m² 16,3 °C 19,3 °C 1,6 km/h (1 Bft)
04.08.2017 23:20 19,2 °C 19,3 °C 83 % 1013,8 hPa 0,0 mm 2,2 km/h (1 Bft) N-NW 347 ° 0 min 0,000 mm 0,0 UV-I 0 W/m² 16,2 °C 19,2 °C 3,2 km/h (1 Bft)
04.08.2017 23:21 19,2 °C 19,2 °C 82 % 1013,9 hPa 0,0 mm 2,7 km/h (1 Bft) N-NW 347 ° 0 min 0,000 mm 0,0 UV-I 0 W/m² 16,0 °C 19,2 °C 4,8 km/h (1 Bft)
04.08.2017 23:22 19,2 °C 19,2 °C 82 % 1013,9 hPa 0,0 mm 2,2 km/h (1 Bft) N-NW 347 ° 0 min 0,000 mm 0,0 UV-I 0 W/m² 16,0 °C 19,2 °C 3,2 km/h (1 Bft)
04.08.2017 23:23 19,2 °C 19,2 °C 82 % 1013,9 hPa 0,0 mm 2,1 km/h (1 Bft) N-NW 347 ° 0 min 0,000 mm 0,0 UV-I 0 W/m² 16,0 °C 19,2 °C 3,2 km/h (1 Bft)
04.08.2017 23:24 19,2 °C 19,2 °C 82 % 1013,9 hPa 0,0 mm 1,6 km/h (1 Bft) N-NW 347 ° 0 min 0,000 mm 0,0 UV-I 0 W/m² 16,0 °C 19,2 °C 3,2 km/h (1 Bft)
04.08.2017 23:25 19,2 °C 19,2 °C 82 % 1013,8 hPa 0,0 mm 1,2 km/h (1 Bft) N-NW 347 ° 0 min 0,000 mm 0,0 UV-I 0 W/m² 16,0 °C 19,2 °C 1,6 km/h (1 Bft)
04.08.2017 23:26 19,2 °C 19,2 °C 81 % 1013,9 hPa 0,0 mm 1,0 km/h (0 Bft) N-NW 347 ° 0 min 0,000 mm 0,0 UV-I 0 W/m² 15,9 °C 19,2 °C 1,6 km/h (1 Bft)
04.08.2017 23:27 19,2 °C 19,2 °C 82 % 1013,9 hPa 0,0 mm 0,3 km/h (0 Bft) N-NW 347 ° 0 min 0,000 mm 0,0 UV-I 0 W/m² 16,0 °C 19,2 °C 1,6 km/h (1 Bft)
04.08.2017 23:28 19,2 °C 19,2 °C 82 % 1013,9 hPa 0,0 mm 0,0 km/h (0 Bft) N-NW 347 ° 0 min 0,000 mm 0,0 UV-I 0 W/m² 16,0 °C 19,2 °C 0,0 km/h (0 Bft)
04.08.2017 23:29 19,2 °C 19,2 °C 82 % 1013,9 hPa 0,0 mm 0,0 km/h (0 Bft) N-NW 347 ° 0 min 0,000 mm 0,0 UV-I 0 W/m² 16,0 °C 19,2 °C 0,0 km/h (0 Bft)
04.08.2017 23:30 19,1 °C 19,2 °C 82 % 1013,8 hPa 0,0 mm 0,0 km/h (0 Bft) N-NW 347 ° 0 min 0,000 mm 0,0 UV-I 0 W/m² 16,0 °C 19,1 °C 0,0 km/h (0 Bft)
04.08.2017 23:31 18,9 °C 19,1 °C 83 % 1013,9 hPa 0,0 mm 0,0 km/h (0 Bft) N-NW 347 ° 0 min 0,000 mm 0,0 UV-I 0 W/m² 15,9 °C 18,9 °C 0,0 km/h (0 Bft)
04.08.2017 23:32 18,9 °C 18,9 °C 83 % 1013,9 hPa 0,0 mm 0,0 km/h (0 Bft) N-NW 347 ° 0 min 0,000 mm 0,0 UV-I 0 W/m² 15,9 °C 18,9 °C 0,0 km/h (0 Bft)
04.08.2017 23:33 18,8 °C 18,9 °C 83 % 1013,9 hPa 0,0 mm 0,4 km/h (0 Bft) N-NW 347 ° 0 min 0,000 mm 0,0 UV-I 0 W/m² 15,8 °C 18,8 °C 1,6 km/h (1 Bft)
04.08.2017 23:34 18,9 °C 18,9 °C 82 % 1013,9 hPa 0,0 mm 1,9 km/h (1 Bft) N-NW 347 ° 0 min 0,000 mm 0,0 UV-I 0 W/m² 15,8 °C 18,9 °C 3,2 km/h (1 Bft)
04.08.2017 23:35 18,9 °C 18,9 °C 82 % 1013,9 hPa 0,0 mm 2,1 km/h (1 Bft) N-NW 347 ° 0 min 0,000 mm 0,0 UV-I 0 W/m² 15,8 °C 18,9 °C 3,2 km/h (1 Bft)
04.08.2017 23:36 18,9 °C 18,9 °C 83 % 1014,0 hPa 0,0 mm 1,1 km/h (1 Bft) N-NW 347 ° 0 min 0,000 mm 0,0 UV-I 0 W/m² 15,9 °C 18,9 °C 3,2 km/h (1 Bft)
04.08.2017 23:37 18,9 °C 18,9 °C 82 % 1013,9 hPa 0,0 mm 0,8 km/h (0 Bft) N-NW 347 ° 0 min 0,000 mm 0,0 UV-I 0 W/m² 15,8 °C 18,9 °C 1,6 km/h (1 Bft)
04.08.2017 23:38 18,8 °C 18,9 °C 83 % 1014,0 hPa 0,0 mm 0,0 km/h (0 Bft) N-NW 347 ° 0 min 0,000 mm 0,0 UV-I 0 W/m² 15,8 °C 18,8 °C 0,0 km/h (0 Bft)
04.08.2017 23:39 18,8 °C 18,8 °C 83 % 1014,0 hPa 0,0 mm 0,0 km/h (0 Bft) N-NW 347 ° 0 min 0,000 mm 0,0 UV-I 0 W/m² 15,8 °C 18,8 °C 0,0 km/h (0 Bft)
04.08.2017 23:40 18,8 °C 18,8 °C 83 % 1014,0 hPa 0,0 mm 0,8 km/h (0 Bft) N-NW 347 ° 0 min 0,000 mm 0,0 UV-I 0 W/m² 15,8 °C 18,8 °C 1,6 km/h (1 Bft)
04.08.2017 23:41 18,7 °C 18,8 °C 84 % 1013,9 hPa 0,0 mm 0,1 km/h (0 Bft) N-NW 347 ° 0 min 0,000 mm 0,0 UV-I 0 W/m² 15,9 °C 18,7 °C 1,6 km/h (1 Bft)
04.08.2017 23:43 18,7 °C 18,7 °C 85 % 1013,9 hPa 0,0 mm 0,0 km/h (0 Bft) N-NW 347 ° 0 min 0,000 mm 0,0 UV-I 0 W/m² 16,1 °C 18,7 °C 0,0 km/h (0 Bft)
04.08.2017 23:44 18,6 °C 18,7 °C 85 % 1013,9 hPa 0,0 mm 0,4 km/h (0 Bft) N-NW 347 ° 0 min 0,000 mm 0,0 UV-I 0 W/m² 16,0 °C 18,6 °C 1,6 km/h (1 Bft)
04.08.2017 23:45 18,6 °C 18,7 °C 84 % 1013,9 hPa 0,0 mm 0,1 km/h (0 Bft) N-NW 347 ° 0 min 0,000 mm 0,0 UV-I 0 W/m² 15,8 °C 18,6 °C 1,6 km/h (1 Bft)
04.08.2017 23:47 18,5 °C 18,6 °C 85 % 1013,9 hPa 0,0 mm 0,4 km/h (0 Bft) N-NW 347 ° 0 min 0,000 mm 0,0 UV-I 0 W/m² 15,9 °C 18,5 °C 1,6 km/h (1 Bft)
04.08.2017 23:48 18,5 °C 18,5 °C 85 % 1013,9 hPa 0,0 mm 2,1 km/h (1 Bft) N-NW 347 ° 0 min 0,000 mm 0,0 UV-I 0 W/m² 15,9 °C 18,5 °C 3,2 km/h (1 Bft)
04.08.2017 23:50 18,6 °C 18,6 °C 85 % 1013,8 hPa 0,0 mm 0,7 km/h (0 Bft) N-NW 347 ° 0 min 0,000 mm 0,0 UV-I 0 W/m² 16,0 °C 18,6 °C 3,2 km/h (1 Bft)
04.08.2017 23:51 18,6 °C 18,6 °C 85 % 1013,8 hPa 0,0 mm 0,0 km/h (0 Bft) N-NW 347 ° 0 min 0,000 mm 0,0 UV-I 0 W/m² 16,0 °C 18,6 °C 0,0 km/h (0 Bft)
04.08.2017 23:53 18,7 °C 18,7 °C 85 % 1013,8 hPa 0,0 mm 0,0 km/h (0 Bft) N-NW 347 ° 0 min 0,000 mm 0,0 UV-I 0 W/m² 16,1 °C 18,7 °C 0,0 km/h (0 Bft)
04.08.2017 23:54 18,6 °C 18,7 °C 85 % 1013,8 hPa 0,0 mm 0,0 km/h (0 Bft) N-NW 347 ° 0 min 0,000 mm 0,0 UV-I 0 W/m² 16,0 °C 18,6 °C 0,0 km/h (0 Bft)
04.08.2017 23:56 18,6 °C 18,6 °C 85 % 1013,7 hPa 0,0 mm 0,0 km/h (0 Bft) N-NW 347 ° 0 min 0,000 mm 0,0 UV-I 0 W/m² 16,0 °C 18,6 °C 0,0 km/h (0 Bft)
04.08.2017 23:57 18,6 °C 18,6 °C 85 % 1013,7 hPa 0,0 mm 0,0 km/h (0 Bft) N-NW 347 ° 0 min 0,000 mm 0,0 UV-I 0 W/m² 16,0 °C 18,6 °C 0,0 km/h (0 Bft)
04.08.2017 23:59 18,6 °C 18,6 °C 85 % 1013,8 hPa 0,0 mm 0,0 km/h (0 Bft) N-NW 347 ° 0 min 0,000 mm 0,0 UV-I 0 W/m² 16,0 °C 18,6 °C 0,0 km/h (0 Bft)
_ Min-Zeit 23:48 23:48 13:20 04:33 - 23:59 - - - - - - 23:37 23:48 23:59
Minimum _ 18,5 °C 18,5 °C 71 % 1010,8 hPa - 0,0 km/h (0 Bft) - - - - - - 15,8 °C 18,5 °C 0,0 km/h (0 Bft)
_ Max-Zeit 13:09 13:09 07:37 23:40 23:59 15:53 - - 16:06 12:01 13:04 11:24 11:26 13:09 15:53
Maximum _ 25,7 °C 25,7 °C 92 % 1014,0 hPa 0,0 mm 11,9 km/h
W-SW (2 Bft)
- - 1 min 0,356 mm 8,0 UV-I 1005 W/m² 20,9 °C 25,6 °C 17,7 km/h
W-SW (3 Bft)
Durchschnitt _ 22,0 °C 22,0 °C 81 % 1011,8 hPa #0,0 mm 2,7 km/h (1 Bft) W-NW - #3:58 h #2,362 mm 2,3 UV-I 135 W/m² 18,5 °C 22,0 °C 4,6 km/h (1 Bft)